# Wetter Temperatur Luftdruck Luftfeuchtigkeit Sichtweite Windgeschwindigkeit Windrichtung Zeit
1 Clouds 24 1004 83 10000 3.6 330 22:25 24.01.2020
2 Clouds 24 1003 83 10000 2.1 350 21:43 24.01.2020
3 Rain 24 1003 83 10000 1 90 21:21 24.01.2020
4 Rain 24 1003 83 7000 4.6 190 20:57 24.01.2020
5 Rain 24 1003 83 7000 4.6 190 20:39 24.01.2020
6 Rain 24 1003 83 7000 4.6 190 20:20 24.01.2020
7 Clouds 26 1003 83 10000 6.7 170 19:57 24.01.2020
8 Clouds 26 1003 83 10000 6.7 170 19:57 24.01.2020
9 Clouds 26 1003 83 10000 6.7 170 19:38 24.01.2020
10 Clouds 26 1003 83 10000 6.7 170 19:38 24.01.2020
11 Clouds 26 1003 83 10000 6.7 170 19:20 24.01.2020
12 Clouds 26 1003 78 10000 5.1 160 18:43 24.01.2020
13 Clouds 26 1003 78 10000 5.1 160 18:24 24.01.2020
14 Clouds 26 1003 83 10000 4.6 150 17:54 24.01.2020
15 Clouds 26 1003 83 10000 4.6 150 17:36 24.01.2020
16 Clouds 26 1003 83 10000 4.6 150 17:18 24.01.2020
17 Clouds 26 1004 83 10000 3.6 140 16:39 24.01.2020
18 Clouds 26 1004 83 10000 3.6 140 16:20 24.01.2020
19 Clouds 26 1004 78 10000 1.5 80 15:43 24.01.2020
20 Clouds 26 1004 78 10000 1.5 80 15:22 24.01.2020
21 Clouds 25 1004 83 10000 1 50 14:57 24.01.2020
22 Clouds 25 1004 83 10000 1 50 14:38 24.01.2020
23 Clouds 25 1004 83 10000 1 50 14:38 24.01.2020
24 Clouds 25 1004 83 10000 1 50 14:20 24.01.2020
25 Clouds 24 1004 88 10000 1.5 100 13:42 24.01.2020
26 Clouds 24 1004 88 10000 1.5 100 13:23 24.01.2020
27 Rain 23 1004 88 8000 0.5 110 12:44 24.01.2020
28 Rain 23 1004 88 8000 0.5 110 12:23 24.01.2020
29 Rain 22 1004 94 9000 2.6 190 11:57 24.01.2020
30 Rain 22 1004 94 9000 2.6 190 11:39 24.01.2020
31 Rain 22 1004 94 9000 2.6 190 11:18 24.01.2020
32 Rain 22 1003 94 7000 1.5 140 10:42 24.01.2020
33 Rain 22 1003 94 7000 1.5 140 10:42 24.01.2020
34 Rain 22 1003 94 7000 1.5 140 10:21 24.01.2020
35 Rain 22 1003 94 8000 1 150 09:55 24.01.2020
36 Rain 22 1003 94 8000 1 150 09:37 24.01.2020
37 Rain 22 1003 94 8000 1 150 09:18 24.01.2020
38 Rain 22 1003 94 9000 1.73 43 08:39 24.01.2020
39 Rain 22 1003 94 9000 1.41 129 08:19 24.01.2020
40 Rain 23 1004 88 8000 1 360 07:48 24.01.2020
41 Rain 23 1004 88 8000 1 360 07:22 24.01.2020
42 Clouds 23 1004 88 10000 0.5 100 06:45 24.01.2020
43 Clouds 23 1004 88 10000 0.5 100 06:24 24.01.2020
44 Clouds 23 1005 88 10000 2.1 140 05:37 24.01.2020
45 Clouds 23 1006 83 10000 1 120 03:47 24.01.2020
46 Clouds 23 1006 83 10000 1 170 02:41 24.01.2020
47 Clouds 23 1006 83 10000 1 170 02:22 24.01.2020
48 Clouds 23 1006 83 10000 2.1 40 01:39 24.01.2020
49 Rain 23 1006 78 9000 3.6 140 00:52 24.01.2020
50 Rain 23 1006 78 9000 3.6 140 00:19 24.01.2020
51 Rain 23 1006 88 9000 4.1 180 23:45 23.01.2020
52 Rain 23 1006 88 9000 4.1 180 23:26 23.01.2020
53 Rain 23 1006 94 9000 4.1 170 22:59 23.01.2020
54 Rain 23 1006 94 9000 4.1 170 22:37 23.01.2020
55 Rain 23 1006 94 9000 4.1 170 22:18 23.01.2020
56 Clouds 24 1006 88 10000 3.6 160 21:55 23.01.2020
57 Clouds 24 1006 88 10000 3.6 160 21:37 23.01.2020
58 Clouds 24 1006 88 10000 3.6 160 21:19 23.01.2020
59 Rain 24 1006 94 5000 3.1 160 20:56 23.01.2020
60 Rain 24 1006 94 5000 3.1 160 20:37 23.01.2020
61 Rain 24 1006 94 5000 3.1 160 20:19 23.01.2020
62 Rain 24 1007 88 5000 3.6 160 19:44 23.01.2020
63 Rain 24 1007 88 5000 3.6 160 19:24 23.01.2020
64 Rain 25 1007 88 6000 4.1 160 18:59 23.01.2020
65 Rain 25 1007 88 6000 4.1 160 18:40 23.01.2020
66 Rain 25 1007 88 6000 4.1 160 18:20 23.01.2020
67 Rain 25 1007 88 9000 3.1 150 17:58 23.01.2020
68 Rain 25 1007 88 9000 3.1 150 17:39 23.01.2020
69 Rain 25 1007 88 9000 3.1 150 17:19 23.01.2020
70 Clouds 26 1008 78 10000 1.5 350 16:55 23.01.2020
71 Clouds 26 1008 78 10000 1.5 350 16:36 23.01.2020
72 Rain 25 1008 83 8000 1 0 16:18 23.01.2020
73 Rain 25 1008 83 8000 1 0 15:54 23.01.2020
74 Rain 25 1008 83 8000 1 0 15:36 23.01.2020
75 Rain 25 1008 83 8000 1 0 15:18 23.01.2020
76 Rain 25 1008 83 4500 4.1 10 14:54 23.01.2020
77 Rain 25 1008 83 10000 1.5 360 14:36 23.01.2020
78 Clouds 25 1008 88 10000 3.1 20 14:18 23.01.2020
79 Clouds 25 1008 88 10000 3.1 20 13:38 23.01.2020
80 Clouds 25 1008 88 10000 3.1 20 13:19 23.01.2020
81 Clouds 25 1008 88 10000 3.1 30 12:47 23.01.2020
82 Clouds 25 1008 88 10000 3.1 30 12:25 23.01.2020
83 Clouds 25 1008 88 10000 3.1 30 12:25 23.01.2020
84 Clouds 24 1008 94 10000 2.1 20 11:58 23.01.2020
85 Clouds 24 1008 94 10000 2.1 20 11:38 23.01.2020
86 Clouds 24 1008 94 10000 2.1 20 11:19 23.01.2020
87 Clouds 24 1008 88 10000 1.5 360 10:44 23.01.2020
88 Clouds 24 1008 88 10000 1.5 360 10:22 23.01.2020
89 Clouds 24 1007 88 10000 2.6 350 09:59 23.01.2020
90 Clouds 24 1007 88 10000 2.6 350 09:37 23.01.2020
91 Clouds 24 1007 88 10000 2.6 350 09:19 23.01.2020
92 Clouds 24 1007 94 10000 1 50 08:41 23.01.2020
93 Clouds 24 1007 94 10000 1 50 08:22 23.01.2020
94 Clouds 24 1008 88 10000 1 180 07:45 23.01.2020
95 Clouds 24 1008 88 10000 1 180 07:26 23.01.2020
96 Clouds 24 1007 94 10000 1 130 06:53 23.01.2020
97 Clouds 24 1007 94 10000 1 130 06:23 23.01.2020
98 Clouds 24 1008 88 10000 1.5 160 05:57 23.01.2020
99 Clouds 24 1009 83 10000 1.5 150 04:24 23.01.2020
100 Clouds 25 1010 83 10000 1.5 130 02:34 23.01.2020
101 Clouds 25 1010 83 10000 4.1 140 01:41 23.01.2020
102 Clouds 25 1010 88 10000 5.1 150 00:28 23.01.2020
103 Clouds 26 1008 83 10000 4.6 160 23:48 22.01.2020
104 Clouds 26 1008 83 10000 4.6 160 23:30 22.01.2020
105 Clouds 26 1008 78 10000 6.2 160 22:59 22.01.2020
106 Clouds 26 1008 78 10000 6.2 160 22:41 22.01.2020
107 Clouds 26 1008 78 10000 6.2 160 22:23 22.01.2020
108 Clouds 27 1007 78 10000 6.7 160 21:42 22.01.2020
109 Clouds 27 1007 78 10000 6.7 160 21:22 22.01.2020
110 Clouds 28 1007 74 10000 6.7 160 20:59 22.01.2020
111 Clouds 28 1007 74 10000 6.7 160 20:41 22.01.2020
112 Clouds 28 1007 74 10000 6.7 160 20:23 22.01.2020
113 Clouds 28 1008 74 10000 6.7 160 19:57 22.01.2020
114 Clouds 28 1008 74 10000 6.7 160 19:39 22.01.2020
115 Clouds 28 1008 74 10000 6.7 160 19:19 22.01.2020
116 Clouds 29 1008 74 10000 5.7 160 18:57 22.01.2020
117 Clouds 29 1008 74 10000 5.7 160 18:38 22.01.2020
118 Clouds 29 1008 74 10000 5.7 160 18:20 22.01.2020
119 Clouds 29 1009 74 10000 6.2 160 17:55 22.01.2020
120 Clouds 29 1009 74 10000 6.2 160 17:37 22.01.2020
121 Clouds 29 1009 74 10000 6.2 160 17:19 22.01.2020
122 Clouds 28 1009 74 10000 6.2 160 16:43 22.01.2020
123 Clouds 28 1009 74 10000 6.2 160 16:23 22.01.2020
124 Clouds 28 1010 69 10000 5.1 150 15:59 22.01.2020
125 Clouds 28 1010 69 10000 5.1 150 15:40 22.01.2020
126 Clouds 28 1010 69 10000 5.1 150 15:22 22.01.2020
127 Clouds 28 1010 69 10000 3.1 140 14:57 22.01.2020
128 Clouds 28 1010 69 10000 3.1 140 14:37 22.01.2020
129 Clouds 28 1010 69 10000 3.1 140 14:18 22.01.2020
130 Clouds 27 1010 69 10000 1.5 120 13:55 22.01.2020
131 Clouds 26 1010 78 10000 2.1 20 13:36 22.01.2020
132 Clouds 26 1010 78 10000 2.1 20 13:36 22.01.2020
133 Clouds 26 1010 78 10000 2.1 20 13:18 22.01.2020
134 Clouds 25 1010 83 10000 2.6 10 12:55 22.01.2020
135 Clouds 25 1010 83 10000 2.6 10 12:37 22.01.2020
136 Clouds 25 1010 83 10000 2.6 10 12:18 22.01.2020
137 Clouds 23 1009 88 10000 2.6 40 11:56 22.01.2020
138 Clouds 23 1009 88 10000 2.6 40 11:37 22.01.2020
139 Clouds 23 1009 88 10000 2.6 40 11:18 22.01.2020
140 Clouds 21 1009 88 10000 2.1 360 10:44 22.01.2020
141 Clouds 21 1009 88 10000 3.1 360 10:21 22.01.2020
142 Clouds 22 1008 88 10000 2.6 20 09:44 22.01.2020
143 Clouds 22 1008 88 10000 2.6 20 09:26 22.01.2020
144 Clear 21 1008 88 10000 2.6 360 08:59 22.01.2020
145 Clear 21 1008 88 10000 2.6 360 08:40 22.01.2020
146 Clouds 21 1008 88 10000 2.6 360 08:21 22.01.2020
147 Clouds 22 1008 78 10000 2.1 360 07:58 22.01.2020
148 Clouds 22 1008 78 10000 2.1 360 07:40 22.01.2020
149 Clouds 22 1008 78 10000 2.1 360 07:21 22.01.2020
150 Clouds 22 1009 78 10000 1 150 06:31 22.01.2020
151 Clouds 22 1010 83 10000 1.5 80 05:42 22.01.2020
152 Clouds 23 1011 78 10000 1 40 04:23 22.01.2020
153 Clouds 23 1011 78 10000 1 40 03:26 22.01.2020
154 Clouds 24 1011 78 10000 2.1 30 02:32 22.01.2020
155 Clouds 25 1010 78 10000 3.1 140 00:46 22.01.2020
156 Clouds 25 1010 78 10000 3.1 140 00:27 22.01.2020
157 Clouds 25 1010 83 10000 3.6 140 23:55 21.01.2020
158 Clouds 25 1010 83 10000 3.6 140 23:36 21.01.2020
159 Clouds 25 1010 83 10000 3.6 140 23:18 21.01.2020
160 Clouds 26 1009 78 10000 4.1 160 22:40 21.01.2020
161 Clouds 26 1009 78 10000 4.1 160 22:20 21.01.2020
162 Clouds 26 1009 78 10000 4.1 160 22:20 21.01.2020
163 Clouds 26 1009 74 10000 5.7 160 21:57 21.01.2020
164 Clouds 26 1009 74 10000 5.7 160 21:38 21.01.2020
165 Clouds 27 1008 78 10000 5.1 160 21:20 21.01.2020
166 Clouds 27 1008 78 10000 5.1 160 20:56 21.01.2020
167 Clouds 27 1008 78 10000 5.1 160 20:37 21.01.2020
168 Clouds 27 1008 78 10000 5.1 160 20:18 21.01.2020
169 Clouds 27 1008 78 10000 4.6 150 19:56 21.01.2020
170 Clouds 27 1008 78 10000 4.6 150 19:37 21.01.2020
171 Clouds 27 1008 78 10000 4.6 150 19:19 21.01.2020
172 Clouds 28 1009 74 10000 5.1 150 18:55 21.01.2020
173 Clouds 28 1009 74 10000 5.1 150 18:37 21.01.2020
174 Clouds 28 1009 65 10000 5.1 160 18:18 21.01.2020
175 Clouds 28 1009 65 10000 5.1 160 17:44 21.01.2020
176 Clouds 28 1009 65 10000 5.1 160 17:20 21.01.2020
177 Clouds 28 1010 74 10000 3.6 160 16:58 21.01.2020
178 Clouds 28 1010 74 10000 3.6 160 16:37 21.01.2020
179 Clouds 28 1010 74 10000 3.6 160 16:19 21.01.2020
180 Clouds 27 1010 78 10000 2.1 360 15:42 21.01.2020
181 Clouds 27 1010 78 10000 2.1 360 15:21 21.01.2020
182 Clouds 26 1011 78 10000 1.5 20 14:59 21.01.2020
183 Clouds 26 1011 78 10000 1.5 20 14:38 21.01.2020
184 Clouds 26 1011 78 10000 1.5 20 14:19 21.01.2020
185 Clouds 25 1011 83 10000 2.1 350 13:40 21.01.2020
186 Clouds 25 1011 83 10000 2.1 350 13:19 21.01.2020
187 Clouds 24 1011 83 10000 2.6 20 12:44 21.01.2020
188 Clouds 24 1011 83 10000 2.6 20 12:25 21.01.2020
189 Clouds 23 1011 83 10000 3.6 10 11:57 21.01.2020
190 Clouds 23 1011 83 10000 3.6 10 11:39 21.01.2020
191 Clouds 23 1011 83 10000 3.6 10 11:21 21.01.2020
192 Clouds 23 1009 73 10000 1.5 260 10:55 21.01.2020
193 Clouds 23 1009 73 10000 1.5 260 10:37 21.01.2020
194 Clouds 23 1009 73 10000 1.5 260 10:18 21.01.2020
195 Clouds 22 1009 83 10000 2.1 50 09:41 21.01.2020
196 Clouds 22 1009 83 10000 2.1 50 09:22 21.01.2020
197 Clouds 22 1009 83 10000 2.1 150 08:49 21.01.2020
198 Clouds 22 1009 83 10000 2.1 150 08:29 21.01.2020
199 Clouds 22 1009 83 10000 1 160 07:59 21.01.2020
200 Clouds 22 1009 83 10000 1 160 07:39 21.01.2020
201 Clouds 22 1009 83 10000 1 160 07:21 21.01.2020
202 Clouds 23 1010 88 10000 4.1 100 06:48 21.01.2020
203 Clouds 23 1010 88 10000 4.1 100 06:26 21.01.2020
204 Clouds 23 1011 83 10000 2.1 140 05:42 21.01.2020
205 Clouds 23 1011 88 10000 3.6 150 04:39 21.01.2020
206 Rain 23 1012 78 10000 2.6 160 02:56 21.01.2020
207 Rain 23 1012 78 10000 2.6 170 01:53 21.01.2020
208 Rain 23 1012 78 10000 2.6 170 01:18 21.01.2020
209 Rain 24 1012 78 10000 3.1 170 00:36 21.01.2020
210 Clouds 25 1011 69 10000 4.1 170 23:59 20.01.2020
211 Clouds 25 1011 69 10000 4.1 170 23:38 20.01.2020
212 Clouds 26 1011 73 10000 4.6 160 23:19 20.01.2020
213 Clouds 26 1011 73 10000 4.6 160 22:56 20.01.2020
214 Clouds 26 1011 73 10000 4.6 160 22:37 20.01.2020
215 Clouds 26 1011 73 10000 4.6 160 22:19 20.01.2020
216 Clouds 26 1011 73 10000 4.6 160 21:57 20.01.2020
217 Clouds 26 1011 73 10000 4.6 160 21:37 20.01.2020
218 Clouds 26 1011 73 10000 4.6 160 21:19 20.01.2020
219 Clouds 26 1011 69 10000 5.7 160 20:55 20.01.2020
220 Clouds 26 1011 69 10000 5.7 160 20:36 20.01.2020
221 Clouds 26 1011 69 10000 5.7 160 20:18 20.01.2020
222 Clouds 27 1011 69 10000 5.1 160 19:56 20.01.2020
223 Clouds 27 1011 69 10000 5.1 160 19:37 20.01.2020
224 Clouds 27 1011 69 10000 5.1 160 19:18 20.01.2020
225 Clouds 27 1012 69 10000 5.1 160 18:43 20.01.2020
226 Clouds 27 1012 69 10000 5.1 160 18:22 20.01.2020
227 Clouds 27 1012 69 10000 4.1 160 17:41 20.01.2020
228 Clouds 27 1012 69 10000 4.1 160 17:20 20.01.2020
229 Clouds 27 1013 57 10000 5.1 160 17:20 20.01.2020
230 Clouds 27 1013 57 10000 5.1 160 16:59 20.01.2020
231 Clouds 27 1013 57 10000 5.1 160 16:37 20.01.2020
232 Clouds 27 1013 57 10000 5.1 160 16:18 20.01.2020
233 Clouds 27 1013 57 10000 5.1 160 16:18 20.01.2020
234 Clouds 27 1014 69 10000 5.1 150 15:56 20.01.2020
235 Clouds 27 1014 69 10000 5.1 150 15:38 20.01.2020
236 Clouds 26 1014 78 10000 3.6 140 15:20 20.01.2020
237 Clouds 26 1014 78 10000 3.6 140 14:41 20.01.2020
238 Clouds 26 1014 78 10000 3.6 140 14:22 20.01.2020
239 Clouds 26 1014 73 10000 2.1 140 13:58 20.01.2020
240 Clouds 26 1014 73 10000 2.1 140 13:40 20.01.2020
241 Clouds 26 1014 73 10000 2.1 140 13:21 20.01.2020
242 Clouds 25 1014 73 10000 1 100 12:46 20.01.2020
243 Clouds 25 1014 73 10000 1 100 12:28 20.01.2020
244 Clouds 24 1014 83 10000 1 130 11:58 20.01.2020
245 Clouds 24 1014 83 10000 1 130 11:39 20.01.2020
246 Clouds 24 1014 83 10000 1 130 11:20 20.01.2020
247 Clouds 23 1013 78 10000 1.38 39 10:48 20.01.2020
248 Clouds 23 1013 78 10000 1.38 39 10:22 20.01.2020
249 Clouds 22 1013 83 10000 6.2 170 09:57 20.01.2020
250 Clouds 22 1013 83 10000 6.2 170 09:39 20.01.2020
251 Clouds 22 1013 83 10000 6.2 170 09:20 20.01.2020
252 Clouds 23 1013 78 10000 1 160 08:44 20.01.2020
253 Clouds 23 1013 78 10000 1 160 08:26 20.01.2020
254 Clouds 23 1013 78 10000 1.5 100 07:45 20.01.2020
255 Clouds 23 1013 78 10000 1.5 100 07:25 20.01.2020
256 Clouds 23 1013 78 10000 2.1 150 06:54 20.01.2020
257 Clouds 23 1013 78 10000 2.1 150 06:28 20.01.2020
258 Clouds 23 1014 78 10000 2.1 50 05:43 20.01.2020
259 Clouds 23 1014 78 10000 2.1 50 05:22 20.01.2020
260 Clouds 24 1015 78 10000 2.1 100 04:47 20.01.2020
261 Clouds 24 1016 83 10000 3.1 110 02:58 20.01.2020
262 Clouds 25 1015 73 10000 3.1 120 01:55 20.01.2020
263 Clouds 25 1015 73 10000 3.1 120 01:37 20.01.2020
264 Clouds 25 1015 73 10000 4.1 140 00:45 20.01.2020
265 Clouds 25 1015 73 10000 4.1 140 00:24 20.01.2020
266 Clouds 25 1015 73 10000 5.7 150 23:39 19.01.2020
267 Clouds 25 1015 73 10000 5.7 150 23:20 19.01.2020
268 Clouds 25 1015 73 10000 5.7 150 23:20 19.01.2020
269 Clouds 26 1014 73 10000 5.1 170 22:57 19.01.2020
270 Clouds 26 1014 73 10000 5.1 170 22:39 19.01.2020
271 Clouds 26 1014 73 10000 5.1 170 22:39 19.01.2020
272 Clouds 26 1014 73 10000 5.1 170 22:20 19.01.2020
273 Clouds 26 1014 73 10000 5.1 170 22:20 19.01.2020
274 Clouds 27 1014 78 10000 5.1 160 21:57 19.01.2020
275 Clouds 27 1014 78 10000 5.1 160 21:39 19.01.2020
276 Clouds 27 1014 78 10000 5.1 160 21:20 19.01.2020
277 Clouds 27 1014 78 10000 5.7 160 20:57 19.01.2020
278 Clouds 27 1014 78 10000 5.7 160 20:39 19.01.2020
279 Clouds 27 1014 78 10000 5.7 160 20:21 19.01.2020
280 Clouds 28 1015 74 10000 6.2 160 19:57 19.01.2020
281 Clouds 28 1015 74 10000 6.2 160 19:39 19.01.2020
282 Clouds 28 1015 74 10000 6.2 160 19:21 19.01.2020
283 Clouds 28 1015 74 10000 6.2 160 18:59 19.01.2020
284 Clouds 28 1015 74 10000 6.2 160 18:41 19.01.2020
285 Clouds 28 1015 74 10000 6.2 160 18:21 19.01.2020
286 Clouds 28 1016 69 10000 5.1 170 17:58 19.01.2020
287 Clouds 28 1016 69 10000 5.1 170 17:40 19.01.2020
288 Clouds 28 1016 69 10000 5.1 170 17:21 19.01.2020
289 Clouds 28 1016 69 10000 5.7 160 16:59 19.01.2020
290 Clouds 28 1016 69 10000 5.7 160 16:40 19.01.2020
291 Clouds 28 1016 69 10000 5.7 160 16:40 19.01.2020
292 Clouds 28 1016 69 10000 5.7 160 16:22 19.01.2020
293 Clouds 27 1017 69 10000 4.1 160 15:59 19.01.2020
294 Clouds 27 1017 69 10000 4.1 160 15:40 19.01.2020
295 Clouds 27 1017 69 10000 4.1 160 15:21 19.01.2020
296 Clouds 27 1017 65 10000 3.6 160 14:59 19.01.2020
297 Clouds 27 1017 65 10000 3.6 160 14:40 19.01.2020
298 Clouds 27 1017 65 10000 3.6 160 14:19 19.01.2020
299 Clouds 26 1017 73 10000 1 130 13:58 19.01.2020
300 Clouds 26 1017 73 10000 1 130 13:38 19.01.2020
301 Clouds 26 1017 73 10000 1 130 13:20 19.01.2020
302 Clouds 24 1017 78 10000 1 40 12:58 19.01.2020
303 Clouds 24 1017 78 10000 1 40 12:40 19.01.2020
304 Clouds 24 1017 78 10000 1 40 12:21 19.01.2020
305 Clouds 23 1017 73 10000 1 40 11:56 19.01.2020
306 Clouds 23 1017 73 10000 1 40 11:37 19.01.2020
307 Clouds 23 1017 73 10000 1 40 11:18 19.01.2020
308 Clouds 23 1016 73 10000 1.5 80 10:39 19.01.2020
309 Clouds 23 1016 73 10000 1.5 80 10:39 19.01.2020
310 Clouds 23 1016 73 10000 1.5 80 10:20 19.01.2020
311 Clouds 23 1016 73 10000 1.5 100 09:57 19.01.2020
312 Clouds 23 1016 73 10000 1.5 100 09:57 19.01.2020
313 Clouds 23 1016 73 10000 1.5 100 09:38 19.01.2020
314 Clouds 23 1016 73 10000 1.5 100 09:19 19.01.2020
315 Clouds 23 1016 73 10000 1.5 80 08:55 19.01.2020
316 Clouds 23 1016 73 10000 1.5 80 08:32 19.01.2020
317 Clouds 23 1016 73 10000 1.5 60 07:55 19.01.2020
318 Clouds 23 1016 73 10000 1.5 60 07:29 19.01.2020
319 Clouds 23 1016 78 10000 1 90 06:55 19.01.2020
320 Clouds 23 1016 78 10000 1 90 06:22 19.01.2020
321 Clouds 23 1018 83 10000 2.6 30 03:58 19.01.2020
322 Clouds 24 1018 78 10000 2.1 50 02:34 19.01.2020
323 Clouds 24 1018 78 10000 1 60 01:42 19.01.2020
324 Clouds 24 1018 78 10000 1 60 01:20 19.01.2020
325 Clouds 24 1018 69 10000 3.6 110 00:44 19.01.2020
326 Clouds 25 1018 69 10000 3.6 120 00:21 19.01.2020
327 Clouds 25 1018 69 10000 3.6 120 23:54 18.01.2020
328 Clouds 25 1018 69 10000 3.6 120 23:36 18.01.2020
329 Clouds 25 1018 69 10000 3.6 120 23:18 18.01.2020
330 Clouds 25 1017 73 10000 3.1 140 22:41 18.01.2020
331 Clouds 25 1017 73 10000 3.1 140 22:23 18.01.2020
332 Clouds 25 1018 73 10000 4.6 160 21:58 18.01.2020
333 Clouds 25 1018 73 10000 4.6 160 21:39 18.01.2020
334 Clouds 25 1018 73 10000 5.1 170 21:20 18.01.2020
335 Clouds 25 1018 73 10000 5.1 170 20:57 18.01.2020
336 Clouds 25 1018 73 10000 5.1 170 20:39 18.01.2020
337 Clouds 25 1018 73 10000 5.1 170 20:19 18.01.2020
338 Clouds 25 1018 73 10000 4.1 170 19:43 18.01.2020
339 Clouds 25 1018 73 10000 4.1 170 19:24 18.01.2020
340 Clouds 25 1018 83 10000 2.1 20 18:54 18.01.2020
341 Clouds 25 1018 83 10000 2.1 20 18:36 18.01.2020
342 Clouds 25 1018 83 10000 2.1 20 18:18 18.01.2020
343 Clouds 25 1019 78 7000 1 20 17:41 18.01.2020
344 Clouds 25 1019 78 7000 1 20 17:21 18.01.2020
345 Clouds 24 1019 88 10000 2.6 340 16:57 18.01.2020
346 Clouds 24 1019 88 10000 2.6 340 16:38 18.01.2020
347 Clouds 24 1019 83 10000 1.5 30 16:20 18.01.2020
348 Clouds 24 1019 83 10000 1.5 30 15:56 18.01.2020
349 Clouds 24 1019 83 10000 1.5 30 15:38 18.01.2020
350 Clouds 24 1019 83 10000 1.5 30 15:20 18.01.2020
351 Clouds 24 1020 83 10000 1.5 90 14:41 18.01.2020
352 Clouds 24 1020 83 10000 1.5 90 14:19 18.01.2020
353 Clouds 23 1020 88 10000 2.1 20 13:57 18.01.2020
354 Clouds 23 1020 88 10000 2.1 20 13:37 18.01.2020
355 Clouds 23 1020 88 10000 2.1 20 13:18 18.01.2020
356 Clouds 23 1020 83 10000 1.5 360 12:43 18.01.2020
357 Clouds 23 1020 83 10000 1.5 360 12:22 18.01.2020
358 Clouds 22 1020 88 10000 1.5 10 11:58 18.01.2020
359 Clouds 22 1020 88 10000 1.5 10 11:40 18.01.2020
360 Clouds 22 1020 88 10000 1.5 10 11:20 18.01.2020
361 Clouds 21 1019 94 10000 1 300 10:43 18.01.2020
362 Clouds 21 1019 94 10000 1 300 10:22 18.01.2020
363 Mist 22 1019 94 5000 2.1 320 09:57 18.01.2020
364 Drizzle 22 1018 83 4000 1 0 09:39 18.01.2020
365 Drizzle 22 1018 83 4000 1 0 09:19 18.01.2020
366 Clouds 21 1018 94 10000 1 230 08:42 18.01.2020
367 Clouds 21 1018 94 10000 1 230 08:20 18.01.2020
368 Clouds 21 1018 94 10000 1 190 07:58 18.01.2020
369 Clouds 21 1018 94 10000 1 190 07:37 18.01.2020
370 Drizzle 21 1019 94 3500 4.6 150 06:52 18.01.2020
371 Drizzle 21 1019 94 3500 4.6 150 06:33 18.01.2020
372 Drizzle 22 1019 94 4000 1.5 130 05:49 18.01.2020
373 Drizzle 22 1020 88 7000 3.1 160 04:25 18.01.2020
374 Drizzle 22 1020 88 5000 3.6 170 02:34 18.01.2020
375 Rain 23 1019 78 7000 4.1 210 01:40 18.01.2020
376 Rain 24 1019 78 8000 3.6 210 00:39 18.01.2020
377 Rain 24 1019 78 8000 3.6 210 00:20 18.01.2020
378 Clouds 24 1018 73 8000 4.1 150 23:58 17.01.2020
379 Clouds 24 1018 73 8000 4.1 150 23:39 17.01.2020
380 Clouds 24 1018 73 8000 4.1 150 23:18 17.01.2020
381 Clouds 25 1018 73 6000 5.7 190 22:41 17.01.2020
382 Clouds 25 1018 73 6000 5.7 190 22:20 17.01.2020
383 Rain 25 1017 83 6000 7.2 200 21:56 17.01.2020
384 Rain 25 1017 83 6000 7.2 200 21:37 17.01.2020
385 Rain 25 1017 83 6000 7.2 200 21:19 17.01.2020
386 Rain 25 1017 69 8000 4.1 190 20:43 17.01.2020
387 Rain 25 1017 69 8000 4.1 190 20:21 17.01.2020
388 Rain 24 1017 94 4000 5.7 190 19:58 17.01.2020
389 Rain 24 1017 94 4000 5.7 190 19:39 17.01.2020
390 Rain 24 1017 94 4000 5.7 190 19:20 17.01.2020
391 Rain 24 1017 88 3000 7.7 200 18:58 17.01.2020
392 Rain 24 1017 88 3000 7.7 200 18:40 17.01.2020
393 Rain 24 1017 88 3000 7.7 200 18:21 17.01.2020
394 Rain 24 1016 94 4000 7.2 190 17:40 17.01.2020
395 Rain 24 1016 94 4000 7.2 190 17:22 17.01.2020
396 Drizzle 25 1016 94 2000 5.7 190 16:57 17.01.2020
397 Drizzle 25 1016 94 2000 5.7 190 16:39 17.01.2020
398 Drizzle 25 1016 94 2000 5.7 190 16:19 17.01.2020
399 Rain 24 1017 94 2000 2.6 200 15:45 17.01.2020
400 Rain 24 1017 94 2000 2.6 200 15:26 17.01.2020
401 Rain 25 1016 88 4000 4.1 210 14:54 17.01.2020
402 Rain 25 1016 88 4000 4.1 210 14:36 17.01.2020
403 Rain 25 1016 88 4000 4.1 210 14:18 17.01.2020
404 Drizzle 25 1016 94 4500 3.6 190 13:38 17.01.2020
405 Drizzle 25 1016 94 4500 3.6 190 13:19 17.01.2020
406 Rain 25 1015 88 9000 4.1 160 12:44 17.01.2020
407 Rain 25 1015 88 9000 4.1 160 12:22 17.01.2020
408 Rain 24 1015 88 3500 6.7 180 11:40 17.01.2020
409 Rain 24 1015 88 3500 6.7 180 11:19 17.01.2020
410 Rain 25 1014 94 4000 5.7 150 10:45 17.01.2020
411 Rain 25 1014 94 4000 5.7 150 10:23 17.01.2020
412 Drizzle 26 1013 88 4000 7.7 170 09:59 17.01.2020
413 Clouds 26 1013 88 10000 3.6 190 09:41 17.01.2020
414 Clouds 26 1013 88 10000 3.6 190 09:20 17.01.2020
415 Clouds 26 1012 88 10000 3.6 170 08:46 17.01.2020
416 Clouds 26 1012 88 10000 3.6 170 08:26 17.01.2020
417 Clouds 27 1012 78 10000 5.1 200 07:56 17.01.2020
418 Clouds 27 1012 78 10000 5.1 200 07:36 17.01.2020
419 Clouds 27 1012 78 10000 5.1 200 07:18 17.01.2020
420 Clouds 28 1012 78 10000 7.2 200 06:43 17.01.2020
421 Clouds 28 1013 83 10000 6.2 210 05:59 17.01.2020
422 Rain 27 1014 83 0 4.26 244 04:25 17.01.2020
423 Rain 27 1014 83 0 4.26 244 02:55 17.01.2020
424 Rain 27 1014 83 0 4.26 244 02:28 17.01.2020
425 Clouds 28 1013 80 0 2.4 227 01:32 17.01.2020
426 Clouds 28 1013 81 0 2.58 234 00:58 17.01.2020
427 Clouds 31 1010 66 10000 3.1 150 00:29 17.01.2020
428 Clouds 30 1010 66 10000 3.1 150 23:54 16.01.2020
429 Clouds 30 1010 66 10000 3.1 150 23:36 16.01.2020
430 Clouds 30 1010 66 10000 3.1 150 23:18 16.01.2020
431 Clouds 32 1009 78 10000 5.1 140 22:40 16.01.2020
432 Clouds 32 1009 78 10000 5.1 140 22:21 16.01.2020
433 Rain 33 1008 66 10000 5.1 150 21:56 16.01.2020
434 Rain 33 1008 66 10000 5.1 150 21:37 16.01.2020
435 Rain 34 1008 66 10000 5.1 150 21:18 16.01.2020
436 Rain 35 1008 66 10000 5.7 140 20:56 16.01.2020
437 Rain 35 1008 66 10000 5.7 140 20:37 16.01.2020
438 Rain 35 1008 66 10000 5.7 140 20:18 16.01.2020
439 Clouds 35 1008 66 10000 6.2 150 19:55 16.01.2020
440 Clouds 35 1008 66 10000 6.2 150 19:36 16.01.2020
441 Clouds 35 1008 66 10000 6.2 150 19:18 16.01.2020
442 Clouds 34 1009 70 10000 5.7 150 18:55 16.01.2020
443 Clouds 34 1009 70 10000 5.7 150 18:36 16.01.2020
444 Clouds 34 1009 70 10000 5.7 150 18:18 16.01.2020
445 Clouds 34 1009 70 10000 6.2 150 17:41 16.01.2020
446 Clouds 34 1009 70 10000 6.2 150 17:41 16.01.2020
447 Clouds 35 1009 70 10000 6.2 150 17:22 16.01.2020
448 Clouds 35 1009 66 10000 2.6 120 16:57 16.01.2020
449 Clouds 36 1009 63 10000 2.1 10 16:38 16.01.2020
450 Clouds 36 1009 63 10000 2.1 10 16:19 16.01.2020
451 Clouds 34 1010 70 10000 3.1 350 15:44 16.01.2020
452 Clouds 35 1010 70 10000 3.1 350 15:22 16.01.2020
453 Clouds 32 1011 78 10000 4.1 360 14:57 16.01.2020
454 Clouds 32 1011 78 10000 4.1 360 14:38 16.01.2020
455 Clouds 32 1011 78 10000 4.1 360 14:20 16.01.2020
456 Clouds 30 1011 74 10000 3.6 330 13:44 16.01.2020
457 Clouds 30 1011 74 10000 3.6 330 13:25 16.01.2020
458 Clouds 29 1011 83 10000 3.6 350 12:47 16.01.2020
459 Clouds 29 1011 83 10000 3.6 350 12:28 16.01.2020
460 Clouds 27 1011 74 10000 3.6 340 11:59 16.01.2020
461 Clouds 27 1011 74 10000 3.6 340 11:40 16.01.2020
462 Clouds 27 1011 74 10000 3.6 340 11:22 16.01.2020
463 Clouds 25 1010 88 10000 3.1 360 10:40 16.01.2020
464 Clouds 25 1010 88 10000 3.1 360 10:22 16.01.2020
465 Clouds 25 1010 88 10000 2.6 340 09:59 16.01.2020
466 Clouds 25 1010 88 10000 2.6 340 09:41 16.01.2020
467 Clouds 25 1010 88 10000 2.6 340 09:23 16.01.2020
468 Clouds 25 1009 83 10000 1 350 08:55 16.01.2020
469 Clouds 25 1009 83 10000 1 350 08:36 16.01.2020
470 Clear 25 1009 83 10000 1 350 08:18 16.01.2020
471 Clear 24 1010 83 10000 0.5 200 07:42 16.01.2020
472 Clear 24 1010 83 10000 0.5 200 07:23 16.01.2020
473 Clear 25 1010 83 10000 1.5 360 06:48 16.01.2020
474 Clear 25 1010 83 10000 1.5 360 06:28 16.01.2020
475 Clear 25 1010 83 10000 2.1 360 05:46 16.01.2020
476 Clear 25 1011 83 10000 1 10 04:46 16.01.2020
477 Clear 26 1011 78 10000 0.5 20 03:29 16.01.2020
478 Clear 26 1011 78 10000 1 10 02:46 16.01.2020
479 Clear 26 1011 74 10000 1 60 01:32 16.01.2020
480 Clear 26 1011 74 10000 2.1 100 00:43 16.01.2020
481 Clear 27 1011 74 10000 2.1 100 00:23 16.01.2020
482 Clear 28 1010 78 10000 2.6 180 23:44 15.01.2020
483 Clear 28 1010 78 10000 2.6 180 23:22 15.01.2020
484 Clear 28 1010 78 10000 2.6 180 23:22 15.01.2020
485 Clear 28 1010 78 10000 2.6 180 23:21 15.01.2020
486 Clear 30 1010 74 10000 4.1 170 22:56 15.01.2020
487 Clear 30 1010 74 10000 4.1 170 22:38 15.01.2020
488 Clear 30 1010 74 10000 4.1 170 22:18 15.01.2020
489 Clouds 31 1010 70 10000 3.6 160 21:56 15.01.2020
490 Clouds 31 1010 70 10000 3.6 160 21:36 15.01.2020
491 Clouds 31 1010 70 10000 3.6 160 21:18 15.01.2020
492 Clouds 31 1010 66 10000 4.6 160 20:55 15.01.2020
493 Clouds 31 1010 66 10000 4.6 160 20:37 15.01.2020
494 Clouds 31 1010 66 10000 4.6 160 20:18 15.01.2020
495 Clouds 31 1010 66 10000 4.6 150 19:54 15.01.2020
496 Clouds 31 1010 66 10000 4.6 150 19:36 15.01.2020
497 Clouds 31 1010 66 10000 4.6 150 19:18 15.01.2020
498 Clouds 31 1011 66 10000 6.2 160 18:55 15.01.2020
499 Clouds 32 1011 66 10000 6.2 160 18:37 15.01.2020
500 Clouds 32 1011 66 10000 6.2 160 18:19 15.01.2020
501 Clear 31 1011 65 10000 5.1 150 17:41 15.01.2020
502 Clear 31 1011 65 10000 5.1 150 17:22 15.01.2020
503 Clear 31 1012 65 10000 5.1 150 16:59 15.01.2020
504 Clear 31 1012 65 10000 5.1 150 16:38 15.01.2020
505 Clear 31 1012 65 10000 5.1 150 16:20 15.01.2020
506 Clear 30 1013 58 10000 1 60 15:43 15.01.2020
507 Clear 30 1013 58 10000 1 60 15:21 15.01.2020
508 Clear 29 1013 61 10000 2.6 340 14:58 15.01.2020
509 Clear 29 1013 61 10000 2.6 340 14:39 15.01.2020
510 Clear 29 1013 61 10000 2.6 340 14:18 15.01.2020
511 Clear 28 1014 61 10000 3.1 350 13:45 15.01.2020
512 Clear 28 1014 61 10000 3.1 350 13:26 15.01.2020
513 Clear 27 1014 61 10000 0.5 90 12:58 15.01.2020
514 Clear 27 1014 61 10000 0.5 90 12:39 15.01.2020
515 Clear 27 1014 61 10000 0.5 90 12:19 15.01.2020
516 Clouds 26 1014 69 10000 2.1 120 11:56 15.01.2020
517 Clouds 26 1014 69 10000 2.1 120 11:36 15.01.2020
518 Clouds 26 1014 69 10000 2.1 120 11:18 15.01.2020
519 Clouds 24 1013 73 10000 1.5 90 10:41 15.01.2020
520 Clouds 24 1013 73 10000 1.5 90 10:23 15.01.2020
521 Clouds 24 1013 73 10000 2.1 50 09:42 15.01.2020
522 Clouds 24 1013 73 10000 2.1 50 09:22 15.01.2020
523 Clear 24 1012 78 10000 2.6 110 08:56 15.01.2020
524 Clear 24 1012 78 10000 2.6 110 08:37 15.01.2020
525 Clouds 24 1012 78 10000 2.6 110 08:19 15.01.2020
526 Clouds 24 1012 69 10000 2.1 40 07:50 15.01.2020
527 Clouds 24 1012 69 10000 2.1 40 07:29 15.01.2020
528 Clouds 25 1013 69 10000 3.1 360 06:44 15.01.2020
529 Clouds 25 1013 69 10000 3.1 360 06:18 15.01.2020
530 Clouds 25 1013 65 10000 4.58 61 04:34 15.01.2020
531 Clouds 26 1015 65 10000 1.5 60 02:32 15.01.2020
532 Clouds 26 1015 73 10000 3.1 110 01:27 15.01.2020
533 Clouds 26 1015 74 10000 5.1 110 00:45 15.01.2020
534 Clouds 26 1015 74 10000 5.1 110 00:26 15.01.2020
535 Clouds 26 1014 69 10000 4.6 130 23:55 14.01.2020
536 Clouds 26 1014 69 10000 4.6 130 23:36 14.01.2020
537 Clouds 26 1014 69 10000 4.6 130 23:18 14.01.2020
538 Clouds 27 1014 69 10000 4.6 140 22:41 14.01.2020
539 Clouds 27 1014 69 10000 5.1 160 22:19 14.01.2020
540 Clouds 27 1014 69 10000 5.1 160 21:58 14.01.2020
541 Clouds 27 1014 69 10000 5.1 160 21:39 14.01.2020
542 Clouds 27 1014 69 10000 5.1 160 21:21 14.01.2020
543 Clouds 27 1014 69 10000 5.1 160 21:21 14.01.2020
544 Clouds 28 1013 69 10000 5.7 160 20:58 14.01.2020
545 Clouds 25 1014 74 0 5.72 99 20:40 14.01.2020
546 Clouds 28 1014 65 10000 5.1 160 20:19 14.01.2020
547 Clouds 28 1014 65 10000 5.1 160 19:56 14.01.2020
548 Clouds 28 1014 65 10000 5.1 160 19:37 14.01.2020
549 Clouds 28 1014 65 10000 5.1 160 19:18 14.01.2020
550 Clouds 29 1014 69 10000 5.1 170 18:55 14.01.2020
551 Clouds 25 1015 70 0 5.74 119 18:37 14.01.2020
552 Clouds 29 1014 69 10000 5.1 160 18:18 14.01.2020
553 Clouds 29 1014 69 10000 5.1 160 17:38 14.01.2020
554 Clouds 29 1014 69 10000 5.1 160 17:19 14.01.2020
555 Clouds 29 1015 65 10000 4.6 160 16:55 14.01.2020
556 Clouds 29 1015 65 10000 4.6 160 16:37 14.01.2020
557 Clouds 29 1015 65 10000 4.6 160 16:19 14.01.2020
558 Clouds 28 1015 69 10000 2.6 150 15:42 14.01.2020
559 Clouds 28 1015 69 10000 2.6 150 15:19 14.01.2020
560 Clouds 27 1016 78 10000 1.5 10 14:47 14.01.2020
561 Clouds 27 1016 78 10000 1.5 10 14:23 14.01.2020
562 Clouds 27 1016 83 10000 2.1 360 13:59 14.01.2020
563 Clouds 27 1016 83 10000 2.1 360 13:41 14.01.2020
564 Clouds 27 1016 83 10000 2.1 360 13:19 14.01.2020
565 Clouds 25 1016 83 8000 2.1 20 12:43 14.01.2020
566 Clouds 25 1016 83 8000 2.1 20 12:24 14.01.2020
567 Clouds 24 1015 88 7000 1.5 20 11:59 14.01.2020
568 Clouds 24 1015 88 7000 1.5 20 11:40 14.01.2020
569 Clouds 24 1015 88 7000 1.5 20 11:22 14.01.2020
570 Clouds 24 1016 88 10000 1 0 10:56 14.01.2020
571 Clouds 24 1015 83 10000 1.5 150 10:37 14.01.2020
572 Clouds 24 1015 83 10000 1.5 150 10:19 14.01.2020
573 Clouds 23 1014 88 10000 2.1 100 09:55 14.01.2020
574 Clouds 23 1014 88 10000 2.1 100 09:37 14.01.2020
575 Clouds 23 1014 88 10000 2.1 100 09:19 14.01.2020
576 Clouds 23 1014 88 10000 1.5 90 08:41 14.01.2020
577 Clouds 23 1014 88 10000 1.5 90 08:41 14.01.2020
578 Clouds 23 1014 88 10000 1.5 90 08:22 14.01.2020
579 Clouds 24 1014 83 10000 1.5 140 07:51 14.01.2020
580 Clouds 24 1014 83 10000 1.5 140 07:25 14.01.2020
581 Clouds 24 1014 88 10000 1.5 180 06:44 14.01.2020
582 Clouds 24 1014 88 10000 1.5 180 06:18 14.01.2020
583 Clouds 24 1015 88 10000 2.1 170 04:56 14.01.2020
584 Clouds 24 1015 83 10000 2.1 160 03:48 14.01.2020
585 Clouds 25 1015 83 9000 2.6 180 02:40 14.01.2020
586 Rain 25 1015 88 7000 2.6 140 01:31 14.01.2020
587 Rain 25 1015 88 5000 3.6 200 00:49 14.01.2020
588 Rain 25 1015 88 5000 3.6 200 00:26 14.01.2020
589 Rain 25 1014 88 4000 3.6 170 23:47 13.01.2020
590 Rain 25 1014 88 4000 3.6 170 23:19 13.01.2020
591 Clouds 25 1013 78 10000 2.6 150 22:59 13.01.2020
592 Clouds 25 1013 78 10000 2.6 150 22:40 13.01.2020
593 Clouds 25 1013 78 10000 2.6 150 22:20 13.01.2020
594 Clouds 26 1013 78 10000 2.1 150 21:56 13.01.2020
595 Clouds 26 1013 78 10000 2.1 150 21:37 13.01.2020
596 Clouds 26 1013 78 10000 2.1 150 21:37 13.01.2020
597 Clouds 26 1013 78 10000 2.1 150 21:18 13.01.2020
598 Clouds 27 1013 83 10000 1.5 140 20:56 13.01.2020
599 Clouds 27 1013 83 10000 1.5 140 20:38 13.01.2020
600 Clouds 27 1013 83 10000 1.5 140 20:20 13.01.2020
601 Clouds 27 1013 78 10000 1.5 140 19:56 13.01.2020
602 Clouds 27 1013 78 10000 1.5 140 19:38 13.01.2020
603 Clouds 27 1013 78 10000 1.5 140 19:18 13.01.2020
604 Clouds 27 1014 83 10000 1.5 110 18:56 13.01.2020
605 Clouds 27 1014 83 10000 1.5 110 18:37 13.01.2020
606 Clouds 27 1014 83 10000 1.5 110 18:18 13.01.2020
607 Clouds 26 1014 88 10000 1.5 100 17:40 13.01.2020
608 Clouds 26 1014 88 10000 1.5 100 17:40 13.01.2020
609 Clouds 26 1014 88 10000 1.5 100 17:22 13.01.2020
610 Clouds 26 1014 88 10000 1.5 100 16:56 13.01.2020
611 Rain 25 1015 88 0 1.59 212 16:38 13.01.2020
612 Rain 25 1015 88 0 1.59 212 16:19 13.01.2020
613 Rain 25 1015 88 0 1.59 212 15:44 13.01.2020
614 Rain 25 1015 88 0 1.59 212 15:23 13.01.2020
615 Rain 25 1015 88 0 1.59 212 14:58 13.01.2020
616 Rain 25 1015 88 0 1.59 212 14:38 13.01.2020
617 Rain 25 1015 90 0 3.68 202 14:19 13.01.2020
618 Rain 25 1015 90 0 3.68 202 13:42 13.01.2020
619 Rain 25 1015 90 0 3.68 202 13:24 13.01.2020
620 Rain 25 1015 90 0 4.02 200 12:59 13.01.2020
621 Rain 25 1014 94 4500 2.1 170 12:41 13.01.2020
622 Rain 25 1014 94 4500 2.1 170 12:23 13.01.2020
623 Rain 25 1014 94 4500 2.1 170 11:57 13.01.2020
624 Rain 25 1014 94 4500 2.1 170 11:37 13.01.2020
625 Rain 25 1013 94 2000 4.6 260 11:19 13.01.2020
626 Rain 25 1013 94 2000 4.6 260 10:56 13.01.2020
627 Rain 25 1012 94 3500 0.5 270 10:37 13.01.2020
628 Rain 25 1012 94 3500 0.5 270 10:19 13.01.2020
629 Rain 25 1012 88 4000 3.6 310 09:43 13.01.2020
630 Rain 25 1012 88 4000 3.6 310 09:24 13.01.2020
631 Clouds 25 1011 100 10000 1.5 360 08:57 13.01.2020
632 Clouds 25 1011 100 10000 1.5 360 08:37 13.01.2020
633 Rain 25 1012 88 4000 3.6 270 08:18 13.01.2020
634 Rain 25 1011 88 4000 2.1 230 07:43 13.01.2020
635 Rain 25 1011 88 4000 2.1 230 07:24 13.01.2020
636 Rain 25 1012 94 3000 6.7 230 06:37 13.01.2020
637 Rain 25 1012 94 3000 6.7 230 06:37 13.01.2020
638 Rain 26 1012 94 6000 1 360 05:42 13.01.2020
639 Rain 26 1012 94 6000 1 360 05:19 13.01.2020
640 Clouds 27 1013 83 10000 2.1 80 03:44 13.01.2020
641 Clouds 27 1013 78 10000 2.6 330 02:51 13.01.2020
642 Clouds 27 1013 78 10000 2.6 330 02:30 13.01.2020
643 Clouds 28 1012 70 10000 1.5 310 01:33 13.01.2020
644 Clouds 28 1011 78 10000 2.6 50 00:55 13.01.2020
645 Clouds 28 1011 78 10000 2.6 50 00:36 13.01.2020
646 Clouds 28 1011 78 10000 2.6 50 00:18 13.01.2020
647 Clouds 28 1011 83 10000 2.6 40 23:40 12.01.2020
648 Clouds 28 1011 83 10000 2.6 40 23:22 12.01.2020
649 Clouds 29 1011 66 10000 5.1 200 22:57 12.01.2020
650 Clouds 29 1011 66 10000 5.1 200 22:39 12.01.2020
651 Clouds 29 1011 66 10000 5.1 200 22:19 12.01.2020
652 Clouds 30 1011 62 10000 4.1 200 21:54 12.01.2020
653 Clouds 30 1011 62 10000 4.1 200 21:54 12.01.2020
654 Clouds 30 1011 62 10000 4.1 200 21:36 12.01.2020
655 Clouds 30 1011 62 10000 4.1 200 21:18 12.01.2020
656 Clouds 30 1010 59 10000 6.7 210 20:54 12.01.2020
657 Clouds 30 1010 59 10000 6.7 210 20:36 12.01.2020
658 Clouds 30 1010 59 10000 6.7 210 20:18 12.01.2020
659 Clouds 31 1010 66 10000 5.7 200 19:54 12.01.2020
660 Clouds 31 1010 66 10000 5.7 200 19:36 12.01.2020
661 Clouds 31 1010 66 10000 5.7 200 19:18 12.01.2020
662 Clouds 31 1011 62 10000 6.7 200 18:54 12.01.2020
663 Clouds 31 1011 62 10000 6.7 200 18:36 12.01.2020
664 Clouds 31 1011 62 10000 6.7 200 18:18 12.01.2020
665 Clouds 31 1011 70 10000 6.7 210 17:42 12.01.2020
666 Clouds 31 1011 70 10000 6.7 210 17:20 12.01.2020
667 Clouds 31 1012 66 10000 6.7 200 16:57 12.01.2020
668 Clouds 31 1012 66 10000 6.7 200 16:38 12.01.2020
669 Clouds 31 1012 66 10000 6.7 200 16:19 12.01.2020
670 Clouds 31 1011 62 10000 6.2 200 15:55 12.01.2020
671 Clouds 31 1011 62 10000 6.2 200 15:36 12.01.2020
672 Clouds 31 1011 62 10000 6.2 200 15:18 12.01.2020
673 Clouds 31 1011 70 10000 3.1 360 14:42 12.01.2020
674 Clouds 31 1011 70 10000 3.1 360 14:22 12.01.2020
675 Rain 31 1011 79 10000 3.1 20 13:56 12.01.2020
676 Rain 31 1011 79 10000 3.1 20 13:38 12.01.2020
677 Rain 31 1011 79 10000 3.1 20 13:20 12.01.2020
678 Rain 31 1011 83 10000 3.1 10 12:44 12.01.2020
679 Rain 31 1011 83 10000 3.1 10 12:21 12.01.2020
680 Rain 29 1010 79 10000 0.5 200 11:59 12.01.2020
681 Rain 29 1010 79 10000 0.5 200 11:59 12.01.2020
682 Rain 29 1010 79 10000 0.5 200 11:40 12.01.2020
683 Rain 29 1010 79 10000 0.5 200 11:22 12.01.2020
684 Rain 27 1009 88 10000 1.5 150 10:56 12.01.2020
685 Rain 27 1009 88 10000 1.5 150 10:37 12.01.2020
686 Rain 27 1009 88 10000 1.5 150 10:18 12.01.2020
687 Rain 26 1008 88 10000 1 120 09:41 12.01.2020
688 Rain 26 1008 88 10000 1 120 09:22 12.01.2020
689 Rain 26 1008 94 10000 1.5 60 08:48 12.01.2020
690 Rain 26 1008 94 10000 1.5 60 08:24 12.01.2020
691 Rain 26 1008 94 10000 2.6 20 07:47 12.01.2020
692 Rain 26 1008 94 10000 2.6 20 07:26 12.01.2020
693 Rain 26 1008 94 10000 2.6 20 07:26 12.01.2020
694 Rain 27 1008 74 10000 3.1 330 06:59 12.01.2020
695 Rain 27 1008 74 10000 3.1 330 06:59 12.01.2020
696 Rain 27 1008 74 10000 3.1 330 06:59 12.01.2020
697 Rain 27 1008 74 10000 3.1 330 06:36 12.01.2020
698 Clouds 27 1008 83 10000 4.1 330 05:55 12.01.2020
699 Clouds 27 1009 78 10000 3.1 50 04:56 12.01.2020
700 Clouds 28 1010 70 10000 3.1 200 03:43 12.01.2020
701 Clouds 28 1010 74 10000 7.2 200 02:48 12.01.2020
702 Clouds 28 1010 74 10000 7.2 200 02:24 12.01.2020
703 Clouds 28 1010 66 10000 6.2 240 01:34 12.01.2020
704 Rain 29 1009 83 10000 5.1 190 00:46 12.01.2020
705 Thunderstorm 30 1008 74 10000 2.1 80 00:22 12.01.2020
706 Clouds 31 1007 70 10000 4.1 180 23:59 11.01.2020
707 Clouds 31 1007 70 10000 4.1 180 23:41 11.01.2020
708 Clouds 30 1007 70 10000 4.1 180 23:18 11.01.2020
709 Clouds 31 1006 66 10000 4.6 190 22:56 11.01.2020
710 Clouds 31 1006 66 10000 4.6 190 22:38 11.01.2020
711 Clouds 31 1006 66 10000 4.6 190 22:19 11.01.2020
712 Clouds 33 1005 66 10000 6.2 180 21:44 11.01.2020
713 Clouds 33 1005 66 10000 6.2 180 21:20 11.01.2020
714 Clouds 33 1006 74 10000 7.2 180 20:59 11.01.2020
715 Clouds 33 1006 74 10000 7.2 180 20:39 11.01.2020
716 Clouds 33 1006 74 10000 7.2 180 20:19 11.01.2020
717 Clouds 35 1006 66 10000 6.2 160 19:57 11.01.2020
718 Clouds 35 1006 66 10000 6.2 160 19:38 11.01.2020
719 Clouds 35 1006 66 10000 6.2 160 19:38 11.01.2020
720 Clouds 35 1006 66 10000 6.2 160 19:20 11.01.2020
721 Clouds 36 1006 66 10000 4.6 160 18:55 11.01.2020
722 Clouds 36 1006 66 10000 4.6 160 18:37 11.01.2020
723 Clouds 36 1006 66 10000 4.6 160 18:19 11.01.2020
724 Clouds 36 1007 70 10000 4.1 20 17:57 11.01.2020
725 Clouds 36 1007 70 10000 4.1 20 17:39 11.01.2020
726 Clouds 36 1007 70 10000 4.1 20 17:18 11.01.2020
727 Clouds 36 1008 66 10000 4.1 10 16:44 11.01.2020
728 Clouds 36 1008 66 10000 4.1 10 16:25 11.01.2020
729 Clouds 35 1008 70 10000 4.1 20 15:57 11.01.2020
730 Clouds 35 1008 70 10000 4.1 20 15:39 11.01.2020
731 Clouds 35 1008 70 10000 4.1 20 15:20 11.01.2020
732 Clouds 34 1009 74 10000 3.1 30 14:47 11.01.2020
733 Clouds 34 1009 74 10000 3.1 30 14:25 11.01.2020
734 Clouds 32 1009 79 10000 2.6 20 13:58 11.01.2020
735 Clouds 32 1009 79 10000 2.6 20 13:38 11.01.2020
736 Clouds 32 1009 79 10000 2.6 20 13:20 11.01.2020
737 Clouds 30 1008 83 10000 3.1 350 12:56 11.01.2020
738 Clouds 30 1008 83 10000 3.1 350 12:37 11.01.2020
739 Clouds 30 1008 83 10000 3.1 350 12:19 11.01.2020
740 Clouds 28 1008 94 10000 2.6 360 11:45 11.01.2020
741 Clouds 28 1008 94 10000 2.6 360 11:24 11.01.2020
742 Clouds 27 1008 88 10000 3.1 340 10:50 11.01.2020
743 Clouds 27 1008 88 10000 3.1 340 10:30 11.01.2020
744 Clouds 27 1008 94 10000 2.6 10 09:55 11.01.2020
745 Clouds 27 1008 94 10000 2.6 10 09:37 11.01.2020
746 Clouds 27 1008 94 10000 2.6 10 09:18 11.01.2020
747 Clouds 26 1007 94 10000 0.5 20 08:41 11.01.2020
748 Clouds 26 1007 94 10000 0.5 20 08:21 11.01.2020
749 Clouds 26 1007 94 10000 1.5 40 07:43 11.01.2020
750 Clouds 26 1007 94 10000 1.5 40 07:25 11.01.2020
751 Clouds 27 1007 88 10000 2.1 330 06:45 11.01.2020
752 Clouds 27 1008 88 10000 1 170 05:33 11.01.2020
753 Clouds 27 1009 94 10000 1.5 180 04:45 11.01.2020
754 Clouds 27 1009 94 10000 1.5 180 04:27 11.01.2020
755 Clouds 27 1009 88 10000 3.6 140 02:48 11.01.2020
756 Clouds 27 1008 78 10000 2.1 170 01:57 11.01.2020
757 Clouds 27 1008 78 10000 2.1 170 01:38 11.01.2020
758 Clouds 27 1008 78 10000 2.1 170 01:18 11.01.2020
759 Clouds 28 1008 83 10000 2.6 140 00:38 11.01.2020
760 Clouds 29 1008 78 10000 4.6 160 23:59 10.01.2020
761 Clouds 29 1008 78 10000 4.6 160 23:40 10.01.2020
762 Clouds 29 1008 78 10000 4.6 160 23:40 10.01.2020
763 Clouds 29 1008 78 10000 4.6 160 23:21 10.01.2020
764 Clouds 30 1007 78 10000 4.1 170 22:56 10.01.2020
765 Clouds 30 1007 78 10000 4.1 170 22:38 10.01.2020
766 Clouds 30 1007 78 10000 4.1 170 22:19 10.01.2020
767 Clouds 31 1008 74 10000 4.1 170 21:55 10.01.2020
768 Clouds 31 1008 74 10000 4.1 170 21:36 10.01.2020
769 Clouds 31 1008 74 10000 4.1 170 21:18 10.01.2020
770 Clouds 32 1008 74 10000 2.1 130 20:42 10.01.2020
771 Clouds 32 1008 74 10000 2.1 130 20:24 10.01.2020
772 Rain 32 1009 79 10000 7.7 180 19:56 10.01.2020
773 Rain 32 1009 79 10000 7.7 180 19:37 10.01.2020
774 Rain 32 1009 79 10000 7.7 180 19:19 10.01.2020
775 Rain 32 1009 79 10000 7.7 180 19:19 10.01.2020
776 Clouds 33 1009 70 10000 6.7 160 18:42 10.01.2020
777 Clouds 33 1009 70 10000 6.7 160 18:19 10.01.2020
778 Clouds 32 1010 79 10000 6.7 170 17:57 10.01.2020
779 Clouds 32 1010 79 10000 6.7 170 17:39 10.01.2020
780 Clouds 32 1010 79 10000 6.7 170 17:20 10.01.2020
781 Clouds 32 1010 79 10000 7.2 170 16:57 10.01.2020
782 Clouds 32 1010 79 10000 7.2 170 16:38 10.01.2020
783 Clouds 32 1010 79 10000 7.2 170 16:19 10.01.2020
784 Clouds 32 1010 83 10000 6.7 160 15:56 10.01.2020
785 Clouds 32 1010 83 10000 6.7 160 15:36 10.01.2020
786 Clouds 32 1010 83 10000 6.7 160 15:18 10.01.2020
787 Clouds 32 1011 74 10000 4.1 150 14:55 10.01.2020
788 Clouds 32 1011 74 10000 4.1 150 14:37 10.01.2020
789 Clouds 32 1011 74 10000 4.1 150 14:18 10.01.2020
790 Clouds 31 1011 79 10000 3.6 130 13:43 10.01.2020
791 Clouds 31 1011 79 10000 3.6 130 13:25 10.01.2020
792 Clouds 29 1010 83 10000 2.6 340 12:58 10.01.2020
793 Clouds 29 1010 83 10000 2.6 340 12:39 10.01.2020
794 Clouds 29 1010 83 10000 2.6 340 12:19 10.01.2020
795 Clouds 29 1010 83 10000 2.6 340 12:19 10.01.2020
796 Clouds 27 1010 88 10000 1 360 11:56 10.01.2020
797 Clouds 27 1010 88 10000 1 360 11:38 10.01.2020
798 Clouds 27 1010 88 10000 1 360 11:38 10.01.2020
799 Clouds 27 1010 88 10000 1 360 11:38 10.01.2020
800 Clouds 27 1010 88 10000 1 360 11:18 10.01.2020
801 Clouds 26 1010 94 10000 2.1 40 10:58 10.01.2020
802 Clouds 26 1010 94 10000 2.1 40 10:36 10.01.2020
803 Clouds 26 1010 94 10000 2.1 40 10:18 10.01.2020
804 Clouds 25 1010 94 10000 1 70 09:43 10.01.2020
805 Clouds 25 1010 94 10000 1 70 09:24 10.01.2020
806 Clouds 25 1009 100 10000 1.5 180 08:44 10.01.2020
807 Clouds 25 1009 100 10000 1.5 180 08:24 10.01.2020
808 Clouds 25 1009 100 10000 1.5 180 08:24 10.01.2020
809 Clouds 25 1009 94 10000 2.1 150 07:58 10.01.2020
810 Clouds 25 1009 94 10000 2.1 150 07:39 10.01.2020
811 Clouds 25 1009 94 10000 2.1 150 07:19 10.01.2020
812 Clouds 25 1010 94 10000 2.1 160 06:27 10.01.2020
813 Clouds 26 1010 94 10000 2.1 170 06:00 10.01.2020
814 Clouds 26 1011 94 10000 2.1 170 04:44 10.01.2020
815 Clouds 27 1011 88 10000 3.1 140 03:31 10.01.2020
816 Clouds 27 1011 88 10000 3.1 140 03:31 10.01.2020
817 Clouds 27 1011 88 10000 3.1 150 02:52 10.01.2020
818 Clouds 27 1011 88 10000 3.1 150 02:20 10.01.2020
819 Clouds 27 1011 83 10000 3.6 160 01:32 10.01.2020
820 Clouds 27 1010 88 10000 4.1 160 00:51 10.01.2020
821 Clouds 27 1010 88 10000 4.1 160 00:33 10.01.2020
822 Clouds 28 1010 78 10000 5.1 150 23:57 09.01.2020
823 Clouds 28 1010 78 10000 5.1 150 23:37 09.01.2020
824 Clouds 28 1010 78 10000 5.1 150 23:19 09.01.2020
825 Clouds 29 1009 78 10000 6.7 160 22:56 09.01.2020
826 Clouds 29 1009 78 10000 6.7 160 22:37 09.01.2020
827 Clouds 29 1009 78 10000 6.7 160 22:18 09.01.2020
828 Clouds 30 1009 78 10000 6.7 150 21:55 09.01.2020
829 Clouds 30 1009 78 10000 6.7 150 21:37 09.01.2020
830 Clouds 30 1009 78 10000 6.7 150 21:18 09.01.2020
831 Clouds 31 1009 79 10000 7.2 160 20:55 09.01.2020
832 Clouds 31 1009 79 10000 7.2 160 20:37 09.01.2020
833 Clouds 31 1009 79 10000 7.2 160 20:18 09.01.2020
834 Clouds 31 1009 79 10000 7.2 160 20:18 09.01.2020
835 Clouds 31 1009 79 10000 6.2 150 19:39 09.01.2020
836 Clouds 32 1009 79 10000 6.2 150 19:21 09.01.2020
837 Clouds 32 1009 74 10000 6.7 140 18:57 09.01.2020
838 Clouds 32 1009 74 10000 6.7 140 18:39 09.01.2020
839 Clouds 32 1009 74 10000 6.7 140 18:21 09.01.2020
840 Clouds 32 1010 74 10000 4.6 140 17:57 09.01.2020
841 Clouds 32 1010 74 10000 4.6 140 17:39 09.01.2020
842 Clouds 32 1010 74 10000 4.6 140 17:18 09.01.2020
843 Clouds 32 1011 70 10000 4.1 150 16:42 09.01.2020
844 Clouds 32 1011 70 10000 4.1 150 16:21 09.01.2020
845 Clouds 31 1011 70 10000 1.5 90 15:43 09.01.2020
846 Clouds 32 1011 70 10000 1.5 90 15:23 09.01.2020
847 Clouds 31 1011 79 10000 3.1 10 14:59 09.01.2020
848 Clouds 31 1011 79 10000 3.1 10 14:41 09.01.2020
849 Clouds 30 1011 79 10000 3.1 10 14:19 09.01.2020
850 Clouds 30 1011 78 10000 3.1 360 13:56 09.01.2020
851 Clouds 28 1011 78 10000 3.1 360 13:38 09.01.2020
852 Clouds 28 1011 78 10000 3.1 360 13:19 09.01.2020
853 Clouds 28 1011 83 10000 2.6 360 12:56 09.01.2020
854 Clouds 27 1011 83 10000 2.6 360 12:38 09.01.2020
855 Clouds 27 1011 83 10000 2.6 360 12:18 09.01.2020
856 Clouds 27 1011 83 10000 1 330 11:42 09.01.2020
857 Clouds 25 1011 83 10000 1 330 11:24 09.01.2020
858 Clouds 25 1011 83 10000 1 330 11:24 09.01.2020
859 Clouds 25 1010 94 10000 2.1 350 10:58 09.01.2020
860 Clouds 25 1010 94 10000 2.1 350 10:40 09.01.2020
861 Clouds 24 1010 94 10000 2.1 350 10:21 09.01.2020
862 Clouds 24 1009 94 10000 2.1 360 09:47 09.01.2020
863 Clouds 24 1009 94 10000 2.1 360 09:25 09.01.2020
864 Clouds 24 1009 88 10000 1.5 350 08:59 09.01.2020
865 Clouds 24 1009 88 10000 1.5 350 08:39 09.01.2020
866 Clouds 25 1009 88 10000 1.5 350 08:21 09.01.2020
867 Clouds 25 1008 88 10000 1.5 340 07:53 09.01.2020
868 Clouds 25 1008 88 10000 1.5 340 07:33 09.01.2020
869 Clouds 25 1008 94 10000 4.6 40 06:52 09.01.2020
870 Clouds 25 1008 94 10000 4.6 40 06:32 09.01.2020
871 Clouds 25 1009 94 10000 3.6 20 05:52 09.01.2020
872 Clouds 25 1009 94 10000 3.6 20 05:28 09.01.2020
873 Clouds 25 1010 88 10000 3.1 360 04:41 09.01.2020
874 Clouds 26 1010 88 10000 3.1 340 03:28 09.01.2020
875 Clouds 26 1010 83 10000 4.1 340 02:47 09.01.2020
876 Clouds 25 1010 88 10000 3.1 10 01:53 09.01.2020
877 Clouds 25 1010 88 10000 3.1 10 01:33 09.01.2020
878 Clouds 26 1010 83 10000 1 20 00:39 09.01.2020
879 Clouds 26 1010 83 10000 1 20 00:19 09.01.2020
880 Rain 25 1011 88 10000 2.6 300 23:41 08.01.2020
881 Rain 25 1011 88 10000 2.6 300 23:23 08.01.2020
882 Clouds 25 1011 83 10000 3.1 340 22:56 08.01.2020
883 Clouds 25 1011 83 10000 3.1 340 22:38 08.01.2020
884 Clouds 26 1011 83 10000 3.1 340 22:19 08.01.2020
885 Thunderstorm 26 1009 78 9000 3.1 350 21:55 08.01.2020
886 Thunderstorm 26 1009 78 9000 3.1 350 21:37 08.01.2020
887 Thunderstorm 27 1009 78 9000 3.1 350 21:18 08.01.2020
888 Thunderstorm 27 1010 83 9000 10.3 40 20:56 08.01.2020
889 Thunderstorm 26 1010 83 9000 10.3 40 20:37 08.01.2020
890 Thunderstorm 29 1010 83 9000 10.3 40 20:19 08.01.2020
891 Clouds 28 1009 74 10000 3.6 150 19:39 08.01.2020
892 Clouds 30 1009 74 10000 3.6 150 19:20 08.01.2020
893 Clouds 30 1008 70 10000 6.7 180 18:59 08.01.2020
894 Clouds 30 1008 70 10000 6.7 180 18:40 08.01.2020
895 Clouds 31 1008 70 10000 6.7 180 18:19 08.01.2020
896 Clouds 31 1008 70 10000 6.7 180 18:19 08.01.2020
897 Clouds 31 1008 70 10000 6.7 180 18:19 08.01.2020
898 Clouds 31 1009 66 10000 6.2 170 17:59 08.01.2020
899 Clouds 31 1009 66 10000 6.2 170 17:40 08.01.2020
900 Clouds 32 1009 66 10000 6.2 170 17:22 08.01.2020
901 Clouds 31 1010 79 10000 5.1 140 16:57 08.01.2020
902 Clouds 31 1010 79 10000 5.1 140 16:57 08.01.2020
903 Clouds 31 1010 79 10000 5.1 140 16:38 08.01.2020
904 Clouds 31 1010 79 10000 5.1 140 16:19 08.01.2020
905 Clouds 31 1010 74 10000 4.1 150 15:56 08.01.2020
906 Clouds 31 1010 74 10000 4.1 150 15:38 08.01.2020
907 Clouds 31 1010 74 10000 4.1 150 15:18 08.01.2020
908 Clouds 31 1010 79 10000 1.5 100 14:41 08.01.2020
909 Clouds 31 1010 79 10000 1.5 100 14:21 08.01.2020
910 Clouds 30 1010 88 10000 2.1 340 13:56 08.01.2020
911 Clouds 30 1010 88 10000 2.1 340 13:37 08.01.2020
912 Clouds 28 1010 88 10000 2.1 340 13:18 08.01.2020
913 Clouds 28 1010 83 10000 1 130 12:40 08.01.2020
914 Clouds 27 1010 83 10000 1 130 12:18 08.01.2020
915 Clouds 27 1009 83 10000 1 40 11:55 08.01.2020
916 Clouds 27 1009 83 10000 1 40 11:36 08.01.2020
917 Clouds 26 1009 83 10000 1 40 11:18 08.01.2020
918 Clouds 26 1009 88 10000 2.1 10 10:41 08.01.2020
919 Clouds 25 1009 88 10000 2.1 10 10:22 08.01.2020
920 Clouds 25 1008 88 10000 3.6 20 09:58 08.01.2020
921 Clouds 26 1008 88 10000 3.6 20 09:38 08.01.2020
922 Clouds 25 1008 88 10000 3.6 20 09:18 08.01.2020
923 Rain 25 1008 88 10000 2.6 40 08:42 08.01.2020
924 Clouds 25 1008 88 10000 2.6 40 08:24 08.01.2020
925 Clouds 25 1008 88 10000 3.1 20 07:59 08.01.2020
926 Clouds 25 1008 88 10000 3.1 20 07:41 08.01.2020
927 Clouds 26 1008 88 10000 3.1 20 07:23 08.01.2020
928 Clouds 26 1008 88 10000 3.1 30 06:44 08.01.2020
929 Clouds 25 1008 88 10000 3.1 10 05:59 08.01.2020
930 Clouds 25 1008 88 10000 3.1 10 05:28 08.01.2020
931 Clouds 26 1009 83 10000 3.1 320 04:46 08.01.2020
932 Clouds 26 1009 78 10000 2.6 300 03:33 08.01.2020
933 Clouds 26 1009 78 10000 4.1 330 02:44 08.01.2020
934 Clouds 27 1009 78 10000 4.1 330 02:19 08.01.2020
935 Clouds 27 1009 78 9000 4.6 350 01:40 08.01.2020
936 Thunderstorm 27 1009 83 8000 4.6 360 00:54 08.01.2020
937 Thunderstorm 29 1009 83 8000 4.6 360 00:26 08.01.2020
938 Thunderstorm 30 1009 78 8000 2.1 300 23:47 07.01.2020
939 Thunderstorm 31 1009 78 8000 2.1 300 23:22 07.01.2020
940 Clouds 31 1007 62 10000 6.2 180 22:58 07.01.2020
941 Clouds 31 1007 62 10000 6.2 180 22:39 07.01.2020
942 Clouds 32 1007 62 10000 6.2 180 22:19 07.01.2020
943 Clouds 32 1006 66 10000 6.2 170 21:55 07.01.2020
944 Clouds 31 1006 66 10000 6.2 170 21:37 07.01.2020
945 Clouds 33 1006 66 10000 6.2 170 21:19 07.01.2020
946 Clouds 33 1006 74 10000 8.2 180 20:42 07.01.2020
947 Clouds 33 1006 74 10000 8.2 180 20:24 07.01.2020
948 Clouds 33 1006 74 10000 8.2 160 19:59 07.01.2020
949 Clouds 33 1006 74 10000 8.2 160 19:38 07.01.2020
950 Clouds 33 1006 74 10000 8.2 160 19:19 07.01.2020
951 Clouds 33 1007 74 10000 7.7 160 18:58 07.01.2020
952 Clouds 31 1007 74 10000 7.7 160 18:39 07.01.2020
953 Clouds 33 1007 74 10000 7.7 160 18:18 07.01.2020
954 Clouds 33 1007 74 10000 7.7 160 18:18 07.01.2020
955 Clouds 33 1007 74 10000 6.7 150 17:58 07.01.2020
956 Clouds 32 1007 74 10000 6.7 150 17:38 07.01.2020
957 Clouds 34 1007 74 10000 6.7 150 17:20 07.01.2020
958 Clouds 33 1008 74 10000 5.7 150 16:56 07.01.2020
959 Clouds 32 1008 74 10000 5.7 150 16:37 07.01.2020
960 Clouds 32 1008 74 10000 5.7 150 16:37 07.01.2020
961 Clouds 34 1008 74 10000 5.7 150 16:18 07.01.2020
962 Clear 33 1008 70 10000 2.1 140 15:55 07.01.2020
963 Clear 31 1008 70 10000 2.1 140 15:36 07.01.2020
964 Clear 33 1008 52 10000 2.1 350 15:18 07.01.2020
965 Clear 32 1009 79 10000 2.1 20 14:42 07.01.2020
966 Clear 31 1009 79 10000 2.1 20 14:23 07.01.2020
967 Clear 31 1009 79 10000 2.1 20 14:23 07.01.2020
968 Clear 31 1009 83 10000 3.1 340 13:56 07.01.2020
969 Clear 31 1009 83 10000 3.1 340 13:56 07.01.2020
970 Clear 31 1009 83 10000 3.1 340 13:37 07.01.2020
971 Clear 29 1009 83 10000 3.1 340 13:18 07.01.2020
972 Clear 29 1009 83 10000 3.1 340 12:40 07.01.2020
973 Clear 28 1009 83 10000 3.1 340 12:19 07.01.2020
974 Clouds 27 1009 88 10000 3.1 360 11:44 07.01.2020
975 Clouds 25 1009 88 10000 3.1 360 11:23 07.01.2020
976 Clouds 25 1009 88 10000 3.1 360 11:23 07.01.2020
977 Clouds 25 1008 88 10000 3.1 10 10:59 07.01.2020
978 Clouds 25 1008 88 10000 3.1 10 10:40 07.01.2020
979 Clouds 25 1008 88 10000 3.1 10 10:22 07.01.2020
980 Clouds 24 1008 94 10000 3.1 360 09:56 07.01.2020
981 Clouds 24 1008 94 10000 3.1 360 09:37 07.01.2020
982 Clouds 24 1008 94 10000 3.1 360 09:19 07.01.2020
983 Clear 24 1007 94 10000 2.1 350 08:41 07.01.2020
984 Clear 24 1007 94 10000 2.1 350 08:41 07.01.2020
985 Clear 24 1007 94 10000 2.1 350 08:21 07.01.2020
986 Clear 24 1007 94 10000 1.5 150 07:51 07.01.2020
987 Clear 24 1007 94 10000 1.5 150 07:26 07.01.2020
988 Clear 24 1008 94 10000 1 130 06:52 07.01.2020
989 Clear 24 1008 94 10000 1 130 06:32 07.01.2020
990 Clear 25 1008 88 10000 2.1 300 05:46 07.01.2020
991 Clouds 25 1009 88 10000 2.6 350 04:31 07.01.2020
992 Clouds 25 1009 83 10000 4.1 330 03:25 07.01.2020
993 Clouds 25 1009 83 10000 2.6 340 02:21 07.01.2020
994 Clouds 25 1009 83 10000 1.5 340 01:51 07.01.2020
995 Clouds 26 1009 83 10000 1.5 340 01:26 07.01.2020
996 Clouds 26 1008 83 10000 2.1 340 00:22 07.01.2020
997 Rain 26 1008 83 10000 6.7 40 23:59 06.01.2020
998 Rain 26 1008 83 10000 6.7 40 23:39 06.01.2020
999 Rain 27 1008 83 10000 6.7 40 23:21 06.01.2020
1000 Clouds 27 1008 83 10000 5.7 350 22:56 06.01.2020
1001 Clouds 26 1008 83 10000 5.7 350 22:37 06.01.2020
1002 Clouds 27 1008 83 10000 5.7 350 22:19 06.01.2020
1003 Clouds 27 1007 78 10000 3.1 10 21:55 06.01.2020
1004 Clouds 28 1006 70 10000 3.1 160 21:37 06.01.2020
1005 Clouds 29 1006 70 10000 3.1 160 21:18 06.01.2020
1006 Clouds 29 1006 78 10000 4.1 180 20:55 06.01.2020
1007 Clouds 27 1006 78 10000 4.1 180 20:37 06.01.2020
1008 Clouds 29 1006 78 10000 4.1 180 20:19 06.01.2020
1009 Clouds 29 1005 83 10000 7.2 170 19:55 06.01.2020
1010 Clouds 28 1005 83 10000 7.2 170 19:37 06.01.2020
1011 Clouds 29 1005 83 10000 7.2 170 19:18 06.01.2020
1012 Clouds 30 1006 78 10000 6.2 160 18:44 06.01.2020
1013 Clouds 31 1006 78 10000 6.2 160 18:21 06.01.2020
1014 Clouds 31 1007 74 10000 6.2 150 17:40 06.01.2020
1015 Clouds 31 1007 74 10000 6.2 150 17:20 06.01.2020
1016 Clouds 31 1007 78 10000 2.6 120 16:58 06.01.2020
1017 Clouds 31 1007 78 10000 2.6 120 16:40 06.01.2020
1018 Clouds 30 1007 78 10000 2.6 120 16:22 06.01.2020
1019 Clouds 30 1007 78 10000 2.1 130 15:59 06.01.2020
1020 Clouds 31 1007 78 10000 1.5 40 15:37 06.01.2020
1021 Clouds 30 1007 78 10000 1.5 40 15:18 06.01.2020
1022 Clouds 29 1008 83 10000 1.5 300 14:42 06.01.2020
1023 Clouds 27 1008 83 10000 1.5 300 14:22 06.01.2020
1024 Clouds 27 1008 83 10000 1.5 300 14:22 06.01.2020
1025 Clouds 26 1008 83 10000 2.6 310 13:59 06.01.2020
1026 Clouds 26 1008 83 10000 2.6 310 13:39 06.01.2020
1027 Clouds 26 1008 83 10000 2.6 310 13:21 06.01.2020
1028 Clouds 26 1008 83 10000 2.6 310 13:21 06.01.2020
1029 Clouds 26 1008 78 10000 2.1 300 12:58 06.01.2020
1030 Clouds 26 1008 78 10000 2.1 300 12:39 06.01.2020
1031 Clouds 26 1008 78 10000 2.1 300 12:39 06.01.2020
1032 Clouds 25 1008 78 10000 2.1 300 12:19 06.01.2020
1033 Clouds 25 1007 83 10000 3.1 330 11:43 06.01.2020
1034 Clouds 23 1007 83 10000 3.1 330 11:24 06.01.2020
1035 Clouds 23 1007 94 10000 4.1 360 11:00 06.01.2020
1036 Clouds 23 1007 94 10000 4.1 360 10:41 06.01.2020
1037 Clouds 21 1007 94 10000 4.1 360 10:21 06.01.2020
1038 Clouds 22 1007 88 10000 2.6 340 09:42 06.01.2020
1039 Clouds 22 1007 88 10000 2.6 340 09:24 06.01.2020
1040 Clouds 22 1007 94 10000 2.6 360 08:57 06.01.2020
1041 Clouds 22 1007 94 10000 2.6 360 08:38 06.01.2020
1042 Clouds 22 1007 94 10000 2.6 360 08:38 06.01.2020
1043 Clouds 22 1007 94 10000 2.6 360 08:19 06.01.2020
1044 Thunderstorm 23 1007 88 4000 3.1 270 07:44 06.01.2020
1045 Thunderstorm 24 1007 88 8000 2.1 310 06:55 06.01.2020
1046 Thunderstorm 25 1007 88 8000 2.1 310 06:35 06.01.2020
1047 Clouds 24 1007 94 10000 1 80 05:48 06.01.2020
1048 Clouds 24 1007 94 10000 1 80 05:24 06.01.2020
1049 Clouds 25 1008 88 10000 2.1 320 04:24 06.01.2020
1050 Clouds 25 1009 88 10000 2.6 20 03:51 06.01.2020
1051 Clouds 25 1009 94 10000 2.1 80 02:29 06.01.2020
1052 Clouds 25 1008 88 10000 1 120 01:54 06.01.2020
1053 Clouds 25 1008 88 10000 1 120 01:31 06.01.2020
1054 Clouds 25 1009 88 10000 1.5 140 00:48 06.01.2020
1055 Clouds 25 1009 88 10000 1.5 140 00:29 06.01.2020
1056 Clouds 25 1007 88 10000 4.1 140 23:58 05.01.2020
1057 Clouds 25 1007 88 10000 4.1 140 23:39 05.01.2020
1058 Clouds 25 1007 88 10000 4.1 140 23:21 05.01.2020
1059 Clouds 26 1007 88 10000 4.1 140 22:40 05.01.2020
1060 Clouds 26 1007 78 9000 2.6 110 22:21 05.01.2020
1061 Clouds 26 1007 83 10000 5.7 180 21:58 05.01.2020
1062 Clouds 26 1007 83 10000 5.7 180 21:40 05.01.2020
1063 Clouds 26 1007 83 10000 5.7 180 21:20 05.01.2020
1064 Clouds 27 1006 83 10000 6.7 170 20:58 05.01.2020
1065 Clouds 27 1006 83 10000 6.7 170 20:39 05.01.2020
1066 Clouds 27 1006 83 10000 6.7 170 20:19 05.01.2020
1067 Clouds 28 1006 74 10000 6.7 160 19:58 05.01.2020
1068 Clouds 27 1006 74 10000 6.7 160 19:39 05.01.2020
1069 Clouds 27 1006 74 10000 6.7 160 19:39 05.01.2020
1070 Clouds 28 1006 74 10000 6.7 160 19:20 05.01.2020
1071 Clouds 28 1007 74 10000 6.7 160 18:56 05.01.2020
1072 Clouds 28 1007 74 10000 6.7 160 18:38 05.01.2020
1073 Clouds 28 1007 74 10000 6.7 160 18:19 05.01.2020
1074 Clouds 28 1007 74 10000 6.7 160 18:19 05.01.2020
1075 Clouds 28 1007 74 10000 6.2 170 17:58 05.01.2020
1076 Clouds 28 1007 74 10000 6.2 170 17:39 05.01.2020
1077 Clouds 28 1007 74 10000 6.2 170 17:20 05.01.2020
1078 Clouds 27 1007 78 10000 7.2 180 16:57 05.01.2020
1079 Clouds 27 1007 78 10000 7.2 180 16:39 05.01.2020
1080 Clouds 27 1007 78 10000 7.2 180 16:39 05.01.2020
1081 Clouds 27 1007 78 10000 7.2 180 16:20 05.01.2020
1082 Clouds 27 1008 78 10000 6.2 170 15:40 05.01.2020
1083 Clouds 27 1008 78 10000 6.2 170 15:21 05.01.2020
1084 Clouds 27 1008 83 10000 4.6 150 14:57 05.01.2020
1085 Clouds 27 1008 83 10000 4.6 150 14:38 05.01.2020
1086 Clouds 27 1008 83 10000 4.6 150 14:20 05.01.2020
1087 Clouds 27 1008 83 10000 3.6 140 13:57 05.01.2020
1088 Clouds 27 1008 83 10000 3.6 140 13:38 05.01.2020
1089 Clouds 25 1008 83 10000 3.6 140 13:20 05.01.2020
1090 Clouds 25 1008 83 10000 3.6 140 13:20 05.01.2020
1091 Mist 25 1007 88 5000 4.6 160 12:56 05.01.2020
1092 Mist 25 1007 88 5000 4.6 160 12:37 05.01.2020
1093 Mist 26 1007 88 5000 4.6 160 12:19 05.01.2020
1094 Mist 26 1007 88 5000 4.6 160 12:19 05.01.2020
1095 Clouds 25 1007 88 8000 2.6 150 11:54 05.01.2020
1096 Clouds 24 1007 88 8000 2.1 50 11:36 05.01.2020
1097 Clouds 23 1007 88 8000 2.1 50 11:18 05.01.2020
1098 Clouds 24 1006 88 10000 2.1 270 10:40 05.01.2020
1099 Clouds 22 1006 88 10000 2.1 270 10:20 05.01.2020
1100 Clouds 23 1005 94 10000 3.1 320 09:43 05.01.2020
1101 Clouds 23 1005 94 10000 3.1 320 09:22 05.01.2020
1102 Clouds 23 1005 94 10000 2.6 310 08:56 05.01.2020
1103 Clouds 23 1005 94 10000 2.6 310 08:38 05.01.2020
1104 Clouds 24 1005 94 10000 2.6 310 08:20 05.01.2020
1105 Rain 24 1005 94 10000 0.5 10 07:44 05.01.2020
1106 Rain 24 1005 94 10000 0.5 10 07:26 05.01.2020
1107 Rain 24 1006 88 10000 1.5 320 06:54 05.01.2020
1108 Rain 24 1007 94 9000 1 90 05:41 05.01.2020
1109 Rain 24 1008 94 10000 0.82 260 04:56 05.01.2020
1110 Rain 24 1008 94 10000 0.82 260 04:19 05.01.2020
1111 Rain 24 1008 94 10000 0.82 260 04:19 05.01.2020
1112 Rain 24 1008 88 10000 1 140 03:38 05.01.2020
1113 Rain 24 1008 94 10000 1.5 80 02:35 05.01.2020
1114 Rain 24 1008 94 10000 4.1 120 01:52 05.01.2020
1115 Rain 25 1008 94 10000 4.1 120 01:20 05.01.2020
1116 Clouds 25 1007 88 10000 4.1 150 00:57 05.01.2020
1117 Clouds 25 1007 88 10000 4.1 150 00:39 05.01.2020
1118 Clouds 25 1007 88 10000 4.1 150 00:20 05.01.2020
1119 Clouds 26 1007 83 10000 4.6 180 23:57 04.01.2020
1120 Clouds 24 1007 83 10000 4.6 180 23:38 04.01.2020
1121 Clouds 26 1007 83 10000 4.6 180 23:18 04.01.2020
1122 Clouds 26 1006 78 10000 5.7 180 22:39 04.01.2020
1123 Clouds 27 1006 78 10000 5.7 180 22:20 04.01.2020
1124 Clouds 27 1006 78 10000 6.2 160 21:56 04.01.2020
1125 Clouds 27 1006 78 10000 6.2 160 21:37 04.01.2020
1126 Clouds 27 1006 78 10000 6.2 160 21:19 04.01.2020
1127 Clouds 27 1006 74 10000 6.7 180 20:56 04.01.2020
1128 Clouds 26 1006 74 10000 6.7 180 20:37 04.01.2020
1129 Clouds 28 1006 74 10000 6.7 180 20:18 04.01.2020
1130 Clouds 29 1006 74 10000 4.6 160 19:41 04.01.2020
1131 Clouds 28 1006 74 10000 4.6 160 19:41 04.01.2020
1132 Clouds 28 1006 74 10000 4.6 160 19:23 04.01.2020
1133 Clouds 27 1007 78 10000 4.6 160 18:58 04.01.2020
1134 Clouds 27 1007 78 10000 4.6 160 18:39 04.01.2020
1135 Clouds 27 1007 78 10000 4.6 160 18:20 04.01.2020
1136 Clouds 26 1008 78 10000 4.1 160 17:58 04.01.2020
1137 Clouds 26 1008 78 10000 4.1 160 17:40 04.01.2020
1138 Clouds 27 1008 78 10000 4.1 160 17:21 04.01.2020
1139 Clouds 27 1008 74 10000 4.1 160 16:42 04.01.2020
1140 Clouds 28 1008 74 10000 4.1 160 16:24 04.01.2020
1141 Clouds 28 1008 74 10000 4.1 160 16:24 04.01.2020
1142 Clouds 28 1008 74 10000 3.1 140 15:58 04.01.2020
1143 Clouds 28 1008 74 10000 3.1 140 15:39 04.01.2020
1144 Clouds 28 1008 74 10000 3.1 140 15:19 04.01.2020
1145 Clouds 28 1008 74 10000 1.5 140 14:57 04.01.2020
1146 Clouds 28 1008 74 10000 1.5 140 14:57 04.01.2020
1147 Clouds 28 1008 74 10000 1.5 140 14:39 04.01.2020
1148 Clouds 28 1008 78 10000 2.1 30 14:19 04.01.2020
1149 Clouds 26 1008 83 10000 3.1 20 13:56 04.01.2020
1150 Clouds 27 1008 83 10000 3.1 20 13:37 04.01.2020
1151 Clouds 27 1008 83 10000 3.1 20 13:18 04.01.2020
1152 Clouds 26 1008 83 10000 2.6 340 12:42 04.01.2020
1153 Clouds 25 1008 83 10000 2.6 340 12:20 04.01.2020
1154 Clouds 24 1008 83 10000 2.6 330 11:59 04.01.2020
1155 Clouds 24 1008 83 10000 2.6 330 11:40 04.01.2020
1156 Clouds 23 1008 83 10000 2.6 330 11:20 04.01.2020
1157 Clouds 23 1008 94 10000 2.1 320 10:58 04.01.2020
1158 Clouds 24 1008 94 10000 2.1 320 10:38 04.01.2020
1159 Clouds 22 1008 94 10000 2.1 320 10:19 04.01.2020
1160 Clouds 23 1008 94 10000 2.1 360 09:42 04.01.2020
1161 Clouds 23 1008 94 10000 2.1 360 09:24 04.01.2020
1162 Clouds 23 1007 94 10000 0.5 200 08:47 04.01.2020
1163 Clouds 23 1007 94 10000 0.5 200 08:28 04.01.2020
1164 Clouds 24 1008 83 10000 2.1 320 07:51 04.01.2020
1165 Clouds 24 1008 83 10000 2.1 320 07:33 04.01.2020
1166 Clouds 24 1008 83 10000 1 310 06:43 04.01.2020
1167 Clouds 24 1008 88 10000 2.6 310 05:52 04.01.2020
1168 Clouds 24 1009 94 10000 3.1 330 04:50 04.01.2020
1169 Clouds 24 1009 94 10000 3.1 330 04:29 04.01.2020
1170 Clouds 24 1010 94 10000 3.1 350 03:20 04.01.2020
1171 Clouds 24 1010 88 10000 2.1 330 02:46 04.01.2020
1172 Clouds 24 1010 88 10000 2.1 330 02:18 04.01.2020
1173 Clouds 24 1010 94 10000 2.6 320 01:37 04.01.2020
1174 Clouds 24 1010 94 10000 2.6 320 01:19 04.01.2020
1175 Rain 24 1010 94 8000 3.1 330 00:29 04.01.2020
1176 Rain 24 1010 94 6000 2.6 330 23:57 03.01.2020
1177 Rain 24 1010 94 6000 2.6 330 23:29 03.01.2020
1178 Rain 24 1009 88 4000 3.1 310 22:59 03.01.2020
1179 Rain 24 1009 88 4000 3.1 310 22:40 03.01.2020
1180 Rain 25 1009 83 5000 3.6 250 22:19 03.01.2020
1181 Clouds 25 1009 78 10000 1.5 360 21:57 03.01.2020
1182 Clouds 25 1009 78 10000 1.5 360 21:38 03.01.2020
1183 Clouds 25 1009 78 10000 1.5 360 21:19 03.01.2020
1184 Clouds 25 1008 83 10000 1.5 180 20:55 03.01.2020
1185 Rain 23 1008 78 10000 2.6 300 20:37 03.01.2020
1186 Rain 25 1008 78 10000 2.6 300 20:18 03.01.2020
1187 Rain 25 1009 83 10000 3.1 210 19:54 03.01.2020
1188 Rain 24 1009 83 10000 3.1 210 19:36 03.01.2020
1189 Rain 25 1009 83 10000 3.1 210 19:18 03.01.2020
1190 Clouds 24 1009 83 10000 2.6 50 18:39 03.01.2020
1191 Clouds 24 1009 83 10000 2.6 50 18:39 03.01.2020
1192 Clouds 25 1009 83 10000 2.6 50 18:20 03.01.2020
1193 Clouds 25 1009 83 10000 2.6 230 17:54 03.01.2020
1194 Clouds 25 1009 83 10000 2.6 230 17:36 03.01.2020
1195 Clouds 25 1009 83 10000 2.6 230 17:18 03.01.2020
1196 Rain 24 1010 88 6000 4.1 190 16:42 03.01.2020
1197 Thunderstorm 24 1010 88 5000 4.1 210 16:22 03.01.2020
1198 Thunderstorm 24 1010 83 5000 6.7 210 15:43 03.01.2020
1199 Clouds 26 1010 83 8000 7.7 190 15:19 03.01.2020
1200 Clouds 26 1010 83 8000 7.7 190 15:19 03.01.2020
1201 Clouds 26 1010 83 10000 2.1 50 14:57 03.01.2020
1202 Clouds 26 1010 83 10000 2.1 50 14:37 03.01.2020
1203 Clouds 27 1010 83 10000 2.1 50 14:19 03.01.2020
1204 Clouds 26 1009 88 10000 2.6 200 13:43 03.01.2020
1205 Clouds 27 1009 88 10000 2.6 200 13:23 03.01.2020
1206 Clouds 27 1009 88 10000 2.1 360 12:57 03.01.2020
1207 Clouds 27 1009 88 10000 2.1 360 12:38 03.01.2020
1208 Clouds 25 1009 88 10000 2.1 360 12:20 03.01.2020
1209 Clouds 23 1009 88 10000 2.6 300 11:44 03.01.2020
1210 Clouds 23 1009 88 10000 2.6 300 11:20 03.01.2020
1211 Clouds 23 1008 94 10000 2.1 30 10:44 03.01.2020
1212 Clouds 23 1008 94 10000 2.1 30 10:25 03.01.2020
1213 Clouds 23 1008 94 10000 3.1 30 09:58 03.01.2020
1214 Clouds 24 1008 94 10000 3.1 30 09:39 03.01.2020
1215 Clouds 23 1008 94 10000 3.1 30 09:21 03.01.2020
1216 Clouds 23 1007 94 10000 3.1 10 08:56 03.01.2020
1217 Clouds 23 1007 94 10000 3.1 10 08:37 03.01.2020
1218 Clouds 23 1007 94 10000 3.1 10 08:19 03.01.2020
1219 Clouds 24 1008 94 10000 3.1 30 07:39 03.01.2020
1220 Clouds 23 1008 94 10000 3.1 30 07:18 03.01.2020
1221 Clouds 24 1007 88 10000 2.6 340 06:47 03.01.2020
1222 Clouds 24 1007 88 10000 2.6 340 06:29 03.01.2020
1223 Clouds 24 1007 94 10000 3.6 30 05:30 03.01.2020
1224 Clouds 23 1007 88 10000 2.6 50 04:21 03.01.2020
1225 Clouds 24 1009 88 10000 2.1 320 02:56 03.01.2020
1226 Clouds 24 1009 88 10000 2.1 320 02:56 03.01.2020
1227 Clouds 24 1009 88 10000 2.1 320 02:28 03.01.2020
1228 Clouds 24 1009 88 10000 1 360 01:42 03.01.2020
1229 Clouds 24 1009 88 10000 1 360 01:42 03.01.2020
1230 Rain 24 1009 94 6000 2.6 30 00:50 03.01.2020
1231 Rain 25 1009 94 6000 2.6 30 00:30 03.01.2020
1232 Rain 25 1009 94 5000 3.1 20 23:55 02.01.2020
1233 Rain 24 1009 94 6000 5.1 20 23:37 02.01.2020
1234 Rain 25 1009 94 6000 5.1 20 23:18 02.01.2020
1235 Rain 25 1009 88 10000 8.2 40 22:45 02.01.2020
1236 Rain 25 1009 88 10000 8.2 40 22:45 02.01.2020
1237 Thunderstorm 27 1008 88 7000 3.6 120 22:21 02.01.2020
1238 Rain 27 1008 74 10000 4.1 240 22:00 02.01.2020
1239 Rain 27 1008 74 10000 4.1 240 21:41 02.01.2020
1240 Clouds 28 1007 74 10000 4.1 180 21:23 02.01.2020
1241 Clouds 29 1005 62 10000 7.7 190 20:59 02.01.2020
1242 Clouds 29 1005 62 10000 7.7 190 20:39 02.01.2020
1243 Clouds 30 1005 62 10000 7.7 190 20:21 02.01.2020
1244 Clouds 30 1005 66 10000 7.7 190 19:55 02.01.2020
1245 Clouds 30 1005 66 10000 7.7 190 19:55 02.01.2020
1246 Clouds 30 1005 66 10000 7.7 190 19:37 02.01.2020
1247 Clouds 30 1005 66 10000 7.7 190 19:19 02.01.2020
1248 Clouds 29 1006 66 10000 7.7 190 18:58 02.01.2020
1249 Clouds 28 1006 66 10000 7.7 190 18:39 02.01.2020
1250 Clouds 30 1006 66 10000 7.7 190 18:21 02.01.2020
1251 Clouds 30 1006 69 10000 4.1 160 17:56 02.01.2020
1252 Clouds 29 1006 69 10000 4.1 160 17:37 02.01.2020
1253 Clouds 29 1006 69 10000 4.1 160 17:19 02.01.2020
1254 Clouds 29 1006 74 10000 4.6 150 16:56 02.01.2020
1255 Clouds 29 1006 74 10000 4.6 150 16:38 02.01.2020
1256 Clouds 29 1006 74 10000 4.6 150 16:20 02.01.2020
1257 Clouds 29 1006 78 10000 4.6 150 15:45 02.01.2020
1258 Clouds 29 1006 78 10000 4.6 150 15:24 02.01.2020
1259 Clouds 29 1006 74 10000 5.1 150 14:58 02.01.2020
1260 Clouds 29 1006 74 10000 5.1 150 14:39 02.01.2020
1261 Clouds 28 1006 74 10000 5.1 150 14:21 02.01.2020
1262 Clouds 28 1006 78 10000 2.6 140 13:58 02.01.2020
1263 Clouds 28 1006 78 10000 2.6 140 13:40 02.01.2020
1264 Clouds 28 1006 78 10000 2.6 140 13:19 02.01.2020
1265 Clouds 25 1008 82 0 1.32 177 12:43 02.01.2020
1266 Clouds 28 1005 78 10000 1.5 90 12:23 02.01.2020
1267 Clouds 26 1005 78 10000 1.5 90 11:42 02.01.2020
1268 Clouds 27 1005 78 10000 1.5 90 11:24 02.01.2020
1269 Clouds 26 1005 83 10000 3.1 10 10:56 02.01.2020
1270 Clouds 25 1005 83 10000 3.1 10 10:37 02.01.2020
1271 Clouds 25 1005 83 10000 3.1 10 10:18 02.01.2020
1272 Clouds 27 1004 83 10000 3.6 200 09:41 02.01.2020
1273 Clouds 27 1004 83 10000 3.6 200 09:22 02.01.2020
1274 Clouds 27 1004 78 10000 4.1 350 08:43 02.01.2020
1275 Clouds 27 1004 78 10000 4.1 350 08:25 02.01.2020
1276 Clouds 27 1003 78 10000 3.6 330 07:48 02.01.2020
1277 Clouds 27 1003 78 10000 3.6 330 07:28 02.01.2020
1278 Clouds 27 1004 83 10000 4.6 350 06:43 02.01.2020
1279 Clouds 27 1004 78 10000 3.6 340 05:54 02.01.2020
1280 Clouds 27 1005 74 10000 3.1 100 04:38 02.01.2020
1281 Clouds 27 1005 74 10000 3.1 100 04:19 02.01.2020
1282 Clouds 28 1005 66 10000 4.1 330 02:25 02.01.2020
1283 Clouds 28 1005 79 10000 4.6 300 01:57 02.01.2020
1284 Clouds 28 1005 79 10000 4.6 300 01:32 02.01.2020
1285 Clouds 29 1004 62 10000 2.6 320 00:52 02.01.2020
1286 Clouds 29 1004 62 10000 2.6 320 00:32 02.01.2020
1287 Clouds 29 1003 62 10000 2.1 320 23:48 01.01.2020
1288 Rain 31 1003 62 10000 2.1 320 23:25 01.01.2020
1289 Clouds 31 1003 58 10000 4.1 180 22:55 01.01.2020
1290 Clouds 26 1003 58 10000 4.1 180 22:37 01.01.2020
1291 Clouds 34 1003 58 10000 4.1 180 22:18 01.01.2020
1292 Clouds 34 1003 58 10000 5.7 200 21:42 01.01.2020
1293 Clouds 35 1003 58 10000 5.7 200 21:21 01.01.2020
1294 Clouds 33 1003 66 10000 5.1 180 20:59 01.01.2020
1295 Clouds 30 1003 66 10000 5.1 180 20:39 01.01.2020
1296 Clouds 33 1003 66 10000 5.1 180 20:21 01.01.2020
1297 Clouds 34 1004 62 10000 6.2 170 19:58 01.01.2020
1298 Clouds 34 1004 62 10000 6.2 170 19:39 01.01.2020
1299 Clouds 34 1004 62 10000 6.2 170 19:21 01.01.2020
1300 Clouds 34 1004 62 10000 4.6 160 18:59 01.01.2020
1301 Clouds 34 1004 62 10000 4.6 160 18:39 01.01.2020
1302 Clouds 34 1004 62 10000 4.6 160 18:20 01.01.2020
1303 Clouds 34 1005 59 10000 3.1 150 17:59 01.01.2020
1304 Clouds 34 1005 59 10000 3.1 150 17:40 01.01.2020
1305 Clouds 34 1005 59 10000 3.1 150 17:20 01.01.2020
1306 Clouds 35 1006 52 10000 2.6 60 16:59 01.01.2020
1307 Clouds 35 1006 52 10000 2.6 60 16:39 01.01.2020
1308 Clouds 35 1006 52 10000 2.6 60 16:20 01.01.2020
1309 Clouds 33 1006 62 10000 2.1 70 15:57 01.01.2020
1310 Clouds 33 1006 62 10000 2.1 70 15:38 01.01.2020
1311 Clouds 33 1006 62 10000 2.1 70 15:20 01.01.2020
1312 Clouds 32 1007 58 10000 2.6 330 14:56 01.01.2020
1313 Clouds 31 1007 58 10000 2.6 330 14:38 01.01.2020
1314 Clouds 32 1007 58 10000 2.6 330 14:20 01.01.2020
1315 Clouds 30 1007 62 10000 3.1 360 13:55 01.01.2020
1316 Clouds 27 1007 62 10000 3.1 360 13:37 01.01.2020
1317 Clouds 30 1007 62 10000 3.1 360 13:18 01.01.2020
1318 Clouds 29 1007 74 10000 2.6 360 12:55 01.01.2020
1319 Clouds 26 1007 74 10000 2.6 360 12:37 01.01.2020
1320 Clouds 28 1007 74 10000 2.6 360 12:18 01.01.2020
1321 Clouds 28 1007 78 10000 2.6 350 11:43 01.01.2020
1322 Clouds 25 1007 78 10000 2.6 350 11:21 01.01.2020
1323 Clouds 25 1007 78 10000 2.6 330 10:58 01.01.2020
1324 Clouds 24 1007 78 10000 2.6 330 10:39 01.01.2020
1325 Clouds 24 1007 78 10000 2.6 330 10:20 01.01.2020
1326 Clouds 24 1007 83 10000 2.1 10 09:55 01.01.2020
1327 Clouds 24 1007 83 10000 2.1 10 09:36 01.01.2020
1328 Clouds 24 1007 83 10000 2.1 10 09:18 01.01.2020
1329 Clouds 24 1007 83 10000 2.1 330 08:54 01.01.2020
1330 Clouds 24 1007 83 10000 2.1 330 08:36 01.01.2020
1331 Clouds 24 1007 83 10000 2.1 330 08:18 01.01.2020
1332 Clouds 24 1007 78 10000 2.1 330 07:42 01.01.2020
1333 Clouds 24 1007 78 10000 2.1 330 07:24 01.01.2020
1334 Clouds 25 1007 83 10000 1 360 06:44 01.01.2020
1335 Clouds 25 1007 83 10000 1 360 06:19 01.01.2020
1336 Clear 25 1008 83 10000 2.6 350 04:36 01.01.2020
1337 Clear 26 1008 78 10000 1 360 03:41 01.01.2020
1338 Clear 26 1008 78 10000 1 360 03:22 01.01.2020
1339 Clear 26 1008 78 10000 2.6 90 02:54 01.01.2020
1340 Clear 27 1008 78 10000 2.6 90 02:30 01.01.2020
1341 Clear 27 1007 83 10000 2.6 60 01:45 01.01.2020
1342 Clear 26 1007 83 10000 2.6 60 01:24 01.01.2020
1343 Clear 27 1007 74 10000 2.6 50 00:56 01.01.2020
1344 Clear 28 1007 74 10000 2.6 50 00:37 01.01.2020
1345 Clear 27 1007 74 10000 2.6 50 00:18 01.01.2020
1346 Clouds 27 1006 62 10000 1 70 23:39 31.12.2019
1347 Clouds 29 1006 62 10000 1 70 23:19 31.12.2019
1348 Clouds 29 1006 69 10000 2.6 180 22:57 31.12.2019
1349 Clouds 29 1006 69 10000 2.6 180 22:38 31.12.2019
1350 Clouds 30 1006 69 10000 2.6 180 22:18 31.12.2019
1351 Clouds 31 1006 66 10000 4.6 180 21:54 31.12.2019
1352 Clouds 30 1006 66 10000 4.6 180 21:36 31.12.2019
1353 Clouds 32 1006 66 10000 4.6 180 21:18 31.12.2019
1354 Clouds 32 1007 70 10000 6.2 180 20:40 31.12.2019
1355 Clouds 32 1007 70 10000 6.2 180 20:21 31.12.2019
1356 Clouds 31 1007 69 10000 7.2 160 19:59 31.12.2019
1357 Clouds 31 1007 69 10000 7.2 160 19:40 31.12.2019
1358 Clouds 32 1007 69 10000 7.2 160 19:22 31.12.2019
1359 Clouds 32 1008 74 10000 7.2 160 18:58 31.12.2019
1360 Clouds 32 1008 74 10000 7.2 160 18:40 31.12.2019
1361 Clouds 31 1008 74 10000 7.2 160 18:19 31.12.2019
1362 Clouds 31 1009 74 10000 6.7 160 17:56 31.12.2019
1363 Clouds 31 1009 74 10000 6.7 160 17:37 31.12.2019
1364 Clouds 31 1009 74 10000 6.7 160 17:19 31.12.2019
1365 Clear 31 1009 65 10000 5.1 150 16:57 31.12.2019
1366 Clear 31 1009 65 10000 5.1 150 16:38 31.12.2019
1367 Clear 31 1009 65 10000 5.1 150 16:19 31.12.2019
1368 Clear 31 1010 69 10000 3.1 150 15:56 31.12.2019
1369 Clear 30 1010 69 10000 3.1 150 15:38 31.12.2019
1370 Clear 31 1010 69 10000 3.1 150 15:38 31.12.2019
1371 Clear 31 1010 69 10000 3.1 150 15:20 31.12.2019
1372 Clear 30 1010 83 10000 2.6 140 14:57 31.12.2019
1373 Clear 30 1010 83 10000 2.6 140 14:38 31.12.2019
1374 Clear 28 1010 83 10000 2.6 140 14:19 31.12.2019
1375 Clear 28 1010 83 10000 2.6 140 14:19 31.12.2019
1376 Clear 28 1010 78 10000 2.1 120 13:57 31.12.2019
1377 Clear 26 1010 74 10000 1.5 360 13:39 31.12.2019
1378 Clear 28 1010 74 10000 1.5 360 13:20 31.12.2019
1379 Clear 27 1011 78 10000 2.1 320 12:56 31.12.2019
1380 Clear 25 1011 78 10000 2.1 320 12:38 31.12.2019
1381 Clear 26 1011 78 10000 2.1 320 12:20 31.12.2019
1382 Clear 26 1011 78 10000 1 40 11:56 31.12.2019
1383 Clear 25 1011 78 10000 1 40 11:38 31.12.2019
1384 Clear 23 1011 78 10000 1 40 11:20 31.12.2019
1385 Clouds 23 1010 83 10000 2.19 28 10:57 31.12.2019
1386 Clouds 23 1010 83 10000 2.19 28 10:57 31.12.2019
1387 Clouds 22 1010 83 10000 2.19 28 10:38 31.12.2019
1388 Clouds 22 1010 83 10000 2.19 28 10:38 31.12.2019
1389 Clouds 22 1010 83 10000 2.19 28 10:20 31.12.2019
1390 Clouds 24 1009 88 10000 2.1 70 09:58 31.12.2019
1391 Clouds 23 1009 88 10000 2.1 70 09:39 31.12.2019
1392 Clouds 23 1009 88 10000 2.1 70 09:39 31.12.2019
1393 Clouds 23 1009 88 10000 2.1 70 09:20 31.12.2019
1394 Clear 23 1009 88 10000 1.5 100 08:57 31.12.2019
1395 Clear 23 1009 88 10000 1.5 100 08:37 31.12.2019
1396 Clear 23 1009 88 10000 1.5 100 08:19 31.12.2019
1397 Clouds 24 1009 83 10000 2.6 50 07:42 31.12.2019
1398 Clouds 24 1009 83 10000 2.6 50 07:20 31.12.2019
1399 Clouds 24 1009 83 10000 1.5 50 06:49 31.12.2019
1400 Clouds 24 1009 83 10000 2.6 40 05:57 31.12.2019
1401 Clear 24 1010 88 10000 1 160 04:28 31.12.2019
1402 Clouds 24 1010 88 10000 1.5 150 03:27 31.12.2019
1403 Clouds 24 1011 88 10000 2.1 160 02:54 31.12.2019
1404 Clouds 24 1011 88 10000 2.1 160 02:54 31.12.2019
1405 Clouds 24 1011 88 10000 2.1 160 02:54 31.12.2019
1406 Clouds 25 1010 78 10000 3.1 150 01:58 31.12.2019
1407 Clouds 25 1010 78 10000 3.1 150 01:40 31.12.2019
1408 Clouds 26 1010 78 10000 3.1 150 01:22 31.12.2019
1409 Clouds 26 1010 83 10000 4.1 160 00:45 31.12.2019
1410 Clouds 27 1010 83 10000 4.1 160 00:22 31.12.2019
1411 Clouds 25 1010 83 10000 2.1 300 23:56 30.12.2019
1412 Clouds 25 1010 83 10000 2.1 300 23:38 30.12.2019
1413 Clouds 25 1010 83 10000 2.1 300 23:20 30.12.2019
1414 Clouds 26 1009 74 10000 4.6 160 22:57 30.12.2019
1415 Clouds 26 1009 74 10000 4.6 160 22:38 30.12.2019
1416 Clouds 29 1009 74 10000 4.6 160 22:20 30.12.2019
1417 Clouds 29 1009 74 10000 6.2 140 21:56 30.12.2019
1418 Clouds 26 1009 74 10000 6.2 140 21:38 30.12.2019
1419 Clouds 29 1009 74 10000 6.2 140 21:18 30.12.2019
1420 Clouds 29 1009 78 10000 7.7 160 20:56 30.12.2019
1421 Clouds 29 1009 78 10000 7.7 160 20:56 30.12.2019
1422 Clouds 27 1009 78 10000 7.7 160 20:38 30.12.2019
1423 Clouds 29 1009 78 10000 7.7 160 20:20 30.12.2019
1424 Clouds 29 1009 83 10000 7.7 160 19:57 30.12.2019
1425 Clouds 29 1009 83 10000 7.7 160 19:37 30.12.2019
1426 Clouds 29 1009 83 10000 7.7 160 19:19 30.12.2019
1427 Clouds 29 1009 83 10000 7.7 160 19:19 30.12.2019
1428 Clouds 29 1010 83 10000 7.2 160 18:56 30.12.2019
1429 Clouds 27 1010 83 10000 7.2 160 18:38 30.12.2019
1430 Clouds 29 1010 83 10000 7.2 160 18:20 30.12.2019
1431 Clouds 29 1010 83 10000 7.2 160 17:55 30.12.2019
1432 Clouds 29 1010 83 10000 7.2 160 17:37 30.12.2019
1433 Clouds 29 1010 83 10000 7.2 160 17:18 30.12.2019
1434 Clouds 29 1011 78 10000 6.7 160 16:57 30.12.2019
1435 Clouds 27 1011 78 10000 6.7 160 16:36 30.12.2019
1436 Clouds 29 1011 78 10000 6.7 160 16:18 30.12.2019
1437 Clouds 28 1012 78 10000 5.1 160 15:55 30.12.2019
1438 Clouds 27 1012 78 10000 5.1 160 15:36 30.12.2019
1439 Clouds 28 1012 78 10000 5.1 160 15:18 30.12.2019
1440 Clouds 27 1012 78 10000 4.6 150 14:42 30.12.2019
1441 Clouds 27 1012 78 10000 4.6 150 14:20 30.12.2019
1442 Clouds 27 1012 83 10000 3.1 140 13:56 30.12.2019
1443 Clouds 24 1012 83 10000 3.1 140 13:37 30.12.2019
1444 Clouds 26 1012 83 10000 3.1 140 13:19 30.12.2019
1445 Clouds 27 1012 74 10000 2.1 320 12:56 30.12.2019
1446 Clouds 27 1012 74 10000 2.1 320 12:36 30.12.2019
1447 Clouds 26 1012 74 10000 2.1 320 12:18 30.12.2019
1448 Clouds 25 1012 78 10000 1.5 60 11:40 30.12.2019
1449 Clouds 22 1012 78 10000 1.5 60 11:19 30.12.2019
1450 Clouds 22 1011 83 10000 2.13 25 10:57 30.12.2019
1451 Clouds 21 1011 83 10000 2.13 25 10:38 30.12.2019
1452 Clouds 24 1011 83 10000 2.13 25 10:18 30.12.2019
1453 Clouds 24 1011 83 10000 1 40 09:41 30.12.2019
1454 Clouds 24 1011 83 10000 1 40 09:20 30.12.2019
1455 Clouds 24 1011 88 10000 3.1 30 08:55 30.12.2019
1456 Clouds 23 1011 88 10000 3.1 30 08:36 30.12.2019
1457 Clouds 24 1011 88 10000 3.1 30 08:18 30.12.2019
1458 Clouds 24 1011 78 10000 2.1 40 07:41 30.12.2019
1459 Clouds 25 1011 78 10000 3.1 70 06:58 30.12.2019
1460 Clouds 25 1011 78 10000 3.1 70 06:24 30.12.2019
1461 Clouds 25 1012 73 10000 3.1 80 04:23 30.12.2019
1462 Clouds 25 1013 78 10000 2.6 120 03:42 30.12.2019
1463 Clouds 25 1013 83 10000 2.6 150 02:41 30.12.2019
1464 Clear 25 1013 83 10000 2.6 150 02:20 30.12.2019
1465 Clear 26 1013 83 10000 2.6 120 01:26 30.12.2019
1466 Clouds 26 1012 83 10000 3.6 180 00:47 30.12.2019
1467 Clouds 26 1012 83 10000 3.6 180 00:28 30.12.2019
1468 Clouds 25 1012 83 10000 5.1 180 23:40 29.12.2019
1469 Clouds 25 1012 83 10000 5.1 180 23:22 29.12.2019
1470 Clouds 26 1012 74 10000 6.2 150 22:57 29.12.2019
1471 Clouds 25 1012 74 10000 6.2 150 22:38 29.12.2019
1472 Clouds 27 1012 74 10000 6.2 150 22:20 29.12.2019
1473 Rain 29 1011 78 10000 7.2 170 21:55 29.12.2019
1474 Rain 25 1011 78 10000 7.2 170 21:37 29.12.2019
1475 Rain 29 1011 78 10000 7.2 170 21:18 29.12.2019
1476 Clouds 29 1011 78 10000 6.7 170 20:55 29.12.2019
1477 Clouds 29 1011 78 10000 6.7 170 20:55 29.12.2019
1478 Clouds 29 1011 78 10000 6.7 170 20:37 29.12.2019
1479 Clouds 29 1011 78 10000 6.7 170 20:18 29.12.2019
1480 Clouds 29 1012 78 10000 7.7 160 19:55 29.12.2019
1481 Clouds 26 1012 78 10000 7.7 160 19:37 29.12.2019
1482 Clouds 29 1012 78 10000 7.7 160 19:18 29.12.2019
1483 Clouds 31 1012 66 10000 5.1 160 18:54 29.12.2019
1484 Clouds 27 1012 66 10000 5.1 160 18:36 29.12.2019
1485 Clouds 31 1012 66 10000 5.1 160 18:18 29.12.2019
1486 Clouds 31 1013 66 10000 5.7 160 17:55 29.12.2019
1487 Clouds 30 1013 66 10000 5.7 160 17:36 29.12.2019
1488 Clouds 30 1013 66 10000 5.7 160 17:18 29.12.2019
1489 Clouds 30 1013 74 10000 5.7 160 16:54 29.12.2019
1490 Clouds 29 1013 74 10000 5.7 160 16:36 29.12.2019
1491 Clouds 29 1013 74 10000 5.7 160 16:18 29.12.2019
1492 Clouds 29 1014 78 10000 6.2 160 15:55 29.12.2019
1493 Clouds 27 1014 78 10000 6.2 160 15:37 29.12.2019
1494 Clouds 29 1014 78 10000 6.2 160 15:18 29.12.2019
1495 Clouds 29 1014 74 10000 4.1 140 14:55 29.12.2019
1496 Clouds 28 1014 74 10000 4.1 140 14:37 29.12.2019
1497 Clouds 28 1014 74 10000 4.1 140 14:18 29.12.2019
1498 Clouds 28 1014 78 10000 3.6 160 13:40 29.12.2019
1499 Clouds 28 1014 78 10000 3.6 160 13:40 29.12.2019
1500 Clouds 28 1014 78 10000 3.6 160 13:22 29.12.2019
1501 Clear 28 1014 78 10000 2.1 130 12:59 29.12.2019
1502 Clear 28 1014 78 10000 2.1 130 12:41 29.12.2019
1503 Clear 26 1014 78 10000 2.1 130 12:22 29.12.2019
1504 Clear 26 1014 74 10000 2.1 130 11:54 29.12.2019
1505 Clear 24 1013 78 10000 1 10 11:36 29.12.2019
1506 Clear 24 1013 78 10000 1 10 11:18 29.12.2019
1507 Clouds 23 1013 83 10000 2.1 60 10:41 29.12.2019
1508 Clouds 23 1013 83 10000 2.1 60 10:20 29.12.2019
1509 Clouds 23 1013 88 10000 1 120 09:54 29.12.2019
1510 Clouds 24 1013 88 10000 1 120 09:36 29.12.2019
1511 Clouds 24 1013 88 10000 1 120 09:18 29.12.2019
1512 Clouds 24 1012 88 10000 2.6 30 08:44 29.12.2019
1513 Clouds 24 1012 88 10000 2.6 30 08:24 29.12.2019
1514 Clouds 25 1013 83 10000 4.1 30 07:54 29.12.2019
1515 Clouds 25 1013 83 10000 4.1 30 07:27 29.12.2019
1516 Clouds 24 1013 78 10000 4.1 80 06:53 29.12.2019
1517 Clouds 25 1013 78 10000 4.1 80 06:23 29.12.2019
1518 Clouds 25 1014 83 10000 3.1 80 05:48 29.12.2019
1519 Clouds 25 1014 83 10000 5.1 70 04:34 29.12.2019
1520 Clear 25 1015 83 10000 1.5 180 03:40 29.12.2019
1521 Clear 25 1015 83 10000 3.6 180 02:49 29.12.2019
1522 Clear 24 1015 83 10000 3.6 180 02:19 29.12.2019
1523 Clear 25 1014 78 10000 5.1 130 01:31 29.12.2019
1524 Clear 26 1013 78 10000 2.1 120 00:51 29.12.2019
1525 Clear 26 1013 78 10000 2.1 120 00:27 29.12.2019
1526 Clouds 26 1013 78 10000 5.1 190 23:57 28.12.2019
1527 Clouds 26 1013 78 10000 5.1 190 23:39 28.12.2019
1528 Clouds 27 1013 78 10000 5.1 190 23:18 28.12.2019
1529 Clouds 27 1012 74 10000 5.1 200 22:39 28.12.2019
1530 Clouds 29 1012 74 10000 5.1 200 22:19 28.12.2019
1531 Clouds 29 1012 69 10000 6.7 200 21:57 28.12.2019
1532 Clouds 29 1012 69 10000 6.7 200 21:39 28.12.2019
1533 Clouds 30 1012 69 10000 6.7 200 21:20 28.12.2019
1534 Clouds 29 1012 78 10000 5.1 170 20:56 28.12.2019
1535 Clouds 29 1012 78 10000 5.1 170 20:37 28.12.2019
1536 Clouds 30 1012 78 10000 5.1 170 20:19 28.12.2019
1537 Clouds 30 1013 69 10000 6.7 160 19:55 28.12.2019
1538 Clouds 30 1013 69 10000 6.7 160 19:37 28.12.2019
1539 Clouds 30 1013 69 10000 6.7 160 19:18 28.12.2019
1540 Clouds 29 1014 69 10000 5.7 160 18:56 28.12.2019
1541 Clouds 28 1014 69 10000 5.7 160 18:38 28.12.2019
1542 Clouds 30 1014 69 10000 5.7 160 18:18 28.12.2019
1543 Clouds 30 1014 78 10000 6.2 170 17:42 28.12.2019
1544 Clouds 30 1014 78 10000 6.2 170 17:21 28.12.2019
1545 Clouds 30 1015 78 10000 5.7 150 16:59 28.12.2019
1546 Clouds 30 1015 78 10000 5.7 150 16:41 28.12.2019
1547 Clouds 30 1015 78 10000 5.7 150 16:23 28.12.2019
1548 Clouds 30 1016 78 10000 4.1 150 15:43 28.12.2019
1549 Clouds 29 1016 78 10000 4.1 150 15:23 28.12.2019
1550 Clouds 29 1016 78 10000 3.1 130 14:57 28.12.2019
1551 Clouds 27 1016 78 10000 3.1 130 14:38 28.12.2019
1552 Clouds 28 1016 78 10000 3.1 130 14:20 28.12.2019
1553 Clouds 28 1016 78 10000 1.5 60 13:43 28.12.2019
1554 Clouds 28 1016 78 10000 1.5 60 13:23 28.12.2019
1555 Clouds 27 1016 78 10000 1 120 12:59 28.12.2019
1556 Clouds 27 1016 78 10000 1 120 12:41 28.12.2019
1557 Clouds 26 1016 78 10000 1 120 12:22 28.12.2019
1558 Clouds 26 1015 78 10000 1 30 11:55 28.12.2019
1559 Clouds 24 1015 83 10000 0.5 100 11:37 28.12.2019
1560 Clouds 24 1015 83 10000 0.5 100 11:18 28.12.2019
1561 Clouds 23 1015 88 10000 2.1 140 10:43 28.12.2019
1562 Clouds 25 1015 88 10000 2.1 140 10:20 28.12.2019
1563 Clouds 24 1014 88 10000 1.5 120 09:57 28.12.2019
1564 Clouds 24 1014 88 10000 1.5 120 09:39 28.12.2019
1565 Clouds 24 1014 88 10000 1.5 120 09:19 28.12.2019
1566 Clouds 24 1014 83 10000 1 180 08:44 28.12.2019
1567 Clouds 24 1014 83 10000 1 180 08:26 28.12.2019
1568 Clouds 24 1013 83 10000 1.5 70 07:49 28.12.2019
1569 Clouds 25 1013 83 10000 1.5 70 07:27 28.12.2019
1570 Clouds 25 1014 83 10000 2.1 60 06:21 28.12.2019
1571 Clouds 25 1015 83 10000 2.6 70 04:36 28.12.2019
1572 Clear 25 1015 83 10000 2.1 70 03:39 28.12.2019
1573 Clouds 25 1015 83 10000 2.1 140 02:48 28.12.2019
1574 Clouds 25 1015 78 10000 4.1 110 01:59 28.12.2019
1575 Clouds 26 1015 78 10000 4.1 110 01:30 28.12.2019
1576 Clouds 26 1014 78 10000 2.1 140 00:55 28.12.2019
1577 Clouds 26 1014 78 10000 2.1 140 00:37 28.12.2019
1578 Clouds 26 1014 78 10000 2.1 140 00:19 28.12.2019
1579 Clouds 26 1014 74 10000 5.7 190 23:43 27.12.2019
1580 Clouds 27 1014 74 10000 5.7 190 23:20 27.12.2019
1581 Clouds 27 1014 74 10000 6.7 190 22:57 27.12.2019
1582 Clouds 27 1014 74 10000 6.7 190 22:38 27.12.2019
1583 Clouds 28 1014 74 10000 6.7 190 22:20 27.12.2019
1584 Clouds 28 1014 78 10000 7.7 180 21:55 27.12.2019
1585 Clouds 27 1014 78 10000 7.7 180 21:37 27.12.2019
1586 Clouds 29 1014 78 10000 7.7 180 21:18 27.12.2019
1587 Clouds 28 1014 83 10000 7.7 170 20:41 27.12.2019
1588 Clouds 29 1014 83 10000 7.7 170 20:22 27.12.2019
1589 Clouds 29 1015 78 10000 6.7 160 19:43 27.12.2019
1590 Clouds 29 1015 78 10000 6.7 160 19:21 27.12.2019
1591 Clouds 29 1015 78 10000 6.7 160 18:59 27.12.2019
1592 Clouds 29 1015 78 10000 6.7 160 18:39 27.12.2019
1593 Clouds 29 1015 78 10000 6.7 160 18:21 27.12.2019
1594 Clouds 29 1016 74 10000 6.2 160 17:58 27.12.2019
1595 Clouds 28 1016 74 10000 6.2 160 17:39 27.12.2019
1596 Clouds 30 1016 74 10000 6.2 160 17:19 27.12.2019
1597 Clouds 29 1016 78 10000 5.1 150 16:58 27.12.2019
1598 Clouds 28 1016 78 10000 5.1 150 16:38 27.12.2019
1599 Clouds 29 1016 78 10000 5.1 150 16:19 27.12.2019
1600 Clouds 29 1016 78 10000 5.1 160 15:45 27.12.2019
1601 Clouds 28 1016 78 10000 5.1 160 15:22 27.12.2019
1602 Clouds 28 1016 83 10000 4.6 160 14:58 27.12.2019
1603 Clouds 28 1016 83 10000 4.6 160 14:39 27.12.2019
1604 Clouds 27 1016 83 10000 4.6 160 14:20 27.12.2019
1605 Clouds 27 1016 83 10000 2.6 140 13:57 27.12.2019
1606 Clouds 27 1016 83 10000 2.6 140 13:38 27.12.2019
1607 Clouds 26 1016 83 10000 2.6 140 13:38 27.12.2019
1608 Clouds 27 1016 83 10000 2.6 140 13:20 27.12.2019
1609 Clouds 26 1016 83 8000 2.1 130 12:42 27.12.2019
1610 Clouds 25 1016 88 8000 1.5 130 12:23 27.12.2019
1611 Clouds 25 1015 88 8000 1.5 150 11:46 27.12.2019
1612 Clouds 24 1015 88 8000 1.5 150 11:27 27.12.2019
1613 Clouds 22 1016 83 10000 1.5 30 10:59 27.12.2019
1614 Clouds 22 1016 83 10000 1.5 30 10:41 27.12.2019
1615 Clouds 22 1015 94 7000 1.5 140 10:22 27.12.2019
1616 Clouds 24 1014 94 10000 1 130 09:49 27.12.2019
1617 Clouds 24 1014 94 10000 1 130 09:22 27.12.2019
1618 Clouds 24 1014 94 10000 2.1 140 08:59 27.12.2019
1619 Clouds 25 1014 94 10000 2.1 140 08:38 27.12.2019
1620 Clouds 24 1014 94 10000 2.1 140 08:18 27.12.2019
1621 Clouds 24 1014 94 10000 2.1 150 07:38 27.12.2019
1622 Clouds 24 1014 94 10000 3.1 150 06:43 27.12.2019
1623 Clouds 25 1014 94 10000 3.1 150 06:22 27.12.2019
1624 Clouds 25 1015 88 10000 2.6 130 04:37 27.12.2019
1625 Clouds 25 1015 88 10000 1 140 02:28 27.12.2019
1626 Clouds 25 1014 88 10000 2.1 120 01:44 27.12.2019
1627 Clouds 25 1014 88 10000 2.1 120 01:21 27.12.2019
1628 Clouds 25 1014 88 10000 3.6 180 00:46 27.12.2019
1629 Clouds 25 1014 88 10000 3.6 180 00:25 27.12.2019
1630 Clouds 25 1013 88 10000 6.2 200 23:56 26.12.2019
1631 Clouds 25 1013 88 10000 6.2 200 23:37 26.12.2019
1632 Clouds 26 1013 88 10000 6.2 200 23:19 26.12.2019
1633 Clouds 26 1014 88 10000 6.2 190 22:40 26.12.2019
1634 Clouds 27 1014 88 10000 6.2 190 22:18 26.12.2019
1635 Clouds 27 1013 88 10000 7.7 170 21:40 26.12.2019
1636 Clouds 28 1013 88 10000 7.7 170 21:21 26.12.2019
1637 Clouds 28 1013 83 10000 7.7 170 20:58 26.12.2019
1638 Clouds 27 1013 83 10000 7.7 170 20:39 26.12.2019
1639 Clouds 29 1013 83 10000 7.7 170 20:21 26.12.2019
1640 Clouds 29 1013 83 10000 7.2 170 19:56 26.12.2019
1641 Clouds 29 1013 83 10000 7.2 170 19:38 26.12.2019
1642 Clouds 29 1013 83 10000 7.2 170 19:19 26.12.2019
1643 Clouds 29 1013 83 10000 7.2 170 18:57 26.12.2019
1644 Clouds 29 1013 83 10000 7.2 170 18:36 26.12.2019
1645 Clouds 29 1013 83 10000 7.2 170 18:18 26.12.2019
1646 Clouds 29 1014 78 10000 7.7 160 17:42 26.12.2019
1647 Clouds 29 1014 78 10000 7.7 160 17:22 26.12.2019
1648 Clouds 30 1014 83 10000 7.7 160 16:50 26.12.2019
1649 Clouds 29 1014 83 10000 7.7 160 16:28 26.12.2019
1650 Clear 29 1014 83 10000 7.7 160 15:59 26.12.2019
1651 Clear 29 1014 83 10000 7.7 160 15:40 26.12.2019
1652 Clear 29 1014 83 10000 7.7 160 15:19 26.12.2019
1653 Clear 29 1015 83 10000 5.1 140 14:42 26.12.2019
1654 Clear 28 1015 83 10000 5.1 140 14:23 26.12.2019
1655 Clouds 28 1015 83 10000 1 50 13:58 26.12.2019
1656 Clouds 27 1015 83 10000 1 50 13:39 26.12.2019
1657 Clouds 27 1015 83 10000 1 50 13:18 26.12.2019
1658 Clouds 26 1015 88 10000 1.5 40 12:56 26.12.2019
1659 Clouds 24 1015 88 10000 1.5 40 12:36 26.12.2019
1660 Clouds 25 1015 88 10000 1.5 40 12:18 26.12.2019
1661 Clouds 25 1014 88 10000 2.1 40 11:42 26.12.2019
1662 Clouds 23 1014 88 10000 2.1 40 11:23 26.12.2019
1663 Clouds 22 1014 88 10000 3.1 30 10:54 26.12.2019
1664 Clouds 22 1014 88 10000 3.1 30 10:36 26.12.2019
1665 Clouds 22 1014 88 10000 3.1 30 10:18 26.12.2019
1666 Clouds 22 1014 94 10000 2.1 20 09:42 26.12.2019
1667 Clouds 23 1014 94 10000 2.1 20 09:24 26.12.2019
1668 Clouds 23 1013 94 10000 1.5 20 08:40 26.12.2019
1669 Clouds 23 1013 94 10000 1.5 20 08:40 26.12.2019
1670 Clouds 23 1013 94 10000 1.5 20 08:22 26.12.2019
1671 Clear 23 1013 88 10000 1 20 07:50 26.12.2019
1672 Clear 23 1013 88 10000 1 20 07:26 26.12.2019
1673 Clear 23 1013 88 10000 2.1 320 06:48 26.12.2019
1674 Clear 23 1013 88 10000 2.1 320 06:30 26.12.2019
1675 Clear 24 1014 83 10000 1.24 3 05:45 26.12.2019
1676 Clear 24 1014 88 10000 1 70 04:38 26.12.2019
1677 Clouds 24 1015 83 10000 2.1 170 03:47 26.12.2019
1678 Clouds 25 1015 83 10000 2.1 170 02:54 26.12.2019
1679 Clouds 26 1015 83 10000 2.1 170 02:32 26.12.2019
1680 Clouds 26 1015 83 10000 3.1 160 01:46 26.12.2019
1681 Clouds 25 1015 83 10000 3.1 160 01:27 26.12.2019
1682 Clouds 25 1014 83 10000 3.6 150 00:48 26.12.2019
1683 Clouds 26 1014 83 10000 3.6 150 00:25 26.12.2019
1684 Clouds 25 1013 83 10000 3.6 140 23:58 25.12.2019
1685 Clouds 25 1013 83 10000 3.6 140 23:38 25.12.2019
1686 Clouds 25 1013 83 10000 3.6 140 23:20 25.12.2019
1687 Clouds 25 1013 88 10000 6.7 170 22:58 25.12.2019
1688 Clouds 25 1013 88 10000 6.7 170 22:38 25.12.2019
1689 Clouds 27 1013 88 10000 6.7 170 22:20 25.12.2019
1690 Clouds 27 1012 83 10000 7.2 170 21:57 25.12.2019
1691 Clouds 27 1012 83 10000 7.2 170 21:39 25.12.2019
1692 Clouds 26 1012 83 10000 7.2 170 21:39 25.12.2019
1693 Clouds 28 1012 83 10000 7.2 170 21:19 25.12.2019
1694 Clouds 28 1013 78 10000 6.7 170 20:54 25.12.2019
1695 Clouds 27 1013 78 10000 6.7 170 20:36 25.12.2019
1696 Clouds 27 1013 78 10000 6.7 170 20:36 25.12.2019
1697 Clouds 28 1013 78 10000 6.7 170 20:18 25.12.2019
1698 Clouds 29 1013 78 10000 6.7 170 19:42 25.12.2019
1699 Clouds 29 1013 78 10000 6.7 170 19:23 25.12.2019
1700 Clouds 29 1013 78 10000 7.2 170 18:58 25.12.2019
1701 Clouds 29 1013 78 10000 7.2 170 18:36 25.12.2019
1702 Clouds 29 1013 78 10000 7.2 170 18:18 25.12.2019
1703 Clouds 29 1013 78 10000 6.2 170 17:41 25.12.2019
1704 Clouds 29 1013 78 10000 6.2 170 17:19 25.12.2019
1705 Clouds 28 1014 78 10000 6.7 160 16:57 25.12.2019
1706 Clouds 27 1014 78 10000 6.7 160 16:37 25.12.2019
1707 Clouds 28 1014 78 10000 6.7 160 16:18 25.12.2019
1708 Clouds 28 1014 74 10000 4.1 140 15:56 25.12.2019
1709 Clouds 28 1014 74 10000 4.1 140 15:38 25.12.2019
1710 Clouds 28 1014 74 10000 4.1 140 15:38 25.12.2019
1711 Clouds 28 1014 74 10000 4.1 140 15:19 25.12.2019
1712 Clouds 28 1014 74 10000 4.1 140 15:19 25.12.2019
1713 Clouds 27 1014 74 10000 2.6 130 14:56 25.12.2019
1714 Clouds 26 1014 74 10000 1.5 360 14:37 25.12.2019
1715 Clouds 27 1014 74 10000 1.5 360 14:19 25.12.2019
1716 Clouds 26 1014 88 10000 2.1 20 13:44 25.12.2019
1717 Clouds 25 1014 88 10000 2.1 20 13:21 25.12.2019
1718 Clouds 24 1014 88 10000 2.6 360 12:56 25.12.2019
1719 Clouds 24 1014 88 10000 2.6 360 12:38 25.12.2019
1720 Clouds 22 1014 94 8000 3.1 20 12:19 25.12.2019
1721 Clouds 22 1014 94 7000 2.6 20 11:43 25.12.2019
1722 Clouds 21 1014 94 7000 2.6 20 11:22 25.12.2019
1723 Clouds 21 1013 88 8000 3.1 30 10:59 25.12.2019
1724 Clouds 21 1013 88 8000 3.1 30 10:36 25.12.2019
1725 Clouds 20 1013 88 8000 3.1 30 10:18 25.12.2019
1726 Clouds 21 1013 88 9000 2.6 360 09:44 25.12.2019
1727 Clouds 22 1013 88 9000 2.6 360 09:26 25.12.2019
1728 Clouds 22 1013 88 10000 2.1 30 08:46 25.12.2019
1729 Clouds 22 1013 88 10000 2.1 30 08:26 25.12.2019
1730 Clouds 22 1013 88 10000 2.1 60 07:48 25.12.2019
1731 Clouds 22 1013 88 10000 2.1 60 07:29 25.12.2019
1732 Clouds 22 1013 94 10000 1.5 40 06:49 25.12.2019
1733 Clouds 22 1013 94 10000 1.5 40 06:22 25.12.2019
1734 Clouds 22 1014 88 10000 1.5 360 04:50 25.12.2019
1735 Clouds 22 1014 88 10000 1.5 360 04:26 25.12.2019
1736 Clouds 23 1015 83 10000 1 10 03:58 25.12.2019
1737 Clouds 23 1015 83 10000 1 10 03:40 25.12.2019
1738 Clouds 23 1015 88 10000 3.23 89 02:39 25.12.2019
1739 Clouds 23 1014 83 10000 1.5 40 01:58 25.12.2019
1740 Clouds 23 1014 83 10000 1.5 40 01:25 25.12.2019
1741 Clouds 23 1014 88 10000 3.6 40 00:50 25.12.2019
1742 Clouds 24 1014 88 10000 3.6 40 00:29 25.12.2019
1743 Clouds 24 1013 88 10000 1.5 170 23:56 24.12.2019
1744 Clouds 24 1013 88 10000 1.5 170 23:37 24.12.2019
1745 Clouds 24 1013 88 10000 1.5 170 23:19 24.12.2019
1746 Clouds 24 1013 88 10000 3.1 170 22:40 24.12.2019
1747 Clouds 24 1013 88 10000 3.1 170 22:21 24.12.2019
1748 Rain 23 1013 88 10000 3.6 160 21:43 24.12.2019
1749 Rain 25 1013 88 10000 3.6 160 21:22 24.12.2019
1750 Clouds 25 1013 88 10000 3.6 170 20:54 24.12.2019
1751 Clouds 25 1013 88 10000 3.6 170 20:36 24.12.2019
1752 Clouds 25 1013 88 10000 3.6 170 20:18 24.12.2019
1753 Clouds 25 1013 88 10000 3.6 170 20:18 24.12.2019
1754 Rain 24 1013 88 10000 4.1 160 19:43 24.12.2019
1755 Rain 25 1013 88 10000 4.1 160 19:19 24.12.2019
1756 Clouds 26 1013 78 10000 5.7 170 18:43 24.12.2019
1757 Clouds 27 1013 78 10000 5.7 170 18:23 24.12.2019
1758 Clouds 27 1013 78 10000 5.7 160 17:58 24.12.2019
1759 Clouds 27 1013 78 10000 5.7 160 17:37 24.12.2019
1760 Clouds 27 1013 78 10000 5.7 160 17:19 24.12.2019
1761 Rain 26 1014 88 10000 5.1 140 16:55 24.12.2019
1762 Rain 26 1014 88 10000 5.1 140 16:36 24.12.2019
1763 Rain 26 1014 88 10000 5.1 140 16:18 24.12.2019
1764 Clouds 27 1014 88 10000 4.6 130 15:54 24.12.2019
1765 Clouds 26 1014 88 10000 4.6 130 15:36 24.12.2019
1766 Clouds 26 1014 88 10000 4.6 130 15:18 24.12.2019
1767 Clouds 26 1014 88 10000 2.6 150 14:54 24.12.2019
1768 Clouds 24 1014 88 10000 2.6 150 14:36 24.12.2019
1769 Clouds 24 1014 88 10000 2.6 150 14:36 24.12.2019
1770 Clouds 26 1014 88 10000 2.6 150 14:18 24.12.2019
1771 Clouds 26 1014 83 10000 1.5 140 13:54 24.12.2019
1772 Clouds 24 1014 88 10000 2.1 20 13:36 24.12.2019
1773 Clouds 25 1014 88 10000 2.1 20 13:18 24.12.2019
1774 Clouds 25 1013 94 10000 2.6 350 12:54 24.12.2019
1775 Clouds 23 1013 94 10000 2.6 350 12:36 24.12.2019
1776 Clouds 24 1013 94 10000 2.6 350 12:18 24.12.2019
1777 Clouds 24 1012 94 10000 3.6 40 11:54 24.12.2019
1778 Clouds 22 1012 94 10000 3.6 40 11:36 24.12.2019
1779 Clouds 22 1012 94 10000 3.6 40 11:18 24.12.2019
1780 Clouds 22 1012 88 10000 1 190 10:54 24.12.2019
1781 Clouds 22 1012 88 10000 1 190 10:54 24.12.2019
1782 Clouds 23 1012 88 10000 1 190 10:36 24.12.2019
1783 Clouds 23 1012 88 10000 1 190 10:18 24.12.2019
1784 Clouds 23 1012 94 10000 1.5 210 09:54 24.12.2019
1785 Clouds 23 1012 94 10000 1.5 210 09:36 24.12.2019
1786 Clouds 23 1012 94 10000 1.5 210 09:18 24.12.2019
1787 Clouds 23 1011 94 10000 2.1 160 08:42 24.12.2019
1788 Clouds 23 1011 94 10000 2.1 160 08:19 24.12.2019
1789 Clouds 23 1012 94 10000 2.6 150 07:45 24.12.2019
1790 Clouds 23 1012 94 10000 2.6 150 07:23 24.12.2019
1791 Clouds 23 1012 94 10000 3.6 190 06:41 24.12.2019
1792 Clouds 23 1012 94 10000 3.6 190 06:22 24.12.2019
1793 Clouds 23 1012 94 9000 3.6 120 05:56 24.12.2019
1794 Clouds 23 1012 94 9000 3.6 120 05:20 24.12.2019
1795 Rain 23 1013 94 7000 1.5 330 04:33 24.12.2019
1796 Clouds 24 1014 94 7000 2.6 40 03:50 24.12.2019
1797 Rain 24 1014 94 6000 4.6 40 02:59 24.12.2019
1798 Rain 24 1014 94 6000 4.6 40 02:19 24.12.2019
1799 Clouds 24 1013 94 6000 2.6 10 01:42 24.12.2019
1800 Clouds 24 1013 94 6000 2.6 10 01:20 24.12.2019
1801 Rain 24 1012 88 5000 3.1 10 00:43 24.12.2019
1802 Rain 24 1012 88 5000 3.1 10 00:23 24.12.2019
1803 Rain 24 1012 94 5000 3.1 350 23:55 23.12.2019
1804 Rain 24 1012 88 5000 4.1 350 23:37 23.12.2019
1805 Rain 24 1012 88 5000 4.1 350 23:37 23.12.2019
1806 Rain 25 1012 88 5000 4.1 350 23:19 23.12.2019
1807 Rain 25 1013 88 4000 2.1 50 22:54 23.12.2019
1808 Rain 25 1011 88 10000 0.5 50 22:36 23.12.2019
1809 Rain 25 1011 88 10000 0.5 50 22:18 23.12.2019
1810 Rain 25 1012 88 8000 1.5 110 21:55 23.12.2019
1811 Rain 24 1011 83 10000 2.89 212 21:36 23.12.2019
1812 Rain 24 1011 83 10000 2.89 212 21:18 23.12.2019
1813 Rain 24 1011 94 8000 2.6 70 20:56 23.12.2019
1814 Rain 22 1011 94 8000 2.6 70 20:38 23.12.2019
1815 Rain 23 1011 94 8000 2.6 70 20:18 23.12.2019
1816 Rain 22 1012 94 5000 1.5 340 19:54 23.12.2019
1817 Thunderstorm 21 1011 94 4000 3.1 330 19:36 23.12.2019
1818 Thunderstorm 23 1011 94 4000 3.1 330 19:18 23.12.2019
1819 Thunderstorm 24 1013 94 1000 10.8 320 18:55 23.12.2019
1820 Rain 25 1010 88 10000 5.1 150 18:36 23.12.2019
1821 Rain 25 1010 88 10000 5.1 150 18:18 23.12.2019
1822 Clouds 27 1010 83 10000 4.6 150 17:55 23.12.2019
1823 Clouds 26 1010 83 10000 4.6 150 17:37 23.12.2019
1824 Clouds 28 1010 83 10000 4.6 150 17:18 23.12.2019
1825 Clouds 28 1010 83 10000 4.1 150 16:42 23.12.2019
1826 Clouds 28 1010 83 10000 4.1 150 16:19 23.12.2019
1827 Clouds 28 1011 88 10000 4.1 140 15:58 23.12.2019
1828 Clouds 28 1011 88 10000 4.1 140 15:38 23.12.2019
1829 Clouds 27 1011 88 10000 4.1 140 15:20 23.12.2019
1830 Clouds 27 1011 83 10000 2.1 140 14:59 23.12.2019
1831 Clouds 27 1011 83 10000 2.1 140 14:41 23.12.2019
1832 Clouds 27 1011 83 10000 2.1 140 14:22 23.12.2019
1833 Clouds 27 1011 83 10000 2.1 140 13:58 23.12.2019
1834 Clouds 27 1011 83 10000 2.1 140 13:40 23.12.2019
1835 Clouds 26 1011 83 10000 2.1 140 13:22 23.12.2019
1836 Clouds 26 1011 83 10000 1.5 110 12:57 23.12.2019
1837 Clouds 26 1011 83 10000 1.5 110 12:39 23.12.2019
1838 Clouds 25 1011 83 10000 1.5 110 12:19 23.12.2019
1839 Clouds 25 1011 83 10000 0.5 140 11:44 23.12.2019
1840 Clouds 23 1011 83 10000 0.5 140 11:26 23.12.2019
1841 Clouds 23 1010 88 10000 1 320 10:59 23.12.2019
1842 Clouds 23 1010 88 10000 1 320 10:40 23.12.2019
1843 Clouds 23 1010 88 10000 1 320 10:21 23.12.2019
1844 Clouds 23 1010 88 10000 1 350 09:59 23.12.2019
1845 Clouds 23 1010 88 10000 1 350 09:40 23.12.2019
1846 Clouds 23 1010 88 10000 1 350 09:21 23.12.2019
1847 Clouds 23 1010 88 6000 1.5 360 08:58 23.12.2019
1848 Clouds 23 1010 88 6000 1.5 360 08:40 23.12.2019
1849 Clouds 23 1010 88 6000 1.5 360 08:22 23.12.2019
1850 Clouds 23 1010 94 6000 4.6 10 07:47 23.12.2019
1851 Clouds 23 1010 94 6000 4.6 10 07:20 23.12.2019
1852 Rain 23 1010 94 4000 3.6 340 06:53 23.12.2019
1853 Rain 23 1010 94 4000 3.6 340 06:26 23.12.2019
1854 Rain 23 1011 94 4000 3.1 320 05:56 23.12.2019
1855 Rain 23 1011 94 4000 3.1 320 05:29 23.12.2019
1856 Rain 23 1012 94 4000 3.6 310 04:31 23.12.2019
1857 Rain 23 1013 94 6000 4.6 320 03:26 23.12.2019
1858 Rain 23 1014 88 7000 2.1 350 02:42 23.12.2019
1859 Rain 23 1014 88 7000 2.1 350 02:19 23.12.2019
1860 Rain 23 1013 88 4000 2.1 170 01:43 23.12.2019
1861 Rain 24 1013 88 4000 2.1 170 01:25 23.12.2019
1862 Thunderstorm 24 1012 83 4000 3.6 230 00:44 23.12.2019
1863 Thunderstorm 24 1012 83 4000 3.6 230 00:44 23.12.2019
1864 Thunderstorm 24 1012 83 4000 3.6 230 00:23 23.12.2019
1865 Clouds 25 1010 69 10000 2.6 220 23:40 22.12.2019
1866 Clouds 26 1010 69 10000 2.6 220 23:22 22.12.2019
1867 Clouds 26 1010 83 10000 4.6 360 22:58 22.12.2019
1868 Clouds 26 1010 83 10000 4.6 360 22:40 22.12.2019
1869 Clouds 28 1010 83 10000 4.6 360 22:22 22.12.2019
1870 Clouds 28 1009 83 10000 5.1 40 21:59 22.12.2019
1871 Clouds 28 1009 83 10000 5.1 40 21:40 22.12.2019
1872 Clouds 28 1009 83 10000 5.1 40 21:21 22.12.2019
1873 Thunderstorm 28 1009 78 10000 5.1 40 20:59 22.12.2019
1874 Thunderstorm 28 1009 78 10000 5.1 40 20:39 22.12.2019
1875 Thunderstorm 30 1009 66 10000 4.1 130 20:19 22.12.2019
1876 Thunderstorm 31 1009 62 10000 6.2 160 19:57 22.12.2019
1877 Thunderstorm 31 1009 62 10000 6.2 160 19:39 22.12.2019
1878 Clouds 32 1008 74 10000 8.2 160 19:20 22.12.2019
1879 Clouds 32 1008 70 10000 7.2 160 18:42 22.12.2019
1880 Clouds 33 1008 70 10000 7.2 160 18:24 22.12.2019
1881 Clouds 32 1009 74 10000 6.7 150 17:57 22.12.2019
1882 Clouds 31 1009 74 10000 6.7 150 17:39 22.12.2019
1883 Clouds 32 1009 74 10000 6.7 150 17:19 22.12.2019
1884 Clouds 32 1010 78 10000 7.2 150 16:58 22.12.2019
1885 Clouds 32 1010 78 10000 7.2 150 16:40 22.12.2019
1886 Clouds 32 1010 78 10000 7.2 150 16:40 22.12.2019
1887 Clouds 33 1010 78 10000 7.2 150 16:22 22.12.2019
1888 Clouds 33 1010 70 10000 6.2 140 15:57 22.12.2019
1889 Clouds 33 1010 70 10000 6.2 140 15:38 22.12.2019
1890 Clouds 33 1010 70 10000 6.2 140 15:20 22.12.2019
1891 Clouds 33 1009 59 10000 4.1 350 14:56 22.12.2019
1892 Clouds 33 1009 59 10000 4.1 350 14:38 22.12.2019
1893 Clouds 34 1009 59 10000 4.1 350 14:18 22.12.2019
1894 Clouds 34 1009 55 10000 4.6 330 13:55 22.12.2019
1895 Clouds 31 1009 55 10000 4.6 330 13:37 22.12.2019
1896 Clouds 31 1009 55 10000 4.6 330 13:19 22.12.2019
1897 Clouds 31 1009 52 10000 4.6 290 12:56 22.12.2019
1898 Clouds 32 1009 52 10000 4.6 290 12:37 22.12.2019
1899 Clouds 30 1009 52 10000 4.6 290 12:19 22.12.2019
1900 Clouds 29 1009 55 10000 4.1 300 11:56 22.12.2019
1901 Clouds 29 1009 55 10000 4.1 300 11:56 22.12.2019
1902 Clouds 28 1009 55 10000 4.1 300 11:38 22.12.2019
1903 Clouds 28 1009 55 10000 4.1 300 11:19 22.12.2019
1904 Clouds 27 1009 70 10000 3.1 310 10:55 22.12.2019
1905 Clouds 26 1009 70 10000 3.1 310 10:37 22.12.2019
1906 Clouds 26 1009 70 10000 3.1 310 10:18 22.12.2019
1907 Clouds 27 1007 70 10000 3.1 320 09:57 22.12.2019
1908 Clouds 28 1007 70 10000 3.1 320 09:39 22.12.2019
1909 Clouds 27 1007 70 10000 3.1 320 09:20 22.12.2019
1910 Clouds 27 1007 66 10000 3.1 300 08:42 22.12.2019
1911 Clouds 28 1007 66 10000 3.1 300 08:22 22.12.2019
1912 Clouds 27 1007 78 10000 3.1 320 07:43 22.12.2019
1913 Clouds 27 1007 78 10000 3.1 320 07:21 22.12.2019
1914 Clouds 28 1007 74 10000 2.6 320 06:52 22.12.2019
1915 Clouds 28 1007 74 10000 2.6 320 06:25 22.12.2019
1916 Clouds 28 1007 83 10000 2.6 350 05:32 22.12.2019
1917 Clouds 28 1008 74 10000 2.6 340 04:46 22.12.2019
1918 Clouds 28 1008 74 10000 2.6 340 04:25 22.12.2019
1919 Clouds 29 1008 70 10000 3.1 360 02:45 22.12.2019
1920 Clouds 28 1008 70 10000 3.1 360 02:21 22.12.2019
1921 Clouds 29 1008 62 10000 3.1 310 01:31 22.12.2019
1922 Clouds 29 1008 58 10000 4.1 340 00:56 22.12.2019
1923 Clouds 30 1008 58 10000 4.1 340 00:36 22.12.2019
1924 Clouds 29 1008 58 10000 4.1 340 00:18 22.12.2019
1925 Thunderstorm 28 1007 79 10000 4.1 350 23:40 21.12.2019
1926 Thunderstorm 29 1007 79 10000 4.1 350 23:21 21.12.2019
1927 Clouds 30 1007 62 10000 2.6 360 22:56 21.12.2019
1928 Clouds 30 1007 62 10000 2.6 360 22:37 21.12.2019
1929 Clouds 32 1007 62 10000 2.6 360 22:18 21.12.2019
1930 Clouds 32 1007 74 10000 3.6 20 21:54 21.12.2019
1931 Clouds 32 1007 74 10000 3.6 20 21:36 21.12.2019
1932 Clouds 32 1007 74 10000 3.6 20 21:18 21.12.2019
1933 Clouds 32 1007 70 10000 4.6 30 20:55 21.12.2019
1934 Clouds 31 1007 70 10000 4.6 30 20:37 21.12.2019
1935 Clouds 33 1007 70 10000 4.6 30 20:18 21.12.2019
1936 Clouds 33 1008 62 10000 5.1 30 19:54 21.12.2019
1937 Clouds 30 1008 62 10000 5.1 30 19:36 21.12.2019
1938 Clouds 33 1008 62 10000 5.1 30 19:18 21.12.2019
1939 Clouds 30 1009 66 10000 5.1 30 18:40 21.12.2019
1940 Clouds 32 1009 66 10000 5.1 30 18:22 21.12.2019
1941 Clouds 32 1010 74 10000 2.1 200 17:56 21.12.2019
1942 Clouds 29 1010 74 10000 2.1 200 17:37 21.12.2019
1943 Clouds 31 1010 74 10000 2.1 200 17:19 21.12.2019
1944 Clouds 31 1010 79 10000 2.1 360 16:56 21.12.2019
1945 Clouds 31 1010 79 10000 2.1 360 16:38 21.12.2019
1946 Clouds 31 1010 79 10000 2.1 360 16:18 21.12.2019
1947 Clouds 30 1011 78 10000 2.1 340 15:55 21.12.2019
1948 Clouds 27 1011 78 10000 2.1 340 15:37 21.12.2019
1949 Clouds 29 1011 78 10000 2.1 340 15:18 21.12.2019
1950 Clouds 28 1011 88 8000 2.6 340 14:41 21.12.2019
1951 Clouds 27 1011 88 8000 2.6 340 14:23 21.12.2019
1952 Clouds 28 1011 83 8000 2.1 350 13:58 21.12.2019
1953 Clouds 28 1011 83 8000 2.1 350 13:58 21.12.2019
1954 Clouds 28 1011 83 8000 2.1 350 13:39 21.12.2019
1955 Clouds 28 1011 83 8000 2.1 350 13:19 21.12.2019
1956 Clouds 26 1011 94 8000 3.1 100 12:56 21.12.2019
1957 Clouds 25 1011 94 8000 3.1 100 12:38 21.12.2019
1958 Clouds 26 1011 94 8000 3.1 100 12:20 21.12.2019
1959 Clouds 26 1011 88 10000 2.6 340 11:46 21.12.2019
1960 Clouds 25 1011 88 10000 2.6 340 11:27 21.12.2019
1961 Clouds 24 1010 88 10000 2.1 30 10:59 21.12.2019
1962 Clouds 25 1010 88 10000 2.1 30 10:40 21.12.2019
1963 Clouds 24 1010 88 10000 2.1 30 10:21 21.12.2019
1964 Clouds 24 1010 94 10000 2.1 40 09:58 21.12.2019
1965 Clouds 24 1010 94 10000 2.1 40 09:39 21.12.2019
1966 Clouds 23 1010 94 10000 2.1 40 09:19 21.12.2019
1967 Clouds 24 1009 94 10000 2.1 50 08:51 21.12.2019
1968 Clouds 23 1009 94 10000 2.1 50 08:27 21.12.2019
1969 Clouds 24 1009 88 10000 1.5 310 07:58 21.12.2019
1970 Clouds 24 1009 88 10000 1.5 310 07:40 21.12.2019
1971 Clouds 24 1009 88 10000 1.5 310 07:21 21.12.2019
1972 Clouds 24 1009 88 10000 1 200 06:41 21.12.2019
1973 Clouds 24 1009 88 10000 1 200 06:23 21.12.2019
1974 Clouds 25 1010 94 10000 1 210 05:37 21.12.2019
1975 Clouds 25 1011 94 10000 2.1 150 04:55 21.12.2019
1976 Clouds 25 1012 94 10000 2.6 150 03:56 21.12.2019
1977 Clouds 25 1013 94 10000 2.1 140 02:26 21.12.2019
1978 Clouds 26 1013 94 10000 3.1 150 01:53 21.12.2019
1979 Clouds 26 1012 88 10000 3.6 170 01:26 21.12.2019
1980 Clouds 26 1012 88 10000 3.6 170 00:49 21.12.2019
1981 Clouds 26 1012 94 10000 5.1 170 00:28 21.12.2019
1982 Clouds 26 1012 94 10000 5.1 170 23:40 20.12.2019
1983 Clouds 27 1012 94 10000 5.1 170 23:21 20.12.2019
1984 Clouds 27 1011 83 10000 5.7 180 22:59 20.12.2019
1985 Clouds 26 1011 83 10000 5.7 180 22:40 20.12.2019
1986 Clouds 28 1011 83 10000 6.2 190 22:20 20.12.2019
1987 Clouds 28 1011 83 10000 6.2 190 21:56 20.12.2019
1988 Clouds 26 1011 83 10000 6.2 190 21:38 20.12.2019
1989 Clouds 28 1011 83 10000 6.2 190 21:18 20.12.2019
1990 Clouds 28 1011 83 10000 7.2 170 20:39 20.12.2019
1991 Clouds 28 1011 83 10000 7.2 170 20:19 20.12.2019
1992 Clouds 28 1012 83 10000 7.2 170 19:57 20.12.2019
1993 Clouds 28 1012 83 10000 7.2 170 19:39 20.12.2019
1994 Clouds 29 1012 83 10000 7.2 170 19:19 20.12.2019
1995 Clouds 29 1013 78 10000 7.2 170 18:42 20.12.2019
1996 Clouds 29 1013 78 10000 7.2 170 18:42 20.12.2019
1997 Clouds 29 1013 78 10000 7.2 170 18:23 20.12.2019
1998 Clouds 29 1013 83 10000 6.7 160 17:58 20.12.2019
1999 Clouds 28 1013 83 10000 6.7 160 17:40 20.12.2019
2000 Clouds 28 1013 83 10000 6.7 160 17:21 20.12.2019
2001 Clouds 28 1014 83 10000 5.7 170 16:59 20.12.2019
2002 Clouds 28 1014 83 10000 5.7 170 16:38 20.12.2019
2003 Clouds 28 1014 83 10000 5.7 170 16:20 20.12.2019
2004 Clouds 27 1015 88 10000 5.1 160 15:56 20.12.2019
2005 Clouds 27 1015 88 10000 5.1 160 15:38 20.12.2019
2006 Clouds 27 1015 88 10000 5.1 160 15:19 20.12.2019
2007 Clouds 27 1015 88 10000 4.6 160 14:43 20.12.2019
2008 Clouds 27 1015 88 10000 4.6 160 14:25 20.12.2019
2009 Clouds 27 1015 88 10000 4.1 140 13:59 20.12.2019
2010 Clouds 27 1015 88 10000 4.1 140 13:41 20.12.2019
2011 Clouds 27 1015 88 10000 4.1 140 13:20 20.12.2019
2012 Clouds 25 1015 88 10000 3.6 150 12:57 20.12.2019
2013 Clouds 25 1015 88 10000 3.6 150 12:37 20.12.2019
2014 Clouds 25 1015 88 10000 3.6 150 12:19 20.12.2019
2015 Clouds 24 1014 94 10000 3.1 160 11:58 20.12.2019
2016 Clouds 24 1014 94 10000 3.1 160 11:39 20.12.2019
2017 Clouds 24 1014 94 10000 3.1 160 11:19 20.12.2019
2018 Clouds 23 1014 88 10000 2.6 150 10:57 20.12.2019
2019 Clouds 23 1014 88 10000 2.6 150 10:57 20.12.2019
2020 Clouds 23 1014 88 10000 2.6 150 10:38 20.12.2019
2021 Clouds 23 1014 88 10000 2.6 150 10:20 20.12.2019
2022 Clouds 24 1014 88 10000 2.6 160 09:44 20.12.2019
2023 Clouds 24 1014 88 10000 2.6 160 09:44 20.12.2019
2024 Clouds 24 1014 88 10000 2.6 160 09:22 20.12.2019
2025 Clouds 23 1013 94 10000 2.1 160 08:59 20.12.2019
2026 Clouds 23 1013 94 10000 2.1 160 08:41 20.12.2019
2027 Clouds 23 1013 94 10000 2.1 160 08:22 20.12.2019
2028 Clouds 23 1013 88 10000 2.6 180 07:58 20.12.2019
2029 Clouds 23 1013 88 10000 2.6 180 07:39 20.12.2019
2030 Clouds 23 1013 88 10000 2.6 180 07:18 20.12.2019
2031 Clouds 23 1013 88 10000 1.5 180 06:48 20.12.2019
2032 Clouds 23 1013 88 10000 1.5 180 06:48 20.12.2019
2033 Clouds 23 1013 88 10000 1.5 180 06:30 20.12.2019
2034 Clouds 24 1013 88 10000 2.6 20 05:49 20.12.2019
2035 Clouds 24 1014 83 10000 2.6 150 05:25 20.12.2019
2036 Clouds 23 1016 88 10000 3.1 160 03:50 20.12.2019
2037 Clouds 24 1016 88 10000 3.1 160 03:29 20.12.2019
2038 Rain 24 1016 88 8000 3.6 150 02:38 20.12.2019
2039 Clouds 25 1016 83 10000 3.1 160 01:36 20.12.2019
2040 Clouds 25 1016 83 10000 3.6 150 00:59 20.12.2019
2041 Clouds 25 1016 83 10000 3.6 150 00:40 20.12.2019
2042 Clouds 25 1015 88 10000 3.6 160 23:59 19.12.2019
2043 Clouds 25 1015 88 10000 3.6 160 23:40 19.12.2019
2044 Clouds 25 1015 88 10000 3.6 160 23:22 19.12.2019
2045 Clouds 25 1014 83 10000 4.6 150 22:56 19.12.2019
2046 Clouds 25 1014 83 10000 4.6 150 22:36 19.12.2019
2047 Clouds 25 1014 83 10000 4.6 150 22:18 19.12.2019
2048 Clouds 25 1014 83 10000 4.6 150 22:18 19.12.2019
2049 Clouds 25 1014 83 10000 5.1 160 21:42 19.12.2019
2050 Clouds 25 1014 83 10000 5.1 160 21:20 19.12.2019
2051 Clouds 26 1014 83 10000 7.2 160 20:59 19.12.2019
2052 Clouds 26 1014 83 10000 7.2 160 20:39 19.12.2019
2053 Clouds 26 1014 83 10000 7.2 160 20:21 19.12.2019
2054 Clouds 26 1014 83 10000 6.2 160 19:59 19.12.2019
2055 Clouds 26 1014 83 10000 6.2 160 19:40 19.12.2019
2056 Clouds 26 1014 83 10000 6.2 160 19:20 19.12.2019
2057 Clouds 26 1014 88 10000 6.2 150 19:00 19.12.2019
2058 Clouds 26 1014 88 10000 6.2 150 18:41 19.12.2019
2059 Clouds 26 1014 88 10000 6.2 150 18:20 19.12.2019
2060 Clouds 26 1015 83 10000 6.2 160 17:57 19.12.2019
2061 Clouds 26 1015 83 10000 6.2 160 17:38 19.12.2019
2062 Clouds 26 1015 83 10000 6.2 160 17:38 19.12.2019
2063 Clouds 27 1015 83 10000 6.2 160 17:19 19.12.2019
2064 Clouds 26 1015 83 10000 5.1 160 16:57 19.12.2019
2065 Clouds 26 1015 83 10000 5.1 160 16:38 19.12.2019
2066 Clouds 26 1015 83 10000 5.1 160 16:20 19.12.2019
2067 Clouds 26 1016 88 10000 5.7 160 15:58 19.12.2019
2068 Clouds 26 1016 88 10000 5.7 160 15:39 19.12.2019
2069 Clouds 26 1016 88 10000 5.7 160 15:19 19.12.2019
2070 Clouds 26 1016 88 10000 4.1 150 14:58 19.12.2019
2071 Clouds 26 1016 88 10000 4.1 150 14:40 19.12.2019
2072 Clouds 26 1016 88 10000 4.1 150 14:18 19.12.2019
2073 Clouds 25 1016 94 10000 4.6 150 13:54 19.12.2019
2074 Clouds 25 1016 94 10000 4.6 150 13:36 19.12.2019
2075 Clouds 25 1016 94 10000 4.6 150 13:18 19.12.2019
2076 Clouds 26 1015 88 10000 4.1 150 12:54 19.12.2019
2077 Clouds 26 1015 88 10000 4.1 150 12:36 19.12.2019
2078 Clouds 26 1015 88 10000 4.1 150 12:18 19.12.2019
2079 Clouds 26 1015 88 10000 4.1 150 12:18 19.12.2019
2080 Clouds 26 1015 88 10000 4.1 150 12:18 19.12.2019
2081 Clouds 26 1015 88 10000 4.1 150 12:18 19.12.2019
2082 Clouds 25 1015 94 10000 3.6 150 11:42 19.12.2019
2083 Clouds 25 1015 94 10000 3.6 150 11:20 19.12.2019
2084 Clouds 23 1014 94 10000 3.1 140 10:59 19.12.2019
2085 Clouds 23 1014 94 10000 3.1 140 10:38 19.12.2019
2086 Clouds 23 1014 94 10000 3.1 140 10:20 19.12.2019
2087 Clouds 24 1014 94 10000 3.1 140 09:57 19.12.2019
2088 Clouds 24 1014 94 10000 3.1 140 09:38 19.12.2019
2089 Clouds 24 1014 94 10000 3.1 140 09:20 19.12.2019
2090 Clouds 24 1013 94 6000 2.6 140 08:56 19.12.2019
2091 Clouds 24 1013 94 6000 2.6 140 08:37 19.12.2019
2092 Clouds 24 1013 94 6000 2.6 140 08:18 19.12.2019
2093 Clouds 24 1013 94 6000 3.6 180 07:55 19.12.2019
2094 Clouds 24 1013 94 6000 3.6 180 07:37 19.12.2019
2095 Clouds 24 1013 94 6000 3.6 180 07:19 19.12.2019
2096 Clouds 25 1013 88 6000 2.1 30 06:45 19.12.2019
2097 Clouds 25 1013 88 6000 2.1 30 06:26 19.12.2019
2098 Clouds 25 1013 88 6000 1.5 30 05:49 19.12.2019
2099 Clouds 25 1013 88 6000 1.5 30 05:28 19.12.2019
2100 Clouds 25 1014 88 10000 0.5 110 04:41 19.12.2019
2101 Clouds 24 1015 94 10000 2.6 110 02:48 19.12.2019
2102 Clouds 24 1014 94 10000 2.1 140 01:46 19.12.2019
2103 Clouds 24 1014 94 10000 3.6 140 01:21 19.12.2019
2104 Clouds 24 1014 94 10000 3.6 140 00:39 19.12.2019
2105 Clouds 24 1014 94 10000 3.6 140 00:39 19.12.2019
2106 Clouds 24 1014 94 10000 3.6 140 00:39 19.12.2019
2107 Clouds 24 1014 94 10000 3.6 140 00:39 19.12.2019
2108 Clouds 24 1014 94 10000 3.6 140 00:39 19.12.2019
2109 Clouds 24 1014 94 10000 3.6 140 00:20 19.12.2019
2110 Clouds 24 1014 88 10000 3.6 170 23:55 18.12.2019
2111 Clouds 25 1014 88 10000 3.6 170 23:36 18.12.2019
2112 Clouds 25 1014 88 10000 3.6 170 23:18 18.12.2019
2113 Clouds 25 1013 88 10000 4.6 170 22:55 18.12.2019
2114 Clouds 24 1013 88 10000 4.6 170 22:36 18.12.2019
2115 Rain 25 1012 88 10000 6.7 180 22:18 18.12.2019
2116 Rain 25 1012 88 10000 6.7 180 21:55 18.12.2019
2117 Rain 25 1012 88 10000 6.7 180 21:36 18.12.2019
2118 Rain 25 1012 88 10000 6.7 180 21:18 18.12.2019
2119 Rain 27 1012 83 8000 7.7 170 20:54 18.12.2019
2120 Rain 27 1012 83 8000 7.7 170 20:36 18.12.2019
2121 Clouds 28 1012 78 10000 7.2 180 20:18 18.12.2019
2122 Clouds 28 1012 78 10000 7.2 180 19:54 18.12.2019
2123 Clouds 28 1012 78 10000 7.2 180 19:36 18.12.2019
2124 Clouds 28 1012 78 10000 7.2 180 19:18 18.12.2019
2125 Clouds 29 1011 74 10000 9.8 180 18:43 18.12.2019
2126 Clouds 29 1011 74 10000 9.8 180 18:25 18.12.2019
2127 Clouds 29 1011 74 10000 8.7 200 17:56 18.12.2019
2128 Clouds 29 1011 74 10000 8.7 200 17:38 18.12.2019
2129 Clouds 29 1011 74 10000 8.7 200 17:19 18.12.2019
2130 Clouds 29 1012 74 10000 10.3 190 16:43 18.12.2019
2131 Clouds 29 1012 74 10000 10.3 190 16:43 18.12.2019
2132 Clouds 29 1012 74 10000 10.3 190 16:24 18.12.2019
2133 Clouds 28 1012 83 10000 7.2 170 15:59 18.12.2019
2134 Clouds 28 1012 83 10000 7.2 170 15:40 18.12.2019
2135 Clouds 28 1012 83 10000 7.2 170 15:21 18.12.2019
2136 Clouds 29 1012 78 10000 5.7 170 14:59 18.12.2019
2137 Clouds 28 1012 78 10000 5.7 170 14:40 18.12.2019
2138 Clouds 29 1012 78 10000 5.7 170 14:20 18.12.2019
2139 Clouds 28 1011 78 10000 3.1 150 13:56 18.12.2019
2140 Clouds 28 1011 78 10000 3.1 150 13:37 18.12.2019
2141 Clouds 28 1011 78 10000 3.1 150 13:19 18.12.2019
2142 Clouds 27 1011 83 10000 1.5 40 12:57 18.12.2019
2143 Clouds 27 1011 83 10000 1.5 40 12:37 18.12.2019
2144 Clouds 27 1011 83 10000 1.5 40 12:19 18.12.2019
2145 Clouds 27 1011 83 10000 1.5 110 11:55 18.12.2019
2146 Clouds 27 1011 83 10000 1.5 110 11:37 18.12.2019
2147 Clouds 27 1011 83 10000 1.5 110 11:18 18.12.2019
2148 Clouds 25 1011 88 10000 2.6 80 10:55 18.12.2019
2149 Clouds 23 1011 88 10000 2.6 80 10:37 18.12.2019
2150 Clouds 23 1011 88 10000 2.6 80 10:37 18.12.2019
2151 Clouds 23 1011 88 10000 2.6 80 10:18 18.12.2019
2152 Clouds 24 1011 94 10000 2.1 90 09:43 18.12.2019
2153 Clouds 24 1011 94 10000 2.1 90 09:18 18.12.2019
2154 Clouds 25 1010 94 10000 1.5 110 08:40 18.12.2019
2155 Clouds 24 1010 94 10000 1.5 110 08:21 18.12.2019
2156 Clouds 25 1010 94 10000 1 100 07:43 18.12.2019
2157 Clouds 25 1010 94 10000 1 100 07:23 18.12.2019
2158 Clouds 25 1010 88 10000 1.5 130 06:55 18.12.2019
2159 Clouds 25 1010 88 10000 1.5 130 06:27 18.12.2019
2160 Clouds 25 1011 88 10000 1 70 05:47 18.12.2019
2161 Clear 25 1011 83 10000 1 170 04:52 18.12.2019
2162 Clear 25 1010 88 10000 2.6 150 02:55 18.12.2019
2163 Clear 25 1010 88 10000 2.6 150 02:36 18.12.2019
2164 Clouds 25 1010 88 10000 2.6 150 02:18 18.12.2019
2165 Clouds 26 1010 74 10000 2.6 160 01:40 18.12.2019
2166 Clouds 25 1010 74 10000 2.6 160 01:21 18.12.2019
2167 Clouds 26 1009 69 10000 5.1 180 00:41 18.12.2019
2168 Clouds 26 1009 69 10000 5.1 180 00:22 18.12.2019
2169 Clouds 26 1009 74 10000 5.7 190 23:56 17.12.2019
2170 Clouds 26 1009 74 10000 5.7 190 23:38 17.12.2019
2171 Clouds 26 1009 74 10000 5.7 190 23:18 17.12.2019
2172 Clouds 26 1008 83 10000 8.2 180 22:56 17.12.2019
2173 Clouds 27 1008 83 10000 8.2 180 22:37 17.12.2019
2174 Clouds 27 1008 83 10000 8.2 180 22:18 17.12.2019
2175 Clouds 27 1008 83 10000 7.2 160 21:55 17.12.2019
2176 Clouds 27 1008 83 10000 7.2 160 21:37 17.12.2019
2177 Clouds 27 1008 83 10000 7.2 160 21:37 17.12.2019
2178 Clouds 28 1008 83 10000 7.2 160 21:19 17.12.2019
2179 Clouds 28 1008 83 10000 8.7 160 20:56 17.12.2019
2180 Clouds 28 1008 83 10000 8.7 160 20:38 17.12.2019
2181 Clouds 30 1008 66 10000 7.2 130 20:18 17.12.2019
2182 Clouds 30 1008 62 10000 7.7 130 19:55 17.12.2019
2183 Clouds 29 1008 74 10000 7.7 170 19:37 17.12.2019
2184 Clouds 30 1008 74 10000 7.7 170 19:18 17.12.2019
2185 Clouds 29 1008 78 10000 7.2 150 18:43 17.12.2019
2186 Clouds 29 1008 78 10000 7.2 150 18:43 17.12.2019
2187 Clouds 29 1008 78 10000 7.2 150 18:23 17.12.2019
2188 Clouds 30 1009 78 10000 6.7 150 17:59 17.12.2019
2189 Clouds 30 1009 78 10000 6.7 150 17:41 17.12.2019
2190 Clouds 30 1009 78 10000 6.7 150 17:20 17.12.2019
2191 Clouds 30 1010 78 10000 6.2 150 16:56 17.12.2019
2192 Clouds 29 1010 78 10000 6.2 150 16:38 17.12.2019
2193 Clouds 30 1010 78 10000 6.2 150 16:19 17.12.2019
2194 Clouds 30 1010 78 10000 5.7 150 15:58 17.12.2019
2195 Clouds 29 1010 78 10000 5.7 150 15:37 17.12.2019
2196 Clouds 29 1010 78 10000 5.7 150 15:37 17.12.2019
2197 Clouds 30 1010 78 10000 5.7 150 15:19 17.12.2019
2198 Clouds 29 1011 78 10000 5.7 150 14:56 17.12.2019
2199 Clouds 29 1011 78 10000 5.7 150 14:37 17.12.2019
2200 Clouds 29 1011 78 10000 5.7 150 14:18 17.12.2019
2201 Clouds 29 1011 78 10000 5.7 150 14:18 17.12.2019
2202 Clouds 29 1011 78 10000 5.7 150 14:18 17.12.2019
2203 Clouds 29 1011 83 10000 4.1 140 13:56 17.12.2019
2204 Clouds 28 1011 83 10000 4.1 140 13:37 17.12.2019
2205 Clouds 29 1011 83 10000 4.1 140 13:18 17.12.2019
2206 Clouds 28 1011 83 10000 3.1 130 12:55 17.12.2019
2207 Clouds 28 1011 83 10000 3.1 130 12:37 17.12.2019
2208 Clouds 28 1011 83 10000 3.1 130 12:18 17.12.2019
2209 Clouds 27 1010 78 10000 2.6 130 11:55 17.12.2019
2210 Clouds 27 1010 78 10000 2.6 130 11:36 17.12.2019
2211 Clear 25 1010 83 10000 3.1 140 11:18 17.12.2019
2212 Clear 24 1010 83 10000 3.1 140 10:55 17.12.2019
2213 Clear 24 1010 83 10000 3.1 140 10:36 17.12.2019
2214 Clear 25 1010 83 10000 3.1 140 10:18 17.12.2019
2215 Clear 24 1009 88 10000 4.6 140 09:42 17.12.2019
2216 Clear 24 1009 88 10000 4.6 140 09:21 17.12.2019
2217 Clear 25 1008 78 10000 2.1 140 08:58 17.12.2019
2218 Clear 25 1008 78 10000 2.1 140 08:39 17.12.2019
2219 Clear 25 1008 78 10000 2.1 140 08:21 17.12.2019
2220 Clear 25 1008 74 10000 2.1 200 07:57 17.12.2019
2221 Clear 25 1008 74 10000 2.1 200 07:39 17.12.2019
2222 Clear 25 1008 74 10000 2.1 200 07:19 17.12.2019
2223 Clear 25 1008 88 10000 5.1 140 06:41 17.12.2019
2224 Clear 25 1008 88 10000 5.1 140 06:22 17.12.2019
2225 Clear 26 1008 65 10000 2.1 290 05:40 17.12.2019
2226 Clear 24 1008 58 10000 2.1 310 04:48 17.12.2019
2227 Clear 26 1009 62 10000 3.6 320 03:40 17.12.2019
2228 Clouds 27 1009 55 10000 1.5 330 02:22 17.12.2019
2229 Clouds 28 1008 55 10000 1 80 01:21 17.12.2019
2230 Clear 28 1008 55 10000 1.5 150 00:45 17.12.2019
2231 Clear 29 1008 55 10000 1.5 150 00:21 17.12.2019
2232 Clear 31 1008 58 10000 2.1 180 23:44 16.12.2019
2233 Clear 30 1008 58 10000 2.1 180 23:20 16.12.2019
2234 Clear 33 1007 55 10000 3.6 190 22:58 16.12.2019
2235 Clear 30 1007 55 10000 3.6 190 22:39 16.12.2019
2236 Clear 33 1007 55 10000 3.6 190 22:21 16.12.2019
2237 Clear 33 1007 55 10000 4.6 180 21:57 16.12.2019
2238 Clear 33 1007 55 10000 4.6 180 21:57 16.12.2019
2239 Clear 35 1007 55 10000 4.6 180 21:39 16.12.2019
2240 Clear 34 1007 55 10000 4.6 180 21:20 16.12.2019
2241 Clear 34 1008 55 10000 4.6 190 20:58 16.12.2019
2242 Clear 34 1008 55 10000 4.6 190 20:39 16.12.2019
2243 Clear 34 1008 55 10000 4.6 190 20:19 16.12.2019
2244 Clear 36 1008 49 10000 1.5 130 19:57 16.12.2019
2245 Clear 34 1008 49 10000 1.5 130 19:37 16.12.2019
2246 Clear 34 1008 49 10000 1.5 130 19:19 16.12.2019
2247 Clear 36 1008 46 10000 3.6 20 18:59 16.12.2019
2248 Clear 36 1008 46 10000 3.6 20 18:41 16.12.2019
2249 Clear 36 1008 46 10000 3.6 20 18:20 16.12.2019
2250 Clear 36 1009 46 10000 4.6 20 17:59 16.12.2019
2251 Clear 36 1009 46 10000 4.6 20 17:40 16.12.2019
2252 Clear 36 1009 46 10000 4.6 20 17:40 16.12.2019
2253 Clear 36 1009 46 10000 4.6 20 17:21 16.12.2019
2254 Clear 35 1010 41 10000 2.6 20 16:57 16.12.2019
2255 Clear 31 1010 41 10000 2.6 20 16:39 16.12.2019
2256 Clear 35 1010 41 10000 2.6 20 16:20 16.12.2019
2257 Clear 33 1011 58 10000 1.5 20 15:59 16.12.2019
2258 Clear 30 1011 58 10000 1.5 20 15:39 16.12.2019
2259 Clear 33 1011 58 10000 1.5 20 15:21 16.12.2019
2260 Clear 31 1011 62 10000 2.1 30 14:57 16.12.2019
2261 Clear 29 1011 62 10000 2.1 30 14:37 16.12.2019
2262 Clouds 32 1011 62 10000 2.1 30 14:19 16.12.2019
2263 Clouds 30 1012 66 10000 2.6 40 13:57 16.12.2019
2264 Clouds 30 1012 66 10000 2.6 40 13:38 16.12.2019
2265 Clouds 32 1012 66 10000 2.6 40 13:20 16.12.2019
2266 Clear 28 1012 74 10000 3.1 360 12:58 16.12.2019
2267 Clear 28 1012 74 10000 3.1 360 12:39 16.12.2019
2268 Clear 28 1012 74 10000 3.1 360 12:19 16.12.2019
2269 Clear 27 1012 78 10000 2.6 350 11:59 16.12.2019
2270 Clear 27 1012 78 10000 2.6 350 11:40 16.12.2019
2271 Clouds 27 1012 78 10000 2.6 350 11:20 16.12.2019
2272 Clouds 23 1012 83 10000 2.1 320 10:58 16.12.2019
2273 Clouds 23 1012 83 10000 2.1 320 10:40 16.12.2019
2274 Clouds 23 1012 83 10000 2.1 320 10:20 16.12.2019
2275 Clear 22 1011 83 10000 2.6 350 09:46 16.12.2019
2276 Clouds 22 1011 83 10000 2.6 350 09:28 16.12.2019
2277 Clear 23 1011 78 10000 3.6 330 08:58 16.12.2019
2278 Clouds 23 1011 78 10000 3.6 330 08:38 16.12.2019
2279 Clear 23 1011 78 10000 3.6 330 08:18 16.12.2019
2280 Clouds 23 1011 78 10000 2.1 310 07:47 16.12.2019
2281 Clouds 23 1011 78 10000 2.1 310 07:29 16.12.2019
2282 Clouds 23 1011 78 10000 3.1 310 06:46 16.12.2019
2283 Clouds 23 1011 78 10000 3.1 310 06:26 16.12.2019
2284 Clouds 23 1011 74 10000 2.1 320 05:54 16.12.2019
2285 Clouds 23 1011 74 10000 2.1 320 05:35 16.12.2019
2286 Clear 24 1012 74 10000 3.1 320 04:27 16.12.2019
2287 Clear 25 1013 69 10000 3.1 38 02:49 16.12.2019
2288 Clouds 27 1013 74 10000 1 140 01:45 16.12.2019
2289 Clouds 28 1013 69 10000 1 10 00:54 16.12.2019
2290 Clouds 28 1013 69 10000 1 10 00:36 16.12.2019
2291 Clouds 28 1013 62 10000 2.6 120 00:18 16.12.2019
2292 Clouds 30 1012 66 10000 4.1 70 23:40 15.12.2019
2293 Clouds 30 1012 66 10000 4.1 70 23:21 15.12.2019
2294 Clouds 31 1012 70 10000 2.1 140 22:56 15.12.2019
2295 Clouds 28 1012 70 10000 2.1 140 22:38 15.12.2019
2296 Clouds 32 1012 70 10000 2.1 140 22:19 15.12.2019
2297 Clouds 32 1012 66 10000 5.1 190 21:57 15.12.2019
2298 Clouds 29 1012 66 10000 5.1 190 21:38 15.12.2019
2299 Clouds 33 1012 66 10000 5.1 190 21:19 15.12.2019
2300 Clouds 33 1012 66 10000 5.1 190 21:19 15.12.2019
2301 Clouds 32 1012 66 10000 4.6 170 20:57 15.12.2019
2302 Clouds 30 1012 66 10000 4.6 170 20:38 15.12.2019
2303 Clouds 33 1012 66 10000 4.6 170 20:20 15.12.2019
2304 Clouds 33 1013 70 10000 5.7 160 19:58 15.12.2019
2305 Clouds 33 1013 70 10000 5.7 160 19:39 15.12.2019
2306 Clouds 32 1013 70 10000 5.7 160 19:19 15.12.2019
2307 Clouds 33 1014 74 10000 5.1 160 18:57 15.12.2019
2308 Clouds 33 1014 74 10000 5.1 160 18:38 15.12.2019
2309 Clouds 32 1013 49 10000 3.1 130 18:18 15.12.2019
2310 Clouds 32 1014 74 10000 5.7 150 17:56 15.12.2019
2311 Clouds 32 1014 74 10000 5.7 150 17:56 15.12.2019
2312 Clouds 32 1014 74 10000 5.7 150 17:37 15.12.2019
2313 Clouds 32 1014 74 10000 5.7 150 17:37 15.12.2019
2314 Clouds 32 1014 74 10000 5.7 150 17:19 15.12.2019
2315 Clouds 31 1015 70 10000 4.1 150 16:57 15.12.2019
2316 Clouds 29 1015 70 10000 4.1 150 16:39 15.12.2019
2317 Clouds 31 1015 70 10000 4.1 150 16:20 15.12.2019
2318 Clouds 31 1015 74 10000 2.1 120 15:55 15.12.2019
2319 Clouds 30 1015 74 10000 2.1 120 15:37 15.12.2019
2320 Clouds 30 1015 74 10000 2.1 120 15:18 15.12.2019
2321 Clouds 29 1016 83 10000 2.6 350 14:55 15.12.2019
2322 Clouds 27 1016 83 10000 2.6 350 14:36 15.12.2019
2323 Clouds 28 1016 83 10000 2.6 350 14:18 15.12.2019
2324 Clouds 28 1016 83 10000 2.6 340 13:56 15.12.2019
2325 Clouds 28 1016 83 10000 2.6 340 13:37 15.12.2019
2326 Clouds 28 1016 83 10000 2.6 340 13:19 15.12.2019
2327 Clouds 27 1016 83 10000 2.6 340 12:56 15.12.2019
2328 Clouds 27 1016 83 10000 2.6 340 12:38 15.12.2019
2329 Clouds 26 1016 83 10000 2.6 340 12:20 15.12.2019
2330 Clouds 26 1016 83 10000 2.1 40 11:55 15.12.2019
2331 Clouds 26 1016 83 10000 2.1 40 11:36 15.12.2019
2332 Clouds 26 1016 83 10000 2.1 40 11:18 15.12.2019
2333 Clouds 24 1016 88 8000 1 90 10:54 15.12.2019
2334 Clouds 23 1016 88 8000 1 90 10:36 15.12.2019
2335 Clouds 23 1016 88 8000 1 90 10:18 15.12.2019
2336 Clouds 22 1015 94 10000 1 160 09:39 15.12.2019
2337 Clouds 22 1015 94 10000 1 160 09:20 15.12.2019
2338 Clouds 22 1015 100 10000 1.5 140 08:58 15.12.2019
2339 Clouds 22 1015 100 10000 1.5 140 08:39 15.12.2019
2340 Clouds 22 1015 100 10000 1.5 140 08:20 15.12.2019
2341 Clouds 22 1015 100 10000 2.6 150 07:56 15.12.2019
2342 Clouds 22 1015 100 10000 2.6 150 07:34 15.12.2019
2343 Clouds 23 1016 94 10000 2.1 130 06:44 15.12.2019
2344 Clouds 23 1016 94 10000 2.1 130 06:19 15.12.2019
2345 Clouds 23 1016 94 8000 2.6 170 05:26 15.12.2019
2346 Clouds 23 1017 94 8000 3.1 140 04:47 15.12.2019
2347 Clouds 24 1017 94 9000 1.5 180 03:29 15.12.2019
2348 Clouds 24 1017 94 9000 2.6 170 02:34 15.12.2019
2349 Clouds 25 1017 88 8000 1.5 170 01:47 15.12.2019
2350 Clouds 25 1017 88 8000 1.5 170 01:28 15.12.2019
2351 Clouds 25 1017 94 8000 3.1 160 00:58 15.12.2019
2352 Clouds 25 1017 94 8000 3.1 160 00:40 15.12.2019
2353 Clouds 25 1017 94 8000 3.1 160 00:21 15.12.2019
2354 Clouds 25 1017 94 8000 4.6 160 23:40 14.12.2019
2355 Clouds 26 1017 94 10000 5.1 160 23:21 14.12.2019
2356 Clouds 26 1017 94 10000 5.1 160 22:58 14.12.2019
2357 Clouds 24 1017 94 10000 5.1 160 22:40 14.12.2019
2358 Clouds 25 1017 94 10000 5.1 160 22:21 14.12.2019
2359 Clouds 26 1017 88 10000 6.2 160 21:56 14.12.2019
2360 Clouds 26 1017 88 10000 6.2 160 21:56 14.12.2019
2361 Clouds 25 1017 88 10000 6.2 160 21:37 14.12.2019
2362 Clouds 26 1017 88 10000 6.2 160 21:19 14.12.2019
2363 Clouds 26 1017 88 10000 6.2 160 21:19 14.12.2019
2364 Clouds 27 1017 83 10000 6.7 160 20:56 14.12.2019
2365 Clouds 26 1017 83 10000 6.7 160 20:38 14.12.2019
2366 Clouds 27 1017 83 10000 6.7 160 20:19 14.12.2019
2367 Clouds 27 1017 88 10000 6.2 160 19:55 14.12.2019
2368 Clouds 26 1017 88 10000 6.2 160 19:36 14.12.2019
2369 Clouds 26 1017 88 10000 6.2 160 19:18 14.12.2019
2370 Clouds 27 1017 83 10000 6.7 160 18:55 14.12.2019
2371 Clouds 27 1017 83 10000 6.7 160 18:36 14.12.2019
2372 Clouds 27 1017 83 10000 6.7 160 18:18 14.12.2019
2373 Clouds 27 1018 83 10000 5.1 160 17:42 14.12.2019
2374 Clouds 26 1018 83 10000 5.1 160 17:22 14.12.2019
2375 Clouds 26 1018 83 10000 4.6 160 16:55 14.12.2019
2376 Clouds 26 1018 83 10000 4.6 160 16:37 14.12.2019
2377 Clouds 26 1018 83 10000 4.6 160 16:18 14.12.2019
2378 Clouds 26 1018 83 10000 3.6 150 15:41 14.12.2019
2379 Clouds 26 1018 83 10000 3.6 150 15:21 14.12.2019
2380 Clouds 27 1018 83 10000 3.1 140 14:58 14.12.2019
2381 Clouds 26 1018 83 10000 3.1 140 14:38 14.12.2019
2382 Clouds 26 1018 83 10000 3.1 140 14:19 14.12.2019
2383 Clouds 26 1018 83 10000 3.1 140 14:19 14.12.2019
2384 Clouds 26 1018 83 10000 3.6 160 13:45 14.12.2019
2385 Clouds 26 1018 83 10000 3.6 160 13:45 14.12.2019
2386 Clouds 26 1018 83 10000 3.6 160 13:20 14.12.2019
2387 Clouds 26 1018 88 9000 4.1 170 12:59 14.12.2019
2388 Clouds 26 1018 88 9000 4.1 170 12:41 14.12.2019
2389 Clouds 26 1018 88 9000 4.1 170 12:21 14.12.2019
2390 Clouds 26 1018 88 9000 4.1 170 12:21 14.12.2019
2391 Clouds 26 1017 88 9000 3.1 170 11:59 14.12.2019
2392 Clouds 26 1017 88 9000 3.1 170 11:40 14.12.2019
2393 Clouds 26 1017 88 9000 3.1 170 11:20 14.12.2019
2394 Clouds 24 1017 88 9000 4.1 190 10:59 14.12.2019
2395 Clouds 23 1017 88 9000 4.1 190 10:40 14.12.2019
2396 Clouds 23 1017 88 9000 4.1 190 10:22 14.12.2019
2397 Clouds 23 1016 94 9000 3.6 180 09:59 14.12.2019
2398 Clouds 22 1016 94 9000 3.6 180 09:40 14.12.2019
2399 Clouds 23 1016 94 9000 3.6 180 09:20 14.12.2019
2400 Clouds 23 1015 94 10000 4.6 170 08:43 14.12.2019
2401 Clouds 23 1015 94 10000 4.6 170 08:20 14.12.2019
2402 Clouds 23 1015 94 10000 3.1 180 07:55 14.12.2019
2403 Clouds 23 1015 94 10000 3.1 180 07:36 14.12.2019
2404 Clouds 23 1015 94 10000 3.1 180 07:18 14.12.2019
2405 Clouds 23 1015 94 10000 3.6 180 06:39 14.12.2019
2406 Clouds 23 1015 94 10000 3.6 180 06:18 14.12.2019
2407 Clouds 24 1015 94 10000 3.6 180 05:20 14.12.2019
2408 Clouds 25 1016 83 10000 3.1 200 02:49 14.12.2019
2409 Clouds 26 1016 83 10000 3.1 200 02:22 14.12.2019
2410 Clouds 26 1016 78 10000 2.6 230 01:43 14.12.2019
2411 Clouds 26 1014 83 10000 6.2 190 00:50 14.12.2019
2412 Clouds 26 1014 83 10000 6.2 190 00:29 14.12.2019
2413 Clouds 26 1013 83 10000 5.7 180 23:58 13.12.2019
2414 Clouds 26 1013 83 10000 5.7 180 23:39 13.12.2019
2415 Clouds 26 1013 83 10000 5.7 180 23:19 13.12.2019
2416 Clouds 27 1011 83 10000 5.7 150 22:55 13.12.2019
2417 Clouds 26 1011 83 10000 5.7 150 22:36 13.12.2019
2418 Clouds 27 1011 83 10000 5.7 150 22:36 13.12.2019
2419 Clouds 27 1011 83 10000 5.7 150 22:18 13.12.2019
2420 Clouds 26 1011 78 10000 6.2 160 21:39 13.12.2019
2421 Clouds 28 1011 78 10000 6.2 160 21:21 13.12.2019
2422 Clouds 28 1010 83 10000 7.2 140 20:57 13.12.2019
2423 Clouds 26 1005 76 0 2.24 275 20:38 13.12.2019
2424 Clouds 30 1010 78 10000 7.2 150 20:19 13.12.2019
2425 Clouds 30 1010 78 10000 7.2 150 19:56 13.12.2019
2426 Clouds 30 1010 78 10000 7.2 150 19:36 13.12.2019
2427 Clouds 30 1010 88 10000 7.2 140 19:18 13.12.2019
2428 Clouds 30 1010 88 10000 7.2 140 18:41 13.12.2019
2429 Clouds 30 1010 88 10000 7.2 140 18:19 13.12.2019
2430 Clouds 30 1010 88 10000 6.2 140 17:58 13.12.2019
2431 Clouds 30 1010 88 10000 6.2 140 17:39 13.12.2019
2432 Clouds 30 1011 74 10000 5.1 160 17:18 13.12.2019
2433 Clouds 30 1010 88 10000 6.2 140 17:18 13.12.2019
2434 Clouds 30 1011 74 10000 5.1 160 16:56 13.12.2019
2435 Clouds 30 1011 74 10000 5.1 160 16:38 13.12.2019
2436 Clouds 30 1011 74 10000 5.1 160 16:19 13.12.2019
2437 Clouds 30 1011 78 9000 4.1 150 15:42 13.12.2019
2438 Clouds 30 1011 78 9000 4.1 150 15:21 13.12.2019
2439 Clouds 30 1011 83 6000 1.5 90 14:57 13.12.2019
2440 Clouds 30 1011 83 6000 1.5 90 14:37 13.12.2019
2441 Clouds 29 1011 83 6000 1.5 90 14:18 13.12.2019
2442 Mist 27 1010 88 4500 1.5 30 13:43 13.12.2019
2443 Mist 28 1010 88 4500 1.5 30 13:24 13.12.2019
2444 Mist 26 1010 88 4500 2.1 360 12:57 13.12.2019
2445 Mist 26 1009 94 2000 2.6 350 12:39 13.12.2019
2446 Mist 26 1009 94 2000 2.6 350 12:18 13.12.2019
2447 Fog 25 1009 100 300 3.1 340 11:43 13.12.2019
2448 Fog 24 1008 100 300 2.6 20 11:25 13.12.2019
2449 Fog 24 1008 100 300 2.6 20 10:57 13.12.2019
2450 Fog 24 1008 94 800 3.1 20 10:39 13.12.2019
2451 Fog 24 1008 94 800 3.1 20 10:21 13.12.2019
2452 Mist 23 1007 94 1500 3.1 350 09:42 13.12.2019
2453 Mist 22 1007 100 1500 3.1 360 09:21 13.12.2019
2454 Mist 22 1007 100 1500 3.1 360 08:55 13.12.2019
2455 Mist 22 1007 100 1500 3.1 360 08:36 13.12.2019
2456 Mist 22 1007 100 1500 3.1 360 08:18 13.12.2019
2457 Mist 23 1006 94 2000 3.1 340 07:42 13.12.2019
2458 Mist 23 1006 100 3000 3.6 340 07:19 13.12.2019
2459 Mist 23 1006 100 3000 3.6 340 06:45 13.12.2019
2460 Clouds 23 1007 100 8000 3.1 360 06:25 13.12.2019
2461 Clouds 23 1008 94 8000 2.1 330 05:38 13.12.2019
2462 Clouds 23 1008 94 8000 2.1 330 05:20 13.12.2019
2463 Clouds 24 1009 94 10000 2.1 330 04:29 13.12.2019
2464 Clouds 23 1010 88 10000 2.6 300 02:56 13.12.2019
2465 Clouds 24 1010 88 10000 2.6 300 02:30 13.12.2019
2466 Clouds 24 1009 88 10000 2.6 310 01:38 13.12.2019
2467 Rain 24 1009 94 8000 1.5 20 00:51 13.12.2019
2468 Rain 24 1009 94 8000 1.5 20 00:28 13.12.2019
2469 Rain 24 1008 94 8000 1 280 23:44 12.12.2019
2470 Rain 24 1008 94 8000 1 280 23:26 12.12.2019
2471 Rain 24 1008 100 6000 1 350 22:57 12.12.2019
2472 Rain 23 1008 100 6000 1 350 22:39 12.12.2019
2473 Rain 23 1008 100 6000 1 350 22:39 12.12.2019
2474 Rain 23 1008 100 6000 1 350 22:21 12.12.2019
2475 Rain 23 1008 100 6000 1 350 22:21 12.12.2019
2476 Rain 24 1008 100 4000 2.1 350 21:56 12.12.2019
2477 Thunderstorm 24 1008 88 3000 1.5 280 21:37 12.12.2019
2478 Thunderstorm 24 1008 88 3000 1.5 280 21:19 12.12.2019
2479 Thunderstorm 24 1008 88 3000 1.5 280 21:19 12.12.2019
2480 Thunderstorm 24 1008 94 1500 3.6 230 20:59 12.12.2019
2481 Rain 24 1007 88 10000 3.1 170 20:40 12.12.2019
2482 Rain 24 1007 88 10000 3.1 170 20:22 12.12.2019
2483 Rain 25 1007 94 8000 4.1 190 19:56 12.12.2019
2484 Rain 25 1007 94 8000 4.1 190 19:38 12.12.2019
2485 Rain 25 1007 94 8000 4.1 190 19:20 12.12.2019
2486 Rain 26 1008 88 6000 3.6 160 18:56 12.12.2019
2487 Rain 26 1008 88 6000 3.6 160 18:38 12.12.2019
2488 Clouds 26 1008 94 6000 4.1 150 18:19 12.12.2019
2489 Clouds 26 1008 94 6000 4.1 150 17:57 12.12.2019
2490 Clouds 25 1008 94 6000 4.1 150 17:38 12.12.2019
2491 Clouds 26 1008 94 6000 4.1 150 17:19 12.12.2019
2492 Rain 25 1009 94 5000 3.6 160 16:55 12.12.2019
2493 Rain 25 1009 94 5000 3.6 160 16:37 12.12.2019
2494 Rain 25 1009 94 5000 3.6 160 16:18 12.12.2019
2495 Rain 25 1009 94 6000 4.1 150 15:54 12.12.2019
2496 Rain 25 1009 94 6000 4.1 150 15:36 12.12.2019
2497 Rain 25 1009 94 6000 4.1 150 15:18 12.12.2019
2498 Rain 25 1009 94 6000 4.1 150 15:18 12.12.2019
2499 Clouds 26 1009 88 10000 2.1 160 14:38 12.12.2019
2500 Clouds 26 1009 88 10000 2.1 160 14:19 12.12.2019
2501 Clouds 24 1009 88 10000 2.1 140 13:57 12.12.2019
2502 Clouds 24 1009 88 8000 1.5 350 13:38 12.12.2019
2503 Clouds 26 1009 88 8000 1.5 350 13:20 12.12.2019
2504 Clouds 25 1008 94 6000 2.1 330 12:57 12.12.2019
2505 Clouds 25 1008 94 6000 2.1 330 12:38 12.12.2019
2506 Clouds 25 1008 94 6000 2.1 330 12:38 12.12.2019
2507 Clouds 25 1008 94 6000 2.1 330 12:19 12.12.2019
2508 Clouds 24 1008 94 7000 2.1 340 11:55 12.12.2019
2509 Clouds 23 1008 94 7000 2.1 340 11:37 12.12.2019
2510 Clouds 23 1008 94 7000 2.1 340 11:19 12.12.2019
2511 Clouds 23 1007 94 7000 1 310 10:54 12.12.2019
2512 Clouds 23 1007 94 7000 1 310 10:36 12.12.2019
2513 Clouds 22 1007 94 6000 0.5 60 10:18 12.12.2019
2514 Clouds 22 1007 94 6000 0.5 60 09:41 12.12.2019
2515 Clouds 22 1007 94 6000 0.5 60 09:23 12.12.2019
2516 Clouds 22 1007 94 6000 1.5 340 08:56 12.12.2019
2517 Clouds 22 1007 94 6000 1.5 340 08:38 12.12.2019
2518 Clouds 22 1007 94 6000 1.5 340 08:38 12.12.2019
2519 Clouds 22 1007 94 6000 1.5 340 08:19 12.12.2019
2520 Rain 22 1007 94 6000 0.5 150 07:42 12.12.2019
2521 Rain 22 1007 94 6000 0.5 150 07:24 12.12.2019
2522 Drizzle 22 1008 94 6000 1 10 06:48 12.12.2019
2523 Drizzle 22 1008 94 6000 1 10 06:48 12.12.2019
2524 Drizzle 22 1008 94 6000 1 10 06:30 12.12.2019
2525 Clouds 22 1008 94 7000 2.1 20 05:36 12.12.2019
2526 Rain 22 1009 100 8000 3.1 10 04:51 12.12.2019
2527 Rain 23 1010 100 9000 2.1 350 03:24 12.12.2019
2528 Rain 23 1010 94 9000 2.1 340 02:38 12.12.2019
2529 Rain 24 1010 94 9000 2.1 340 02:19 12.12.2019
2530 Clouds 24 1010 94 9000 0.5 90 01:37 12.12.2019
2531 Clouds 24 1010 94 9000 0.5 90 01:19 12.12.2019
2532 Clouds 24 1010 94 9000 2.6 110 00:46 12.12.2019
2533 Clouds 24 1010 94 9000 2.6 110 00:19 12.12.2019
2534 Clouds 24 1009 94 10000 3.6 130 23:44 11.12.2019
2535 Clouds 24 1009 94 10000 3.6 130 23:21 11.12.2019
2536 Clouds 24 1008 94 10000 3.6 150 22:57 11.12.2019
2537 Clouds 24 1008 94 10000 3.6 150 22:38 11.12.2019
2538 Clouds 24 1008 94 10000 3.6 150 22:20 11.12.2019
2539 Clouds 24 1008 94 10000 4.6 150 21:57 11.12.2019
2540 Clouds 24 1008 94 10000 4.6 150 21:38 11.12.2019
2541 Clouds 24 1008 94 10000 4.6 150 21:19 11.12.2019
2542 Clouds 24 1008 94 10000 4.6 150 21:19 11.12.2019
2543 Clouds 25 1008 88 10000 5.7 160 20:56 11.12.2019
2544 Clouds 25 1008 88 10000 5.7 160 20:37 11.12.2019
2545 Clouds 25 1008 88 10000 5.7 160 20:19 11.12.2019
2546 Clouds 25 1008 88 7000 5.7 160 19:57 11.12.2019
2547 Clouds 25 1008 88 7000 5.7 160 19:39 11.12.2019
2548 Clouds 25 1008 88 7000 5.7 160 19:19 11.12.2019
2549 Clouds 25 1009 83 6000 6.2 170 18:41 11.12.2019
2550 Clouds 25 1009 83 6000 6.2 170 18:21 11.12.2019
2551 Clouds 26 1010 78 6000 5.1 180 17:57 11.12.2019
2552 Clouds 26 1010 78 6000 5.1 180 17:57 11.12.2019
2553 Clouds 26 1010 78 6000 5.1 180 17:39 11.12.2019
2554 Clouds 26 1010 78 6000 5.1 180 17:19 11.12.2019
2555 Clouds 26 1010 78 7000 2.6 150 16:57 11.12.2019
2556 Clouds 26 1010 78 7000 2.6 150 16:39 11.12.2019
2557 Clouds 26 1010 78 7000 2.6 150 16:21 11.12.2019
2558 Clouds 26 1010 83 6000 2.1 130 15:59 11.12.2019
2559 Clouds 27 1010 83 6000 2.1 130 15:40 11.12.2019
2560 Clouds 27 1010 83 6000 2.1 130 15:22 11.12.2019
2561 Clouds 25 1010 83 8000 2.6 350 15:22 11.12.2019
2562 Clouds 25 1010 83 8000 2.6 350 14:56 11.12.2019
2563 Clouds 25 1010 83 8000 2.6 350 14:38 11.12.2019
2564 Clouds 25 1010 83 8000 2.6 350 14:19 11.12.2019
2565 Clouds 25 1010 88 7000 1.5 30 13:55 11.12.2019
2566 Clouds 25 1011 88 6000 1.5 130 13:36 11.12.2019
2567 Clouds 24 1011 88 6000 1.5 130 13:18 11.12.2019
2568 Mist 24 1011 94 5000 3.6 130 12:55 11.12.2019
2569 Mist 24 1011 94 5000 3.6 130 12:37 11.12.2019
2570 Mist 23 1011 94 4500 3.6 150 12:18 11.12.2019
2571 Mist 24 1011 94 5000 3.6 130 12:18 11.12.2019
2572 Mist 23 1011 94 4500 3.6 150 11:57 11.12.2019
2573 Mist 23 1011 94 4500 3.6 150 11:57 11.12.2019
2574 Mist 23 1011 94 4500 3.6 150 11:38 11.12.2019
2575 Mist 23 1011 94 4500 3.6 150 11:38 11.12.2019
2576 Mist 23 1011 94 4500 3.6 150 11:18 11.12.2019
2577 Mist 23 1011 94 4000 0.5 320 11:18 11.12.2019
2578 Mist 22 1010 100 4500 4.6 190 10:45 11.12.2019
2579 Mist 22 1010 100 4500 4.6 190 10:27 11.12.2019
2580 Mist 21 1009 100 4000 1 190 09:59 11.12.2019
2581 Mist 21 1009 100 4000 1 190 09:39 11.12.2019
2582 Mist 21 1009 100 4000 1 190 09:39 11.12.2019
2583 Mist 21 1009 100 4000 1 190 09:39 11.12.2019
2584 Mist 21 1009 100 4000 1 190 09:20 11.12.2019
2585 Mist 21 1009 94 4000 2.6 110 08:57 11.12.2019
2586 Mist 21 1009 94 4000 2.6 110 08:38 11.12.2019
2587 Mist 21 1009 94 4000 2.6 110 08:19 11.12.2019
2588 Mist 22 1009 94 4000 1.5 170 07:47 11.12.2019
2589 Mist 22 1009 94 4000 1.5 170 07:28 11.12.2019
2590 Mist 22 1009 94 4000 2.6 350 06:59 11.12.2019
2591 Mist 22 1009 94 4000 2.6 350 06:40 11.12.2019
2592 Mist 22 1009 94 4000 2.6 350 06:21 11.12.2019
2593 Rain 22 1010 94 4000 1.5 350 05:41 11.12.2019
2594 Rain 22 1010 94 4000 1.5 350 05:18 11.12.2019
2595 Rain 22 1012 94 3500 2.6 360 03:50 11.12.2019
2596 Rain 22 1012 94 3500 2.1 20 02:49 11.12.2019
2597 Rain 23 1012 94 4000 2.1 320 01:25 11.12.2019
2598 Thunderstorm 23 1012 94 5000 5.1 270 00:47 11.12.2019
2599 Rain 23 1012 94 4500 5.7 170 00:21 11.12.2019
2600 Drizzle 23 1011 94 3500 6.2 150 23:47 10.12.2019
2601 Drizzle 23 1011 94 3500 6.2 150 23:28 10.12.2019
2602 Clouds 23 1010 94 6000 6.2 170 22:58 10.12.2019
2603 Clouds 24 1010 94 6000 6.2 170 22:40 10.12.2019
2604 Clouds 24 1010 94 6000 6.2 170 22:40 10.12.2019
2605 Clouds 23 1010 94 6000 6.2 170 22:22 10.12.2019
2606 Clouds 24 1010 88 8000 4.1 170 21:56 10.12.2019
2607 Clouds 24 1010 88 8000 4.1 170 21:38 10.12.2019
2608 Clouds 24 1010 88 8000 4.1 170 21:38 10.12.2019
2609 Clouds 24 1010 88 8000 4.1 170 21:38 10.12.2019
2610 Clouds 24 1010 88 8000 4.1 170 21:19 10.12.2019
2611 Clouds 24 1010 88 9000 4.1 150 20:57 10.12.2019
2612 Clouds 24 1010 88 9000 4.1 150 20:37 10.12.2019
2613 Clouds 24 1010 88 9000 4.1 150 20:37 10.12.2019
2614 Clouds 24 1010 88 9000 4.1 150 20:19 10.12.2019
2615 Rain 24 1010 88 7000 4.1 170 19:55 10.12.2019
2616 Rain 24 1010 88 7000 4.1 170 19:37 10.12.2019
2617 Rain 24 1010 88 7000 4.1 170 19:18 10.12.2019
2618 Rain 25 1011 83 8000 5.7 170 18:40 10.12.2019
2619 Rain 25 1011 83 8000 5.7 170 18:20 10.12.2019
2620 Clouds 25 1011 83 9000 5.1 170 17:58 10.12.2019
2621 Clouds 25 1011 83 9000 5.1 170 17:40 10.12.2019
2622 Clouds 25 1011 83 9000 5.1 170 17:40 10.12.2019
2623 Clouds 25 1011 83 9000 5.1 170 17:20 10.12.2019
2624 Rain 25 1011 88 8000 5.7 180 16:54 10.12.2019
2625 Rain 25 1011 88 8000 5.7 180 16:36 10.12.2019
2626 Rain 25 1011 88 8000 5.7 180 16:18 10.12.2019
2627 Clouds 26 1011 83 10000 2.1 130 15:38 10.12.2019
2628 Clouds 27 1012 83 10000 2.6 350 15:18 10.12.2019
2629 Clouds 27 1012 83 10000 2.6 350 14:56 10.12.2019
2630 Clouds 27 1012 83 10000 2.6 350 14:37 10.12.2019
2631 Clouds 27 1012 83 10000 2.6 350 14:19 10.12.2019
2632 Clouds 27 1012 94 10000 2.6 350 13:57 10.12.2019
2633 Clouds 27 1012 94 10000 2.6 350 13:57 10.12.2019
2634 Clouds 27 1012 94 10000 2.6 350 13:38 10.12.2019
2635 Clouds 27 1012 94 10000 2.6 350 13:19 10.12.2019
2636 Clouds 25 1012 100 9000 0.5 70 12:47 10.12.2019
2637 Clouds 25 1012 100 9000 0.5 70 12:27 10.12.2019
2638 Rain 24 1012 100 7000 1 90 11:55 10.12.2019
2639 Rain 24 1012 100 7000 1 90 11:37 10.12.2019
2640 Rain 24 1012 100 7000 1 90 11:18 10.12.2019
2641 Rain 23 1012 88 5000 1.5 160 10:42 10.12.2019
2642 Rain 23 1012 88 5000 1.5 160 10:24 10.12.2019
2643 Clouds 23 1010 100 10000 0.5 190 09:57 10.12.2019
2644 Clouds 23 1010 100 10000 0.5 190 09:39 10.12.2019
2645 Clouds 23 1010 100 10000 0.5 190 09:20 10.12.2019
2646 Clouds 22 1010 100 10000 1 160 08:58 10.12.2019
2647 Clouds 22 1010 100 10000 1 160 08:39 10.12.2019
2648 Clouds 22 1010 100 10000 1 160 08:20 10.12.2019
2649 Rain 22 1010 100 10000 2.1 150 07:45 10.12.2019
2650 Rain 22 1010 100 10000 2.1 150 07:27 10.12.2019
2651 Rain 22 1010 100 10000 2.1 150 06:50 10.12.2019
2652 Rain 22 1010 100 10000 2.1 150 06:25 10.12.2019
2653 Rain 23 1011 100 10000 2.1 140 05:57 10.12.2019
2654 Rain 23 1011 100 10000 2.1 140 05:38 10.12.2019
2655 Clouds 23 1012 94 10000 2.78 53 03:55 10.12.2019
2656 Clouds 23 1012 94 10000 2.78 53 03:55 10.12.2019
2657 Clouds 23 1012 88 10000 2.78 53 02:57 10.12.2019
2658 Clouds 24 1012 88 10000 1.5 190 01:55 10.12.2019
2659 Clouds 24 1012 88 10000 1.5 190 01:28 10.12.2019
2660 Clouds 25 1011 88 10000 1.5 150 00:58 10.12.2019
2661 Clouds 25 1011 88 10000 1.5 150 00:25 10.12.2019
2662 Clouds 25 1011 83 10000 1.5 170 23:57 09.12.2019
2663 Clouds 26 1011 83 10000 1.5 170 23:37 09.12.2019
2664 Clouds 26 1011 83 10000 1.5 170 23:18 09.12.2019
2665 Clouds 27 1010 78 10000 3.6 180 22:55 09.12.2019
2666 Clouds 27 1010 78 10000 3.6 180 22:37 09.12.2019
2667 Clouds 27 1010 78 10000 3.6 180 22:18 09.12.2019
2668 Clouds 27 1010 69 10000 3.6 180 21:55 09.12.2019
2669 Clouds 27 1010 69 10000 3.6 180 21:37 09.12.2019
2670 Clouds 27 1010 69 10000 3.6 180 21:18 09.12.2019
2671 Clouds 28 1010 51 10000 5.7 190 20:55 09.12.2019
2672 Clouds 28 1010 51 10000 5.7 190 20:37 09.12.2019
2673 Clouds 28 1010 51 10000 5.7 190 20:37 09.12.2019
2674 Clouds 28 1010 51 10000 5.7 190 20:18 09.12.2019
2675 Clouds 28 1011 66 10000 4.6 160 19:55 09.12.2019
2676 Clouds 28 1011 66 10000 4.6 160 19:37 09.12.2019
2677 Clouds 28 1011 66 10000 4.6 160 19:37 09.12.2019
2678 Clouds 28 1011 66 10000 4.6 160 19:18 09.12.2019
2679 Clouds 30 1011 55 10000 4.6 150 18:54 09.12.2019
2680 Clouds 30 1011 55 10000 4.6 150 18:36 09.12.2019
2681 Clouds 30 1011 55 10000 4.6 150 18:18 09.12.2019
2682 Clouds 30 1012 54 10000 5.1 160 17:55 09.12.2019
2683 Clouds 30 1012 54 10000 5.1 160 17:37 09.12.2019
2684 Clouds 30 1012 54 10000 5.1 160 17:18 09.12.2019
2685 Clouds 29 1013 58 10000 4.6 160 16:54 09.12.2019
2686 Clouds 29 1013 58 10000 4.6 160 16:36 09.12.2019
2687 Clouds 29 1013 58 10000 4.6 160 16:18 09.12.2019
2688 Clouds 28 1013 65 10000 5.1 150 15:54 09.12.2019
2689 Clouds 29 1013 65 10000 5.1 150 15:36 09.12.2019
2690 Clouds 29 1013 65 10000 5.1 150 15:18 09.12.2019
2691 Clouds 28 1013 65 10000 3.1 150 14:41 09.12.2019
2692 Clouds 26 1013 65 10000 3.1 150 14:18 09.12.2019
2693 Clouds 26 1013 65 10000 3.1 150 14:18 09.12.2019
2694 Clouds 27 1014 69 10000 2.6 140 13:56 09.12.2019
2695 Clouds 27 1014 69 10000 2.6 140 13:38 09.12.2019
2696 Clouds 27 1014 69 10000 2.6 140 13:19 09.12.2019
2697 Clouds 25 1014 61 10000 1.5 120 12:56 09.12.2019
2698 Clouds 26 1013 69 10000 1.5 350 12:37 09.12.2019
2699 Clouds 24 1013 69 10000 1.5 350 12:19 09.12.2019
2700 Clouds 23 1013 73 10000 2.1 330 11:55 09.12.2019
2701 Clouds 24 1013 73 10000 2.1 330 11:36 09.12.2019
2702 Clouds 22 1013 73 10000 2.1 330 11:18 09.12.2019
2703 Clouds 22 1013 73 10000 2.1 330 11:18 09.12.2019
2704 Clouds 21 1013 78 10000 1 10 10:40 09.12.2019
2705 Clouds 20 1013 78 10000 1 10 10:20 09.12.2019
2706 Clouds 20 1012 83 10000 1 30 09:58 09.12.2019
2707 Clouds 20 1012 83 10000 1 30 09:40 09.12.2019
2708 Clouds 20 1012 83 10000 1 30 09:21 09.12.2019
2709 Clouds 20 1012 94 10000 2.97 34 08:44 09.12.2019
2710 Clouds 19 1012 94 10000 2.97 34 08:25 09.12.2019
2711 Clouds 20 1012 94 10000 2.2 37 07:56 09.12.2019
2712 Clouds 20 1012 94 10000 2.2 37 07:38 09.12.2019
2713 Clouds 20 1012 94 10000 2.2 37 07:20 09.12.2019
2714 Clouds 20 1012 88 10000 2.2 37 06:43 09.12.2019
2715 Clouds 20 1012 88 10000 2.2 37 06:24 09.12.2019
2716 Clouds 20 1012 88 10000 2.2 37 06:24 09.12.2019
2717 Clouds 20 1013 88 10000 3.9 66 05:26 09.12.2019
2718 Clouds 21 1014 83 10000 1.5 80 04:33 09.12.2019
2719 Clouds 22 1014 83 10000 2.1 60 03:19 09.12.2019
2720 Clouds 22 1014 83 10000 2.6 100 02:24 09.12.2019
2721 Clouds 22 1014 78 10000 2.6 90 01:42 09.12.2019
2722 Clouds 23 1014 88 10000 0.5 150 00:46 09.12.2019
2723 Clouds 23 1014 88 10000 0.5 150 00:26 09.12.2019
2724 Clouds 25 1014 83 10000 2.6 180 23:41 08.12.2019
2725 Clouds 25 1014 83 10000 2.6 180 23:23 08.12.2019
2726 Clouds 25 1013 73 10000 2.6 150 22:57 08.12.2019
2727 Clouds 25 1013 73 10000 2.6 150 22:57 08.12.2019
2728 Clouds 25 1013 73 10000 2.6 150 22:39 08.12.2019
2729 Clouds 25 1013 73 10000 2.6 150 22:19 08.12.2019
2730 Clouds 27 1013 69 10000 3.1 170 21:58 08.12.2019
2731 Clouds 27 1013 69 10000 3.1 170 21:40 08.12.2019
2732 Clouds 27 1013 69 10000 3.1 170 21:21 08.12.2019
2733 Clouds 27 1013 69 10000 4.1 160 20:57 08.12.2019
2734 Clouds 27 1013 69 10000 4.1 160 20:38 08.12.2019
2735 Clouds 27 1013 69 10000 4.1 160 20:20 08.12.2019
2736 Clouds 27 1013 69 10000 4.1 160 20:20 08.12.2019
2737 Clouds 28 1013 65 10000 4.6 150 19:59 08.12.2019
2738 Clouds 28 1013 65 10000 4.6 150 19:41 08.12.2019
2739 Clouds 28 1013 65 10000 4.6 150 19:23 08.12.2019
2740 Clouds 28 1014 69 10000 6.2 170 18:55 08.12.2019
2741 Clouds 28 1014 69 10000 6.2 170 18:55 08.12.2019
2742 Clouds 28 1014 69 10000 6.2 170 18:37 08.12.2019
2743 Clouds 28 1014 69 10000 6.2 170 18:19 08.12.2019
2744 Clouds 28 1014 74 10000 7.2 170 17:57 08.12.2019
2745 Clouds 28 1014 74 10000 7.2 170 17:39 08.12.2019
2746 Clouds 28 1014 74 10000 7.2 170 17:20 08.12.2019
2747 Clouds 28 1014 74 10000 7.2 170 17:20 08.12.2019
2748 Clouds 28 1014 74 10000 7.2 170 17:20 08.12.2019
2749 Clouds 27 1015 69 10000 6.2 170 16:57 08.12.2019
2750 Clouds 27 1015 69 10000 6.2 170 16:39 08.12.2019
2751 Clouds 27 1015 69 10000 6.2 170 16:21 08.12.2019
2752 Clouds 27 1015 69 10000 5.7 170 15:56 08.12.2019
2753 Clouds 27 1015 69 10000 5.7 170 15:37 08.12.2019
2754 Clouds 27 1015 69 10000 5.7 170 15:18 08.12.2019
2755 Clouds 25 1016 69 10000 2.6 140 14:44 08.12.2019
2756 Clouds 25 1016 69 10000 2.6 140 14:24 08.12.2019
2757 Clouds 24 1016 69 10000 3.1 140 13:59 08.12.2019
2758 Clouds 24 1016 69 10000 2.1 340 13:40 08.12.2019
2759 Clouds 24 1016 69 10000 2.1 340 13:22 08.12.2019
2760 Clouds 23 1016 78 10000 1.5 10 12:58 08.12.2019
2761 Clouds 22 1016 78 10000 1.5 10 12:38 08.12.2019
2762 Clouds 23 1016 78 10000 1.5 10 12:18 08.12.2019
2763 Clouds 22 1016 78 10000 1 60 11:57 08.12.2019
2764 Clouds 22 1016 78 10000 1 60 11:37 08.12.2019
2765 Clouds 20 1016 78 10000 1 60 11:19 08.12.2019
2766 Clouds 18 1015 83 10000 0.5 110 10:55 08.12.2019
2767 Clouds 18 1015 83 10000 0.5 110 10:36 08.12.2019
2768 Clouds 18 1015 83 10000 0.5 110 10:18 08.12.2019
2769 Clouds 19 1015 88 10000 1.5 60 09:54 08.12.2019
2770 Clouds 19 1015 88 10000 1.5 60 09:36 08.12.2019
2771 Clouds 17 1015 88 10000 1.5 60 09:18 08.12.2019
2772 Clouds 17 1014 94 10000 1.5 10 08:41 08.12.2019
2773 Clouds 17 1014 94 10000 1.5 10 08:22 08.12.2019
2774 Clouds 18 1014 88 10000 2.1 50 07:49 08.12.2019
2775 Clouds 17 1014 88 10000 2.1 50 07:21 08.12.2019
2776 Clouds 18 1014 88 10000 0.5 130 06:59 08.12.2019
2777 Clouds 18 1014 88 10000 0.5 130 06:39 08.12.2019
2778 Clouds 18 1014 88 10000 0.5 130 06:19 08.12.2019
2779 Clouds 18 1014 88 10000 1 170 05:23 08.12.2019
2780 Clear 18 1015 88 10000 3.26 53 04:46 08.12.2019
2781 Clear 19 1016 88 10000 1.5 150 03:39 08.12.2019
2782 Clear 20 1016 88 10000 2.6 150 02:43 08.12.2019
2783 Clear 22 1016 88 10000 2.6 150 02:20 08.12.2019
2784 Clear 22 1015 94 10000 3.1 170 01:40 08.12.2019
2785 Clear 23 1015 94 10000 4.6 160 00:53 08.12.2019
2786 Clear 23 1015 94 10000 4.6 160 00:24 08.12.2019
2787 Clouds 23 1014 94 10000 4.6 160 23:59 07.12.2019
2788 Clouds 23 1014 94 10000 4.6 160 23:38 07.12.2019
2789 Clouds 24 1013 83 10000 5.1 150 23:20 07.12.2019
2790 Clouds 24 1013 83 10000 5.1 150 22:55 07.12.2019
2791 Clouds 24 1013 83 10000 5.1 150 22:37 07.12.2019
2792 Clouds 24 1013 83 10000 5.1 150 22:37 07.12.2019
2793 Clouds 24 1013 83 10000 5.1 150 22:37 07.12.2019
2794 Clouds 25 1013 83 10000 4.6 160 22:19 07.12.2019
2795 Clouds 25 1013 83 10000 4.6 160 21:55 07.12.2019
2796 Clouds 25 1013 83 10000 4.6 160 21:37 07.12.2019
2797 Clouds 25 1013 83 10000 4.6 160 21:18 07.12.2019
2798 Clouds 26 1013 74 10000 5.1 160 20:38 07.12.2019
2799 Clouds 26 1013 74 10000 5.1 160 20:20 07.12.2019
2800 Clouds 27 1013 69 10000 4.1 150 19:58 07.12.2019
2801 Clouds 27 1013 69 10000 4.1 150 19:39 07.12.2019
2802 Clouds 26 1013 69 10000 4.1 150 19:21 07.12.2019
2803 Clouds 27 1013 65 10000 4.6 150 18:59 07.12.2019
2804 Clouds 27 1013 65 10000 4.6 150 18:40 07.12.2019
2805 Clouds 27 1013 65 10000 4.6 150 18:18 07.12.2019
2806 Clouds 27 1014 65 10000 4.6 160 17:56 07.12.2019
2807 Clouds 27 1014 65 10000 4.6 160 17:37 07.12.2019
2808 Clouds 27 1014 65 10000 4.6 160 17:19 07.12.2019
2809 Clouds 27 1014 69 10000 4.6 140 16:56 07.12.2019
2810 Clouds 27 1014 69 10000 4.6 140 16:36 07.12.2019
2811 Clouds 27 1014 69 10000 4.6 140 16:18 07.12.2019
2812 Clouds 27 1014 69 10000 4.1 150 15:41 07.12.2019
2813 Clouds 27 1014 69 10000 4.1 150 15:23 07.12.2019
2814 Clouds 26 1014 69 10000 3.6 160 14:57 07.12.2019
2815 Clouds 26 1014 69 10000 3.6 160 14:38 07.12.2019
2816 Clouds 27 1014 69 10000 3.6 160 14:18 07.12.2019
2817 Clouds 26 1014 74 10000 1 70 13:41 07.12.2019
2818 Clouds 26 1014 74 10000 1 70 13:21 07.12.2019
2819 Clouds 23 1014 78 9000 1.5 50 12:56 07.12.2019
2820 Clouds 23 1014 78 9000 1.5 50 12:38 07.12.2019
2821 Clouds 23 1014 78 9000 1.5 50 12:20 07.12.2019
2822 Clouds 22 1013 88 9000 1.5 350 11:56 07.12.2019
2823 Clouds 22 1013 88 9000 1.5 350 11:37 07.12.2019
2824 Clouds 22 1013 88 9000 1.5 350 11:19 07.12.2019
2825 Clouds 21 1013 94 10000 3.1 340 10:37 07.12.2019
2826 Clouds 21 1013 94 10000 3.1 340 10:19 07.12.2019
2827 Clouds 21 1013 94 10000 3.1 340 10:19 07.12.2019
2828 Clouds 20 1012 94 10000 2.1 320 09:41 07.12.2019
2829 Clouds 20 1012 94 10000 2.1 320 09:22 07.12.2019
2830 Clouds 20 1012 94 10000 2.1 330 08:56 07.12.2019
2831 Clouds 20 1012 94 10000 2.1 330 08:37 07.12.2019
2832 Clouds 20 1012 94 10000 2.1 330 08:19 07.12.2019
2833 Clouds 19 1011 94 10000 1.5 330 07:44 07.12.2019
2834 Clouds 20 1011 94 8000 2.1 10 07:23 07.12.2019
2835 Clouds 20 1011 94 8000 2.1 10 06:45 07.12.2019
2836 Clouds 20 1011 94 8000 2.1 10 06:24 07.12.2019
2837 Clouds 20 1012 94 10000 2.6 10 05:19 07.12.2019
2838 Clouds 21 1013 94 10000 0.5 110 03:55 07.12.2019
2839 Rain 21 1014 94 7000 2.6 40 02:59 07.12.2019
2840 Clouds 21 1013 100 9000 2.6 140 02:21 07.12.2019
2841 Rain 21 1013 94 9000 3.6 170 01:34 07.12.2019
2842 Clouds 21 1012 88 10000 3.1 150 00:52 07.12.2019
2843 Clouds 21 1012 88 10000 3.1 150 00:19 07.12.2019
2844 Clouds 21 1011 94 10000 3.1 140 23:55 06.12.2019
2845 Clouds 21 1011 94 10000 3.1 140 23:36 06.12.2019
2846 Clouds 21 1011 94 10000 3.1 140 23:18 06.12.2019
2847 Clouds 22 1010 88 10000 1.5 130 22:37 06.12.2019
2848 Clouds 22 1010 88 10000 1.5 130 22:19 06.12.2019
2849 Clouds 22 1010 83 10000 3.1 210 21:57 06.12.2019
2850 Clouds 22 1010 83 10000 3.1 210 21:38 06.12.2019
2851 Clouds 22 1010 83 10000 3.1 210 21:19 06.12.2019
2852 Clouds 22 1010 88 9000 3.6 160 20:42 06.12.2019
2853 Clouds 22 1010 88 9000 3.6 160 20:42 06.12.2019
2854 Clouds 22 1010 88 9000 3.6 160 20:23 06.12.2019
2855 Clouds 21 1010 100 7000 4.1 180 19:59 06.12.2019
2856 Clouds 22 1010 100 7000 4.1 180 19:40 06.12.2019
2857 Clouds 21 1010 100 7000 4.1 180 19:21 06.12.2019
2858 Clouds 21 1010 94 10000 6.7 200 18:56 06.12.2019
2859 Clouds 21 1010 94 10000 6.7 200 18:38 06.12.2019
2860 Clouds 21 1010 94 10000 6.7 200 18:19 06.12.2019
2861 Rain 22 1009 100 5000 9.3 190 17:55 06.12.2019
2862 Rain 22 1009 100 5000 9.3 190 17:37 06.12.2019
2863 Rain 21 1009 100 5000 9.3 190 17:19 06.12.2019
2864 Rain 23 1010 100 4500 7.7 180 16:43 06.12.2019
2865 Rain 22 1010 100 4500 7.7 180 16:25 06.12.2019
2866 Rain 24 1009 100 2000 9.8 200 15:59 06.12.2019
2867 Clouds 24 1009 94 10000 4.6 180 15:40 06.12.2019
2868 Clouds 24 1009 94 10000 4.6 180 15:19 06.12.2019
2869 Rain 24 1009 100 7000 6.2 210 14:57 06.12.2019
2870 Rain 25 1009 100 7000 6.2 210 14:38 06.12.2019
2871 Rain 25 1009 100 7000 6.2 210 14:19 06.12.2019
2872 Clouds 25 1008 94 10000 4.1 170 13:43 06.12.2019
2873 Clouds 25 1008 94 10000 4.1 170 13:25 06.12.2019
2874 Clouds 25 1008 94 10000 2.6 170 12:43 06.12.2019
2875 Clouds 25 1008 94 10000 2.6 170 12:23 06.12.2019
2876 Clouds 24 1008 100 10000 4.1 180 11:58 06.12.2019
2877 Clouds 24 1008 100 10000 4.1 180 11:39 06.12.2019
2878 Clouds 24 1008 100 10000 4.1 180 11:21 06.12.2019
2879 Clouds 24 1006 94 10000 5.1 170 10:44 06.12.2019
2880 Clouds 24 1006 94 10000 5.1 170 10:22 06.12.2019
2881 Clouds 23 1005 100 10000 5.1 180 09:59 06.12.2019
2882 Clouds 23 1005 100 10000 5.1 180 09:39 06.12.2019
2883 Clouds 23 1005 100 10000 5.1 180 09:20 06.12.2019
2884 Clouds 24 1005 100 10000 2.1 160 08:57 06.12.2019
2885 Clouds 24 1005 100 10000 2.1 160 08:38 06.12.2019
2886 Clouds 24 1005 100 10000 2.1 160 08:38 06.12.2019
2887 Clouds 24 1005 100 10000 2.1 160 08:20 06.12.2019
2888 Clouds 24 1005 100 10000 2.6 150 07:38 06.12.2019
2889 Clouds 24 1005 100 10000 2.6 150 07:20 06.12.2019
2890 Clouds 24 1005 100 10000 3.1 140 06:30 06.12.2019
2891 Clouds 25 1005 94 10000 1 340 05:56 06.12.2019
2892 Clouds 25 1005 94 10000 1 340 05:38 06.12.2019
2893 Clouds 25 1007 100 10000 4.1 20 02:20 06.12.2019
2894 Clouds 25 1008 100 8000 2.6 340 01:43 06.12.2019
2895 Rain 25 1008 100 3000 4.6 280 00:49 06.12.2019
2896 Rain 25 1008 100 3000 4.6 280 00:22 06.12.2019
2897 Rain 25 1008 100 4500 4.1 290 23:50 05.12.2019
2898 Rain 26 1007 100 4500 5.7 320 23:20 05.12.2019
2899 Rain 26 1006 94 4500 6.2 360 22:58 05.12.2019
2900 Clouds 27 1005 83 10000 4.6 10 22:38 05.12.2019
2901 Clouds 29 1005 83 10000 4.6 10 22:19 05.12.2019
2902 Rain 31 1004 62 10000 2.6 350 21:55 05.12.2019
2903 Rain 31 1004 62 10000 2.6 350 21:37 05.12.2019
2904 Clouds 32 1005 66 10000 1.5 130 21:19 05.12.2019
2905 Clouds 33 1004 59 10000 0.5 360 20:55 05.12.2019
2906 Clouds 33 1004 59 10000 0.5 360 20:36 05.12.2019
2907 Clouds 34 1004 59 10000 0.5 360 20:18 05.12.2019
2908 Clouds 34 1004 59 10000 0.5 360 20:18 05.12.2019
2909 Clouds 33 1004 62 10000 3.6 360 19:40 05.12.2019
2910 Clouds 33 1004 62 10000 3.6 360 19:21 05.12.2019
2911 Clouds 33 1005 59 10000 4.6 350 18:58 05.12.2019
2912 Clouds 32 1005 59 10000 4.6 350 18:38 05.12.2019
2913 Clouds 33 1005 59 10000 4.6 350 18:20 05.12.2019
2914 Clouds 33 1006 62 10000 4.1 360 17:41 05.12.2019
2915 Clouds 31 1006 62 10000 4.1 360 17:20 05.12.2019
2916 Clouds 31 1007 59 10000 5.1 360 16:59 05.12.2019
2917 Clouds 29 1007 59 10000 5.1 360 16:40 05.12.2019
2918 Clouds 33 1007 59 10000 5.1 360 16:22 05.12.2019
2919 Clouds 33 1007 59 10000 6.7 20 15:58 05.12.2019
2920 Clouds 28 1007 59 10000 6.7 20 15:40 05.12.2019
2921 Clouds 33 1007 59 10000 6.7 20 15:20 05.12.2019
2922 Clouds 33 1007 59 10000 6.7 20 15:20 05.12.2019
2923 Clouds 33 1008 55 10000 3.6 350 14:56 05.12.2019
2924 Clouds 33 1008 55 10000 3.6 350 14:38 05.12.2019
2925 Clouds 32 1008 55 10000 3.6 350 14:20 05.12.2019
2926 Clouds 31 1008 66 10000 2.6 350 13:58 05.12.2019
2927 Clouds 31 1008 66 10000 2.6 350 13:40 05.12.2019
2928 Clouds 30 1008 66 10000 2.6 350 13:21 05.12.2019
2929 Clouds 29 1009 78 10000 2.6 360 12:59 05.12.2019
2930 Clouds 29 1009 78 10000 2.6 360 12:40 05.12.2019
2931 Clouds 27 1009 78 10000 2.6 360 12:21 05.12.2019
2932 Clouds 27 1009 74 10000 1.5 350 11:55 05.12.2019
2933 Clouds 24 1009 74 10000 1.5 350 11:36 05.12.2019
2934 Clouds 24 1009 74 10000 1.5 350 11:18 05.12.2019
2935 Clouds 24 1009 88 10000 0.5 290 10:54 05.12.2019
2936 Clouds 23 1009 88 10000 0.5 290 10:36 05.12.2019
2937 Clouds 23 1009 88 10000 0.5 290 10:18 05.12.2019
2938 Clouds 22 1009 100 10000 0.5 100 09:42 05.12.2019
2939 Clouds 23 1009 100 10000 0.5 100 09:20 05.12.2019
2940 Clouds 23 1009 94 10000 2.1 350 08:57 05.12.2019
2941 Clouds 22 1009 94 10000 2.1 350 08:37 05.12.2019
2942 Clouds 23 1009 94 10000 2.1 350 08:19 05.12.2019
2943 Clouds 23 1009 100 10000 0.5 140 07:44 05.12.2019
2944 Clouds 22 1009 100 10000 0.5 140 07:24 05.12.2019
2945 Clouds 22 1009 100 10000 1 20 06:56 05.12.2019
2946 Clouds 22 1009 100 10000 1 20 06:37 05.12.2019
2947 Clouds 22 1009 100 10000 1 20 06:18 05.12.2019
2948 Clouds 23 1010 88 10000 1 300 05:44 05.12.2019
2949 Clouds 23 1010 88 10000 1 300 05:19 05.12.2019
2950 Clouds 24 1012 88 10000 1 100 03:52 05.12.2019
2951 Clouds 24 1012 88 10000 1 100 03:52 05.12.2019
2952 Clouds 24 1012 94 10000 2.6 60 02:43 05.12.2019
2953 Clouds 24 1012 94 10000 2.6 60 02:23 05.12.2019
2954 Clouds 24 1012 94 10000 3.1 100 01:52 05.12.2019
2955 Clouds 25 1012 94 10000 3.1 100 01:24 05.12.2019
2956 Clouds 25 1012 83 10000 4.73 64 00:50 05.12.2019
2957 Clouds 25 1012 83 10000 4.73 64 00:29 05.12.2019
2958 Clouds 25 1011 83 10000 2.1 90 23:57 04.12.2019
2959 Clouds 24 1011 83 10000 2.1 90 23:39 04.12.2019
2960 Clouds 26 1011 83 10000 2.1 90 23:20 04.12.2019
2961 Clouds 27 1010 78 10000 4.1 60 22:55 04.12.2019
2962 Clouds 25 1010 78 10000 4.1 60 22:36 04.12.2019
2963 Clouds 29 1010 78 10000 4.1 60 22:18 04.12.2019
2964 Clouds 29 1010 74 10000 4.1 110 21:54 04.12.2019
2965 Clouds 26 1010 74 10000 4.1 110 21:36 04.12.2019
2966 Clouds 30 1010 74 10000 4.1 110 21:18 04.12.2019
2967 Clouds 30 1010 74 10000 3.6 170 20:54 04.12.2019
2968 Clouds 26 1010 74 10000 3.6 170 20:36 04.12.2019
2969 Clouds 30 1010 74 10000 3.6 170 20:18 04.12.2019
2970 Clouds 30 1010 74 10000 3.6 170 20:18 04.12.2019
2971 Clouds 30 1011 74 10000 5.1 170 19:39 04.12.2019
2972 Clouds 30 1011 74 10000 5.1 170 19:21 04.12.2019
2973 Clouds 30 1012 70 10000 4.1 160 18:57 04.12.2019
2974 Clouds 30 1012 70 10000 4.1 160 18:39 04.12.2019
2975 Clouds 30 1012 70 10000 4.1 160 18:21 04.12.2019
2976 Clouds 29 1013 78 10000 4.1 150 17:40 04.12.2019
2977 Clouds 29 1013 78 10000 4.1 150 17:22 04.12.2019
2978 Clouds 28 1013 74 10000 4.6 160 16:59 04.12.2019
2979 Clouds 27 1013 74 10000 4.6 160 16:40 04.12.2019
2980 Clouds 28 1013 74 10000 4.6 160 16:20 04.12.2019
2981 Clouds 28 1013 74 10000 4.6 160 16:20 04.12.2019
2982 Clouds 28 1014 74 10000 4.1 150 15:57 04.12.2019
2983 Clouds 28 1014 74 10000 4.1 150 15:38 04.12.2019
2984 Clouds 27 1014 74 10000 4.1 150 15:19 04.12.2019
2985 Clouds 26 1014 78 10000 3.1 150 14:57 04.12.2019
2986 Clouds 26 1014 78 10000 3.1 150 14:39 04.12.2019
2987 Clouds 24 1014 78 10000 3.1 150 14:20 04.12.2019
2988 Clouds 24 1014 69 10000 2.1 350 13:39 04.12.2019
2989 Clouds 25 1014 69 10000 2.1 350 13:20 04.12.2019
2990 Clouds 25 1014 73 10000 2.1 20 12:58 04.12.2019
2991 Clouds 25 1014 73 10000 2.1 20 12:40 04.12.2019
2992 Clouds 24 1014 73 10000 2.1 20 12:22 04.12.2019
2993 Clouds 23 1014 78 10000 2.1 40 11:41 04.12.2019
2994 Clouds 21 1014 78 10000 2.1 40 11:23 04.12.2019
2995 Clouds 21 1014 83 10000 1.5 20 10:57 04.12.2019
2996 Clouds 21 1014 83 10000 1.5 20 10:39 04.12.2019
2997 Clouds 21 1014 83 10000 1.5 20 10:21 04.12.2019
2998 Clouds 20 1014 88 10000 1.5 80 09:42 04.12.2019
2999 Clouds 20 1014 88 10000 1.5 80 09:23 04.12.2019
3000 Clouds 20 1014 88 10000 2.1 50 08:44 04.12.2019
3001 Clouds 20 1014 88 10000 2.1 50 08:44 04.12.2019
3002 Clouds 20 1014 88 10000 2.1 50 08:25 04.12.2019
3003 Clouds 20 1013 88 10000 3.1 70 07:51 04.12.2019
3004 Clouds 20 1013 88 10000 3.1 70 07:31 04.12.2019
3005 Clouds 20 1014 83 10000 1 160 06:59 04.12.2019
3006 Clouds 20 1014 83 10000 1 160 06:31 04.12.2019
3007 Clouds 21 1014 88 10000 2.1 190 05:46 04.12.2019
3008 Clouds 20 1015 88 10000 2.6 170 04:39 04.12.2019
3009 Clouds 21 1016 83 10000 2.6 170 03:52 04.12.2019
3010 Clouds 23 1015 78 10000 2.1 170 01:53 04.12.2019
3011 Clouds 23 1015 83 10000 2.6 110 00:49 04.12.2019
3012 Clouds 23 1015 83 10000 2.6 110 00:22 04.12.2019
3013 Clouds 23 1014 78 10000 3.1 110 23:55 03.12.2019
3014 Clouds 23 1014 78 10000 3.1 110 23:37 03.12.2019
3015 Clouds 23 1014 78 10000 3.1 110 23:18 03.12.2019
3016 Clouds 23 1013 78 10000 4.1 120 22:39 03.12.2019
3017 Clouds 21 1013 78 10000 4.1 120 22:39 03.12.2019
3018 Clouds 23 1013 78 10000 4.1 120 22:39 03.12.2019
3019 Clouds 23 1013 78 10000 4.1 120 22:18 03.12.2019
3020 Clouds 23 1013 83 10000 4.6 170 21:57 03.12.2019
3021 Clouds 23 1013 83 10000 4.6 170 21:37 03.12.2019
3022 Clouds 23 1013 83 10000 4.6 170 21:18 03.12.2019
3023 Clouds 23 1013 83 10000 4.1 180 20:56 03.12.2019
3024 Clouds 21 1013 83 10000 4.1 180 20:38 03.12.2019
3025 Clouds 23 1013 83 10000 4.1 180 20:18 03.12.2019
3026 Clouds 24 1014 69 10000 4.6 160 19:54 03.12.2019
3027 Clouds 24 1014 69 10000 4.6 160 19:36 03.12.2019
3028 Clouds 24 1014 69 10000 4.6 160 19:18 03.12.2019
3029 Clouds 24 1014 65 10000 6.2 160 18:55 03.12.2019
3030 Clouds 23 1014 65 10000 6.2 160 18:37 03.12.2019
3031 Clouds 24 1014 65 10000 6.2 160 18:19 03.12.2019
3032 Clouds 23 1015 69 10000 6.2 180 17:40 03.12.2019
3033 Clouds 24 1015 69 10000 6.2 180 17:19 03.12.2019
3034 Clouds 24 1015 65 10000 4.6 160 16:59 03.12.2019
3035 Clouds 24 1015 65 10000 4.6 160 16:40 03.12.2019
3036 Clouds 24 1015 65 10000 4.6 160 16:21 03.12.2019
3037 Clouds 24 1015 65 10000 3.6 160 15:59 03.12.2019
3038 Clouds 25 1015 65 10000 3.6 160 15:39 03.12.2019
3039 Clouds 25 1015 65 10000 3.6 160 15:20 03.12.2019
3040 Clouds 24 1015 78 10000 1 120 14:58 03.12.2019
3041 Clouds 24 1015 78 10000 1 120 14:40 03.12.2019
3042 Clouds 23 1015 78 10000 1 120 14:19 03.12.2019
3043 Clouds 23 1015 73 10000 1 30 13:39 03.12.2019
3044 Clouds 22 1015 73 10000 1 30 13:20 03.12.2019
3045 Clouds 22 1015 73 10000 1 30 13:20 03.12.2019
3046 Clouds 22 1015 88 10000 2.1 360 12:58 03.12.2019
3047 Clouds 22 1015 88 10000 2.1 360 12:38 03.12.2019
3048 Clouds 21 1015 88 10000 2.1 360 12:18 03.12.2019
3049 Clouds 21 1015 88 10000 1.5 40 11:58 03.12.2019
3050 Clouds 21 1015 88 10000 1.5 40 11:38 03.12.2019
3051 Clouds 20 1015 88 10000 1.5 40 11:19 03.12.2019
3052 Clouds 20 1015 88 10000 1.5 40 11:19 03.12.2019
3053 Clouds 20 1014 94 9000 1.5 360 10:56 03.12.2019
3054 Clouds 19 1014 94 9000 1.5 360 10:38 03.12.2019
3055 Clouds 19 1014 94 9000 1.5 360 10:19 03.12.2019
3056 Clouds 19 1013 94 10000 1.5 340 09:45 03.12.2019
3057 Clouds 19 1013 94 10000 1.5 340 09:25 03.12.2019
3058 Clouds 19 1013 100 10000 2.1 350 08:58 03.12.2019
3059 Clouds 19 1013 100 10000 2.1 350 08:39 03.12.2019
3060 Clouds 19 1013 100 10000 2.1 350 08:21 03.12.2019
3061 Clouds 19 1013 100 10000 3.1 30 07:52 03.12.2019
3062 Clouds 19 1013 100 10000 3.1 30 07:29 03.12.2019
3063 Clouds 19 1013 100 10000 3.1 30 07:29 03.12.2019
3064 Clouds 19 1014 100 10000 2.1 10 06:45 03.12.2019
3065 Clouds 20 1014 100 10000 2.1 10 06:20 03.12.2019
3066 Clouds 20 1014 94 10000 2.6 350 05:54 03.12.2019
3067 Clouds 20 1015 100 10000 2.1 340 03:44 03.12.2019
3068 Clouds 21 1015 100 10000 2.1 340 03:22 03.12.2019
3069 Clouds 21 1015 100 10000 2.6 20 02:54 03.12.2019
3070 Clouds 21 1015 100 10000 2.6 20 02:32 03.12.2019
3071 Clouds 21 1015 88 10000 2.1 350 01:59 03.12.2019
3072 Clouds 21 1015 88 10000 2.1 350 01:39 03.12.2019
3073 Clouds 21 1015 88 10000 2.1 350 01:20 03.12.2019
3074 Clouds 21 1014 83 8000 2.6 170 00:42 03.12.2019
3075 Clouds 21 1014 83 8000 2.6 170 00:23 03.12.2019
3076 Rain 21 1014 83 8000 3.1 210 23:44 02.12.2019
3077 Rain 21 1014 83 8000 3.1 210 23:22 02.12.2019
3078 Rain 21 1014 94 8000 2.6 210 22:58 02.12.2019
3079 Clouds 21 1013 88 10000 6.7 190 22:39 02.12.2019
3080 Clouds 22 1013 88 10000 6.7 190 22:20 02.12.2019
3081 Clouds 22 1013 88 10000 4.6 190 21:54 02.12.2019
3082 Clouds 21 1013 88 10000 4.6 190 21:36 02.12.2019
3083 Clouds 22 1013 88 10000 4.6 190 21:18 02.12.2019
3084 Clouds 21 1013 88 8000 6.7 180 20:54 02.12.2019
3085 Clouds 21 1013 88 8000 6.7 180 20:54 02.12.2019
3086 Clouds 21 1013 88 8000 6.7 180 20:36 02.12.2019
3087 Clouds 22 1013 88 8000 6.7 180 20:18 02.12.2019
3088 Clouds 22 1013 88 8000 7.7 190 19:41 02.12.2019
3089 Clouds 22 1013 88 8000 7.7 190 19:41 02.12.2019
3090 Clouds 22 1013 88 8000 7.7 190 19:21 02.12.2019
3091 Clouds 22 1013 88 8000 7.7 190 19:21 02.12.2019
3092 Rain 22 1013 100 4500 6.7 190 18:56 02.12.2019
3093 Rain 22 1013 100 4500 6.7 190 18:37 02.12.2019
3094 Rain 22 1013 100 4500 6.7 190 18:18 02.12.2019
3095 Rain 23 1013 100 6000 6.2 180 17:41 02.12.2019
3096 Rain 23 1013 100 6000 6.2 180 17:21 02.12.2019
3097 Rain 23 1013 100 6000 6.2 180 17:21 02.12.2019
3098 Clouds 24 1013 74 10000 8.7 200 16:59 02.12.2019
3099 Clouds 24 1013 74 10000 8.7 200 16:39 02.12.2019
3100 Clouds 25 1013 74 10000 8.7 200 16:19 02.12.2019
3101 Clouds 25 1013 78 10000 4.6 160 15:57 02.12.2019
3102 Clouds 25 1013 78 10000 4.6 160 15:39 02.12.2019
3103 Clouds 26 1013 78 10000 4.6 160 15:21 02.12.2019
3104 Clouds 25 1013 83 10000 3.1 190 14:56 02.12.2019
3105 Clouds 24 1013 83 10000 3.1 190 14:37 02.12.2019
3106 Clouds 25 1013 83 10000 3.1 190 14:19 02.12.2019
3107 -273 0 0 0 0 0 13:55 02.12.2019
3108 Clouds 25 1013 94 8000 4.6 200 13:55 02.12.2019
3109 Rain 23 1013 94 6000 4.6 200 13:37 02.12.2019
3110 Rain 25 1013 94 6000 4.6 200 13:18 02.12.2019
3111 Clouds 25 1013 83 10000 4.1 210 12:42 02.12.2019
3112 Clouds 26 1013 83 10000 4.1 210 12:21 02.12.2019
3113 Clouds 26 1012 83 10000 1.5 40 11:58 02.12.2019
3114 Clouds 23 1012 83 10000 1.5 40 11:38 02.12.2019
3115 Clouds 23 1012 83 10000 1.5 40 11:19 02.12.2019
3116 Clouds 23 1012 94 10000 1 120 10:57 02.12.2019
3117 Clouds 23 1012 94 10000 1 120 10:39 02.12.2019
3118 Clouds 22 1012 94 10000 1 120 10:21 02.12.2019
3119 Clouds 22 1011 94 10000 2.1 180 09:56 02.12.2019
3120 Clouds 22 1011 94 10000 2.1 180 09:38 02.12.2019
3121 Clouds 22 1011 94 10000 2.1 180 09:18 02.12.2019
3122 Clouds 22 1010 100 10000 2.6 210 08:55 02.12.2019
3123 Clouds 22 1010 100 10000 2.6 210 08:36 02.12.2019
3124 Clouds 22 1010 100 10000 2.6 210 08:18 02.12.2019
3125 Clouds 22 1010 88 10000 4.6 200 07:39 02.12.2019
3126 Clouds 22 1010 88 10000 4.6 200 07:20 02.12.2019
3127 Clouds 23 1010 88 10000 4.6 200 06:42 02.12.2019
3128 Clouds 23 1010 94 10000 3.1 210 05:49 02.12.2019
3129 Clouds 23 1010 94 10000 3.1 210 05:19 02.12.2019
3130 Clouds 24 1011 88 10000 3.6 190 03:35 02.12.2019
3131 Clouds 24 1011 83 10000 1.5 270 02:50 02.12.2019
3132 Clouds 23 1011 94 9000 3.6 180 01:50 02.12.2019
3133 Clouds 24 1011 94 9000 3.6 180 01:21 02.12.2019
3134 Clouds 24 1010 94 10000 4.6 190 00:41 02.12.2019
3135 Clouds 25 1010 94 10000 4.6 190 00:22 02.12.2019
3136 Clouds 24 1010 100 10000 2.6 170 23:43 01.12.2019
3137 Clouds 24 1010 100 10000 2.6 170 23:22 01.12.2019
3138 Clouds 24 1009 100 10000 2.1 90 22:57 01.12.2019
3139 Clouds 24 1009 100 10000 2.1 90 22:57 01.12.2019
3140 Clouds 24 1009 100 10000 2.1 90 22:38 01.12.2019
3141 Clouds 24 1009 100 10000 2.1 90 22:20 01.12.2019
3142 Clouds 25 1009 94 10000 2.6 160 21:57 01.12.2019
3143 Clouds 25 1009 94 10000 2.6 160 21:39 01.12.2019
3144 Clouds 25 1009 94 10000 2.6 160 21:21 01.12.2019
3145 Clouds 25 1009 74 10000 2.6 180 20:58 01.12.2019
3146 Clouds 25 1009 74 10000 2.6 180 20:40 01.12.2019
3147 Clouds 26 1009 74 10000 2.6 180 20:21 01.12.2019
3148 Clouds 26 1008 78 10000 5.1 190 19:58 01.12.2019
3149 Clouds 26 1008 78 10000 5.1 190 19:39 01.12.2019
3150 Clouds 25 1008 78 10000 5.1 190 19:39 01.12.2019
3151 Clouds 25 1008 78 10000 5.1 190 19:39 01.12.2019
3152 Clouds 26 1008 78 10000 5.1 190 19:21 01.12.2019
3153 Clouds 26 1008 78 10000 5.1 190 19:21 01.12.2019
3154 Clouds 27 1008 78 10000 10.3 180 18:57 01.12.2019
3155 Clouds 27 1008 78 10000 10.3 180 18:38 01.12.2019
3156 Clouds 27 1008 78 10000 10.3 180 18:19 01.12.2019
3157 Clouds 27 1008 78 10000 8.7 170 17:58 01.12.2019
3158 Clouds 27 1008 78 10000 8.7 170 17:40 01.12.2019
3159 Clouds 28 1008 78 10000 8.7 170 17:22 01.12.2019
3160 Clouds 27 1008 83 10000 7.7 150 16:55 01.12.2019
3161 Clouds 28 1008 83 10000 7.7 150 16:37 01.12.2019
3162 Clouds 27 1008 83 10000 7.7 150 16:19 01.12.2019
3163 Clouds 28 1008 83 10000 6.2 150 15:46 01.12.2019
3164 Clouds 28 1008 83 10000 6.2 150 15:27 01.12.2019
3165 Clouds 28 1008 83 10000 6.2 150 15:27 01.12.2019
3166 Clouds 28 1009 83 10000 3.1 160 14:42 01.12.2019
3167 Clouds 27 1009 83 10000 3.1 160 14:20 01.12.2019
3168 Clouds 27 1008 70 10000 1.5 70 13:56 01.12.2019
3169 Clouds 27 1008 70 10000 1.5 70 13:38 01.12.2019
3170 Clouds 27 1008 74 10000 1.5 340 13:19 01.12.2019
3171 Clouds 26 1009 83 10000 2.1 340 12:43 01.12.2019
3172 Clouds 26 1009 88 10000 2.6 360 11:57 01.12.2019
3173 Clouds 26 1009 88 10000 2.6 360 11:57 01.12.2019
3174 Clouds 26 1009 88 10000 2.6 360 11:57 01.12.2019
3175 Clouds 26 1009 88 10000 2.6 360 11:57 01.12.2019
3176 Clouds 24 1009 88 10000 2.6 360 11:37 01.12.2019
3177 Clouds 24 1009 88 10000 2.6 360 11:19 01.12.2019
3178 Clouds 23 1009 100 10000 3.1 360 10:43 01.12.2019
3179 Clouds 22 1009 100 10000 3.1 360 10:21 01.12.2019
3180 Clouds 22 1008 100 10000 2.1 330 09:57 01.12.2019
3181 Clouds 22 1008 100 10000 2.1 330 09:38 01.12.2019
3182 Clouds 22 1008 100 10000 2.1 330 09:20 01.12.2019
3183 Clouds 22 1008 100 10000 2.1 330 09:19 01.12.2019
3184 Clouds 21 1008 100 10000 1.49 30 08:44 01.12.2019
3185 Clouds 22 1008 100 10000 1.96 37 08:19 01.12.2019
3186 Clouds 21 1008 100 10000 1 120 07:50 01.12.2019
3187 Clouds 21 1008 100 10000 1 120 07:50 01.12.2019
3188 Clouds 22 1008 100 10000 1 120 07:30 01.12.2019
3189 Clouds 22 1009 100 10000 3.1 150 06:56 01.12.2019
3190 Clouds 22 1009 100 10000 3.1 150 06:25 01.12.2019
3191 Clouds 22 1009 100 10000 0.5 160 05:46 01.12.2019
3192 Clouds 22 1010 100 10000 1.5 150 04:34 01.12.2019
3193 Clouds 24 1011 94 10000 0.5 100 02:47 01.12.2019
3194 Clouds 24 1011 94 10000 0.5 100 02:29 01.12.2019
3195 Clouds 24 1011 88 10000 4.1 190 01:57 01.12.2019
3196 Clouds 24 1011 88 10000 4.1 190 01:39 01.12.2019
3197 Clouds 24 1011 88 10000 4.1 190 01:18 01.12.2019
3198 Clouds 23 1010 94 10000 5.1 170 00:39 01.12.2019
3199 Clouds 24 1010 94 10000 5.1 170 00:20 01.12.2019
3200 Clouds 25 1010 88 10000 6.7 180 23:42 30.11.2019
3201 Clouds 25 1010 88 10000 6.7 180 23:23 30.11.2019
3202 Clouds 25 1009 88 10000 7.2 190 22:50 30.11.2019
3203 Clouds 26 1009 88 10000 7.2 190 22:30 30.11.2019
3204 Clouds 26 1008 88 10000 5.7 180 21:58 30.11.2019
3205 Clouds 27 1008 88 10000 5.7 180 21:39 30.11.2019
3206 Clouds 27 1008 88 10000 5.7 180 21:20 30.11.2019
3207 Clouds 27 1008 83 10000 6.7 180 20:55 30.11.2019
3208 Clouds 27 1008 83 10000 6.7 180 20:37 30.11.2019
3209 Clouds 28 1008 83 10000 6.7 180 20:19 30.11.2019
3210 Clouds 28 1009 78 10000 6.2 170 19:55 30.11.2019
3211 Clouds 27 1009 78 10000 6.2 170 19:36 30.11.2019
3212 Clouds 28 1009 78 10000 6.2 170 19:18 30.11.2019
3213 Clouds 28 1010 78 10000 6.2 160 18:55 30.11.2019
3214 Clouds 27 1010 78 10000 6.2 160 18:37 30.11.2019
3215 Clouds 28 1010 78 10000 6.2 160 18:18 30.11.2019
3216 Clouds 28 1011 78 10000 5.7 160 17:56 30.11.2019
3217 Clouds 28 1011 78 10000 5.7 160 17:37 30.11.2019
3218 Clouds 28 1011 78 10000 5.7 160 17:19 30.11.2019
3219 Clouds 27 1012 74 10000 5.7 160 16:42 30.11.2019
3220 Clouds 27 1012 74 10000 5.7 160 16:23 30.11.2019
3221 Clouds 27 1012 74 10000 5.7 160 15:58 30.11.2019
3222 Clouds 27 1012 74 10000 5.7 160 15:40 30.11.2019
3223 Clouds 27 1012 74 10000 5.7 160 15:19 30.11.2019
3224 Clouds 27 1012 74 10000 5.7 160 15:19 30.11.2019
3225 Clouds 26 1013 69 10000 4.6 160 14:56 30.11.2019
3226 Clouds 25 1013 69 10000 4.6 160 14:37 30.11.2019
3227 Clouds 26 1013 69 10000 4.6 160 14:18 30.11.2019
3228 Clouds 26 1014 78 10000 2.6 140 13:56 30.11.2019
3229 Clouds 24 1014 78 10000 2.6 140 13:36 30.11.2019
3230 Clouds 25 1014 78 10000 2.6 140 13:18 30.11.2019
3231 Clouds 25 1013 73 10000 1.5 330 12:43 30.11.2019
3232 Clouds 24 1013 73 10000 1.5 330 12:25 30.11.2019
3233 Clouds 23 1013 83 10000 1 360 11:45 30.11.2019
3234 Clouds 22 1013 83 10000 1 360 11:20 30.11.2019
3235 Clouds 22 1013 83 10000 2.56 66 10:57 30.11.2019
3236 Clouds 22 1013 83 10000 2.56 66 10:39 30.11.2019
3237 Clouds 21 1013 83 10000 2.56 66 10:20 30.11.2019
3238 Clouds 21 1012 94 10000 2.56 66 09:46 30.11.2019
3239 Clouds 21 1012 94 10000 2.56 66 09:28 30.11.2019
3240 Clouds 21 1012 100 10000 2.56 66 08:44 30.11.2019
3241 Clouds 21 1012 100 10000 2.56 66 08:44 30.11.2019
3242 Clouds 21 1012 100 10000 2.67 66 08:23 30.11.2019
3243 Clouds 21 1012 94 10000 0.5 160 07:59 30.11.2019
3244 Clouds 21 1012 94 10000 0.5 160 07:40 30.11.2019
3245 Clouds 21 1012 94 10000 0.5 160 07:21 30.11.2019
3246 Clouds 21 1012 88 10000 1 150 06:30 30.11.2019
3247 Clouds 21 1012 88 10000 1 150 06:30 30.11.2019
3248 Clouds 21 1013 94 10000 1 170 05:55 30.11.2019
3249 Clouds 22 1014 88 10000 2.1 170 03:54 30.11.2019
3250 Clouds 22 1014 88 10000 2.1 170 03:54 30.11.2019
3251 Clouds 22 1014 88 10000 2.6 170 02:53 30.11.2019
3252 Clouds 22 1014 88 10000 2.6 170 02:22 30.11.2019
3253 Clouds 22 1014 94 10000 2.1 170 01:47 30.11.2019
3254 Clouds 22 1014 94 10000 2.1 170 01:24 30.11.2019
3255 Clouds 22 1014 88 10000 2.6 170 00:38 30.11.2019
3256 Clouds 22 1014 88 10000 2.6 170 00:20 30.11.2019
3257 Clouds 22 1013 88 10000 3.1 160 23:44 29.11.2019
3258 Clouds 22 1013 88 10000 3.1 160 23:23 29.11.2019
3259 Clouds 22 1013 88 10000 3.1 160 23:23 29.11.2019
3260 Clouds 22 1013 88 10000 2.6 180 22:48 29.11.2019
3261 Clouds 23 1013 88 10000 2.6 180 22:26 29.11.2019
3262 Clouds 23 1013 88 10000 2.6 150 21:55 29.11.2019
3263 Clouds 23 1013 88 10000 2.6 150 21:36 29.11.2019
3264 Clouds 23 1013 88 10000 2.6 150 21:18 29.11.2019
3265 Clouds 23 1013 83 10000 3.6 160 20:54 29.11.2019
3266 Clouds 22 1013 83 10000 3.6 160 20:36 29.11.2019
3267 Clouds 23 1013 83 10000 3.6 160 20:18 29.11.2019
3268 Clouds 24 1013 78 10000 3.1 170 19:41 29.11.2019
3269 Clouds 24 1013 78 10000 3.1 170 19:21 29.11.2019
3270 Clouds 24 1014 78 10000 3.1 170 18:59 29.11.2019
3271 Clouds 24 1014 78 10000 3.1 170 18:41 29.11.2019
3272 Clouds 24 1014 78 10000 3.1 170 18:22 29.11.2019
3273 Clouds 24 1014 73 10000 3.6 170 17:54 29.11.2019
3274 Clouds 24 1014 73 10000 3.6 170 17:36 29.11.2019
3275 Clouds 24 1014 73 10000 3.6 170 17:18 29.11.2019
3276 Clouds 24 1015 73 10000 4.6 180 16:42 29.11.2019
3277 Clouds 24 1015 73 10000 4.6 180 16:21 29.11.2019
3278 Clouds 24 1015 73 10000 4.6 180 16:21 29.11.2019
3279 Clouds 24 1015 73 10000 3.6 170 15:56 29.11.2019
3280 Clouds 24 1015 73 10000 3.6 170 15:37 29.11.2019
3281 Clouds 24 1015 73 10000 3.6 170 15:19 29.11.2019
3282 Clouds 24 1015 83 10000 1.5 140 14:40 29.11.2019
3283 Clouds 23 1015 83 10000 1.5 140 14:21 29.11.2019
3284 Clouds 23 1015 83 10000 2.1 160 13:56 29.11.2019
3285 Clouds 23 1015 83 10000 1 90 13:37 29.11.2019
3286 Clouds 23 1015 83 10000 1 90 13:19 29.11.2019
3287 Clouds 23 1015 88 9000 1 80 12:42 29.11.2019
3288 Clouds 22 1015 88 9000 1 80 12:24 29.11.2019
3289 Clouds 22 1014 94 9000 1 40 11:56 29.11.2019
3290 Clouds 22 1014 94 9000 1 40 11:38 29.11.2019
3291 Clouds 21 1014 94 9000 1 40 11:19 29.11.2019
3292 Clouds 21 1014 94 8000 1 80 10:57 29.11.2019
3293 Clouds 21 1014 94 8000 1 80 10:38 29.11.2019
3294 Clouds 21 1014 94 8000 1 80 10:20 29.11.2019
3295 Clouds 21 1014 100 8000 1 320 09:57 29.11.2019
3296 Clouds 20 1014 100 8000 1 320 09:38 29.11.2019
3297 Clouds 21 1014 100 8000 1 320 09:20 29.11.2019
3298 Clouds 21 1013 88 8000 3.58 213 08:55 29.11.2019
3299 Clouds 21 1013 88 8000 3.58 213 08:36 29.11.2019
3300 Clouds 21 1013 88 8000 5.74 187 08:18 29.11.2019
3301 Clouds 21 1013 94 6000 1.5 280 07:41 29.11.2019
3302 Clouds 21 1013 94 6000 1.5 280 07:23 29.11.2019
3303 Rain 20 1014 100 6000 3.6 200 06:47 29.11.2019
3304 Rain 20 1014 100 6000 3.6 200 06:28 29.11.2019
3305 Rain 21 1014 94 5000 2.6 240 05:32 29.11.2019
3306 Rain 21 1014 94 5000 2.6 240 05:32 29.11.2019
3307 Rain 21 1014 94 5000 4.6 210 04:56 29.11.2019
3308 Rain 21 1014 100 5000 5.7 220 03:41 29.11.2019
3309 Rain 22 1014 100 5000 5.7 220 03:18 29.11.2019
3310 Rain 22 1014 100 4500 5.7 210 02:24 29.11.2019
3311 Rain 22 1013 94 4500 6.2 200 01:45 29.11.2019
3312 Rain 22 1013 94 4500 6.2 200 01:23 29.11.2019
3313 Rain 23 1012 100 4500 7.2 200 00:40 29.11.2019
3314 Rain 23 1012 100 4500 7.2 200 00:20 29.11.2019
3315 Rain 23 1012 100 4500 6.2 190 23:42 28.11.2019
3316 Rain 23 1012 100 4500 5.1 190 23:21 28.11.2019
3317 Rain 23 1012 100 4500 5.1 190 23:21 28.11.2019
3318 Rain 23 1011 94 5000 3.1 210 22:57 28.11.2019
3319 Rain 23 1011 94 5000 3.1 210 22:37 28.11.2019
3320 Rain 23 1011 94 5000 3.1 210 22:19 28.11.2019
3321 Rain 23 1010 100 4500 4.1 200 21:55 28.11.2019
3322 Rain 23 1010 100 4500 4.1 200 21:36 28.11.2019
3323 Rain 23 1010 100 4500 4.1 200 21:18 28.11.2019
3324 Rain 23 1010 94 5000 4.1 260 20:42 28.11.2019
3325 Rain 23 1010 100 4500 3.6 190 20:23 28.11.2019
3326 Rain 23 1010 100 4500 5.1 180 19:59 28.11.2019
3327 Rain 23 1010 100 4500 5.1 180 19:40 28.11.2019
3328 Rain 24 1010 83 3000 5.7 210 19:22 28.11.2019
3329 Rain 24 1010 94 7000 6.2 190 18:59 28.11.2019
3330 Rain 24 1010 94 7000 6.2 190 18:39 28.11.2019
3331 Rain 24 1010 94 7000 6.2 190 18:18 28.11.2019
3332 Clouds 25 1010 88 10000 5.7 190 17:59 28.11.2019
3333 Clouds 25 1010 88 10000 5.7 190 17:59 28.11.2019
3334 Clouds 25 1010 88 10000 5.7 190 17:41 28.11.2019
3335 Clouds 25 1010 88 10000 5.7 190 17:21 28.11.2019
3336 Clouds 25 1010 78 9000 3.1 180 16:57 28.11.2019
3337 Clouds 25 1010 78 9000 3.1 180 16:56 28.11.2019
3338 Clouds 25 1010 78 9000 3.1 180 16:38 28.11.2019
3339 Clouds 26 1010 78 9000 3.1 180 16:18 28.11.2019
3340 Clouds 26 1010 78 9000 3.1 180 16:18 28.11.2019
3341 Clouds 26 1010 83 9000 4.1 140 15:41 28.11.2019
3342 Clouds 26 1010 83 9000 4.1 140 15:20 28.11.2019
3343 Clouds 26 1010 88 8000 2.6 160 14:59 28.11.2019
3344 Clouds 26 1010 88 8000 2.6 160 14:41 28.11.2019
3345 Clouds 25 1010 88 8000 2.6 160 14:22 28.11.2019
3346 Clouds 25 1010 94 8000 2.1 120 13:57 28.11.2019
3347 Clouds 25 1010 94 8000 2.1 120 13:39 28.11.2019
3348 Clouds 25 1010 94 8000 2.1 120 13:21 28.11.2019
3349 Clouds 25 1009 88 9000 1 30 12:43 28.11.2019
3350 Clouds 25 1009 88 9000 1 30 12:24 28.11.2019
3351 Clouds 25 1009 83 9000 2.1 350 11:58 28.11.2019
3352 Clouds 25 1009 83 9000 2.1 350 11:39 28.11.2019
3353 Clouds 24 1009 83 9000 2.1 350 11:20 28.11.2019
3354 Clouds 24 1009 83 9000 2.1 350 11:20 28.11.2019
3355 Clouds 23 1008 88 10000 1 320 10:56 28.11.2019
3356 Clouds 24 1008 88 10000 1 320 10:38 28.11.2019
3357 Clouds 24 1008 88 10000 1 320 10:18 28.11.2019
3358 Rain 22 1008 94 10000 2.1 40 09:41 28.11.2019
3359 Rain 22 1008 94 10000 2.1 40 09:22 28.11.2019
3360 Clouds 22 1008 94 10000 2.6 40 08:57 28.11.2019
3361 Clouds 22 1008 94 10000 2.6 40 08:38 28.11.2019
3362 Clouds 22 1008 94 10000 2.6 40 08:19 28.11.2019
3363 Rain 23 1008 94 10000 2.1 20 07:42 28.11.2019
3364 Rain 23 1008 94 10000 2.1 20 07:24 28.11.2019
3365 Rain 22 1009 94 10000 3.1 110 06:50 28.11.2019
3366 Rain 22 1009 94 10000 3.1 110 06:31 28.11.2019
3367 Rain 23 1009 94 10000 2.6 70 05:51 28.11.2019
3368 Rain 23 1009 94 10000 2.6 70 05:18 28.11.2019
3369 Rain 23 1009 88 10000 2.6 170 02:46 28.11.2019
3370 Rain 25 1008 74 10000 2.6 320 01:50 28.11.2019
3371 Rain 25 1008 83 10000 1 20 00:48 28.11.2019
3372 Rain 25 1008 83 10000 1 20 00:24 28.11.2019
3373 Rain 26 1007 73 10000 2.1 160 23:55 27.11.2019
3374 Rain 27 1007 73 10000 2.1 160 23:37 27.11.2019
3375 Rain 27 1007 73 10000 2.1 160 23:37 27.11.2019
3376 Clouds 27 1007 73 10000 2.1 160 23:19 27.11.2019
3377 Clouds 29 1006 61 10000 4.1 180 22:39 27.11.2019
3378 Clouds 29 1006 61 10000 4.1 180 22:20 27.11.2019
3379 Clouds 29 1006 58 10000 6.2 180 21:56 27.11.2019
3380 Clouds 29 1006 58 10000 6.2 180 21:38 27.11.2019
3381 Clouds 29 1006 58 10000 6.2 180 21:38 27.11.2019
3382 Clouds 31 1006 58 10000 6.2 180 21:19 27.11.2019
3383 Clouds 31 1006 58 10000 6.2 180 21:19 27.11.2019
3384 Clouds 32 1006 52 10000 5.1 180 20:59 27.11.2019
3385 Rain 32 1006 52 10000 5.1 180 20:39 27.11.2019
3386 Clear 31 1006 52 10000 5.1 180 20:21 27.11.2019
3387 Clear 31 1006 58 10000 4.6 180 19:58 27.11.2019
3388 Clear 31 1006 58 10000 4.6 180 19:40 27.11.2019
3389 Clear 32 1006 58 10000 4.6 180 19:22 27.11.2019
3390 Clear 32 1007 52 10000 3.6 160 18:59 27.11.2019
3391 Clear 32 1007 52 10000 3.6 160 18:37 27.11.2019
3392 Clear 33 1007 52 10000 3.6 160 18:19 27.11.2019
3393 Clear 33 1008 62 10000 3.6 140 17:58 27.11.2019
3394 Clear 33 1008 62 10000 3.6 140 17:40 27.11.2019
3395 Clear 32 1008 62 10000 3.6 140 17:21 27.11.2019
3396 Clear 32 1009 62 10000 2.6 150 16:57 27.11.2019
3397 Clear 30 1009 62 10000 2.6 150 16:38 27.11.2019
3398 Clear 31 1009 62 10000 2.6 150 16:20 27.11.2019
3399 Clear 31 1009 62 10000 2.6 150 16:20 27.11.2019
3400 Clear 31 1010 43 10000 2.1 190 15:57 27.11.2019
3401 Clear 30 1010 43 10000 2.1 190 15:38 27.11.2019
3402 Clear 30 1010 43 10000 2.1 190 15:20 27.11.2019
3403 Clear 29 1010 54 10000 1.5 330 14:57 27.11.2019
3404 Clear 29 1010 54 10000 1.5 330 14:39 27.11.2019
3405 Clouds 29 1010 54 10000 1.5 330 14:21 27.11.2019
3406 Clouds 27 1011 65 10000 1 20 13:57 27.11.2019
3407 Clouds 27 1011 65 10000 1 20 13:38 27.11.2019
3408 Clouds 27 1011 65 10000 1 20 13:19 27.11.2019
3409 Clouds 26 1011 69 10000 0.5 190 12:55 27.11.2019
3410 Clouds 26 1011 69 10000 0.5 190 12:37 27.11.2019
3411 Clouds 24 1011 57 10000 2.6 90 12:18 27.11.2019
3412 Clouds 24 1011 73 10000 2.54 74 11:38 27.11.2019
3413 Clouds 21 1011 88 10000 2.1 330 11:19 27.11.2019
3414 Clouds 21 1011 88 10000 2.1 330 10:57 27.11.2019
3415 Clouds 20 1011 88 10000 2.1 330 10:39 27.11.2019
3416 Clouds 22 1011 88 10000 2.1 330 10:21 27.11.2019
3417 Clouds 21 1011 88 10000 3.11 33 09:43 27.11.2019
3418 Clouds 21 1011 88 10000 3.11 33 09:43 27.11.2019
3419 Clouds 21 1011 88 10000 3.11 33 09:25 27.11.2019
3420 Clouds 21 1011 88 10000 1 110 08:57 27.11.2019
3421 Clouds 21 1011 88 10000 1 110 08:38 27.11.2019
3422 Clouds 20 1011 83 10000 1 110 08:19 27.11.2019
3423 Clouds 20 1011 83 10000 1 110 07:45 27.11.2019
3424 Clouds 20 1011 83 10000 1 110 07:27 27.11.2019
3425 Clouds 20 1012 88 10000 3.83 40 06:47 27.11.2019
3426 Clouds 20 1012 88 10000 3.83 40 06:29 27.11.2019
3427 Clouds 20 1014 88 10000 1 360 05:27 27.11.2019
3428 Clouds 21 1014 88 10000 1 360 04:59 27.11.2019
3429 Clouds 21 1014 88 10000 1 360 04:40 27.11.2019
3430 Clouds 21 1014 73 10000 1.5 80 03:53 27.11.2019
3431 Clouds 22 1014 73 10000 1.5 80 03:22 27.11.2019
3432 Clouds 22 1014 73 10000 3.6 60 02:54 27.11.2019
3433 Clouds 22 1014 69 10000 3.6 80 01:39 27.11.2019
3434 Clouds 22 1013 69 10000 3.1 120 00:45 27.11.2019
3435 Clouds 23 1013 69 10000 3.1 120 00:26 27.11.2019
3436 Clouds 23 1013 78 10000 3.1 180 23:49 26.11.2019
3437 Clouds 23 1013 78 10000 3.1 180 23:27 26.11.2019
3438 Clouds 24 1013 64 10000 3.1 150 22:58 26.11.2019
3439 Clouds 25 1013 64 10000 3.1 150 22:38 26.11.2019
3440 Clouds 25 1013 64 10000 3.1 150 22:19 26.11.2019
3441 Clouds 25 1012 65 10000 6.2 120 21:58 26.11.2019
3442 Clouds 25 1012 65 10000 6.2 120 21:58 26.11.2019
3443 Clouds 25 1012 65 10000 6.2 120 21:37 26.11.2019
3444 Clouds 26 1012 65 10000 6.2 120 21:19 26.11.2019
3445 Clouds 27 1013 57 10000 7.7 120 20:55 26.11.2019
3446 Clouds 27 1013 57 10000 7.7 120 20:36 26.11.2019
3447 Clouds 27 1013 57 10000 7.7 120 20:18 26.11.2019
3448 Clouds 27 1013 57 10000 5.7 150 19:55 26.11.2019
3449 Clouds 27 1013 57 10000 5.7 150 19:37 26.11.2019
3450 Clouds 27 1013 57 10000 5.7 150 19:18 26.11.2019
3451 Clouds 28 1014 57 10000 5.1 160 18:56 26.11.2019
3452 Clouds 28 1014 57 10000 5.1 160 18:38 26.11.2019
3453 Clouds 28 1015 61 10000 6.7 140 18:20 26.11.2019
3454 -273 0 0 0 0 0 17:55 26.11.2019
3455 Clouds 28 1015 61 10000 6.7 140 17:36 26.11.2019
3456 Clouds 27 1015 61 10000 5.7 150 17:18 26.11.2019
3457 Clouds 27 1015 61 10000 5.7 150 16:55 26.11.2019
3458 Clouds 26 1015 61 10000 5.7 150 16:37 26.11.2019
3459 Clouds 27 1015 61 10000 5.7 150 16:18 26.11.2019
3460 Clouds 27 1016 69 10000 4.6 160 15:56 26.11.2019
3461 Clouds 26 1016 69 10000 4.6 160 15:37 26.11.2019
3462 Clouds 26 1016 69 10000 4.6 160 15:18 26.11.2019
3463 Clouds 25 1016 73 10000 4.1 160 14:45 26.11.2019
3464 Clouds 25 1016 73 10000 4.1 160 14:24 26.11.2019
3465 Clouds 25 1017 65 10000 3.1 160 13:43 26.11.2019
3466 Clouds 25 1017 65 10000 3.1 160 13:24 26.11.2019
3467 Clouds 24 1017 64 10000 2.6 170 12:58 26.11.2019
3468 Clouds 24 1017 64 10000 2.6 170 12:37 26.11.2019
3469 Clouds 22 1017 73 10000 1.5 170 12:19 26.11.2019
3470 Clouds 22 1017 73 10000 1.5 170 11:55 26.11.2019
3471 Clouds 22 1017 73 10000 1.5 170 11:37 26.11.2019
3472 Clouds 22 1017 73 10000 1.5 170 11:18 26.11.2019
3473 Clouds 21 1016 77 10000 1 140 10:56 26.11.2019
3474 Clouds 21 1016 77 10000 1 140 10:37 26.11.2019
3475 Clouds 21 1016 77 10000 1 140 10:19 26.11.2019
3476 Clouds 20 1016 82 10000 1.5 170 09:42 26.11.2019
3477 Clouds 20 1016 82 10000 1.5 170 09:23 26.11.2019
3478 Clouds 20 1016 77 10000 1 110 08:50 26.11.2019
3479 Clouds 20 1016 77 10000 1 110 08:31 26.11.2019
3480 Clouds 20 1016 77 10000 0.5 110 07:58 26.11.2019
3481 Clouds 20 1016 77 10000 0.5 110 07:40 26.11.2019
3482 Clouds 20 1016 77 10000 0.5 110 07:21 26.11.2019
3483 Clouds 21 1016 77 10000 2.6 120 06:50 26.11.2019
3484 Clouds 21 1016 77 10000 2.6 120 05:59 26.11.2019
3485 Clouds 21 1016 77 10000 2.6 120 05:26 26.11.2019
3486 Clouds 22 1017 73 10000 2.6 120 03:22 26.11.2019
3487 Clouds 22 1017 73 10000 2.6 120 03:22 26.11.2019
3488 Clouds 22 1016 68 10000 3.1 130 01:42 26.11.2019
3489 Clouds 22 1016 68 10000 3.1 130 01:42 26.11.2019
3490 Clouds 22 1016 68 10000 3.1 130 01:22 26.11.2019
3491 Clouds 22 1016 56 10000 4.6 130 00:41 26.11.2019
3492 Clouds 22 1016 56 10000 4.6 130 00:20 26.11.2019
3493 Clouds 22 1015 73 10000 3.6 150 23:39 25.11.2019
3494 Clouds 22 1015 73 10000 3.6 150 23:19 25.11.2019
3495 Clouds 22 1015 73 10000 4.1 160 22:54 25.11.2019
3496 Clouds 22 1015 73 10000 4.1 160 22:36 25.11.2019
3497 Clouds 22 1015 73 10000 4.1 160 22:36 25.11.2019
3498 Clouds 23 1015 73 10000 4.1 160 22:18 25.11.2019
3499 Clouds 23 1015 69 10000 5.1 160 21:54 25.11.2019
3500 Clouds 23 1015 69 10000 5.1 160 21:36 25.11.2019
3501 Clouds 23 1015 69 10000 5.1 160 21:18 25.11.2019
3502 Clouds 24 1015 61 10000 5.7 160 20:54 25.11.2019
3503 Clouds 24 1015 61 10000 5.7 160 20:36 25.11.2019
3504 Clouds 24 1015 61 10000 5.7 160 20:18 25.11.2019
3505 Clouds 24 1015 61 10000 5.1 160 19:54 25.11.2019
3506 Clouds 24 1015 61 10000 5.1 160 19:36 25.11.2019
3507 Clouds 24 1015 61 10000 5.1 160 19:18 25.11.2019
3508 Clouds 25 1016 61 10000 5.7 160 18:54 25.11.2019
3509 Clouds 25 1016 61 10000 5.7 160 18:36 25.11.2019
3510 Clouds 25 1016 61 10000 5.7 160 18:36 25.11.2019
3511 Clouds 24 1016 61 10000 5.7 160 18:18 25.11.2019
3512 Clouds 24 1016 61 10000 5.7 160 17:54 25.11.2019
3513 Clouds 24 1016 61 10000 5.7 160 17:36 25.11.2019
3514 Clouds 24 1016 65 10000 4.1 160 17:18 25.11.2019
3515 Clouds 24 1016 65 10000 4.1 160 16:41 25.11.2019
3516 Clouds 24 1016 65 10000 4.1 160 16:23 25.11.2019
3517 Clouds 24 1017 57 10000 3.1 160 15:57 25.11.2019
3518 Clouds 24 1017 57 10000 3.1 160 15:37 25.11.2019
3519 Clouds 23 1017 57 10000 3.1 160 15:19 25.11.2019
3520 Clouds 23 1017 57 10000 3.1 160 15:19 25.11.2019
3521 Clouds 23 1017 73 10000 1.5 130 14:54 25.11.2019
3522 Clouds 23 1017 73 10000 1.5 130 14:36 25.11.2019
3523 Clouds 23 1017 73 10000 1.5 130 14:18 25.11.2019
3524 Clouds 22 1017 78 10000 2.6 140 13:39 25.11.2019
3525 Clouds 22 1017 78 10000 2.6 140 13:20 25.11.2019
3526 Clouds 22 1017 78 10000 2.6 140 12:59 25.11.2019
3527 Clouds 22 1017 78 10000 2.6 140 12:39 25.11.2019
3528 Clouds 22 1017 78 10000 2.6 140 12:19 25.11.2019
3529 Clouds 21 1017 83 10000 0.5 80 11:55 25.11.2019
3530 Clouds 21 1017 83 10000 0.5 80 11:37 25.11.2019
3531 Clouds 19 1016 94 10000 2.1 340 11:18 25.11.2019
3532 Clouds 19 1016 94 10000 2.1 340 10:41 25.11.2019
3533 Clouds 19 1016 94 10000 2.1 340 10:20 25.11.2019
3534 Clouds 19 1016 94 10000 2.6 320 09:45 25.11.2019
3535 Clouds 19 1016 94 10000 2.6 320 09:26 25.11.2019
3536 Clouds 19 1015 94 10000 2.1 340 08:59 25.11.2019
3537 Clouds 19 1015 94 10000 2.1 340 08:39 25.11.2019
3538 Clouds 19 1015 94 10000 2.1 340 08:20 25.11.2019
3539 Clouds 19 1015 88 10000 1.87 167 07:41 25.11.2019
3540 Clouds 19 1015 88 10000 1.87 167 07:20 25.11.2019
3541 Clouds 20 1015 83 10000 1 350 06:45 25.11.2019
3542 Clouds 20 1016 77 10000 1.5 360 06:21 25.11.2019
3543 Clouds 20 1016 88 10000 0.5 110 05:38 25.11.2019
3544 Clouds 20 1017 94 10000 2.6 120 04:52 25.11.2019
3545 Clouds 20 1017 64 10000 2.1 340 02:51 25.11.2019
3546 Clouds 20 1017 64 10000 2.1 340 02:19 25.11.2019
3547 Clouds 20 1017 64 10000 1.5 330 01:39 25.11.2019
3548 Clouds 20 1017 64 10000 1.5 330 01:20 25.11.2019
3549 Clouds 21 1016 64 10000 1 10 00:23 25.11.2019
3550 Clouds 20 1015 68 10000 1 170 23:58 24.11.2019
3551 Clouds 20 1015 68 10000 1 170 23:38 24.11.2019
3552 Clouds 21 1015 68 10000 1 170 23:19 24.11.2019
3553 Clouds 21 1015 60 10000 3.6 190 22:54 24.11.2019
3554 Clouds 22 1015 60 10000 3.6 190 22:36 24.11.2019
3555 Clouds 22 1015 60 10000 3.6 190 22:18 24.11.2019
3556 Clouds 22 1015 60 10000 3.6 190 22:18 24.11.2019
3557 Clouds 22 1015 56 10000 3.1 160 21:42 24.11.2019
3558 Clouds 22 1015 56 10000 3.1 160 21:21 24.11.2019
3559 Clouds 22 1015 60 10000 2.6 160 20:59 24.11.2019
3560 Clouds 22 1015 60 10000 2.6 160 20:59 24.11.2019
3561 Clouds 22 1015 60 10000 2.6 160 20:40 24.11.2019
3562 Clouds 22 1015 60 10000 2.6 160 20:19 24.11.2019
3563 Clouds 22 1015 60 10000 2.6 160 20:19 24.11.2019
3564 Clouds 23 1015 53 10000 3.6 180 19:57 24.11.2019
3565 Clouds 23 1015 53 10000 3.6 180 19:39 24.11.2019
3566 Clouds 23 1015 53 10000 3.6 180 19:21 24.11.2019
3567 Clouds 23 1016 57 10000 3.1 170 18:59 24.11.2019
3568 Clouds 23 1016 57 10000 3.1 170 18:59 24.11.2019
3569 Clouds 23 1016 57 10000 3.1 170 18:38 24.11.2019
3570 Clouds 23 1016 57 10000 2.6 170 18:20 24.11.2019
3571 Clouds 23 1016 57 10000 2.6 170 17:58 24.11.2019
3572 Clouds 23 1016 57 10000 2.6 170 17:40 24.11.2019
3573 Clouds 23 1016 57 10000 2.6 170 17:22 24.11.2019
3574 Clouds 23 1016 64 10000 4.1 180 16:58 24.11.2019
3575 Clouds 23 1016 64 10000 4.1 180 16:39 24.11.2019
3576 Clouds 22 1016 64 10000 4.1 180 16:21 24.11.2019
3577 Clouds 22 1016 64 10000 4.1 180 16:21 24.11.2019
3578 Rain 22 1017 64 9000 4.1 190 15:55 24.11.2019
3579 Clouds 22 1017 60 10000 4.1 150 15:37 24.11.2019
3580 Clouds 22 1017 60 10000 4.1 150 15:18 24.11.2019
3581 Clouds 23 1017 64 10000 5.7 190 14:39 24.11.2019
3582 Clouds 22 1017 64 10000 5.7 190 14:19 24.11.2019
3583 Rain 22 1016 69 10000 5.1 180 13:58 24.11.2019
3584 Rain 22 1016 69 10000 5.1 180 13:37 24.11.2019
3585 Rain 22 1016 69 10000 5.1 180 13:19 24.11.2019
3586 Clouds 22 1016 78 10000 4.1 190 12:56 24.11.2019
3587 Clouds 22 1016 78 10000 4.1 190 12:37 24.11.2019
3588 Clouds 22 1016 68 10000 3.6 170 12:18 24.11.2019
3589 Clouds 22 1015 78 10000 3.6 190 11:38 24.11.2019
3590 Clouds 22 1015 78 10000 3.6 190 11:19 24.11.2019
3591 Clouds 21 1014 83 8000 4.6 190 10:57 24.11.2019
3592 Clouds 22 1014 83 8000 4.6 190 10:38 24.11.2019
3593 Clouds 21 1014 83 8000 4.6 190 10:20 24.11.2019
3594 Clouds 21 1014 83 8000 4.6 190 10:20 24.11.2019
3595 Clouds 21 1014 83 8000 3.6 210 09:39 24.11.2019
3596 Clouds 21 1013 88 8000 4.1 220 09:20 24.11.2019
3597 Rain 21 1012 100 7000 4.6 190 08:57 24.11.2019
3598 Rain 21 1012 100 7000 4.6 190 08:39 24.11.2019
3599 Rain 21 1012 100 7000 4.6 190 08:20 24.11.2019
3600 Rain 21 1011 100 6000 6.7 180 07:52 24.11.2019
3601 Rain 21 1011 100 6000 6.7 180 07:52 24.11.2019
3602 Rain 21 1011 100 6000 6.7 180 07:25 24.11.2019
3603 Rain 22 1011 100 7000 5.7 190 06:52 24.11.2019
3604 Rain 22 1011 100 7000 3.1 180 05:40 24.11.2019
3605 Rain 23 1012 100 6000 6.7 200 04:42 24.11.2019
3606 Rain 24 1012 94 5000 6.7 210 02:49 24.11.2019
3607 Thunderstorm 23 1012 94 6000 4.1 260 01:56 24.11.2019
3608 Thunderstorm 23 1012 94 6000 4.1 260 01:37 24.11.2019
3609 Thunderstorm 23 1012 94 6000 4.1 260 01:18 24.11.2019
3610 Rain 23 1011 100 5000 1.5 290 00:42 24.11.2019
3611 Rain 23 1010 100 6000 3.1 210 00:20 24.11.2019
3612 Rain 23 1010 100 6000 3.1 210 23:44 23.11.2019
3613 Rain 23 1010 100 6000 3.1 210 23:21 23.11.2019
3614 Clouds 25 1009 83 10000 5.7 200 22:57 23.11.2019
3615 Clouds 26 1009 83 10000 5.7 200 22:38 23.11.2019
3616 Clouds 26 1009 83 10000 5.7 200 22:20 23.11.2019
3617 Clouds 26 1008 74 10000 3.6 160 21:57 23.11.2019
3618 Clouds 26 1008 74 10000 3.6 160 21:39 23.11.2019
3619 Clouds 26 1008 74 10000 3.6 160 21:21 23.11.2019
3620 Clouds 26 1008 74 10000 3.6 160 21:21 23.11.2019
3621 Clouds 27 1007 66 10000 4.6 190 20:40 23.11.2019
3622 Clouds 28 1007 66 10000 4.6 190 20:22 23.11.2019
3623 Clouds 28 1007 58 10000 5.7 210 19:58 23.11.2019
3624 Clouds 28 1007 58 10000 5.7 210 19:40 23.11.2019
3625 Clouds 29 1008 62 10000 7.7 280 19:19 23.11.2019
3626 Clouds 30 1007 55 10000 7.2 210 18:59 23.11.2019
3627 Clouds 30 1007 55 10000 7.2 210 18:39 23.11.2019
3628 Clouds 30 1007 55 10000 7.2 210 18:20 23.11.2019
3629 Rain 30 1007 58 10000 6.7 200 17:54 23.11.2019
3630 Rain 30 1007 58 10000 6.7 200 17:36 23.11.2019
3631 Rain 30 1007 58 10000 6.7 200 17:18 23.11.2019
3632 Clouds 32 1008 55 10000 8.2 190 16:41 23.11.2019
3633 Clouds 31 1008 55 10000 8.2 190 16:23 23.11.2019
3634 Clouds 31 1008 74 10000 5.1 150 15:59 23.11.2019
3635 Clouds 31 1008 74 10000 5.1 150 15:39 23.11.2019
3636 Clouds 30 1008 74 10000 5.1 150 15:19 23.11.2019
3637 Clear 31 1008 70 10000 3.1 150 14:58 23.11.2019
3638 Clear 32 1008 70 10000 3.1 150 14:39 23.11.2019
3639 Clouds 32 1008 70 10000 3.1 150 14:21 23.11.2019
3640 Clouds 31 1008 74 10000 3.1 150 13:56 23.11.2019
3641 Clouds 31 1008 83 10000 2.6 10 13:38 23.11.2019
3642 Clouds 31 1008 83 10000 2.6 10 13:18 23.11.2019
3643 Clouds 30 1007 88 10000 2.6 350 12:42 23.11.2019
3644 Clouds 30 1007 88 10000 2.6 350 12:24 23.11.2019
3645 Clouds 27 1007 88 10000 2.6 320 11:45 23.11.2019
3646 Clouds 27 1007 88 10000 2.6 320 11:23 23.11.2019
3647 Clouds 27 1007 94 10000 4.1 10 10:56 23.11.2019
3648 Clouds 26 1007 94 10000 4.1 10 10:37 23.11.2019
3649 Clouds 26 1007 94 10000 4.1 10 10:18 23.11.2019
3650 Clouds 25 1006 100 10000 4.1 360 09:40 23.11.2019
3651 Clouds 25 1006 100 10000 4.1 360 09:18 23.11.2019
3652 Clouds 24 1006 94 10000 2.6 330 08:41 23.11.2019
3653 Clouds 24 1006 94 10000 2.6 330 08:19 23.11.2019
3654 Clouds 25 1006 94 10000 4.1 350 07:42 23.11.2019
3655 Clouds 25 1006 100 10000 1 10 07:00 23.11.2019
3656 Clouds 25 1006 100 10000 1 10 06:41 23.11.2019
3657 Clouds 25 1007 78 10000 2.1 10 06:19 23.11.2019
3658 Clouds 25 1007 100 10000 3.3 359 05:44 23.11.2019
3659 Clouds 25 1007 100 10000 3.3 359 05:26 23.11.2019
3660 Clouds 25 1008 94 10000 1.5 70 04:39 23.11.2019
3661 Clouds 26 1008 94 10000 1.5 70 04:21 23.11.2019
3662 Clouds 26 1009 78 10000 2.6 350 02:39 23.11.2019
3663 Clouds 26 1009 66 10000 3.1 310 01:42 23.11.2019
3664 Clouds 26 1009 74 10000 2.6 320 00:49 23.11.2019
3665 Clouds 25 1009 65 10000 3.6 290 00:23 23.11.2019
3666 Clouds 25 1009 65 10000 3.6 290 00:23 23.11.2019
3667 Clouds 25 1009 94 10000 0.5 60 00:22 23.11.2019
3668 Clouds 25 1009 94 10000 0.5 60 00:22 23.11.2019
3669 Clouds 25 1009 94 10000 0.5 60 23:59 22.11.2019
3670 Clouds 25 1009 94 10000 0.5 60 23:37 22.11.2019
3671 Clouds 28 1008 78 10000 3.1 180 23:19 22.11.2019
3672 Clouds 28 1008 78 10000 3.1 180 22:57 22.11.2019
3673 Clouds 29 1008 78 10000 3.1 180 22:37 22.11.2019
3674 Clouds 29 1008 78 10000 3.1 180 22:19 22.11.2019
3675 Clouds 28 1007 78 10000 4.1 160 21:55 22.11.2019
3676 Clouds 29 1007 78 10000 4.1 160 21:36 22.11.2019
3677 Clouds 29 1007 78 10000 4.1 160 21:18 22.11.2019
3678 Clouds 30 1008 70 10000 5.1 170 20:40 22.11.2019
3679 Clouds 32 1008 70 10000 5.1 170 20:22 22.11.2019
3680 Clouds 31 1009 74 10000 6.2 160 19:54 22.11.2019
3681 Clouds 31 1009 74 10000 6.2 160 19:36 22.11.2019
3682 Clouds 31 1009 74 10000 6.2 160 19:18 22.11.2019
3683 Clouds 32 1009 70 10000 5.7 160 18:39 22.11.2019
3684 Clouds 31 1009 70 10000 5.7 160 18:21 22.11.2019
3685 Clouds 31 1010 74 10000 4.6 160 17:55 22.11.2019
3686 Clouds 31 1010 74 10000 4.6 160 17:37 22.11.2019
3687 Clouds 31 1010 74 10000 4.6 160 17:19 22.11.2019
3688 Clouds 31 1011 74 10000 3.6 160 16:40 22.11.2019
3689 Clouds 32 1011 74 10000 3.6 160 16:22 22.11.2019
3690 Clouds 30 1011 74 10000 3.1 150 15:41 22.11.2019
3691 Clouds 30 1011 74 10000 3.1 150 15:23 22.11.2019
3692 Clear 29 1012 78 10000 2.6 160 14:56 22.11.2019
3693 Clear 28 1012 78 10000 2.6 160 14:37 22.11.2019
3694 Clear 29 1012 78 10000 2.6 160 14:19 22.11.2019
3695 Clear 28 1012 83 10000 3.1 150 13:56 22.11.2019
3696 Clear 27 1012 83 10000 3.1 150 13:36 22.11.2019
3697 Clear 27 1012 83 10000 3.1 150 13:18 22.11.2019
3698 Clear 27 1012 74 10000 1 110 12:40 22.11.2019
3699 Clear 26 1012 74 10000 1 110 12:20 22.11.2019
3700 Clear 26 1012 83 10000 2.1 310 11:59 22.11.2019
3701 Clear 25 1012 83 10000 2.1 310 11:39 22.11.2019
3702 Clear 24 1012 83 10000 2.1 310 11:20 22.11.2019
3703 Clouds 23 1012 94 10000 2.1 10 10:59 22.11.2019
3704 Clouds 23 1012 94 10000 2.1 10 10:39 22.11.2019
3705 Clouds 23 1012 94 10000 2.1 10 10:21 22.11.2019
3706 Clear 22 1011 100 10000 1.5 310 09:55 22.11.2019
3707 Clear 22 1011 100 10000 1.5 310 09:37 22.11.2019
3708 Clear 22 1011 100 10000 1.5 310 09:19 22.11.2019
3709 Clear 22 1011 100 10000 1 190 08:46 22.11.2019
3710 Clouds 22 1011 100 10000 1 190 08:27 22.11.2019
3711 Clouds 22 1011 100 10000 1 190 08:27 22.11.2019
3712 Clouds 22 1012 94 10000 2.1 30 07:46 22.11.2019
3713 Clouds 22 1012 94 10000 2.1 30 07:23 22.11.2019
3714 Clouds 22 1012 94 10000 2.1 30 07:23 22.11.2019
3715 Clouds 22 1012 100 10000 1 20 06:57 22.11.2019
3716 Clouds 22 1012 100 10000 1 20 06:37 22.11.2019
3717 Clouds 23 1013 100 10000 1 150 05:49 22.11.2019
3718 Rain 23 1013 94 10000 1.5 130 04:50 22.11.2019
3719 Clouds 24 1014 88 10000 2.6 50 02:55 22.11.2019
3720 Clouds 24 1014 88 10000 2.6 50 02:32 22.11.2019
3721 Clouds 24 1014 88 10000 2.6 90 01:45 22.11.2019
3722 Clouds 25 1014 88 10000 2.6 90 01:20 22.11.2019
3723 Clouds 25 1014 83 10000 4.1 90 00:54 22.11.2019
3724 Clouds 25 1014 83 10000 4.1 90 00:25 22.11.2019
3725 Clouds 25 1013 88 10000 2.6 180 23:56 21.11.2019
3726 Clouds 25 1013 88 10000 2.6 180 23:56 21.11.2019
3727 Clouds 27 1013 88 10000 2.6 180 23:37 21.11.2019
3728 Clouds 27 1013 88 10000 2.6 180 23:18 21.11.2019
3729 Clouds 26 1013 83 10000 3.1 170 22:41 21.11.2019
3730 Clouds 28 1013 83 10000 3.1 170 22:22 21.11.2019
3731 Clouds 28 1013 78 10000 4.1 180 21:58 21.11.2019
3732 Clouds 27 1013 78 10000 4.1 180 21:39 21.11.2019
3733 Clouds 28 1013 78 10000 4.1 180 21:20 21.11.2019
3734 Thunderstorm 29 1013 65 10000 4.1 130 20:59 21.11.2019
3735 Clouds 29 1012 78 10000 3.6 180 20:39 21.11.2019
3736 Thunderstorm 29 1013 65 10000 4.1 130 20:39 21.11.2019
3737 Clouds 29 1012 78 10000 3.6 180 20:19 21.11.2019
3738 Clouds 29 1013 69 10000 4.1 180 19:59 21.11.2019
3739 Clouds 29 1013 69 10000 4.1 180 19:59 21.11.2019
3740 Clouds 29 1013 69 10000 4.1 180 19:41 21.11.2019
3741 Clouds 29 1013 69 10000 4.1 180 19:23 21.11.2019
3742 Clouds 29 1013 74 10000 6.2 190 18:58 21.11.2019
3743 Clouds 29 1013 74 10000 6.2 190 18:40 21.11.2019
3744 Clouds 29 1013 74 10000 6.2 190 18:21 21.11.2019
3745 Clouds 29 1014 78 10000 6.2 160 17:58 21.11.2019
3746 Clouds 29 1014 78 10000 6.2 160 17:39 21.11.2019
3747 Clouds 29 1014 78 10000 6.2 160 17:21 21.11.2019
3748 Clouds 29 1015 74 10000 6.2 160 16:57 21.11.2019
3749 Clouds 29 1015 74 10000 6.2 160 16:39 21.11.2019
3750 Clouds 29 1015 74 10000 6.2 160 16:20 21.11.2019
3751 Clouds 28 1016 78 10000 5.1 160 15:43 21.11.2019
3752 Clouds 27 1016 78 10000 5.1 160 15:21 21.11.2019
3753 Clouds 27 1016 83 10000 3.6 170 14:57 21.11.2019
3754 Clouds 27 1016 83 10000 3.6 170 14:57 21.11.2019
3755 Clouds 27 1016 83 10000 3.6 170 14:38 21.11.2019
3756 Clouds 26 1016 83 10000 3.6 170 14:19 21.11.2019
3757 Clouds 26 1017 94 10000 2.6 180 13:57 21.11.2019
3758 Clouds 25 1017 94 10000 2.6 180 13:37 21.11.2019
3759 Clouds 25 1017 94 10000 2.6 180 13:18 21.11.2019
3760 Clouds 25 1016 94 10000 2.1 160 12:41 21.11.2019
3761 Clouds 24 1016 94 10000 2.1 160 12:22 21.11.2019
3762 Clouds 24 1016 94 10000 1.5 160 11:56 21.11.2019
3763 Clouds 24 1016 88 10000 1 70 11:37 21.11.2019
3764 Clouds 23 1016 88 10000 1 70 11:37 21.11.2019
3765 Clouds 23 1016 88 10000 1 70 11:19 21.11.2019
3766 Clouds 22 1016 94 10000 1.5 190 10:43 21.11.2019
3767 Clouds 22 1016 94 10000 1.5 190 10:24 21.11.2019
3768 Clouds 21 1015 100 10000 1.5 180 09:59 21.11.2019
3769 Clouds 21 1015 100 10000 1.5 180 09:41 21.11.2019
3770 Clouds 22 1015 100 10000 1.5 180 09:22 21.11.2019
3771 Clouds 21 1015 100 10000 2.6 160 08:54 21.11.2019
3772 Clouds 21 1015 100 10000 2.6 160 08:36 21.11.2019
3773 Clouds 21 1015 100 10000 2.6 160 08:18 21.11.2019
3774 Clouds 22 1015 100 10000 1.5 170 07:37 21.11.2019
3775 Clouds 22 1015 100 10000 1.5 170 07:18 21.11.2019
3776 Clouds 22 1015 100 10000 1.5 170 06:42 21.11.2019
3777 Clouds 22 1015 100 10000 1.5 170 06:24 21.11.2019
3778 Clouds 23 1016 100 10000 1.5 160 05:27 21.11.2019
3779 Clouds 23 1017 94 10000 1.5 170 03:25 21.11.2019
3780 Clouds 23 1017 100 10000 2.6 190 02:35 21.11.2019
3781 Clouds 23 1016 100 10000 2.6 190 01:52 21.11.2019
3782 Clouds 23 1016 100 10000 2.6 190 01:23 21.11.2019
3783 Clouds 23 1016 100 10000 2.1 160 00:47 21.11.2019
3784 Clouds 23 1016 100 10000 2.1 160 00:20 21.11.2019
3785 Clouds 23 1016 100 10000 2.1 160 00:20 21.11.2019
3786 Clouds 23 1016 100 10000 1.5 160 23:51 20.11.2019
3787 Clouds 24 1016 100 10000 1.5 160 23:23 20.11.2019
3788 Clouds 24 1015 94 10000 3.1 180 22:59 20.11.2019
3789 Clouds 24 1015 94 10000 3.1 180 22:41 20.11.2019
3790 Clouds 24 1015 94 10000 3.1 180 22:20 20.11.2019
3791 Rain 24 1015 94 8000 4.1 210 21:59 20.11.2019
3792 Rain 24 1015 94 8000 4.1 210 21:40 20.11.2019
3793 Rain 24 1015 94 8000 4.1 210 21:22 20.11.2019
3794 Clouds 24 1015 100 10000 6.2 190 20:58 20.11.2019
3795 Clouds 24 1015 100 10000 6.2 190 20:40 20.11.2019
3796 Clouds 24 1015 100 10000 6.2 190 20:21 20.11.2019
3797 Clouds 25 1015 88 10000 5.1 170 19:58 20.11.2019
3798 Clouds 25 1015 88 10000 5.1 170 19:58 20.11.2019
3799 Clouds 24 1015 88 10000 5.1 170 19:37 20.11.2019
3800 Clouds 25 1015 88 10000 5.1 170 19:19 20.11.2019
3801 Clouds 24 1016 88 10000 4.6 160 18:59 20.11.2019
3802 Clouds 24 1016 88 10000 4.6 160 18:40 20.11.2019
3803 Clouds 24 1016 88 10000 4.6 160 18:21 20.11.2019
3804 Clouds 24 1016 94 10000 5.7 170 17:58 20.11.2019
3805 Clouds 24 1016 94 10000 5.7 170 17:39 20.11.2019
3806 Clouds 25 1016 94 10000 5.7 170 17:20 20.11.2019
3807 Clouds 24 1016 94 9000 5.7 170 16:57 20.11.2019
3808 Clouds 24 1016 94 9000 5.7 170 16:39 20.11.2019
3809 Clouds 24 1016 94 9000 5.7 170 16:19 20.11.2019
3810 Clouds 24 1016 94 9000 5.7 170 16:19 20.11.2019
3811 Clouds 24 1017 100 9000 5.7 170 15:57 20.11.2019
3812 Clouds 24 1017 100 9000 5.7 170 15:38 20.11.2019
3813 Clouds 23 1017 100 9000 5.7 170 15:38 20.11.2019
3814 Clouds 24 1017 100 9000 5.7 170 15:19 20.11.2019
3815 Clouds 24 1017 94 10000 4.6 180 14:41 20.11.2019
3816 Clouds 24 1017 94 10000 4.6 180 14:22 20.11.2019
3817 Clouds 24 1017 94 10000 4.1 160 13:59 20.11.2019
3818 Clouds 24 1017 94 10000 4.1 160 13:40 20.11.2019
3819 Clouds 23 1017 94 10000 4.1 160 13:20 20.11.2019
3820 Clouds 22 1017 100 10000 3.1 170 12:59 20.11.2019
3821 Clouds 22 1017 100 10000 3.1 170 12:38 20.11.2019
3822 Clouds 23 1017 100 10000 3.1 170 12:19 20.11.2019
3823 Clouds 22 1016 100 10000 3.1 160 11:46 20.11.2019
3824 Clouds 22 1016 100 10000 3.1 160 11:23 20.11.2019
3825 Clouds 22 1016 100 10000 4.6 140 10:58 20.11.2019
3826 Clouds 22 1016 100 10000 4.6 140 10:39 20.11.2019
3827 Clouds 22 1016 100 10000 4.6 140 10:20 20.11.2019
3828 Clouds 21 1015 100 10000 4.1 140 09:59 20.11.2019
3829 Clouds 21 1015 100 10000 4.1 140 09:41 20.11.2019
3830 Clouds 21 1015 100 10000 4.1 140 09:19 20.11.2019
3831 Drizzle 21 1015 94 9000 2.6 150 08:43 20.11.2019
3832 Drizzle 22 1015 94 9000 2.6 150 08:24 20.11.2019
3833 Drizzle 21 1016 100 8000 4.6 140 07:52 20.11.2019
3834 Drizzle 21 1016 100 8000 4.6 140 07:34 20.11.2019
3835 Clouds 21 1016 100 10000 5.7 130 06:58 20.11.2019
3836 Clouds 21 1016 100 10000 5.7 130 06:38 20.11.2019
3837 Clouds 21 1016 100 10000 5.7 130 06:18 20.11.2019
3838 Clouds 22 1016 100 10000 4.1 140 04:41 20.11.2019
3839 Clouds 22 1017 100 10000 4.6 130 02:28 20.11.2019
3840 Clouds 22 1017 100 10000 4.1 140 01:38 20.11.2019
3841 Clouds 22 1016 100 10000 5.1 150 00:50 20.11.2019
3842 Clouds 22 1016 100 10000 5.1 150 00:21 20.11.2019
3843 Clouds 22 1016 100 10000 5.7 130 23:41 19.11.2019
3844 Clouds 22 1016 100 10000 5.7 130 23:22 19.11.2019
3845 Clouds 23 1015 100 10000 5.7 140 22:56 19.11.2019
3846 Clouds 22 1015 100 10000 5.7 140 22:37 19.11.2019
3847 Clouds 23 1015 100 10000 5.7 140 22:18 19.11.2019
3848 Clouds 23 1015 100 8000 4.6 130 21:55 19.11.2019
3849 Clouds 22 1015 100 8000 4.6 130 21:36 19.11.2019
3850 Clouds 23 1015 100 8000 4.6 130 21:18 19.11.2019
3851 Drizzle 23 1015 100 8000 6.2 130 20:54 19.11.2019
3852 Drizzle 24 1015 100 8000 6.2 130 20:36 19.11.2019
3853 Drizzle 24 1015 100 8000 6.2 130 20:18 19.11.2019
3854 Drizzle 24 1015 100 8000 4.6 170 19:42 19.11.2019
3855 Drizzle 24 1015 100 8000 4.6 170 19:20 19.11.2019
3856 Clouds 24 1016 100 8000 5.1 170 18:58 19.11.2019
3857 Clouds 24 1016 100 8000 5.1 170 18:40 19.11.2019
3858 Clouds 24 1016 100 8000 5.1 170 18:20 19.11.2019
3859 Clouds 24 1016 94 8000 5.1 160 17:58 19.11.2019
3860 Clouds 23 1016 100 10000 6.2 160 17:39 19.11.2019
3861 Clouds 23 1016 78 10000 5.7 140 17:20 19.11.2019
3862 Clouds 24 1017 100 10000 4.6 170 16:59 19.11.2019
3863 Clouds 23 1017 100 10000 4.6 170 16:40 19.11.2019
3864 Clouds 23 1017 100 10000 4.6 170 16:20 19.11.2019
3865 Clouds 23 1017 94 10000 5.7 160 15:47 19.11.2019
3866 Clouds 23 1017 94 10000 5.7 160 15:27 19.11.2019
3867 Clouds 23 1017 94 10000 4.1 150 14:58 19.11.2019
3868 Clouds 23 1017 94 10000 4.1 150 14:39 19.11.2019
3869 Clouds 23 1017 94 10000 4.1 150 14:21 19.11.2019
3870 Clouds 23 1017 94 10000 3.6 170 13:42 19.11.2019
3871 Clouds 23 1017 94 10000 3.6 170 13:22 19.11.2019
3872 Clouds 22 1017 100 10000 3.1 170 12:58 19.11.2019
3873 Clouds 22 1017 100 10000 3.1 170 12:39 19.11.2019
3874 Clouds 22 1017 100 10000 3.1 170 12:21 19.11.2019
3875 Clouds 22 1017 100 9000 3.1 180 11:56 19.11.2019
3876 Clouds 22 1017 100 9000 3.1 180 11:56 19.11.2019
3877 Drizzle 21 1017 100 6000 3.6 170 11:37 19.11.2019
3878 Drizzle 21 1017 100 6000 3.6 170 11:18 19.11.2019
3879 Drizzle 21 1017 100 5000 4.1 160 10:44 19.11.2019
3880 Mist 21 1017 100 4000 4.6 160 10:21 19.11.2019
3881 Mist 21 1016 100 4000 3.6 170 09:45 19.11.2019
3882 Mist 20 1016 100 4000 3.6 170 09:21 19.11.2019
3883 Mist 20 1015 100 4000 4.1 190 08:58 19.11.2019
3884 Mist 20 1015 100 4000 4.1 190 08:40 19.11.2019
3885 Mist 20 1015 100 4000 4.1 190 08:21 19.11.2019
3886 Drizzle 20 1015 100 4000 4.1 180 07:56 19.11.2019
3887 Drizzle 20 1015 100 4000 4.1 180 07:37 19.11.2019
3888 Drizzle 20 1015 100 4000 4.1 180 07:18 19.11.2019
3889 Rain 21 1015 94 2500 4.1 150 06:42 19.11.2019
3890 Drizzle 21 1015 100 4000 4.1 140 06:19 19.11.2019
3891 Drizzle 21 1016 100 4000 4.1 150 05:19 19.11.2019
3892 Rain 21 1017 100 8000 3.6 170 03:41 19.11.2019
3893 Rain 21 1017 100 8000 3.6 170 03:20 19.11.2019
3894 Rain 21 1017 100 8000 3.6 170 02:50 19.11.2019
3895 Clouds 22 1017 94 8000 4.1 150 01:49 19.11.2019
3896 Clouds 22 1017 100 9000 4.1 140 00:51 19.11.2019
3897 Clouds 22 1017 100 9000 4.1 140 00:21 19.11.2019
3898 Clouds 23 1016 88 9000 3.1 140 23:41 18.11.2019
3899 Clouds 23 1016 88 9000 3.1 140 23:20 18.11.2019
3900 Clouds 23 1016 88 9000 3.1 140 23:20 18.11.2019
3901 Clouds 23 1016 83 10000 4.1 130 22:59 18.11.2019
3902 Clouds 23 1016 83 10000 4.1 130 22:41 18.11.2019
3903 Clouds 22 1016 88 9000 3.6 130 22:23 18.11.2019
3904 Clouds 22 1016 100 8000 2.1 160 21:54 18.11.2019
3905 Rain 21 1016 100 6000 2.6 160 21:36 18.11.2019
3906 Rain 22 1016 100 6000 2.6 160 21:18 18.11.2019
3907 Mist 22 1016 94 5000 4.1 140 20:41 18.11.2019
3908 Rain 22 1016 100 6000 3.6 130 20:20 18.11.2019
3909 Rain 23 1016 88 6000 4.1 130 19:58 18.11.2019
3910 Rain 23 1016 88 6000 4.1 130 19:58 18.11.2019
3911 Rain 23 1016 78 7000 4.6 160 19:39 18.11.2019
3912 Rain 24 1016 78 7000 4.6 160 19:21 18.11.2019
3913 Clouds 23 1015 88 10000 3.6 160 18:57 18.11.2019
3914 Clouds 23 1015 88 10000 3.6 160 18:38 18.11.2019
3915 Clouds 23 1015 88 10000 3.6 160 18:19 18.11.2019
3916 Clouds 24 1016 88 10000 5.1 160 17:59 18.11.2019
3917 Clouds 24 1016 88 10000 5.1 160 17:38 18.11.2019
3918 Clouds 24 1016 88 10000 5.1 160 17:19 18.11.2019
3919 Clouds 25 1016 78 10000 3.6 160 16:43 18.11.2019
3920 Clouds 24 1016 78 10000 3.6 160 16:25 18.11.2019
3921 Clouds 24 1016 83 10000 2.1 150 15:59 18.11.2019
3922 Clouds 24 1016 83 10000 2.1 150 15:59 18.11.2019
3923 Clouds 24 1016 83 10000 2.1 150 15:41 18.11.2019
3924 Clouds 24 1016 83 10000 2.1 150 15:22 18.11.2019
3925 Clouds 24 1016 83 10000 2.1 150 15:22 18.11.2019
3926 Clouds 24 1017 83 10000 2.1 160 14:58 18.11.2019
3927 Clouds 24 1017 83 10000 2.1 160 14:58 18.11.2019
3928 Clouds 24 1017 83 10000 2.1 160 14:40 18.11.2019
3929 Clouds 23 1017 83 10000 2.1 160 14:22 18.11.2019
3930 Clouds 23 1016 83 10000 2.1 150 13:44 18.11.2019
3931 Clouds 23 1016 83 10000 2.1 150 13:26 18.11.2019
3932 Clouds 23 1016 88 10000 1.5 140 12:57 18.11.2019
3933 Clouds 23 1016 88 10000 1.5 140 12:37 18.11.2019
3934 Clouds 23 1016 88 10000 1.5 140 12:18 18.11.2019
3935 Clouds 22 1016 88 10000 1.5 150 11:43 18.11.2019
3936 Clouds 21 1016 88 10000 1.5 150 11:25 18.11.2019
3937 Clouds 21 1015 88 10000 2.49 77 10:46 18.11.2019
3938 Clouds 21 1015 88 10000 2.49 77 10:27 18.11.2019
3939 Clouds 21 1014 83 10000 2.49 77 09:59 18.11.2019
3940 Clouds 21 1014 83 10000 2.49 77 09:39 18.11.2019
3941 Clouds 21 1014 83 10000 2.49 77 09:21 18.11.2019
3942 Clouds 21 1014 88 10000 2.49 77 08:59 18.11.2019
3943 Clouds 21 1014 88 10000 2.49 77 08:41 18.11.2019
3944 Clouds 21 1014 88 10000 3.4 77 08:20 18.11.2019
3945 Clouds 21 1014 88 10000 0.5 220 07:47 18.11.2019
3946 Clouds 21 1014 88 10000 0.5 220 07:27 18.11.2019
3947 Clouds 21 1014 83 10000 2.6 50 06:52 18.11.2019
3948 Clouds 21 1014 83 10000 2.6 50 06:32 18.11.2019
3949 Clouds 21 1015 88 10000 1.5 340 05:47 18.11.2019
3950 Clouds 21 1015 88 10000 1.5 330 04:46 18.11.2019
3951 Clouds 21 1015 83 10000 1 330 01:56 18.11.2019
3952 Clouds 22 1015 83 10000 1 330 01:31 18.11.2019
3953 Clouds 22 1015 88 10000 1 10 00:23 18.11.2019
3954 Clouds 22 1014 94 10000 3.1 30 23:44 17.11.2019
3955 Clouds 22 1014 94 10000 3.1 30 23:24 17.11.2019
3956 Clouds 22 1013 88 10000 0.5 120 22:58 17.11.2019
3957 Clouds 22 1013 88 10000 0.5 120 22:40 17.11.2019
3958 Clouds 22 1013 88 10000 0.5 120 22:22 17.11.2019
3959 Rain 22 1013 88 8000 2.1 160 21:59 17.11.2019
3960 Rain 22 1013 88 8000 2.1 160 21:40 17.11.2019
3961 Rain 22 1013 88 8000 2.1 160 21:19 17.11.2019
3962 Rain 23 1013 68 10000 4.6 140 20:57 17.11.2019
3963 Rain 23 1013 68 10000 4.6 140 20:38 17.11.2019
3964 Rain 23 1012 78 9000 4.6 160 20:19 17.11.2019
3965 Clouds 23 1012 83 10000 4.1 160 19:56 17.11.2019
3966 Clouds 23 1012 83 10000 4.1 160 19:37 17.11.2019
3967 Clouds 23 1012 83 10000 4.1 160 19:19 17.11.2019
3968 Clouds 23 1013 73 10000 5.1 160 18:55 17.11.2019
3969 Clouds 23 1013 73 10000 5.1 160 18:55 17.11.2019
3970 Clouds 23 1013 73 10000 5.1 160 18:37 17.11.2019
3971 Clouds 23 1013 73 10000 5.1 160 18:37 17.11.2019
3972 Clouds 23 1013 73 10000 5.1 160 18:19 17.11.2019
3973 Clouds 24 1013 69 10000 5.1 170 17:57 17.11.2019
3974 Clouds 24 1013 69 10000 5.1 170 17:57 17.11.2019
3975 Clouds 24 1013 69 10000 5.1 170 17:39 17.11.2019
3976 Clouds 24 1013 69 10000 5.1 170 17:20 17.11.2019
3977 Clouds 25 1013 65 10000 5.1 170 16:57 17.11.2019
3978 Clouds 25 1013 65 10000 5.1 170 16:39 17.11.2019
3979 Clouds 26 1013 65 10000 5.1 170 16:21 17.11.2019
3980 Clouds 26 1013 65 10000 3.6 150 15:55 17.11.2019
3981 Clouds 26 1013 65 10000 3.6 150 15:36 17.11.2019
3982 Clouds 26 1013 65 10000 3.6 150 15:18 17.11.2019
3983 Clouds 26 1013 74 10000 2.6 140 14:55 17.11.2019
3984 Clouds 25 1013 74 10000 2.6 140 14:37 17.11.2019
3985 Clouds 24 1013 74 10000 2.6 140 14:19 17.11.2019
3986 Clouds 24 1013 74 10000 2.6 150 13:55 17.11.2019
3987 Clouds 24 1013 74 10000 2.6 150 13:55 17.11.2019
3988 Clouds 24 1013 78 10000 2.1 360 13:37 17.11.2019
3989 Clouds 24 1013 78 10000 2.1 360 13:18 17.11.2019
3990 Clouds 23 1013 83 10000 1.5 50 12:41 17.11.2019
3991 Clouds 22 1013 83 10000 1.5 50 12:22 17.11.2019
3992 Clouds 22 1013 94 10000 1 70 11:56 17.11.2019
3993 Clouds 22 1013 94 10000 1 70 11:38 17.11.2019
3994 Clouds 21 1013 94 10000 1 70 11:20 17.11.2019
3995 Clouds 20 1013 94 10000 1.5 190 10:44 17.11.2019
3996 Clouds 20 1013 94 10000 1.5 190 10:23 17.11.2019
3997 Clouds 20 1012 94 9000 1 200 09:57 17.11.2019
3998 Clouds 20 1012 94 9000 1 200 09:39 17.11.2019
3999 Clouds 20 1012 100 9000 3.1 180 09:20 17.11.2019
4000 Clouds 21 1012 94 10000 2.6 150 08:40 17.11.2019
4001 Clouds 20 1012 94 10000 2.6 150 08:20 17.11.2019
4002 Clear 21 1011 88 10000 1 10 07:48 17.11.2019
4003 Clear 21 1011 88 10000 1 10 07:24 17.11.2019
4004 Clear 21 1011 83 10000 1 300 06:59 17.11.2019
4005 Clear 21 1011 83 10000 1 300 06:33 17.11.2019
4006 Clear 22 1012 73 10000 2.1 310 05:54 17.11.2019
4007 Clear 20 1012 73 10000 0.5 230 04:24 17.11.2019
4008 Clear 20 1013 77 10000 1.5 190 03:51 17.11.2019
4009 Clear 20 1013 77 10000 1.5 190 03:32 17.11.2019
4010 Clear 21 1012 78 10000 3.6 190 02:28 17.11.2019
4011 Clear 21 1012 78 10000 2.6 180 01:41 17.11.2019
4012 Clear 21 1011 78 10000 5.1 190 00:55 17.11.2019
4013 Clear 22 1011 78 10000 5.1 190 00:22 17.11.2019
4014 Clear 22 1010 73 10000 4.6 190 23:48 16.11.2019
4015 Clear 23 1010 73 10000 4.6 190 23:20 16.11.2019
4016 Clear 23 1009 64 10000 3.6 180 22:59 16.11.2019
4017 Clear 23 1009 64 10000 3.6 180 22:41 16.11.2019
4018 Clear 24 1009 64 10000 3.6 180 22:19 16.11.2019
4019 Clear 25 1009 57 10000 5.7 190 21:56 16.11.2019
4020 Clear 26 1009 57 10000 5.7 190 21:38 16.11.2019
4021 Clear 26 1009 57 10000 5.7 190 21:19 16.11.2019
4022 Clouds 26 1009 54 10000 6.2 180 20:43 16.11.2019
4023 Clouds 26 1009 54 10000 6.2 180 20:21 16.11.2019
4024 Clouds 26 1009 54 10000 6.7 180 19:59 16.11.2019
4025 Clouds 26 1009 54 10000 6.7 180 19:40 16.11.2019
4026 Clouds 27 1009 54 10000 6.7 180 19:22 16.11.2019
4027 Clouds 27 1009 54 10000 6.7 180 18:47 16.11.2019
4028 Clouds 27 1009 54 10000 6.7 180 18:29 16.11.2019
4029 Clouds 27 1009 58 10000 7.2 190 17:58 16.11.2019
4030 Clouds 27 1009 58 10000 7.2 190 17:39 16.11.2019
4031 Clouds 27 1009 58 10000 7.2 190 17:20 16.11.2019
4032 Clouds 26 1010 61 10000 5.1 200 16:56 16.11.2019
4033 Clouds 26 1010 61 10000 5.1 200 16:37 16.11.2019
4034 Clouds 26 1010 61 10000 5.1 200 16:19 16.11.2019
4035 Clouds 26 1011 61 10000 1.5 60 15:41 16.11.2019
4036 Clouds 26 1011 61 10000 1.5 60 15:22 16.11.2019
4037 Clouds 25 1011 69 10000 3.1 10 14:58 16.11.2019
4038 Clouds 26 1011 61 10000 3.6 170 14:40 16.11.2019
4039 Clouds 25 1011 61 10000 3.6 170 14:21 16.11.2019
4040 Clouds 24 1011 69 9000 2.6 260 13:56 16.11.2019
4041 Clouds 25 1011 69 9000 2.6 260 13:38 16.11.2019
4042 Clouds 23 1011 69 9000 2.6 260 13:19 16.11.2019
4043 Clouds 24 1011 69 9000 2.6 260 13:19 16.11.2019
4044 Clouds 23 1010 73 8000 3.1 300 12:56 16.11.2019
4045 Clouds 23 1010 83 8000 1.5 80 12:38 16.11.2019
4046 Clouds 22 1010 83 8000 1.5 80 12:19 16.11.2019
4047 Clouds 22 1010 94 8000 2.1 120 11:43 16.11.2019
4048 Clouds 21 1010 94 8000 2.1 120 11:25 16.11.2019
4049 Clouds 21 1009 100 10000 0.5 90 10:56 16.11.2019
4050 Clouds 21 1009 100 10000 0.5 90 10:38 16.11.2019
4051 Clouds 20 1009 100 10000 0.5 90 10:20 16.11.2019
4052 Clouds 20 1008 100 10000 1 170 09:43 16.11.2019
4053 Clouds 20 1008 100 10000 1 170 09:21 16.11.2019
4054 Clouds 20 1008 94 10000 2.1 320 08:58 16.11.2019
4055 Clouds 21 1008 94 10000 2.1 320 08:37 16.11.2019
4056 Clouds 21 1008 94 10000 2.1 320 08:18 16.11.2019
4057 Clouds 21 1008 94 10000 1.5 310 07:41 16.11.2019
4058 Clouds 21 1008 94 10000 1.5 310 07:20 16.11.2019
4059 Clouds 21 1008 94 10000 2.1 330 06:51 16.11.2019
4060 Clouds 21 1008 94 10000 2.1 330 06:33 16.11.2019
4061 Clouds 22 1009 94 10000 2.6 310 05:28 16.11.2019
4062 Clouds 21 1010 94 10000 2.6 310 03:44 16.11.2019
4063 Clouds 21 1010 94 10000 2.6 310 03:25 16.11.2019
4064 Clouds 21 1010 94 10000 2.6 310 01:47 16.11.2019
4065 Clouds 21 1010 94 10000 2.6 310 01:20 16.11.2019
4066 Clouds 21 1009 94 10000 3.6 330 00:42 16.11.2019
4067 Clouds 21 1009 94 10000 3.6 330 00:22 16.11.2019
4068 Clouds 21 1009 100 8000 3.1 320 23:40 15.11.2019
4069 Clouds 21 1009 100 8000 3.1 320 23:21 15.11.2019
4070 Clouds 21 1009 100 8000 3.6 330 22:55 15.11.2019
4071 Rain 21 1008 100 7000 3.1 330 22:37 15.11.2019
4072 Rain 21 1008 100 7000 3.1 330 22:18 15.11.2019
4073 Rain 21 1008 94 7000 2.1 300 21:42 15.11.2019
4074 Rain 21 1008 94 7000 2.1 300 21:21 15.11.2019
4075 Rain 21 1008 88 10000 3.6 330 20:59 15.11.2019
4076 Rain 21 1008 88 10000 3.6 330 20:40 15.11.2019
4077 Clouds 23 1007 83 10000 4.1 190 20:22 15.11.2019
4078 Clouds 23 1007 73 10000 10.3 210 19:59 15.11.2019
4079 Clouds 23 1007 73 10000 10.3 210 19:41 15.11.2019
4080 Clouds 24 1007 73 10000 10.3 210 19:21 15.11.2019
4081 Clouds 24 1007 73 10000 4.6 210 18:59 15.11.2019
4082 Clouds 25 1007 69 10000 6.7 210 18:41 15.11.2019
4083 Clouds 24 1007 73 10000 4.6 210 18:41 15.11.2019
4084 Clouds 25 1007 69 10000 6.7 210 18:22 15.11.2019
4085 Clouds 25 1008 69 10000 4.6 220 17:54 15.11.2019
4086 Clouds 26 1008 69 10000 4.6 220 17:36 15.11.2019
4087 Clouds 25 1008 69 10000 4.6 220 17:18 15.11.2019
4088 Rain 24 1008 78 10000 2.6 220 16:40 15.11.2019
4089 Rain 24 1008 78 10000 2.6 220 16:22 15.11.2019
4090 Rain 24 1008 88 10000 7.2 210 15:57 15.11.2019
4091 Rain 24 1008 88 10000 7.2 210 15:36 15.11.2019
4092 Rain 24 1008 88 10000 7.2 210 15:18 15.11.2019
4093 Clouds 25 1007 78 10000 2.6 220 14:55 15.11.2019
4094 Clouds 26 1007 78 10000 2.6 220 14:36 15.11.2019
4095 Clouds 27 1007 78 10000 2.6 220 14:18 15.11.2019
4096 Clouds 28 1007 70 10000 2.6 310 13:54 15.11.2019
4097 Clouds 28 1007 70 10000 2.6 310 13:36 15.11.2019
4098 Clouds 28 1007 70 10000 2.6 310 13:18 15.11.2019
4099 Clouds 28 1006 83 10000 1.5 330 12:55 15.11.2019
4100 Clouds 28 1006 83 10000 1.5 330 12:36 15.11.2019
4101 Clouds 27 1006 83 10000 1.5 330 12:18 15.11.2019
4102 Clouds 26 1006 88 10000 2.1 320 11:39 15.11.2019
4103 Clouds 25 1006 88 10000 2.1 320 11:21 15.11.2019
4104 Clouds 24 1005 100 10000 2.6 10 10:58 15.11.2019
4105 Clouds 24 1005 100 10000 2.6 10 10:39 15.11.2019
4106 Clouds 24 1005 100 10000 2.6 10 10:20 15.11.2019
4107 Clouds 25 1005 83 10000 2.1 280 09:41 15.11.2019
4108 Clouds 25 1005 83 10000 2.1 280 09:20 15.11.2019
4109 Clouds 24 1005 88 10000 4.1 320 08:58 15.11.2019
4110 Clouds 24 1005 88 10000 4.1 320 08:39 15.11.2019
4111 Clouds 24 1005 88 10000 4.1 320 08:20 15.11.2019
4112 Rain 24 1006 88 10000 3.1 300 07:42 15.11.2019
4113 Rain 24 1006 88 10000 3.1 300 07:23 15.11.2019
4114 Rain 24 1006 88 10000 3.1 290 06:36 15.11.2019
4115 Rain 25 1007 83 10000 4.1 280 05:54 15.11.2019
4116 Rain 25 1007 83 10000 4.1 280 05:35 15.11.2019
4117 Rain 25 1006 94 10000 3.6 320 04:53 15.11.2019
4118 Clouds 24 1006 94 10000 4.6 320 03:43 15.11.2019
4119 Clouds 25 1007 100 10000 4.1 340 02:34 15.11.2019
4120 Clouds 23 1007 100 10000 4.1 300 01:55 15.11.2019
4121 Clouds 24 1007 100 10000 4.1 300 01:32 15.11.2019
4122 Clouds 23 1007 100 8000 4.1 320 00:41 15.11.2019
4123 Clouds 24 1007 100 8000 4.1 320 00:23 15.11.2019
4124 Clouds 23 1008 100 8000 3.1 10 23:46 14.11.2019
4125 Clouds 23 1008 100 8000 3.1 10 23:26 14.11.2019
4126 Rain 23 1009 100 8000 3.1 360 22:42 14.11.2019
4127 Rain 23 1009 100 8000 3.1 360 22:23 14.11.2019
4128 Rain 23 1009 100 8000 3.1 360 22:23 14.11.2019
4129 Rain 23 1010 100 6000 3.1 320 21:59 14.11.2019
4130 Rain 22 1010 100 6000 3.1 320 21:41 14.11.2019
4131 Rain 23 1010 100 6000 3.1 320 21:22 14.11.2019
4132 Rain 22 1010 100 7000 1.5 350 20:55 14.11.2019
4133 Rain 22 1010 100 7000 1.5 350 20:37 14.11.2019
4134 Rain 22 1010 100 7000 1.5 350 20:37 14.11.2019
4135 Rain 23 1010 100 7000 1.5 350 20:19 14.11.2019
4136 Rain 23 1011 100 6000 1.5 340 19:56 14.11.2019
4137 Rain 22 1011 100 7000 0.5 160 19:37 14.11.2019
4138 Rain 23 1011 100 7000 0.5 160 19:18 14.11.2019
4139 Rain 22 1012 88 7000 3.1 120 18:43 14.11.2019
4140 Rain 23 1012 88 7000 3.1 120 18:24 14.11.2019
4141 Rain 23 1012 88 7000 3.1 120 17:58 14.11.2019
4142 Rain 23 1012 100 10000 3.6 190 17:38 14.11.2019
4143 Rain 24 1013 100 10000 4.6 140 17:20 14.11.2019
4144 Rain 24 1013 100 10000 4.6 140 16:58 14.11.2019
4145 Rain 24 1013 100 10000 4.6 140 16:58 14.11.2019
4146 Rain 24 1013 100 10000 4.6 140 16:58 14.11.2019
4147 Rain 24 1013 100 10000 4.6 140 16:58 14.11.2019
4148 Rain 23 1013 100 10000 4.6 140 16:37 14.11.2019
4149 Rain 23 1013 100 10000 4.6 140 16:19 14.11.2019
4150 Clouds 23 1013 100 10000 4.6 150 15:58 14.11.2019
4151 Clouds 22 1013 100 10000 4.6 150 15:38 14.11.2019
4152 Clouds 24 1013 100 10000 4.6 150 15:20 14.11.2019
4153 Clouds 24 1012 88 10000 3.1 160 14:57 14.11.2019
4154 Clouds 23 1012 88 10000 3.1 160 14:39 14.11.2019
4155 Clouds 24 1012 88 10000 3.1 160 14:20 14.11.2019
4156 Clouds 24 1012 94 10000 1.5 150 13:42 14.11.2019
4157 Clouds 24 1012 94 10000 1.5 150 13:23 14.11.2019
4158 Clouds 24 1012 83 10000 2.6 330 12:59 14.11.2019
4159 Clouds 23 1012 83 10000 2.6 330 12:40 14.11.2019
4160 Clouds 23 1012 83 10000 2.6 330 12:21 14.11.2019
4161 Clouds 23 1012 88 10000 1 120 11:56 14.11.2019
4162 Clouds 22 1012 88 10000 1 120 11:37 14.11.2019
4163 Clouds 22 1012 88 10000 1 120 11:19 14.11.2019
4164 Clouds 22 1011 94 10000 1 120 10:57 14.11.2019
4165 Clouds 23 1011 94 10000 1 120 10:37 14.11.2019
4166 Clouds 23 1011 94 10000 1 120 10:19 14.11.2019
4167 Clouds 22 1011 94 10000 2.1 50 09:54 14.11.2019
4168 Clouds 22 1011 94 10000 0.5 40 09:36 14.11.2019
4169 Clouds 22 1011 94 10000 0.5 40 09:18 14.11.2019
4170 Clouds 22 1011 94 10000 0.5 40 08:41 14.11.2019
4171 Clouds 22 1011 94 10000 0.5 40 08:23 14.11.2019
4172 Clouds 22 1011 94 10000 1 10 07:42 14.11.2019
4173 Clouds 22 1011 94 10000 1 10 07:24 14.11.2019
4174 Clouds 22 1012 94 10000 1.5 20 06:46 14.11.2019
4175 Clouds 22 1012 94 10000 1.5 20 06:21 14.11.2019
4176 Clouds 23 1012 88 10000 3.6 70 05:40 14.11.2019
4177 Clouds 22 1015 86 0 6.33 59 04:38 14.11.2019
4178 Clouds 23 1014 88 10000 7.2 60 03:47 14.11.2019
4179 Clouds 23 1014 88 10000 7.2 60 02:39 14.11.2019
4180 Clouds 24 1014 83 10000 6.7 60 01:41 14.11.2019
4181 Clouds 24 1014 83 10000 6.7 70 00:58 14.11.2019
4182 Clouds 24 1014 83 10000 6.7 70 00:58 14.11.2019
4183 Clouds 24 1014 83 10000 6.7 70 00:39 14.11.2019
4184 Clouds 24 1014 83 10000 6.7 70 00:20 14.11.2019
4185 Clouds 24 1014 83 10000 6.2 90 23:39 13.11.2019
4186 Clouds 25 1014 83 10000 6.2 90 23:20 13.11.2019
4187 Clouds 25 1013 78 10000 6.2 90 22:55 13.11.2019
4188 Clouds 25 1013 78 10000 6.2 90 22:55 13.11.2019
4189 Clouds 25 1013 78 10000 6.2 90 22:37 13.11.2019
4190 Clouds 25 1013 78 10000 6.2 90 22:19 13.11.2019
4191 Clouds 25 1013 83 10000 4.6 100 21:55 13.11.2019
4192 Clouds 26 1013 83 10000 4.6 100 21:36 13.11.2019
4193 Clouds 26 1013 83 10000 4.6 100 21:18 13.11.2019
4194 Clouds 26 1013 78 10000 4.1 170 20:55 13.11.2019
4195 Clouds 25 1013 78 10000 4.1 170 20:37 13.11.2019
4196 Clouds 25 1013 78 10000 4.1 170 20:37 13.11.2019
4197 Clouds 26 1013 78 10000 4.1 170 20:18 13.11.2019
4198 Clouds 26 1013 78 10000 4.1 170 20:18 13.11.2019
4199 Clouds 25 1013 83 10000 4.6 130 19:42 13.11.2019
4200 Clouds 25 1013 83 10000 4.6 130 19:19 13.11.2019
4201 Clouds 25 1014 78 10000 5.7 140 18:56 13.11.2019
4202 Clouds 26 1014 78 10000 5.7 140 18:38 13.11.2019
4203 Clouds 26 1014 78 10000 5.7 140 18:19 13.11.2019
4204 Clouds 26 1014 78 10000 5.7 140 18:19 13.11.2019
4205 Clouds 26 1015 78 10000 4.1 150 17:57 13.11.2019
4206 Clouds 26 1015 78 10000 4.1 150 17:38 13.11.2019
4207 Clouds 27 1015 78 10000 4.1 150 17:19 13.11.2019
4208 Clouds 27 1015 69 10000 3.6 70 16:58 13.11.2019
4209 Clouds 27 1015 69 10000 3.6 70 16:39 13.11.2019
4210 Clouds 27 1015 69 10000 3.6 70 16:39 13.11.2019
4211 Clouds 26 1015 69 10000 3.6 70 16:21 13.11.2019
4212 Clouds 27 1016 65 10000 6.2 60 15:57 13.11.2019
4213 Clouds 26 1016 65 10000 6.2 60 15:38 13.11.2019
4214 Clouds 27 1016 65 10000 6.2 60 15:20 13.11.2019
4215 Clouds 25 1017 69 10000 5.7 70 14:42 13.11.2019
4216 Clouds 26 1017 69 10000 5.7 70 14:22 13.11.2019
4217 Clouds 24 1017 74 10000 7.2 70 13:57 13.11.2019
4218 Clouds 24 1017 74 10000 7.2 70 13:36 13.11.2019
4219 Clouds 24 1017 74 10000 7.2 70 13:18 13.11.2019
4220 Clouds 23 1017 83 10000 2.6 80 12:54 13.11.2019
4221 Clouds 22 1017 83 10000 2.6 80 12:36 13.11.2019
4222 Clouds 23 1017 83 10000 2.6 80 12:18 13.11.2019
4223 Clouds 21 1017 83 10000 2.1 60 11:40 13.11.2019
4224 Clouds 21 1017 83 10000 2.1 60 11:20 13.11.2019
4225 Clouds 20 1017 88 10000 1.5 70 10:58 13.11.2019
4226 Clouds 21 1017 88 10000 1.5 70 10:40 13.11.2019
4227 Clouds 21 1017 88 10000 1.5 70 10:19 13.11.2019
4228 Clouds 21 1016 88 10000 2.1 90 09:45 13.11.2019
4229 Clouds 21 1016 88 10000 2.1 90 09:24 13.11.2019
4230 Clouds 21 1017 88 10000 1 70 08:59 13.11.2019
4231 Clouds 21 1017 88 10000 1 70 08:37 13.11.2019
4232 Clouds 21 1017 88 10000 1 70 08:19 13.11.2019
4233 Clouds 21 1017 88 10000 2.1 90 07:42 13.11.2019
4234 Clouds 21 1017 88 10000 2.1 90 07:42 13.11.2019
4235 Clouds 21 1017 88 10000 2.1 90 07:20 13.11.2019
4236 Clouds 21 1017 88 10000 3.1 80 06:46 13.11.2019
4237 Clouds 21 1017 88 10000 3.1 80 06:19 13.11.2019
4238 Clouds 21 1017 88 10000 3.1 80 06:19 13.11.2019
4239 Clouds 21 1017 88 10000 3.1 80 06:19 13.11.2019
4240 Clouds 22 1017 83 10000 4.6 90 05:53 13.11.2019
4241 Clouds 22 1017 83 10000 4.6 90 05:34 13.11.2019
4242 Clouds 22 1018 83 10000 4.1 90 04:43 13.11.2019
4243 Clouds 22 1018 88 10000 3.6 100 02:19 13.11.2019
4244 Clouds 21 1018 94 10000 1.5 90 01:44 13.11.2019
4245 Clouds 22 1018 88 10000 4.1 100 00:44 13.11.2019
4246 Clouds 22 1018 88 10000 4.1 100 00:26 13.11.2019
4247 Clouds 23 1017 88 10000 5.7 110 23:42 12.11.2019
4248 Clouds 23 1017 88 10000 5.7 110 23:42 12.11.2019
4249 Clouds 23 1017 88 10000 5.7 110 23:21 12.11.2019
4250 Clouds 23 1017 83 10000 5.1 110 22:56 12.11.2019
4251 Clouds 23 1017 83 10000 5.1 110 22:37 12.11.2019
4252 Clouds 23 1017 83 10000 5.1 110 22:18 12.11.2019
4253 Clouds 23 1017 83 10000 5.1 120 21:44 12.11.2019
4254 Clouds 24 1017 83 10000 5.1 120 21:25 12.11.2019
4255 Clouds 24 1016 78 10000 5.7 110 20:58 12.11.2019
4256 Clouds 24 1016 78 10000 5.7 110 20:37 12.11.2019
4257 Clouds 24 1016 78 10000 5.7 110 20:19 12.11.2019
4258 Clouds 24 1017 78 10000 7.2 130 19:57 12.11.2019
4259 Clouds 22 1017 78 10000 7.2 130 19:39 12.11.2019
4260 Clouds 24 1017 78 10000 7.2 130 19:19 12.11.2019
4261 Clouds 24 1017 78 10000 6.7 130 18:59 12.11.2019
4262 Clouds 23 1017 78 10000 6.7 130 18:40 12.11.2019
4263 Clouds 25 1017 78 10000 6.7 130 18:22 12.11.2019
4264 Clouds 25 1018 78 9000 6.2 130 17:57 12.11.2019
4265 Clouds 23 1018 78 9000 6.2 130 17:39 12.11.2019
4266 Clouds 24 1018 78 9000 6.2 130 17:21 12.11.2019
4267 Clouds 24 1018 78 9000 6.2 130 17:21 12.11.2019
4268 Clouds 24 1018 78 9000 6.2 120 16:57 12.11.2019
4269 Clouds 23 1018 78 9000 6.2 120 16:39 12.11.2019
4270 Clouds 24 1018 78 9000 6.2 120 16:20 12.11.2019
4271 Clouds 24 1018 78 9000 6.7 120 15:41 12.11.2019
4272 Clouds 24 1018 78 9000 6.7 120 15:21 12.11.2019
4273 Clouds 24 1018 83 9000 5.7 120 14:57 12.11.2019
4274 Clouds 24 1018 83 9000 5.7 120 14:37 12.11.2019
4275 Clouds 24 1018 83 9000 5.7 120 14:19 12.11.2019
4276 Clouds 24 1018 78 9000 5.7 100 13:56 12.11.2019
4277 Clouds 23 1018 78 9000 5.7 100 13:37 12.11.2019
4278 Clouds 23 1018 78 9000 5.7 100 13:18 12.11.2019
4279 Clouds 22 1018 78 10000 6.7 110 12:42 12.11.2019
4280 Clouds 22 1017 88 8000 5.7 110 12:20 12.11.2019
4281 Clouds 22 1017 94 7000 5.1 100 11:59 12.11.2019
4282 Clouds 22 1017 94 7000 5.1 100 11:40 12.11.2019
4283 Clouds 22 1017 94 7000 5.1 100 11:22 12.11.2019
4284 Clouds 22 1017 94 7000 5.1 100 11:22 12.11.2019
4285 Clouds 21 1017 100 9000 3.6 120 10:56 12.11.2019
4286 Clouds 21 1017 100 9000 3.6 120 10:38 12.11.2019
4287 Clouds 21 1017 100 9000 3.6 120 10:20 12.11.2019
4288 Clouds 21 1016 94 9000 3.6 120 09:56 12.11.2019
4289 Clouds 21 1016 94 9000 3.6 120 09:37 12.11.2019
4290 Clouds 21 1016 94 9000 3.6 120 09:18 12.11.2019
4291 Rain 22 1017 85 0 6.96 93 08:41 12.11.2019
4292 Rain 21 1016 100 8000 3.1 150 08:22 12.11.2019
4293 Rain 21 1016 100 8000 3.1 150 07:41 12.11.2019
4294 Rain 21 1016 100 8000 3.1 150 07:23 12.11.2019
4295 Rain 21 1016 100 6000 2.1 140 06:45 12.11.2019
4296 Rain 21 1016 100 6000 2.1 140 06:23 12.11.2019
4297 Rain 21 1017 100 7000 2.1 150 05:46 12.11.2019
4298 Rain 21 1018 100 5000 2.6 160 04:50 12.11.2019
4299 Rain 21 1018 100 5000 2.6 160 04:50 12.11.2019
4300 Rain 21 1018 100 7000 4.1 130 03:49 12.11.2019
4301 Rain 21 1018 88 2100 5.7 140 01:49 12.11.2019
4302 Rain 21 1018 88 2100 5.7 140 01:22 12.11.2019
4303 Rain 21 1018 88 2100 5.7 140 01:22 12.11.2019
4304 Drizzle 21 1017 94 7000 3.1 170 00:51 12.11.2019
4305 Drizzle 21 1017 94 7000 3.1 170 00:32 12.11.2019
4306 Drizzle 21 1016 100 7000 3.6 160 23:47 11.11.2019
4307 Rain 22 1016 100 3000 4.1 160 23:24 11.11.2019
4308 Rain 22 1016 100 2000 5.1 150 22:58 11.11.2019
4309 Rain 22 1016 100 2000 5.1 150 22:37 11.11.2019
4310 Rain 22 1016 100 2000 5.1 150 22:18 11.11.2019
4311 Rain 22 1015 100 5000 5.7 150 21:57 11.11.2019
4312 Rain 22 1015 100 2500 4.1 150 21:38 11.11.2019
4313 Rain 22 1015 100 2500 4.1 150 21:19 11.11.2019
4314 Rain 22 1015 100 7000 5.7 170 20:55 11.11.2019
4315 Rain 22 1015 100 7000 5.7 170 20:36 11.11.2019
4316 Rain 22 1015 100 7000 5.7 170 20:18 11.11.2019
4317 Rain 23 1014 100 5000 7.7 180 19:41 11.11.2019
4318 Rain 22 1014 100 5000 7.7 180 19:19 11.11.2019
4319 Rain 23 1014 100 4000 8.2 170 18:57 11.11.2019
4320 Rain 23 1014 100 4000 8.2 170 18:38 11.11.2019
4321 Rain 23 1014 100 4000 8.2 170 18:19 11.11.2019
4322 Rain 23 1014 100 3000 8.2 180 17:43 11.11.2019
4323 Rain 23 1014 100 4000 8.7 160 17:24 11.11.2019
4324 Thunderstorm 23 1014 94 1800 5.1 170 16:45 11.11.2019
4325 Rain 24 1013 100 1000 7.7 170 16:24 11.11.2019
4326 Rain 25 1013 100 4000 4.6 160 15:59 11.11.2019
4327 Rain 25 1013 100 4000 4.6 160 15:41 11.11.2019
4328 Rain 26 1013 100 8000 5.7 170 15:20 11.11.2019
4329 Rain 26 1013 94 8000 3.6 160 14:54 11.11.2019
4330 Clouds 26 1013 88 9000 4.1 160 14:36 11.11.2019
4331 Clouds 26 1013 88 9000 4.1 160 14:18 11.11.2019
4332 -273 0 0 0 0 0 13:39 11.11.2019
4333 Clouds 26 1013 88 10000 3.1 150 13:21 11.11.2019
4334 Clouds 25 1013 94 10000 3.1 150 12:58 11.11.2019
4335 Clouds 26 1013 94 10000 3.1 150 12:40 11.11.2019
4336 Clouds 25 1013 94 10000 3.1 150 12:22 11.11.2019
4337 Clouds 25 1012 100 10000 2.1 150 11:57 11.11.2019
4338 Clouds 23 1012 100 10000 2.1 150 11:38 11.11.2019
4339 Clouds 23 1012 100 10000 2.1 150 11:20 11.11.2019
4340 Clouds 24 1012 94 10000 2.1 170 10:42 11.11.2019
4341 Clouds 23 1012 94 10000 2.1 170 10:19 11.11.2019
4342 Clouds 23 1012 100 10000 1.5 170 09:58 11.11.2019
4343 Clouds 23 1012 100 10000 1.5 170 09:58 11.11.2019
4344 Clouds 23 1012 100 10000 1.5 170 09:39 11.11.2019
4345 Clouds 23 1012 100 10000 1.5 170 09:19 11.11.2019
4346 Clouds 23 1011 100 10000 2.6 160 08:41 11.11.2019
4347 Clouds 24 1011 100 10000 2.6 160 08:22 11.11.2019
4348 Clouds 24 1011 100 10000 2.6 170 07:57 11.11.2019
4349 Clouds 24 1011 100 10000 2.6 170 07:37 11.11.2019
4350 Clouds 24 1011 100 10000 2.6 170 07:19 11.11.2019
4351 Clouds 24 1011 100 10000 2.6 170 07:19 11.11.2019
4352 Clouds 24 1012 94 10000 3.1 170 06:48 11.11.2019
4353 Clouds 25 1012 94 10000 3.1 170 06:23 11.11.2019
4354 Clouds 25 1012 94 10000 2.6 160 05:51 11.11.2019
4355 Clouds 25 1013 94 10000 2.1 170 04:43 11.11.2019
4356 Clouds 25 1013 100 10000 2.6 180 03:25 11.11.2019
4357 Clouds 25 1014 100 10000 2.1 170 02:30 11.11.2019
4358 Clouds 25 1014 100 10000 3.6 170 01:57 11.11.2019
4359 Clouds 25 1014 100 10000 3.6 170 01:35 11.11.2019
4360 Clouds 25 1014 100 10000 3.1 170 00:51 11.11.2019
4361 Clouds 25 1014 100 10000 3.1 170 00:26 11.11.2019
4362 Clouds 25 1013 94 10000 4.1 160 23:56 10.11.2019
4363 Clouds 26 1013 94 10000 4.1 160 23:36 10.11.2019
4364 Clouds 26 1013 94 10000 4.1 160 23:18 10.11.2019
4365 Clouds 26 1013 88 10000 4.1 170 22:55 10.11.2019
4366 Clouds 26 1013 88 10000 4.1 170 22:36 10.11.2019
4367 Clouds 26 1013 88 10000 4.1 170 22:18 10.11.2019
4368 Clouds 26 1013 88 10000 5.7 180 21:54 10.11.2019
4369 Clouds 26 1013 88 10000 5.7 180 21:36 10.11.2019
4370 Clouds 26 1013 88 10000 5.7 180 21:18 10.11.2019
4371 Clouds 26 1012 88 10000 6.7 160 20:40 10.11.2019
4372 Clouds 26 1012 88 10000 6.7 160 20:21 10.11.2019
4373 Clouds 27 1012 78 9000 6.7 160 19:56 10.11.2019
4374 Clouds 27 1012 78 9000 6.7 160 19:37 10.11.2019
4375 Clouds 27 1012 78 9000 6.7 160 19:18 10.11.2019
4376 Clouds 27 1012 79 9000 6.2 160 18:56 10.11.2019
4377 Clouds 28 1012 79 9000 6.2 160 18:56 10.11.2019
4378 Clouds 28 1012 79 9000 6.2 160 18:38 10.11.2019
4379 Clouds 27 1012 79 9000 6.2 160 18:19 10.11.2019
4380 Clouds 27 1012 83 8000 5.7 150 17:56 10.11.2019
4381 Clouds 27 1012 83 8000 5.7 150 17:37 10.11.2019
4382 Clouds 27 1012 83 8000 5.7 150 17:19 10.11.2019
4383 Clouds 27 1012 83 8000 5.7 140 16:57 10.11.2019
4384 Clouds 27 1012 83 8000 5.7 140 16:37 10.11.2019
4385 Clouds 28 1012 83 8000 5.7 140 16:19 10.11.2019
4386 Clouds 28 1012 83 8000 4.6 150 15:54 10.11.2019
4387 Clouds 29 1012 83 8000 4.6 150 15:36 10.11.2019
4388 Clouds 29 1012 83 8000 4.6 150 15:18 10.11.2019
4389 Clouds 28 1013 83 9000 3.6 140 14:40 10.11.2019
4390 Clouds 28 1013 83 9000 3.6 140 14:22 10.11.2019
4391 Clouds 28 1013 83 9000 2.1 10 13:57 10.11.2019
4392 Clouds 28 1013 83 9000 2.1 10 13:39 10.11.2019
4393 Clouds 27 1013 83 9000 2.1 10 13:19 10.11.2019
4394 Clouds 26 1013 88 8000 1.5 40 12:42 10.11.2019
4395 Clouds 25 1013 88 8000 1.5 40 12:20 10.11.2019
4396 Clouds 25 1012 100 9000 0.5 130 11:57 10.11.2019
4397 Clouds 24 1012 100 9000 0.5 130 11:38 10.11.2019
4398 Clouds 24 1012 100 9000 0.5 130 11:20 10.11.2019
4399 Clouds 23 1012 100 7000 1.73 279 10:59 10.11.2019
4400 Clouds 23 1012 100 7000 1.73 279 10:40 10.11.2019
4401 Clouds 22 1012 100 7000 1.73 279 10:20 10.11.2019
4402 Clouds 23 1011 100 8000 1 130 09:42 10.11.2019
4403 Clouds 23 1011 100 8000 1 130 09:23 10.11.2019
4404 Clouds 23 1011 100 9000 2.1 180 08:41 10.11.2019
4405 Clouds 23 1011 100 9000 2.1 180 08:21 10.11.2019
4406 Clouds 24 1011 100 10000 2.1 170 07:58 10.11.2019
4407 Clouds 24 1011 100 10000 2.1 170 07:40 10.11.2019
4408 Clouds 24 1011 100 10000 2.1 170 07:21 10.11.2019
4409 Clouds 24 1012 94 10000 3.1 160 06:26 10.11.2019
4410 Clouds 24 1012 94 10000 2.6 170 04:46 10.11.2019
4411 Clouds 25 1012 94 10000 0.5 220 03:19 10.11.2019
4412 Clouds 25 1013 100 10000 2.1 190 01:44 10.11.2019
4413 Clouds 25 1013 100 10000 2.1 190 01:19 10.11.2019
4414 Clouds 25 1013 100 10000 3.1 180 00:40 10.11.2019
4415 Clouds 25 1012 83 8000 4.1 140 23:46 09.11.2019
4416 Clouds 25 1012 83 8000 4.1 140 23:21 09.11.2019
4417 Clouds 25 1012 100 10000 4.6 160 22:59 09.11.2019
4418 Clouds 25 1012 100 10000 4.6 160 22:40 09.11.2019
4419 Clouds 24 1012 100 10000 4.6 160 22:20 09.11.2019
4420 Clouds 25 1012 100 10000 5.1 160 21:55 09.11.2019
4421 Clouds 25 1012 100 10000 5.1 160 21:37 09.11.2019
4422 Clouds 25 1012 100 10000 5.1 160 21:19 09.11.2019
4423 Clouds 25 1011 100 8000 3.1 160 20:41 09.11.2019
4424 Clouds 25 1011 100 8000 3.1 160 20:41 09.11.2019
4425 Clouds 25 1011 100 8000 3.1 160 20:22 09.11.2019
4426 Clouds 26 1011 94 7000 4.1 170 19:57 09.11.2019
4427 Clouds 26 1011 94 7000 4.1 170 19:38 09.11.2019
4428 Clouds 26 1011 94 7000 4.1 170 19:20 09.11.2019
4429 Clouds 26 1012 100 8000 5.1 150 18:41 09.11.2019
4430 Clouds 26 1012 100 8000 5.1 150 18:19 09.11.2019
4431 Clouds 26 1012 94 8000 5.1 160 17:59 09.11.2019
4432 Clouds 26 1012 94 8000 5.1 160 17:40 09.11.2019
4433 Clouds 27 1012 94 8000 5.1 160 17:22 09.11.2019
4434 Clouds 27 1013 88 10000 4.6 160 16:43 09.11.2019
4435 Clouds 27 1013 88 10000 4.6 160 16:22 09.11.2019
4436 Clouds 27 1013 88 10000 5.1 170 15:59 09.11.2019
4437 Clouds 27 1013 88 10000 5.1 170 15:41 09.11.2019
4438 Clouds 27 1013 88 10000 5.1 170 15:23 09.11.2019
4439 Clouds 26 1013 88 9000 5.1 170 14:43 09.11.2019
4440 Clouds 26 1013 94 10000 4.6 150 14:22 09.11.2019
4441 Clouds 26 1013 94 10000 2.6 150 13:57 09.11.2019
4442 Clouds 25 1013 94 10000 2.6 150 13:39 09.11.2019
4443 Clouds 25 1013 94 10000 2.6 150 13:19 09.11.2019
4444 Clouds 25 1013 100 10000 1.5 170 12:56 09.11.2019
4445 Clouds 25 1013 100 10000 1.5 170 12:38 09.11.2019
4446 Clouds 25 1013 100 10000 1.5 170 12:19 09.11.2019
4447 Clouds 25 1012 100 10000 0.5 190 11:47 09.11.2019
4448 Clouds 23 1012 100 10000 0.5 190 11:21 09.11.2019
4449 Clouds 23 1012 100 8000 1 160 10:56 09.11.2019
4450 Clouds 22 1012 100 8000 1 160 10:38 09.11.2019
4451 Clouds 24 1012 100 8000 1 160 10:18 09.11.2019
4452 Clouds 24 1011 100 10000 2.1 150 09:43 09.11.2019
4453 Clouds 24 1011 100 10000 2.1 150 09:21 09.11.2019
4454 Clouds 24 1011 100 10000 1.5 160 08:53 09.11.2019
4455 Clouds 24 1011 100 10000 1.5 160 08:26 09.11.2019
4456 Clouds 24 1011 100 10000 1 170 07:57 09.11.2019
4457 Clouds 24 1011 100 10000 1 170 07:57 09.11.2019
4458 Clouds 24 1011 100 10000 1 170 07:39 09.11.2019
4459 Clouds 24 1011 100 10000 1 170 07:20 09.11.2019
4460 Clouds 24 1011 100 10000 1.5 180 06:46 09.11.2019
4461 Clouds 24 1011 100 10000 1.5 180 06:28 09.11.2019
4462 Clouds 24 1012 100 10000 2.1 180 05:40 09.11.2019
4463 Clouds 24 1012 100 9000 1.5 200 04:48 09.11.2019
4464 Clouds 24 1013 100 8000 2.1 160 02:57 09.11.2019
4465 Clouds 24 1013 100 8000 2.1 160 02:38 09.11.2019
4466 Clouds 25 1013 94 8000 2.6 120 01:40 09.11.2019
4467 Rain 24 1013 100 8000 2.6 160 00:46 09.11.2019
4468 Rain 24 1013 100 8000 2.6 160 00:27 09.11.2019
4469 Rain 24 1013 88 10000 2.1 100 23:42 08.11.2019
4470 Rain 24 1013 100 10000 2.6 130 23:23 08.11.2019
4471 Clouds 24 1012 100 10000 2.6 170 22:59 08.11.2019
4472 Clouds 24 1012 100 10000 2.6 170 22:41 08.11.2019
4473 Clouds 24 1012 100 10000 2.6 170 22:21 08.11.2019
4474 Rain 24 1011 100 10000 3.6 170 21:55 08.11.2019
4475 Rain 23 1011 100 10000 3.6 170 21:36 08.11.2019
4476 Rain 24 1011 100 10000 3.6 170 21:18 08.11.2019
4477 Clouds 24 1011 94 10000 4.6 170 20:41 08.11.2019
4478 Clouds 24 1011 94 10000 4.6 170 20:20 08.11.2019
4479 Clouds 24 1011 94 10000 5.7 160 19:58 08.11.2019
4480 Clouds 24 1011 94 10000 5.7 160 19:38 08.11.2019
4481 Clouds 24 1011 94 10000 5.7 160 19:38 08.11.2019
4482 Clouds 25 1011 94 10000 5.7 160 19:18 08.11.2019
4483 Clouds 25 1011 88 10000 6.2 160 18:55 08.11.2019
4484 Clouds 25 1011 88 10000 6.2 160 18:37 08.11.2019
4485 Clouds 26 1011 88 10000 6.2 160 18:19 08.11.2019
4486 Clouds 27 1011 88 10000 7.2 160 17:55 08.11.2019
4487 Clouds 26 1011 88 10000 7.2 160 17:36 08.11.2019
4488 Clouds 27 1011 88 10000 7.2 160 17:18 08.11.2019
4489 Clouds 27 1011 83 10000 7.2 160 16:57 08.11.2019
4490 Clouds 26 1011 83 10000 7.2 160 16:39 08.11.2019
4491 Clouds 27 1011 83 10000 7.2 160 16:19 08.11.2019
4492 Clouds 28 1011 78 10000 5.7 150 15:56 08.11.2019
4493 Clouds 26 1011 78 10000 5.7 150 15:38 08.11.2019
4494 Clouds 27 1011 78 10000 5.7 150 15:19 08.11.2019
4495 Clouds 27 1011 88 10000 4.1 150 14:55 08.11.2019
4496 Clouds 25 1011 88 10000 4.1 150 14:36 08.11.2019
4497 Clouds 26 1011 88 10000 4.1 150 14:36 08.11.2019
4498 Clouds 26 1011 88 10000 4.1 150 14:18 08.11.2019
4499 Clouds 25 1011 78 10000 0.5 270 13:43 08.11.2019
4500 Clouds 25 1011 78 10000 0.5 270 13:22 08.11.2019
4501 Clouds 25 1011 78 10000 0.5 270 13:22 08.11.2019
4502 Clouds 25 1011 88 10000 2.1 340 12:58 08.11.2019
4503 Clouds 25 1011 88 10000 2.1 340 12:39 08.11.2019
4504 Clouds 25 1011 88 10000 2.1 340 12:21 08.11.2019
4505 Clouds 25 1011 88 10000 3.1 10 11:55 08.11.2019
4506 Clouds 25 1011 88 10000 3.1 10 11:55 08.11.2019
4507 Clouds 24 1011 88 10000 3.1 10 11:37 08.11.2019
4508 Clouds 24 1011 88 10000 3.1 10 11:19 08.11.2019
4509 Clouds 23 1010 94 10000 1.5 20 10:43 08.11.2019
4510 Clouds 23 1010 94 10000 1.5 20 10:22 08.11.2019
4511 Clouds 22 1010 100 10000 2.1 70 09:59 08.11.2019
4512 Clouds 22 1010 100 10000 2.1 70 09:40 08.11.2019
4513 Clouds 22 1010 100 10000 2.1 70 09:20 08.11.2019
4514 Clouds 23 1010 88 10000 1 320 08:47 08.11.2019
4515 Clouds 23 1010 88 10000 1 320 08:29 08.11.2019
4516 Clouds 22 1009 94 10000 3.1 50 07:57 08.11.2019
4517 Clouds 22 1009 94 10000 3.1 50 07:39 08.11.2019
4518 Clouds 22 1009 94 10000 3.1 50 07:20 08.11.2019
4519 Clouds 23 1010 88 10000 2.1 40 06:40 08.11.2019
4520 Clouds 23 1010 88 10000 2.1 40 06:20 08.11.2019
4521 Clouds 23 1011 94 10000 2.1 30 05:40 08.11.2019
4522 Clouds 23 1012 94 10000 1.5 170 04:43 08.11.2019
4523 Clouds 23 1013 94 10000 1 160 03:44 08.11.2019
4524 Clouds 24 1013 94 10000 1 160 03:21 08.11.2019
4525 Clouds 24 1013 94 10000 2.6 160 02:41 08.11.2019
4526 Clouds 24 1013 88 10000 2.1 150 01:46 08.11.2019
4527 Clouds 24 1013 88 10000 2.1 150 01:22 08.11.2019
4528 Clouds 24 1012 94 10000 5.1 120 00:24 08.11.2019
4529 Clouds 24 1012 94 10000 3.6 130 23:58 07.11.2019
4530 Clouds 24 1012 94 10000 3.6 130 23:40 07.11.2019
4531 Clouds 24 1012 94 10000 3.6 130 23:21 07.11.2019
4532 Clouds 24 1011 94 10000 5.1 120 22:42 07.11.2019
4533 Clouds 24 1011 94 10000 5.1 120 22:22 07.11.2019
4534 Clouds 24 1011 94 10000 5.1 120 22:22 07.11.2019
4535 Clouds 25 1011 83 10000 5.7 110 21:56 07.11.2019
4536 Clouds 24 1011 83 10000 5.7 110 21:37 07.11.2019
4537 Clouds 25 1011 83 10000 5.7 110 21:19 07.11.2019
4538 Clouds 26 1011 83 10000 5.1 140 20:58 07.11.2019
4539 Clouds 26 1011 83 10000 5.1 140 20:39 07.11.2019
4540 Clouds 26 1011 83 10000 5.1 140 20:21 07.11.2019
4541 Clouds 26 1011 88 10000 3.6 130 19:56 07.11.2019
4542 Clouds 24 1011 88 10000 3.6 130 19:37 07.11.2019
4543 Clouds 26 1011 88 10000 3.6 130 19:18 07.11.2019
4544 Clouds 27 1012 83 10000 3.6 160 18:55 07.11.2019
4545 Clouds 25 1012 83 10000 3.6 160 18:37 07.11.2019
4546 Clouds 27 1012 83 10000 3.6 160 18:19 07.11.2019
4547 Clouds 27 1012 74 10000 5.1 160 17:40 07.11.2019
4548 Clouds 27 1013 78 10000 5.1 160 17:22 07.11.2019
4549 Clouds 27 1013 78 10000 5.1 160 16:58 07.11.2019
4550 Clouds 27 1013 78 10000 5.1 160 16:40 07.11.2019
4551 Clouds 27 1013 78 10000 5.1 160 16:20 07.11.2019
4552 Clouds 27 1014 78 10000 3.6 150 15:58 07.11.2019
4553 Clouds 27 1014 78 10000 3.6 150 15:39 07.11.2019
4554 Clouds 27 1014 78 10000 3.6 150 15:19 07.11.2019
4555 Clouds 25 1014 83 10000 1 150 14:45 07.11.2019
4556 Clouds 25 1014 83 10000 1 150 14:27 07.11.2019
4557 Clouds 24 1015 88 9000 2.1 360 13:57 07.11.2019
4558 Clouds 25 1015 88 9000 2.1 360 13:39 07.11.2019
4559 Clouds 25 1015 88 9000 2.1 360 13:21 07.11.2019
4560 Clouds 24 1016 94 9000 3.1 360 12:59 07.11.2019
4561 Clouds 24 1016 94 9000 3.1 360 12:41 07.11.2019
4562 Clouds 24 1016 94 9000 3.1 360 12:22 07.11.2019
4563 Clouds 24 1016 94 9000 3.1 360 12:22 07.11.2019
4564 Clouds 23 1015 88 9000 1 160 11:59 07.11.2019
4565 Clouds 23 1015 88 9000 1 160 11:40 07.11.2019
4566 Clouds 23 1015 88 9000 1 160 11:22 07.11.2019
4567 Rain 22 1015 94 8000 1.5 170 10:42 07.11.2019
4568 Clouds 22 1015 88 6000 1.5 300 10:19 07.11.2019
4569 Clouds 22 1014 88 6000 2.6 190 09:45 07.11.2019
4570 -273 0 0 0 0 0 09:25 07.11.2019
4571 -273 0 0 0 0 0 08:59 07.11.2019
4572 -273 0 0 0 0 0 08:59 07.11.2019
4573 Clouds 22 1014 88 6000 2.6 180 08:40 07.11.2019
4574 Clouds 22 1014 88 6000 2.6 180 08:22 07.11.2019
4575 Clouds 22 1014 88 6000 2.1 180 07:56 07.11.2019
4576 Clouds 22 1014 88 6000 2.1 180 07:37 07.11.2019
4577 Clouds 23 1014 94 8000 2.6 170 07:18 07.11.2019
4578 Clouds 23 1014 94 8000 2.6 170 06:41 07.11.2019
4579 Clouds 23 1014 94 8000 2.6 170 06:41 07.11.2019
4580 Clouds 23 1014 94 8000 2.6 170 06:22 07.11.2019
4581 Clouds 23 1015 94 8000 2.6 170 05:47 07.11.2019
4582 Clouds 23 1015 94 8000 2.6 170 05:29 07.11.2019
4583 Clouds 23 1016 94 10000 2.6 180 04:49 07.11.2019
4584 Clouds 22 1016 94 10000 2.6 180 04:27 07.11.2019
4585 Rain 23 1016 94 9000 4.1 190 01:18 07.11.2019
4586 Rain 23 1016 94 9000 5.1 190 00:26 07.11.2019
4587 Clouds 23 1016 94 9000 4.1 180 23:50 06.11.2019
4588 Clouds 23 1016 94 9000 4.1 180 23:23 06.11.2019
4589 Clouds 23 1016 78 8000 2.1 120 22:59 06.11.2019
4590 Clouds 23 1016 100 9000 4.1 180 22:39 06.11.2019
4591 Clouds 23 1016 100 9000 4.1 180 22:20 06.11.2019
4592 Clouds 24 1015 83 9000 4.1 170 21:57 06.11.2019
4593 Clouds 24 1015 83 9000 4.1 170 21:39 06.11.2019
4594 Clouds 24 1015 83 9000 4.1 170 21:39 06.11.2019
4595 Clouds 24 1015 88 7000 5.7 180 21:19 06.11.2019
4596 Clouds 24 1015 88 7000 5.7 180 20:56 06.11.2019
4597 Clouds 24 1015 88 7000 5.7 180 20:38 06.11.2019
4598 Clouds 24 1015 88 7000 5.7 180 20:19 06.11.2019
4599 Clouds 25 1015 83 9000 5.7 180 19:56 06.11.2019
4600 Clouds 25 1015 83 9000 5.7 180 19:36 06.11.2019
4601 Clouds 25 1015 65 9000 5.7 210 19:18 06.11.2019
4602 Clouds 25 1015 83 9000 5.1 180 18:54 06.11.2019
4603 Clouds 26 1015 83 9000 5.1 180 18:36 06.11.2019
4604 Clouds 25 1015 83 9000 5.1 180 18:18 06.11.2019
4605 Clouds 26 1015 88 9000 6.2 190 17:41 06.11.2019
4606 Clouds 25 1015 88 9000 6.2 190 17:23 06.11.2019
4607 Clouds 25 1015 88 9000 3.6 210 16:57 06.11.2019
4608 Clouds 24 1015 88 9000 3.6 210 16:39 06.11.2019
4609 Clouds 24 1015 88 9000 3.6 210 16:20 06.11.2019
4610 Drizzle 24 1015 100 5000 5.7 180 15:57 06.11.2019
4611 Drizzle 24 1015 100 5000 5.7 180 15:37 06.11.2019
4612 Drizzle 25 1015 100 5000 5.7 180 15:19 06.11.2019
4613 Drizzle 25 1015 100 5000 5.7 180 15:19 06.11.2019
4614 Rain 25 1015 100 4000 4.1 190 14:57 06.11.2019
4615 Rain 25 1015 100 4000 4.1 190 14:39 06.11.2019
4616 Rain 26 1015 100 4000 4.1 190 14:20 06.11.2019
4617 Drizzle 26 1015 83 8000 4.1 200 13:58 06.11.2019
4618 Drizzle 26 1015 83 8000 4.1 200 13:37 06.11.2019
4619 Drizzle 26 1015 83 8000 4.1 200 13:18 06.11.2019
4620 Clouds 26 1014 78 10000 5.1 190 12:55 06.11.2019
4621 Clouds 27 1014 78 10000 5.1 190 12:37 06.11.2019
4622 Clouds 26 1014 78 10000 5.1 190 12:18 06.11.2019
4623 Clouds 26 1014 78 10000 4.6 200 11:55 06.11.2019
4624 Clouds 26 1014 78 10000 4.6 200 11:36 06.11.2019
4625 Clouds 26 1014 78 10000 4.6 200 11:18 06.11.2019
4626 Clouds 25 1013 83 10000 2.1 170 10:42 06.11.2019
4627 Clouds 25 1013 83 10000 2.1 170 10:24 06.11.2019
4628 Clouds 25 1013 78 10000 1.5 300 09:58 06.11.2019
4629 Clouds 25 1013 78 10000 1.5 300 09:58 06.11.2019
4630 Clouds 25 1013 78 10000 1.5 300 09:58 06.11.2019
4631 Clouds 25 1013 78 10000 1.5 300 09:40 06.11.2019
4632 Clouds 25 1013 78 10000 1.5 300 09:20 06.11.2019
4633 Clouds 25 1012 83 10000 2.1 250 08:56 06.11.2019
4634 Clouds 25 1012 83 10000 2.1 250 08:37 06.11.2019
4635 Clouds 25 1012 83 10000 2.1 250 08:18 06.11.2019
4636 Clouds 25 1012 83 10000 2.1 190 07:45 06.11.2019
4637 Clouds 26 1012 83 10000 2.1 190 07:27 06.11.2019
4638 Clouds 26 1012 78 10000 4.6 200 06:53 06.11.2019
4639 Clouds 26 1012 78 10000 4.6 200 06:34 06.11.2019
4640 Clouds 26 1013 78 10000 6.2 210 05:51 06.11.2019
4641 Clouds 28 1013 70 10000 5.1 200 03:39 06.11.2019
4642 Clouds 27 1013 83 10000 2.1 80 01:59 06.11.2019
4643 Clouds 27 1012 74 10000 2.1 150 00:48 06.11.2019
4644 Clouds 27 1012 74 10000 2.1 150 00:48 06.11.2019
4645 Clouds 27 1012 74 10000 2.1 150 00:26 06.11.2019
4646 Thunderstorm 28 1010 70 10000 4.1 190 23:56 05.11.2019
4647 Thunderstorm 28 1010 70 10000 4.1 190 23:37 05.11.2019
4648 Thunderstorm 28 1010 70 10000 4.1 190 23:18 05.11.2019
4649 Thunderstorm 28 1010 70 10000 4.1 190 23:18 05.11.2019
4650 Clouds 28 1009 78 10000 8.7 180 22:41 05.11.2019
4651 Clouds 28 1009 78 10000 8.7 180 22:19 05.11.2019
4652 Clouds 29 1007 74 10000 9.3 160 21:55 05.11.2019
4653 Clouds 29 1007 74 10000 9.3 160 21:55 05.11.2019
4654 Clouds 31 1007 74 10000 9.3 160 21:37 05.11.2019
4655 Clouds 31 1007 74 10000 9.3 160 21:19 05.11.2019
4656 Clouds 31 1006 70 10000 6.7 160 20:56 05.11.2019
4657 Clouds 32 1006 70 10000 6.7 160 20:38 05.11.2019
4658 Clouds 35 1005 62 10000 7.2 170 20:19 05.11.2019
4659 Clouds 35 1005 62 10000 7.2 170 19:42 05.11.2019
4660 Clouds 34 1005 62 10000 7.2 170 19:23 05.11.2019
4661 Clouds 35 1006 66 10000 6.2 160 18:59 05.11.2019
4662 Clouds 35 1006 66 10000 6.2 160 18:40 05.11.2019
4663 Clouds 35 1006 66 10000 6.2 160 18:22 05.11.2019
4664 Clouds 35 1006 74 10000 5.1 160 17:59 05.11.2019
4665 Clouds 35 1006 74 10000 5.1 160 17:39 05.11.2019
4666 Clouds 35 1006 74 10000 5.1 160 17:21 05.11.2019
4667 Clouds 35 1007 70 10000 6.2 150 16:59 05.11.2019
4668 Clouds 36 1007 70 10000 6.2 150 16:41 05.11.2019
4669 Clouds 35 1007 70 10000 6.2 150 16:20 05.11.2019
4670 Clouds 35 1007 70 10000 5.1 150 15:41 05.11.2019
4671 Clouds 34 1007 70 10000 5.1 150 15:20 05.11.2019
4672 Clouds 33 1008 74 10000 4.6 140 14:59 05.11.2019
4673 Clouds 32 1008 70 9000 2.1 20 14:41 05.11.2019
4674 Clouds 32 1008 70 9000 2.1 20 14:22 05.11.2019
4675 Clouds 32 1008 74 7000 2.6 40 13:58 05.11.2019
4676 Clouds 32 1008 74 7000 2.6 40 13:40 05.11.2019
4677 Clouds 31 1008 74 7000 2.6 40 13:22 05.11.2019
4678 Clouds 29 1008 74 7000 3.6 340 12:41 05.11.2019
4679 Clouds 28 1008 74 7000 3.6 340 12:22 05.11.2019
4680 Clouds 27 1008 78 7000 1.03 18 11:57 05.11.2019
4681 Clouds 25 1008 78 7000 1.03 18 11:38 05.11.2019
4682 Clouds 25 1008 78 7000 2.94 336 11:20 05.11.2019
4683 Clouds 23 1008 94 10000 1 120 10:55 05.11.2019
4684 Clouds 24 1008 94 10000 1 120 10:37 05.11.2019
4685 Clouds 24 1008 94 10000 1 120 10:18 05.11.2019
4686 Clouds 24 1007 100 10000 0.5 60 09:54 05.11.2019
4687 Clouds 24 1007 100 10000 0.5 60 09:36 05.11.2019
4688 Clouds 24 1007 100 10000 0.5 60 09:18 05.11.2019
4689 Clouds 24 1007 100 10000 0.5 30 08:38 05.11.2019
4690 Clouds 24 1007 100 10000 0.5 30 08:19 05.11.2019
4691 Clouds 24 1007 100 10000 3.1 340 07:55 05.11.2019
4692 Clouds 24 1007 100 10000 3.1 340 07:37 05.11.2019
4693 Clouds 24 1007 100 10000 3.1 340 07:19 05.11.2019
4694 Clouds 24 1007 94 10000 1.5 310 06:43 05.11.2019
4695 Clouds 24 1007 94 10000 1.5 310 06:43 05.11.2019
4696 Clouds 25 1007 94 10000 2.1 120 05:51 05.11.2019
4697 Clear 25 1007 94 10000 2.1 120 05:22 05.11.2019
4698 Clear 25 1008 78 10000 1 0 04:24 05.11.2019
4699 Clear 25 1008 94 10000 0.5 360 03:33 05.11.2019
4700 Clear 25 1009 94 10000 1 190 02:43 05.11.2019
4701 Clear 25 1008 83 10000 3.1 180 01:57 05.11.2019
4702 Clear 25 1008 83 10000 4.1 180 00:49 05.11.2019
4703 Clear 26 1008 83 10000 4.1 180 00:27 05.11.2019
4704 Clear 26 1007 88 10000 4.6 190 23:54 04.11.2019
4705 Clear 26 1007 88 10000 4.6 190 23:36 04.11.2019
4706 Clear 26 1007 88 10000 4.6 190 23:18 04.11.2019
4707 Clear 26 1007 94 10000 6.2 170 22:40 04.11.2019
4708 Clear 27 1007 94 10000 6.2 170 22:22 04.11.2019
4709 Clouds 27 1007 88 10000 7.2 170 21:56 04.11.2019
4710 Clouds 27 1007 88 10000 7.2 170 21:37 04.11.2019
4711 Clouds 28 1007 88 10000 7.2 170 21:19 04.11.2019
4712 Clouds 28 1007 83 10000 7.2 170 20:58 04.11.2019
4713 Clouds 28 1007 83 10000 7.2 170 20:39 04.11.2019
4714 Clouds 29 1007 83 10000 7.2 170 20:21 04.11.2019
4715 Clouds 29 1007 78 10000 7.7 160 19:58 04.11.2019
4716 Clouds 29 1007 78 10000 7.7 160 19:40 04.11.2019
4717 Clouds 30 1007 78 10000 7.7 160 19:21 04.11.2019
4718 Clouds 30 1007 78 10000 7.2 160 18:57 04.11.2019
4719 Clouds 30 1007 78 10000 7.2 160 18:38 04.11.2019
4720 Clouds 30 1007 78 10000 7.2 160 18:19 04.11.2019
4721 Clouds 30 1008 74 10000 7.7 150 17:39 04.11.2019
4722 Clouds 30 1008 74 10000 7.7 150 17:39 04.11.2019
4723 Clear 30 1008 74 10000 7.7 150 17:21 04.11.2019
4724 Clear 30 1009 74 10000 4.6 150 16:57 04.11.2019
4725 Clear 30 1009 74 10000 4.6 150 16:39 04.11.2019
4726 Clear 30 1009 74 10000 4.6 150 16:20 04.11.2019
4727 Clear 29 1009 74 10000 4.1 150 15:55 04.11.2019
4728 Clear 29 1009 74 10000 4.1 150 15:36 04.11.2019
4729 Clear 29 1009 74 10000 4.1 150 15:18 04.11.2019
4730 Clear 29 1010 74 10000 5.1 150 14:41 04.11.2019
4731 Clouds 29 1010 74 10000 5.1 150 14:21 04.11.2019
4732 Clouds 29 1010 70 10000 3.6 170 13:59 04.11.2019
4733 Clouds 29 1010 70 10000 3.6 170 13:41 04.11.2019
4734 Clouds 28 1010 70 10000 3.6 170 13:22 04.11.2019
4735 Clouds 28 1010 69 10000 3.1 160 12:59 04.11.2019
4736 Clouds 27 1010 69 10000 3.1 160 12:41 04.11.2019
4737 Clouds 26 1010 69 10000 3.1 160 12:22 04.11.2019
4738 Clouds 26 1010 74 10000 2.6 180 11:57 04.11.2019
4739 Clouds 27 1010 78 10000 2.6 40 11:38 04.11.2019
4740 Clouds 24 1010 78 10000 2.6 40 11:20 04.11.2019
4741 Clouds 24 1009 88 10000 3.1 330 10:44 04.11.2019
4742 Clouds 23 1009 88 10000 3.1 330 10:25 04.11.2019
4743 Clouds 25 1009 88 10000 5.29 252 09:54 04.11.2019
4744 Clouds 25 1009 88 10000 5.29 252 09:36 04.11.2019
4745 Clouds 25 1009 88 10000 5.29 252 09:18 04.11.2019
4746 Clouds 24 1008 100 10000 4.1 140 08:41 04.11.2019
4747 Clear 24 1008 100 10000 4.1 140 08:21 04.11.2019
4748 Clear 25 1008 100 10000 2.1 150 07:45 04.11.2019
4749 Clear 25 1008 100 10000 2.1 150 07:25 04.11.2019
4750 Clouds 25 1008 94 10000 1 150 06:59 04.11.2019
4751 Clouds 25 1008 94 10000 1 150 06:36 04.11.2019
4752 Clear 25 1008 94 10000 1.5 150 05:59 04.11.2019
4753 Clear 25 1008 94 10000 1.5 160 04:50 04.11.2019
4754 Clear 25 1008 94 10000 1.5 160 04:25 04.11.2019
4755 Clear 25 1008 94 10000 1.5 140 03:23 04.11.2019
4756 Clear 26 1008 88 10000 1 130 01:23 04.11.2019
4757 Clouds 27 1007 62 10000 4.6 190 00:52 04.11.2019
4758 Clouds 27 1007 62 10000 4.6 190 00:21 04.11.2019
4759 Clouds 27 1007 65 10000 4.1 180 23:58 03.11.2019
4760 Clouds 27 1007 65 10000 4.1 180 23:37 03.11.2019
4761 Clouds 27 1007 65 10000 4.1 180 23:18 03.11.2019
4762 Clouds 27 1007 65 10000 4.1 180 23:18 03.11.2019
4763 Clouds 27 1007 65 10000 4.1 180 23:18 03.11.2019
4764 Clouds 28 1006 62 10000 6.7 180 22:56 03.11.2019
4765 Clouds 28 1006 62 10000 6.7 180 22:38 03.11.2019
4766 Clouds 29 1006 62 10000 6.7 180 22:18 03.11.2019
4767 Clouds 29 1006 66 10000 6.2 170 21:42 03.11.2019
4768 Clouds 30 1006 55 10000 5.7 130 21:21 03.11.2019
4769 Clouds 31 1006 66 10000 5.7 170 20:57 03.11.2019
4770 Clouds 29 1005 49 10000 6.2 130 20:37 03.11.2019
4771 Clouds 32 1005 49 10000 6.2 130 20:19 03.11.2019
4772 Clouds 33 1006 58 10000 6.7 160 19:57 03.11.2019
4773 Clouds 33 1006 58 10000 6.7 160 19:38 03.11.2019
4774 Clear 33 1006 34 10000 5.1 50 19:20 03.11.2019
4775 Clouds 33 1006 52 10000 4.1 160 18:55 03.11.2019
4776 Clear 30 1006 36 10000 3.6 30 18:36 03.11.2019
4777 Clear 35 1006 36 10000 3.6 30 18:18 03.11.2019
4778 Clear 35 1006 55 10000 4.1 30 17:42 03.11.2019
4779 Clear 34 1006 55 10000 4.1 30 17:20 03.11.2019
4780 Clear 34 1007 55 10000 5.1 30 16:57 03.11.2019
4781 Clear 32 1007 55 10000 5.1 30 16:39 03.11.2019
4782 Clear 33 1007 55 10000 5.1 30 16:21 03.11.2019
4783 Clear 33 1008 70 10000 3.6 20 15:57 03.11.2019
4784 Clear 33 1008 70 10000 3.6 20 15:39 03.11.2019
4785 Clear 33 1008 70 10000 3.6 20 15:39 03.11.2019
4786 Clear 32 1008 70 10000 3.6 20 15:21 03.11.2019
4787 Clear 32 1009 70 10000 3.1 10 14:42 03.11.2019
4788 Clouds 31 1009 70 10000 3.1 10 14:20 03.11.2019
4789 Clouds 30 1010 66 10000 3.1 360 13:59 03.11.2019
4790 Clouds 30 1010 66 10000 3.1 360 13:40 03.11.2019
4791 Clouds 29 1010 66 10000 3.1 360 13:18 03.11.2019
4792 Clouds 27 1010 74 10000 2.6 10 12:54 03.11.2019
4793 Clouds 26 1010 74 10000 2.6 10 12:36 03.11.2019
4794 Clouds 25 1010 83 10000 2.1 350 12:18 03.11.2019
4795 Clouds 25 1010 83 10000 2.1 350 11:42 03.11.2019
4796 Clouds 23 1010 83 10000 2.1 350 11:21 03.11.2019
4797 Clouds 23 1010 88 10000 1.5 330 10:55 03.11.2019
4798 Clouds 22 1010 88 10000 1.5 330 10:37 03.11.2019
4799 Clouds 23 1010 88 10000 1.5 330 10:18 03.11.2019
4800 Clouds 22 1009 88 10000 1 330 09:43 03.11.2019
4801 Clouds 22 1009 88 10000 1 330 09:43 03.11.2019
4802 Clouds 21 1009 88 10000 1 330 09:24 03.11.2019
4803 Clouds 21 1010 88 10000 1 10 08:56 03.11.2019
4804 Clear 20 1010 88 10000 1 10 08:37 03.11.2019
4805 Clear 21 1010 88 10000 1 10 08:19 03.11.2019
4806 Clear 21 1010 94 10000 1 350 07:45 03.11.2019
4807 Clear 21 1010 94 10000 1 350 07:45 03.11.2019
4808 Clear 21 1010 94 10000 1 350 07:22 03.11.2019
4809 Clear 20 1011 94 10000 1.5 70 06:39 03.11.2019
4810 Clouds 22 1011 88 10000 1.5 100 05:54 03.11.2019
4811 Clouds 22 1011 88 10000 1.5 100 05:34 03.11.2019
4812 Clouds 22 1012 94 10000 1.5 100 04:53 03.11.2019
4813 Clouds 23 1012 94 10000 1.5 100 04:26 03.11.2019
4814 Clouds 23 1013 94 10000 2.1 50 03:23 03.11.2019
4815 Clouds 25 1013 83 10000 1.5 50 02:29 03.11.2019
4816 Clouds 25 1013 88 10000 3.1 60 01:57 03.11.2019
4817 Clouds 23 1013 88 10000 3.1 60 01:36 03.11.2019
4818 Clouds 24 1013 88 10000 3.1 60 01:18 03.11.2019
4819 Clouds 23 1013 83 10000 3.6 80 00:40 03.11.2019
4820 Clouds 26 1013 83 10000 3.6 80 00:21 03.11.2019
4821 Clouds 26 1013 78 10000 3.1 70 23:56 02.11.2019
4822 Clouds 27 1013 78 10000 3.1 70 23:36 02.11.2019
4823 Clouds 27 1013 78 10000 3.1 70 23:18 02.11.2019
4824 Clouds 27 1012 78 10000 5.7 60 22:54 02.11.2019
4825 Clouds 28 1012 78 10000 5.7 60 22:36 02.11.2019
4826 Clouds 28 1012 78 10000 5.7 60 22:18 02.11.2019
4827 Clouds 28 1012 78 10000 5.7 60 22:18 02.11.2019
4828 Clouds 29 1012 74 10000 6.7 60 21:55 02.11.2019
4829 Clouds 30 1012 78 10000 5.1 110 21:36 02.11.2019
4830 Clouds 29 1012 78 10000 5.1 110 21:18 02.11.2019
4831 Clouds 29 1012 78 10000 5.1 110 21:18 02.11.2019
4832 Clouds 30 1012 70 10000 5.1 130 20:56 02.11.2019
4833 Clouds 30 1012 70 10000 5.1 130 20:56 02.11.2019
4834 Clouds 28 1012 70 10000 5.1 130 20:38 02.11.2019
4835 Clouds 30 1012 70 10000 5.1 130 20:18 02.11.2019
4836 Clouds 28 1011 74 10000 4.1 150 19:40 02.11.2019
4837 Clouds 30 1011 74 10000 4.1 150 19:21 02.11.2019
4838 Clouds 30 1012 74 10000 4.6 160 18:56 02.11.2019
4839 Clouds 28 1012 74 10000 4.6 160 18:37 02.11.2019
4840 Clouds 30 1012 74 10000 4.6 160 18:19 02.11.2019
4841 Clouds 29 1014 70 10000 4.1 150 17:56 02.11.2019
4842 Clouds 30 1014 70 10000 4.1 150 17:37 02.11.2019
4843 Clouds 29 1014 70 10000 4.1 150 17:19 02.11.2019
4844 Clouds 29 1015 83 10000 4.6 170 16:56 02.11.2019
4845 Clouds 27 1015 83 10000 4.6 170 16:36 02.11.2019
4846 Clouds 29 1015 83 10000 4.6 170 16:18 02.11.2019
4847 Clouds 29 1015 83 10000 4.6 170 16:18 02.11.2019
4848 Clouds 28 1016 83 10000 2.1 140 15:41 02.11.2019
4849 Clouds 28 1016 83 10000 2.1 140 15:19 02.11.2019
4850 Clouds 27 1017 78 10000 3.1 90 14:42 02.11.2019
4851 Clouds 27 1017 78 10000 3.1 90 14:23 02.11.2019
4852 Clouds 27 1017 83 10000 2.1 180 13:57 02.11.2019
4853 Clouds 26 1017 83 10000 2.1 180 13:38 02.11.2019
4854 Clouds 26 1017 83 10000 2.1 180 13:18 02.11.2019
4855 Clouds 25 1017 88 10000 2.6 140 12:41 02.11.2019
4856 Clouds 25 1017 88 10000 2.6 140 12:22 02.11.2019
4857 Clouds 25 1017 88 10000 2.6 140 12:22 02.11.2019
4858 Clouds 25 1017 88 10000 2.6 140 12:22 02.11.2019
4859 Clouds 24 1017 88 10000 2.6 80 11:57 02.11.2019
4860 Clouds 24 1017 88 10000 2.6 80 11:39 02.11.2019
4861 Clouds 23 1017 88 10000 2.6 80 11:20 02.11.2019
4862 Clouds 22 1017 94 10000 4.1 70 10:48 02.11.2019
4863 Clouds 21 1017 94 10000 4.1 70 10:28 02.11.2019
4864 Clouds 22 1016 100 10000 3.1 120 09:58 02.11.2019
4865 Clouds 21 1016 100 10000 3.1 120 09:39 02.11.2019
4866 Clouds 22 1016 100 10000 3.1 120 09:19 02.11.2019
4867 Clouds 22 1015 100 10000 3.1 130 08:46 02.11.2019
4868 Clouds 22 1015 100 10000 3.1 130 08:22 02.11.2019
4869 Clouds 22 1015 94 10000 2.1 150 07:50 02.11.2019
4870 Clouds 22 1015 94 10000 2.1 150 07:32 02.11.2019
4871 Clouds 23 1016 94 10000 2.1 160 06:58 02.11.2019
4872 Clouds 23 1016 94 10000 2.1 160 06:39 02.11.2019
4873 Clouds 22 1016 94 10000 2.6 160 05:59 02.11.2019
4874 Clouds 23 1016 94 10000 2.6 160 05:25 02.11.2019
4875 Clouds 23 1016 94 10000 1.5 140 04:23 02.11.2019
4876 Clouds 23 1017 100 10000 2.6 170 03:50 02.11.2019
4877 Rain 25 1017 100 10000 2.6 170 02:44 02.11.2019
4878 Rain 25 1017 100 6000 2.1 170 01:57 02.11.2019
4879 Clouds 25 1017 100 10000 2.6 160 01:25 02.11.2019
4880 Clouds 25 1016 100 10000 4.6 170 00:54 02.11.2019
4881 Clouds 25 1016 100 10000 4.6 170 00:27 02.11.2019
4882 Clouds 25 1016 100 10000 3.6 160 23:48 01.11.2019
4883 Clouds 26 1016 100 10000 3.6 160 23:23 01.11.2019
4884 Clouds 26 1016 100 10000 4.1 160 22:59 01.11.2019
4885 Clouds 23 1016 94 10000 5.1 160 22:40 01.11.2019
4886 Clouds 26 1016 94 10000 5.1 160 22:20 01.11.2019
4887 Clouds 25 1015 88 10000 5.1 160 21:42 01.11.2019
4888 Clouds 27 1015 88 10000 5.1 160 21:23 01.11.2019
4889 Clouds 27 1015 78 10000 6.7 170 20:58 01.11.2019
4890 Clouds 27 1015 78 10000 6.7 170 20:40 01.11.2019
4891 Clouds 27 1015 78 10000 6.7 170 20:20 01.11.2019
4892 Clouds 27 1015 74 10000 6.7 170 19:56 01.11.2019
4893 Clouds 27 1015 74 10000 6.7 170 19:38 01.11.2019
4894 Clouds 28 1015 74 10000 6.7 170 19:20 01.11.2019
4895 Clouds 28 1015 70 10000 6.7 170 18:40 01.11.2019
4896 Clouds 29 1015 70 10000 6.7 170 18:21 01.11.2019
4897 Clouds 28 1016 66 10000 7.2 170 17:56 01.11.2019
4898 Clouds 27 1016 66 10000 7.2 170 17:38 01.11.2019
4899 Clouds 29 1016 66 10000 7.2 170 17:19 01.11.2019
4900 Clouds 28 1016 62 10000 7.2 160 16:38 01.11.2019
4901 Clouds 28 1016 62 10000 7.2 160 16:20 01.11.2019
4902 Clouds 28 1016 78 10000 3.6 140 15:55 01.11.2019
4903 Clouds 26 1016 78 10000 3.6 140 15:37 01.11.2019
4904 Clouds 27 1016 78 10000 3.6 140 15:19 01.11.2019
4905 Clouds 28 1017 74 10000 5.1 170 14:42 01.11.2019
4906 Clouds 27 1017 74 10000 5.1 170 14:24 01.11.2019
4907 Clouds 27 1017 78 10000 4.6 160 13:57 01.11.2019
4908 Clouds 26 1017 78 10000 4.6 160 13:39 01.11.2019
4909 Clouds 26 1017 78 10000 4.6 160 13:20 01.11.2019
4910 Clouds 26 1016 83 10000 5.1 170 12:43 01.11.2019
4911 Clouds 26 1016 83 10000 5.1 170 12:25 01.11.2019
4912 Clouds 26 1016 83 10000 4.1 180 11:59 01.11.2019
4913 Clouds 26 1016 83 10000 4.1 180 11:40 01.11.2019
4914 Clouds 25 1016 83 10000 4.1 180 11:22 01.11.2019
4915 Clouds 25 1015 88 10000 3.1 180 10:42 01.11.2019
4916 Clouds 23 1015 88 10000 3.1 180 10:22 01.11.2019
4917 Clouds 23 1014 94 10000 3.6 190 09:57 01.11.2019
4918 Clouds 22 1014 94 10000 3.6 190 09:39 01.11.2019
4919 Clouds 22 1014 94 10000 3.6 190 09:20 01.11.2019
4920 Clouds 23 1014 94 10000 4.1 180 08:44 01.11.2019
4921 Clouds 23 1014 94 10000 4.1 180 08:22 01.11.2019
4922 Clouds 23 1013 88 10000 1.5 320 07:56 01.11.2019
4923 Clouds 23 1013 88 10000 1.5 320 07:37 01.11.2019
4924 Clouds 23 1013 88 10000 1.5 320 07:19 01.11.2019
4925 Clouds 23 1013 94 10000 2.6 50 06:46 01.11.2019
4926 Clouds 24 1013 94 10000 2.6 50 06:22 01.11.2019
4927 Clouds 24 1014 94 10000 2.1 40 05:43 01.11.2019
4928 Clouds 24 1015 83 10000 5.1 200 03:57 01.11.2019
4929 Clouds 25 1015 83 10000 3.1 170 02:49 01.11.2019
4930 Clouds 25 1015 83 10000 3.1 170 02:49 01.11.2019
4931 Clouds 26 1015 78 10000 4.1 170 01:35 01.11.2019
4932 Clouds 26 1014 83 10000 4.1 180 00:42 01.11.2019
4933 Clouds 26 1014 83 10000 4.1 180 00:18 01.11.2019
4934 Clouds 27 1013 69 10000 4.1 190 23:43 31.10.2019
4935 Clouds 26 1013 69 10000 4.1 190 23:23 31.10.2019
4936 Clouds 27 1012 69 10000 4.6 200 22:57 31.10.2019
4937 Clouds 26 1012 69 10000 4.6 200 22:39 31.10.2019
4938 Clouds 28 1012 69 10000 4.6 200 22:20 31.10.2019
4939 Clouds 28 1012 66 10000 5.7 190 21:44 31.10.2019
4940 Clouds 29 1012 66 10000 5.7 190 21:21 31.10.2019
4941 Clouds 29 1011 62 10000 6.2 190 20:57 31.10.2019
4942 Clouds 28 1011 62 10000 6.2 190 20:39 31.10.2019
4943 Clouds 30 1011 62 10000 6.2 190 20:20 31.10.2019
4944 Clouds 29 1011 66 9000 6.7 190 19:42 31.10.2019
4945 Clouds 29 1011 66 9000 6.7 190 19:22 31.10.2019
4946 Clouds 29 1012 66 9000 5.7 200 18:57 31.10.2019
4947 Clouds 29 1012 66 9000 5.7 200 18:57 31.10.2019
4948 Clouds 30 1012 66 9000 5.7 200 18:39 31.10.2019
4949 Clouds 28 1012 66 9000 5.7 200 18:20 31.10.2019
4950 Clouds 29 1013 70 8000 6.7 190 17:42 31.10.2019
4951 Clouds 29 1013 70 8000 6.7 190 17:42 31.10.2019
4952 Clouds 30 1013 70 8000 6.7 190 17:22 31.10.2019
4953 Clouds 30 1013 70 8000 9.8 180 16:59 31.10.2019
4954 Clouds 30 1013 74 8000 3.1 140 16:40 31.10.2019
4955 Clouds 31 1013 74 8000 3.1 140 16:20 31.10.2019
4956 Clouds 31 1013 83 8000 2.1 120 15:56 31.10.2019
4957 Clouds 30 1013 83 8000 2.1 120 15:38 31.10.2019
4958 Clouds 29 1013 83 8000 2.1 120 15:19 31.10.2019
4959 Clouds 29 1014 83 8000 2.6 140 14:56 31.10.2019
4960 Clouds 29 1014 88 8000 2.6 360 14:38 31.10.2019
4961 Clouds 29 1014 88 8000 2.6 360 14:20 31.10.2019
4962 Clouds 30 1014 88 8000 2.1 360 13:55 31.10.2019
4963 Clouds 28 1014 88 8000 2.1 360 13:37 31.10.2019
4964 Clouds 28 1014 88 8000 2.1 360 13:19 31.10.2019
4965 Clouds 27 1014 94 9000 1.5 360 12:43 31.10.2019
4966 Clouds 27 1014 94 9000 1.5 360 12:24 31.10.2019
4967 Clouds 27 1014 88 10000 1 70 11:58 31.10.2019
4968 Clouds 27 1014 88 10000 1 70 11:40 31.10.2019
4969 Clouds 24 1014 88 10000 1 70 11:19 31.10.2019
4970 Clouds 24 1012 100 10000 0.5 350 10:57 31.10.2019
4971 Clouds 24 1012 100 10000 0.5 350 10:38 31.10.2019
4972 Clouds 24 1012 100 10000 0.5 350 10:19 31.10.2019
4973 Clouds 23 1012 100 10000 1 330 09:43 31.10.2019
4974 Clouds 23 1012 100 10000 1 330 09:19 31.10.2019
4975 Clouds 23 1011 100 10000 1.5 320 08:55 31.10.2019
4976 Clouds 22 1011 100 10000 1.5 320 08:36 31.10.2019
4977 Clouds 22 1011 100 10000 1.5 320 08:18 31.10.2019
4978 Clouds 23 1011 94 10000 1.5 310 07:42 31.10.2019
4979 Clouds 23 1011 94 10000 1.5 310 07:42 31.10.2019
4980 Clouds 23 1011 94 10000 1.5 310 07:23 31.10.2019
4981 Clouds 24 1011 100 10000 1.5 340 06:39 31.10.2019
4982 Clouds 23 1011 100 10000 1.5 340 06:20 31.10.2019
4983 Clouds 24 1012 100 10000 3.6 360 04:35 31.10.2019
4984 Clouds 24 1013 100 10000 3.1 140 02:46 31.10.2019
4985 Clouds 25 1013 94 10000 3.1 160 01:53 31.10.2019
4986 Clouds 25 1013 94 10000 3.1 160 01:53 31.10.2019
4987 Rain 26 1013 94 10000 5.1 150 00:42 31.10.2019
4988 Rain 25 1013 94 10000 5.1 150 00:23 31.10.2019
4989 Clouds 26 1012 94 10000 5.1 150 23:34 30.10.2019
4990 Clouds 27 1011 78 10000 5.1 170 22:59 30.10.2019
4991 Clouds 27 1011 78 10000 5.1 170 22:39 30.10.2019
4992 Clouds 27 1011 78 10000 5.1 170 22:19 30.10.2019
4993 Clouds 27 1011 74 10000 4.1 170 21:54 30.10.2019
4994 Clouds 28 1011 74 10000 4.1 170 21:36 30.10.2019
4995 Clouds 28 1011 74 10000 4.1 170 21:18 30.10.2019
4996 Clouds 29 1011 69 10000 4.6 160 20:56 30.10.2019
4997 Clouds 29 1011 69 10000 4.6 160 20:56 30.10.2019
4998 Clouds 27 1011 69 10000 4.6 160 20:36 30.10.2019
4999 Clouds 27 1011 69 10000 4.6 160 20:36 30.10.2019
5000 Clouds 29 1011 69 10000 4.6 160 20:18 30.10.2019
5001 Clouds 29 1011 69 10000 4.6 160 20:18 30.10.2019
5002 Clouds 29 1010 66 10000 5.7 160 19:42 30.10.2019
5003 Clouds 29 1010 66 10000 5.7 160 19:23 30.10.2019
5004 Clouds 29 1010 69 10000 6.2 160 18:59 30.10.2019
5005 Clouds 28 1010 69 10000 6.2 160 18:38 30.10.2019
5006 Clouds 28 1010 69 10000 6.2 160 18:38 30.10.2019
5007 Clouds 29 1010 69 10000 6.2 160 18:19 30.10.2019
5008 Clouds 29 1010 69 10000 6.2 160 18:19 30.10.2019
5009 Clouds 29 1011 74 10000 6.2 150 17:55 30.10.2019
5010 Clouds 28 1011 74 10000 6.2 150 17:37 30.10.2019
5011 Clouds 28 1011 74 10000 6.2 150 17:37 30.10.2019
5012 Clouds 29 1011 74 10000 6.2 150 17:18 30.10.2019
5013 Clouds 30 1011 74 10000 5.1 140 16:42 30.10.2019
5014 Clouds 30 1011 74 10000 5.1 140 16:24 30.10.2019
5015 Clouds 30 1011 74 10000 5.1 140 16:24 30.10.2019
5016 Clouds 30 1011 62 10000 5.1 150 16:00 30.10.2019
5017 Clouds 30 1011 62 10000 5.1 150 15:40 30.10.2019
5018 Clouds 30 1011 62 10000 5.1 150 15:21 30.10.2019
5019 Clouds 30 1011 70 10000 4.1 140 14:59 30.10.2019
5020 Clouds 29 1011 70 10000 4.1 140 14:41 30.10.2019
5021 Clouds 28 1011 70 10000 4.1 140 14:22 30.10.2019
5022 Clouds 28 1012 78 10000 1.5 30 13:57 30.10.2019
5023 Clouds 28 1012 78 10000 1.5 30 13:39 30.10.2019
5024 Clouds 27 1012 78 10000 1.5 30 13:19 30.10.2019
5025 Clouds 28 1011 83 10000 4.6 350 12:46 30.10.2019
5026 Clouds 27 1011 83 10000 4.6 350 12:28 30.10.2019
5027 Clouds 27 1011 83 10000 4.6 350 12:28 30.10.2019
5028 Clouds 27 1011 88 10000 3.6 350 11:59 30.10.2019
5029 Clouds 27 1011 88 10000 3.6 350 11:41 30.10.2019
5030 Clouds 25 1011 88 10000 3.6 350 11:21 30.10.2019
5031 Clouds 25 1010 88 10000 1.5 330 10:43 30.10.2019
5032 Clouds 24 1010 88 10000 1.5 330 10:23 30.10.2019
5033 Clouds 24 1010 88 10000 2.6 330 09:43 30.10.2019
5034 Clouds 23 1010 88 10000 2.6 330 09:24 30.10.2019
5035 Clouds 24 1009 94 10000 3.1 30 08:58 30.10.2019
5036 Clouds 24 1009 94 10000 3.1 30 08:40 30.10.2019
5037 Clouds 24 1009 94 10000 3.1 30 08:21 30.10.2019
5038 Clouds 24 1009 83 10000 2.1 360 07:47 30.10.2019
5039 Clouds 24 1009 83 10000 2.1 360 07:28 30.10.2019
5040 Clouds 24 1009 88 10000 3.6 360 06:43 30.10.2019
5041 Clouds 24 1009 88 10000 3.6 360 06:22 30.10.2019
5042 Clouds 25 1010 61 10000 3.6 320 05:46 30.10.2019
5043 Clouds 24 1010 61 10000 3.6 320 05:24 30.10.2019
5044 Clouds 24 1011 69 10000 3.6 310 03:46 30.10.2019
5045 Clouds 24 1011 69 10000 3.6 310 03:18 30.10.2019
5046 Rain 26 1011 65 10000 5.7 300 02:19 30.10.2019
5047 Thunderstorm 27 1011 66 10000 7.2 310 01:34 30.10.2019
5048 Thunderstorm 27 1010 74 10000 3.1 310 00:31 30.10.2019
5049 Thunderstorm 26 1009 83 10000 3.1 140 23:47 29.10.2019
5050 Thunderstorm 26 1009 83 10000 3.1 140 23:28 29.10.2019
5051 Clouds 28 1008 69 10000 4.6 170 22:57 29.10.2019
5052 Clouds 29 1008 69 10000 4.6 170 22:38 29.10.2019
5053 Clouds 29 1008 69 10000 4.6 170 22:18 29.10.2019
5054 Clouds 29 1008 69 10000 4.6 170 22:18 29.10.2019
5055 Clouds 28 1007 69 10000 6.2 160 21:54 29.10.2019
5056 Clouds 29 1007 69 10000 6.2 160 21:36 29.10.2019
5057 Clouds 29 1007 69 10000 6.2 160 21:18 29.10.2019
5058 Clouds 31 1007 58 10000 6.2 170 20:41 29.10.2019
5059 Clouds 32 1007 58 10000 6.2 170 20:21 29.10.2019
5060 Clouds 33 1007 52 10000 6.7 170 19:58 29.10.2019
5061 Clouds 33 1007 52 10000 6.7 170 19:39 29.10.2019
5062 Clouds 34 1007 52 10000 6.7 170 19:20 29.10.2019
5063 Clouds 34 1007 66 10000 2.1 120 18:57 29.10.2019
5064 Clouds 32 1007 66 10000 2.1 120 18:38 29.10.2019
5065 Clouds 33 1007 66 10000 2.1 120 18:19 29.10.2019
5066 Clouds 33 1008 49 10000 2.6 130 17:56 29.10.2019
5067 Clouds 32 1008 39 10000 3.1 310 17:37 29.10.2019
5068 Clouds 35 1008 39 10000 3.1 310 17:19 29.10.2019
5069 Clouds 34 1009 63 10000 3.1 350 16:41 29.10.2019
5070 Clouds 33 1009 63 10000 3.1 350 16:22 29.10.2019
5071 Clouds 32 1010 70 10000 2.6 350 15:58 29.10.2019
5072 Clouds 31 1010 70 10000 2.6 350 15:39 29.10.2019
5073 Clouds 31 1010 70 10000 2.6 350 15:20 29.10.2019
5074 Clouds 30 1010 79 10000 3.1 360 14:56 29.10.2019
5075 Clouds 28 1010 79 10000 3.1 360 14:38 29.10.2019
5076 Clouds 30 1010 79 10000 3.1 360 14:19 29.10.2019
5077 Clouds 29 1010 74 10000 3.6 350 13:40 29.10.2019
5078 Clouds 29 1010 74 10000 3.6 350 13:22 29.10.2019
5079 Clouds 29 1010 70 10000 2.1 350 12:56 29.10.2019
5080 Clouds 28 1010 70 10000 2.1 350 12:37 29.10.2019
5081 Clouds 27 1010 70 10000 2.1 350 12:19 29.10.2019
5082 Clouds 27 1010 83 10000 1 30 11:43 29.10.2019
5083 Clouds 25 1010 83 10000 1 30 11:23 29.10.2019
5084 Clouds 24 1009 88 10000 2.6 360 10:59 29.10.2019
5085 Clouds 24 1009 88 10000 2.6 360 10:40 29.10.2019
5086 Clouds 23 1009 88 10000 2.6 360 10:20 29.10.2019
5087 Clouds 22 1009 88 10000 1 350 09:59 29.10.2019
5088 Clouds 22 1009 88 10000 1 350 09:41 29.10.2019
5089 Clouds 22 1009 88 10000 1 350 09:22 29.10.2019
5090 Clouds 22 1009 83 10000 0.5 100 08:54 29.10.2019
5091 Clouds 23 1009 83 10000 0.5 100 08:36 29.10.2019
5092 Clouds 22 1009 83 10000 0.5 100 08:18 29.10.2019
5093 Clouds 23 1008 88 10000 1 360 07:47 29.10.2019
5094 Clouds 22 1008 88 10000 1 360 07:19 29.10.2019
5095 Clouds 23 1010 88 10000 2.6 360 06:46 29.10.2019
5096 Clouds 23 1010 88 10000 2.6 360 06:26 29.10.2019
5097 Clouds 24 1011 83 10000 2.6 330 05:52 29.10.2019
5098 Clouds 24 1011 83 10000 2.6 330 05:34 29.10.2019
5099 Clouds 23 1012 88 10000 1.5 180 04:33 29.10.2019
5100 Thunderstorm 24 1012 88 10000 3.1 150 02:34 29.10.2019
5101 Thunderstorm 25 1012 78 10000 7.7 170 01:55 29.10.2019
5102 Thunderstorm 25 1012 78 10000 7.7 170 01:33 29.10.2019
5103 Thunderstorm 26 1011 78 10000 4.6 170 00:51 29.10.2019
5104 Thunderstorm 27 1010 70 10000 1.5 330 23:58 28.10.2019
5105 Thunderstorm 27 1009 70 10000 3.6 190 23:37 28.10.2019
5106 Thunderstorm 28 1009 70 10000 3.6 190 23:19 28.10.2019
5107 Clouds 29 1008 74 10000 6.2 190 22:39 28.10.2019
5108 Clouds 29 1008 74 10000 6.2 190 22:20 28.10.2019
5109 Clouds 29 1008 74 10000 4.1 170 21:57 28.10.2019
5110 Clouds 31 1008 74 10000 4.1 170 21:39 28.10.2019
5111 Clouds 31 1008 74 10000 4.1 170 21:21 28.10.2019
5112 Clouds 32 1008 62 10000 6.2 160 20:57 28.10.2019
5113 Clouds 32 1008 62 10000 6.2 160 20:39 28.10.2019
5114 Clouds 33 1008 62 10000 6.2 160 20:20 28.10.2019
5115 Clouds 34 1008 62 10000 6.7 160 19:54 28.10.2019
5116 Clouds 31 1008 62 10000 6.7 160 19:36 28.10.2019
5117 Clouds 34 1008 62 10000 6.7 160 19:18 28.10.2019
5118 Clouds 33 1009 79 10000 6.7 170 18:56 28.10.2019
5119 Clouds 32 1009 79 10000 6.7 170 18:38 28.10.2019
5120 Clouds 31 1009 79 10000 6.7 170 18:20 28.10.2019
5121 Clouds 31 1011 83 10000 6.2 150 17:55 28.10.2019
5122 Clouds 29 1011 83 10000 6.2 150 17:36 28.10.2019
5123 Clouds 30 1011 83 10000 6.2 150 17:18 28.10.2019
5124 Clouds 30 1011 83 10000 6.2 150 17:18 28.10.2019
5125 Clouds 30 1011 83 10000 6.2 150 17:18 28.10.2019
5126 Clouds 30 1012 83 10000 6.2 140 16:54 28.10.2019
5127 Clouds 29 1012 83 10000 6.2 140 16:36 28.10.2019
5128 Clouds 30 1012 83 10000 6.2 140 16:18 28.10.2019
5129 Clouds 30 1012 66 10000 6.2 180 15:55 28.10.2019
5130 Clouds 32 1012 66 10000 6.2 180 15:37 28.10.2019
5131 Clouds 30 1012 66 10000 6.2 180 15:18 28.10.2019
5132 Clouds 30 1013 66 10000 6.7 190 14:54 28.10.2019
5133 Clouds 30 1013 66 10000 6.7 190 14:36 28.10.2019
5134 Clouds 30 1013 66 10000 6.7 190 14:18 28.10.2019
5135 Clouds 30 1013 63 10000 4.6 180 13:41 28.10.2019
5136 Clouds 29 1013 63 10000 4.6 180 13:18 28.10.2019
5137 Clouds 29 1013 74 10000 2.6 130 12:58 28.10.2019
5138 Clouds 29 1013 74 10000 2.6 130 12:40 28.10.2019
5139 Clouds 29 1013 74 10000 2.6 130 12:19 28.10.2019
5140 Clouds 27 1011 83 10000 2.1 340 11:38 28.10.2019
5141 Clear 26 1011 83 10000 2.1 340 11:19 28.10.2019
5142 Clear 25 1010 88 10000 2.1 330 10:42 28.10.2019
5143 Clear 24 1010 88 10000 2.1 330 10:24 28.10.2019
5144 Clear 23 1010 94 10000 2.6 320 09:58 28.10.2019
5145 Clear 23 1010 94 10000 2.6 320 09:39 28.10.2019
5146 Clear 23 1010 94 10000 2.6 320 09:20 28.10.2019
5147 Clear 23 1010 94 10000 2.1 330 08:57 28.10.2019
5148 Clear 23 1010 94 10000 2.1 330 08:39 28.10.2019
5149 Clouds 23 1010 94 10000 2.1 330 08:19 28.10.2019
5150 Clouds 23 1011 94 10000 2.1 340 07:57 28.10.2019
5151 Clouds 23 1011 94 10000 2.1 340 07:38 28.10.2019
5152 Clouds 23 1011 94 10000 2.1 340 07:20 28.10.2019
5153 Clouds 23 1011 94 10000 1.5 330 06:40 28.10.2019
5154 Clouds 23 1011 94 10000 1.5 330 06:19 28.10.2019
5155 Clouds 24 1012 100 10000 1.5 70 04:29 28.10.2019
5156 Clouds 25 1012 94 10000 1.5 350 03:41 28.10.2019
5157 Clouds 25 1012 88 10000 2.1 340 02:45 28.10.2019
5158 Clouds 26 1012 88 10000 1 100 01:27 28.10.2019
5159 Clouds 26 1012 88 10000 2.6 170 00:46 28.10.2019
5160 Clouds 27 1012 88 10000 2.6 170 00:22 28.10.2019
5161 Clouds 27 1011 83 10000 3.1 180 23:43 27.10.2019
5162 Clouds 28 1011 83 10000 3.1 180 23:21 27.10.2019
5163 Rain 29 1010 79 10000 3.1 180 22:55 27.10.2019
5164 Rain 30 1010 79 10000 3.1 180 22:36 27.10.2019
5165 Rain 30 1010 79 10000 3.1 180 22:18 27.10.2019
5166 Rain 31 1010 74 10000 7.2 180 21:40 27.10.2019
5167 Rain 32 1010 74 10000 7.2 180 21:22 27.10.2019
5168 Rain 32 1010 74 10000 6.7 190 20:59 27.10.2019
5169 Rain 30 1010 74 10000 6.7 190 20:40 27.10.2019
5170 Clear 33 1010 74 10000 6.7 190 20:22 27.10.2019
5171 Clouds 33 1010 74 10000 6.2 180 19:57 27.10.2019
5172 Clouds 30 1010 74 10000 6.2 180 19:37 27.10.2019
5173 Clouds 33 1010 74 10000 6.2 180 19:19 27.10.2019
5174 Clouds 33 1011 66 10000 4.6 180 18:56 27.10.2019
5175 Clouds 30 1011 66 10000 4.6 180 18:38 27.10.2019
5176 Clouds 32 1011 66 10000 4.6 180 18:19 27.10.2019
5177 Clouds 32 1012 70 10000 4.1 170 17:55 27.10.2019
5178 Clouds 29 1012 70 10000 4.1 170 17:36 27.10.2019
5179 Clouds 31 1012 70 10000 4.1 170 17:18 27.10.2019
5180 Clouds 31 1014 79 10000 4.6 160 16:55 27.10.2019
5181 Clouds 29 1014 79 10000 4.6 160 16:37 27.10.2019
5182 Clouds 31 1014 79 10000 4.6 160 16:18 27.10.2019
5183 Clouds 31 1015 83 10000 5.7 160 15:55 27.10.2019
5184 Clouds 30 1015 83 10000 5.7 160 15:36 27.10.2019
5185 Clouds 30 1015 83 10000 5.7 160 15:18 27.10.2019
5186 Clouds 29 1015 79 10000 3.6 160 14:41 27.10.2019
5187 Clouds 28 1015 79 10000 3.6 160 14:19 27.10.2019
5188 Clouds 27 1015 78 10000 2.1 300 13:55 27.10.2019
5189 Clouds 26 1015 78 10000 2.1 300 13:37 27.10.2019
5190 Clouds 26 1015 78 10000 2.1 300 13:18 27.10.2019
5191 Clouds 25 1016 88 10000 2.6 330 12:42 27.10.2019
5192 Clouds 25 1016 88 10000 2.6 330 12:23 27.10.2019
5193 Clouds 25 1016 88 10000 2.1 50 11:55 27.10.2019
5194 Clouds 24 1016 88 10000 2.1 50 11:37 27.10.2019
5195 Clouds 23 1016 88 10000 2.1 50 11:18 27.10.2019
5196 Clouds 23 1015 94 10000 2.08 33 10:41 27.10.2019
5197 Clouds 22 1015 94 10000 2.08 33 10:22 27.10.2019
5198 Clouds 21 1015 94 10000 0.5 10 09:44 27.10.2019
5199 Clouds 21 1015 94 10000 0.5 10 09:44 27.10.2019
5200 Clouds 21 1015 94 10000 0.5 10 09:19 27.10.2019
5201 Clouds 22 1015 100 10000 1 360 08:59 27.10.2019
5202 Clouds 22 1015 100 10000 1 360 08:40 27.10.2019
5203 Clouds 22 1015 100 10000 1 360 08:20 27.10.2019
5204 Clouds 22 1015 94 10000 2.1 80 07:50 27.10.2019
5205 Clouds 23 1015 94 10000 2.1 80 07:29 27.10.2019
5206 Clouds 22 1015 94 10000 0.5 110 06:56 27.10.2019
5207 Clouds 22 1015 94 10000 0.5 110 06:37 27.10.2019
5208 Clouds 23 1015 94 10000 0.5 110 06:18 27.10.2019
5209 Clouds 22 1016 100 10000 2.6 150 05:38 27.10.2019
5210 Clouds 22 1016 100 10000 2.6 170 04:35 27.10.2019
5211 Clouds 24 1016 94 10000 2.6 80 02:46 27.10.2019
5212 Clouds 25 1016 100 10000 4.6 110 01:36 27.10.2019
5213 Clouds 25 1016 100 10000 4.6 110 01:18 27.10.2019
5214 Clouds 25 1015 100 10000 4.6 130 00:42 27.10.2019
5215 Clouds 25 1015 100 10000 4.6 130 00:18 27.10.2019
5216 Clouds 25 1015 100 10000 3.6 140 23:41 26.10.2019
5217 Clouds 26 1015 100 10000 3.6 140 23:22 26.10.2019
5218 Clouds 26 1015 100 10000 4.6 130 22:59 26.10.2019
5219 Clouds 24 1015 100 10000 4.6 130 22:40 26.10.2019
5220 Clouds 26 1015 100 10000 4.6 130 22:20 26.10.2019
5221 Clouds 26 1014 100 10000 6.2 170 21:59 26.10.2019
5222 Clouds 26 1014 100 10000 6.2 170 21:41 26.10.2019
5223 Clouds 26 1014 100 10000 6.2 170 21:21 26.10.2019
5224 Clouds 26 1014 94 10000 6.2 170 20:45 26.10.2019
5225 Clouds 26 1014 94 10000 6.2 170 20:45 26.10.2019
5226 Clouds 27 1014 94 10000 6.2 170 20:20 26.10.2019
5227 Clouds 27 1014 94 10000 6.2 170 20:20 26.10.2019
5228 Clouds 27 1014 88 10000 5.1 160 19:59 26.10.2019
5229 Clouds 26 1014 88 10000 5.1 160 19:40 26.10.2019
5230 Clouds 27 1014 88 10000 5.1 160 19:20 26.10.2019
5231 Clouds 27 1015 83 10000 3.6 150 18:56 26.10.2019
5232 Clouds 27 1015 83 10000 3.6 150 18:37 26.10.2019
5233 Clouds 27 1015 83 10000 3.6 150 18:18 26.10.2019
5234 Clouds 27 1016 88 6000 2.1 130 17:56 26.10.2019
5235 Clouds 27 1016 88 6000 2.1 130 17:36 26.10.2019
5236 Clouds 27 1016 88 6000 2.1 130 17:18 26.10.2019
5237 Thunderstorm 27 1016 78 6000 4.1 30 16:43 26.10.2019
5238 Clouds 27 1016 83 7000 2.6 140 16:24 26.10.2019
5239 Rain 26 1016 88 7000 3.6 140 15:43 26.10.2019
5240 Rain 26 1016 88 7000 3.6 140 15:21 26.10.2019
5241 Clouds 25 1016 88 7000 2.1 160 14:58 26.10.2019
5242 Clouds 25 1016 88 7000 2.1 160 14:37 26.10.2019
5243 Clouds 25 1016 88 7000 2.1 160 14:18 26.10.2019
5244 Clouds 25 1017 80 0 1.94 185 13:42 26.10.2019
5245 Clouds 25 1017 80 0 1.94 185 13:22 26.10.2019
5246 Clouds 25 1017 80 0 1.94 185 13:22 26.10.2019
5247 Clouds 25 1017 80 0 1.94 185 12:49 26.10.2019
5248 Clouds 22 1015 100 6000 2.78 4 12:26 26.10.2019
5249 Clouds 21 1015 100 6000 2.78 4 11:57 26.10.2019
5250 Clouds 21 1015 100 6000 2.78 4 11:38 26.10.2019
5251 Clouds 21 1015 100 6000 2.78 4 11:20 26.10.2019
5252 Clouds 23 1014 100 9000 2.6 20 10:45 26.10.2019
5253 Clouds 23 1014 100 9000 2.6 20 10:24 26.10.2019
5254 Clouds 23 1013 100 10000 1.5 60 09:48 26.10.2019
5255 Clouds 23 1013 100 10000 1.5 60 09:29 26.10.2019
5256 Clouds 23 1014 94 10000 1 340 08:48 26.10.2019
5257 Clouds 23 1014 94 10000 1 340 08:27 26.10.2019
5258 Clouds 23 1014 88 10000 0.5 0 07:57 26.10.2019
5259 Clouds 23 1014 94 10000 1 70 07:39 26.10.2019
5260 Clouds 23 1014 94 10000 1 70 07:19 26.10.2019
5261 Clouds 23 1014 88 10000 2.1 300 06:39 26.10.2019
5262 Clouds 24 1015 88 10000 3.1 320 05:24 26.10.2019
5263 Clouds 24 1015 100 10000 1.5 330 04:59 26.10.2019
5264 Clouds 24 1016 100 10000 3.6 190 03:31 26.10.2019
5265 Rain 24 1015 100 10000 4.1 170 02:29 26.10.2019
5266 Thunderstorm 24 1015 88 3000 6.7 200 01:46 26.10.2019
5267 Clouds 25 1014 100 10000 4.6 160 00:51 26.10.2019
5268 Clouds 25 1014 100 10000 6.2 160 23:55 25.10.2019
5269 Clouds 24 1014 100 10000 6.2 160 23:37 25.10.2019
5270 Clouds 25 1014 100 10000 6.2 160 23:18 25.10.2019
5271 Clouds 25 1013 88 10000 6.7 150 22:39 25.10.2019
5272 Clouds 26 1013 88 10000 6.7 150 22:21 25.10.2019
5273 Clouds 26 1013 83 10000 6.7 160 21:56 25.10.2019
5274 Clouds 26 1013 83 10000 6.7 160 21:38 25.10.2019
5275 Clouds 27 1013 83 10000 6.7 160 21:19 25.10.2019
5276 Clear 28 1013 78 10000 5.7 150 20:43 25.10.2019
5277 Clear 28 1013 78 10000 5.7 150 20:20 25.10.2019
5278 Clouds 28 1013 78 10000 6.7 150 19:56 25.10.2019
5279 Clouds 28 1013 78 10000 6.7 150 19:38 25.10.2019
5280 Clouds 28 1013 78 10000 6.7 150 19:19 25.10.2019
5281 Clouds 28 1014 74 10000 6.7 160 18:43 25.10.2019
5282 Clouds 28 1014 74 10000 6.7 160 18:20 25.10.2019
5283 Clouds 28 1015 66 10000 6.2 150 17:41 25.10.2019
5284 Clouds 29 1015 66 10000 6.2 150 17:20 25.10.2019
5285 Clouds 28 1015 74 10000 4.6 160 16:47 25.10.2019
5286 Clouds 28 1015 74 10000 4.6 160 16:24 25.10.2019
5287 Clouds 28 1015 74 10000 4.1 150 15:58 25.10.2019
5288 Clouds 28 1015 74 10000 4.1 150 15:40 25.10.2019
5289 Clouds 27 1015 74 10000 4.1 150 15:21 25.10.2019
5290 Clouds 27 1016 78 10000 4.6 160 14:43 25.10.2019
5291 Clouds 26 1016 78 10000 4.6 160 14:23 25.10.2019
5292 Clear 26 1015 78 10000 2.6 140 13:59 25.10.2019
5293 Clear 26 1015 78 10000 2.6 140 13:41 25.10.2019
5294 Clear 25 1015 78 10000 1.5 90 13:22 25.10.2019
5295 Clear 24 1015 83 10000 2.1 350 12:55 25.10.2019
5296 Clear 25 1015 83 10000 2.1 350 12:37 25.10.2019
5297 Clear 23 1015 83 10000 2.1 350 12:18 25.10.2019
5298 Clouds 22 1014 94 10000 2.1 360 11:40 25.10.2019
5299 Clouds 21 1014 94 10000 2.1 360 11:22 25.10.2019
5300 Clouds 21 1013 94 10000 3.1 20 10:55 25.10.2019
5301 Clouds 21 1013 94 10000 3.1 20 10:36 25.10.2019
5302 Clouds 21 1013 94 10000 3.1 20 10:18 25.10.2019
5303 Clouds 21 1013 94 10000 2.6 20 09:41 25.10.2019
5304 Clouds 21 1013 94 10000 2.6 20 09:20 25.10.2019
5305 Clouds 22 1012 88 10000 1.5 20 08:56 25.10.2019
5306 Clouds 21 1012 88 10000 1.5 20 08:38 25.10.2019
5307 Clouds 22 1012 88 10000 1.5 20 08:19 25.10.2019
5308 Thunderstorm 22 1013 88 10000 1.5 30 07:44 25.10.2019
5309 Thunderstorm 22 1013 88 10000 1.5 30 07:26 25.10.2019
5310 Thunderstorm 22 1013 83 10000 2.1 20 06:37 25.10.2019
5311 Rain 22 1014 83 10000 1.5 30 05:48 25.10.2019
5312 Rain 23 1014 83 10000 1.5 30 05:28 25.10.2019
5313 Clouds 23 1014 83 10000 3.6 30 04:30 25.10.2019
5314 Rain 24 1014 83 10000 3.1 100 02:35 25.10.2019
5315 Clouds 24 1013 83 10000 4.6 100 01:52 25.10.2019
5316 Clouds 26 1013 83 10000 3.6 110 00:34 25.10.2019
5317 Clouds 25 1012 88 10000 4.6 140 23:43 24.10.2019
5318 Clouds 26 1012 88 10000 4.6 140 23:24 24.10.2019
5319 Clouds 26 1011 78 10000 5.7 140 22:59 24.10.2019
5320 Clouds 26 1011 78 10000 5.7 140 22:39 24.10.2019
5321 Clouds 28 1011 78 10000 5.7 140 22:19 24.10.2019
5322 Clouds 29 1012 69 10000 6.2 160 21:57 24.10.2019
5323 Clouds 29 1012 69 10000 6.2 160 21:57 24.10.2019
5324 Clouds 29 1012 69 10000 6.2 160 21:38 24.10.2019
5325 Clouds 29 1012 69 10000 6.2 160 21:20 24.10.2019
5326 Clouds 30 1012 66 10000 4.1 150 20:59 24.10.2019
5327 Clouds 29 1012 66 10000 4.1 150 20:39 24.10.2019
5328 Clouds 30 1012 66 10000 4.1 150 20:21 24.10.2019
5329 Clouds 29 1012 69 10000 6.2 160 19:56 24.10.2019
5330 Clouds 29 1012 69 10000 6.2 160 19:37 24.10.2019
5331 Clouds 30 1012 69 10000 6.2 160 19:19 24.10.2019
5332 Clouds 30 1013 66 10000 5.1 160 18:55 24.10.2019
5333 Clouds 29 1013 66 10000 5.1 160 18:37 24.10.2019
5334 Clouds 28 1013 66 10000 5.1 160 18:18 24.10.2019
5335 Clouds 28 1014 65 10000 4.1 160 17:42 24.10.2019
5336 Clouds 28 1014 65 10000 4.1 160 17:20 24.10.2019
5337 Clouds 27 1015 69 10000 4.1 160 16:56 24.10.2019
5338 Clouds 29 1015 69 10000 4.1 160 16:38 24.10.2019
5339 Clouds 27 1015 69 10000 4.1 160 16:19 24.10.2019
5340 Clouds 27 1016 69 10000 1 140 15:58 24.10.2019
5341 Clouds 27 1016 69 10000 1 140 15:40 24.10.2019
5342 Clouds 25 1016 69 10000 1.5 340 15:21 24.10.2019
5343 Clouds 24 1016 69 10000 2.1 350 14:57 24.10.2019
5344 Clouds 24 1016 69 10000 2.1 350 14:38 24.10.2019
5345 Clouds 24 1016 69 10000 2.1 350 14:20 24.10.2019
5346 Clouds 24 1016 73 10000 1 30 13:41 24.10.2019
5347 Clouds 24 1016 73 10000 1 30 13:20 24.10.2019
5348 Clouds 23 1016 83 10000 1.5 70 12:57 24.10.2019
5349 Clouds 23 1016 83 10000 1.5 70 12:39 24.10.2019
5350 Clouds 21 1016 83 10000 1.5 70 12:19 24.10.2019
5351 Clouds 21 1016 88 10000 3.1 90 11:57 24.10.2019
5352 Clouds 20 1016 88 10000 3.1 90 11:38 24.10.2019
5353 Clouds 20 1016 88 10000 3.1 90 11:19 24.10.2019
5354 Clouds 21 1015 88 10000 2.1 70 10:57 24.10.2019
5355 Clouds 20 1015 88 10000 2.1 70 10:38 24.10.2019
5356 Clouds 20 1015 88 10000 2.1 70 10:20 24.10.2019
5357 Clouds 20 1015 88 10000 1 120 09:38 24.10.2019
5358 Clouds 20 1015 88 10000 1 120 09:38 24.10.2019
5359 Clouds 20 1015 88 10000 1 120 09:18 24.10.2019
5360 Clouds 20 1015 88 10000 2.1 130 08:54 24.10.2019
5361 Clouds 20 1015 88 10000 2.1 130 08:36 24.10.2019
5362 Clouds 20 1015 88 10000 2.1 130 08:18 24.10.2019
5363 Clouds 21 1015 83 10000 3.1 130 07:42 24.10.2019
5364 Clouds 21 1015 83 10000 3.1 130 07:21 24.10.2019
5365 Clouds 20 1016 83 10000 1.5 130 06:40 24.10.2019
5366 Clouds 21 1016 83 10000 1.5 130 06:20 24.10.2019
5367 Clouds 21 1016 88 10000 3.1 130 05:48 24.10.2019
5368 Clouds 22 1016 88 10000 3.1 130 05:28 24.10.2019
5369 Clouds 21 1017 88 10000 2.6 100 03:37 24.10.2019
5370 Clouds 23 1017 83 10000 3.1 110 02:56 24.10.2019
5371 Clouds 23 1017 83 10000 3.1 110 02:25 24.10.2019
5372 Clouds 23 1017 83 10000 4.6 120 01:51 24.10.2019
5373 Clouds 24 1017 83 10000 4.6 120 01:27 24.10.2019
5374 Clouds 24 1016 83 10000 4.6 120 00:41 24.10.2019
5375 Clouds 24 1016 83 10000 4.6 120 00:23 24.10.2019
5376 Clouds 24 1016 83 10000 4.6 130 23:43 23.10.2019
5377 Clouds 24 1016 83 10000 4.6 130 23:23 23.10.2019
5378 Clouds 24 1015 83 10000 3.1 140 22:57 23.10.2019
5379 Clouds 22 1015 83 10000 3.1 140 22:38 23.10.2019
5380 Clouds 24 1015 83 10000 3.1 140 22:19 23.10.2019
5381 Clouds 25 1015 78 10000 3.1 140 21:57 23.10.2019
5382 Clouds 24 1015 78 10000 3.1 140 21:38 23.10.2019
5383 Clouds 24 1015 78 10000 3.1 140 21:20 23.10.2019
5384 Clouds 24 1015 78 10000 4.6 160 20:57 23.10.2019
5385 Clouds 24 1015 78 10000 4.6 160 20:39 23.10.2019
5386 Clouds 25 1015 78 10000 4.6 160 20:20 23.10.2019
5387 Clouds 25 1015 78 10000 5.1 150 19:57 23.10.2019
5388 Clouds 25 1015 78 10000 5.1 150 19:38 23.10.2019
5389 Clouds 25 1015 78 10000 5.1 150 19:18 23.10.2019
5390 Clouds 25 1015 78 10000 6.2 160 18:55 23.10.2019
5391 Clouds 25 1015 78 10000 6.2 160 18:36 23.10.2019
5392 Clouds 25 1015 78 10000 6.2 160 18:18 23.10.2019
5393 Clouds 25 1015 74 10000 5.1 150 17:43 23.10.2019
5394 Clouds 25 1015 74 10000 5.1 150 17:20 23.10.2019
5395 Clouds 24 1016 88 10000 3.6 150 16:56 23.10.2019
5396 Clouds 23 1016 88 10000 3.6 150 16:38 23.10.2019
5397 Clouds 24 1016 88 10000 3.6 150 16:19 23.10.2019
5398 Clouds 24 1016 88 10000 3.6 150 16:19 23.10.2019
5399 Rain 25 1016 88 10000 4.6 140 15:42 23.10.2019
5400 Rain 24 1016 88 10000 4.6 140 15:22 23.10.2019
5401 Clouds 24 1016 83 10000 0.5 130 14:58 23.10.2019
5402 Clouds 23 1016 83 10000 0.5 130 14:38 23.10.2019
5403 Clouds 24 1016 83 10000 0.5 130 14:19 23.10.2019
5404 Clouds 24 1016 83 10000 1 30 13:58 23.10.2019
5405 Clouds 24 1016 83 10000 1 30 13:40 23.10.2019
5406 Clouds 24 1016 83 10000 1 30 13:22 23.10.2019
5407 Clouds 22 1015 88 10000 1 30 12:55 23.10.2019
5408 Clouds 22 1015 88 10000 1 30 12:37 23.10.2019
5409 Clouds 22 1015 88 10000 1 30 12:18 23.10.2019
5410 Clouds 21 1015 88 10000 2.1 20 11:56 23.10.2019
5411 Clouds 21 1015 88 10000 2.1 20 11:56 23.10.2019
5412 Clouds 21 1015 88 10000 2.1 20 11:37 23.10.2019
5413 Clouds 21 1015 88 10000 2.1 20 11:37 23.10.2019
5414 Clouds 21 1015 88 10000 2.1 20 11:19 23.10.2019
5415 Clouds 20 1014 100 10000 2.1 50 10:45 23.10.2019
5416 Clouds 20 1014 100 10000 2.1 50 10:25 23.10.2019
5417 Clouds 20 1013 100 10000 1 90 09:55 23.10.2019
5418 Clouds 20 1013 100 10000 1 90 09:36 23.10.2019
5419 Clouds 20 1013 100 10000 1 90 09:18 23.10.2019
5420 Rain 21 1013 88 8000 3.6 150 08:41 23.10.2019
5421 Rain 21 1013 88 8000 3.6 150 08:23 23.10.2019
5422 Clouds 21 1013 88 10000 1.5 130 07:46 23.10.2019
5423 Clouds 21 1013 88 10000 1.5 130 07:22 23.10.2019
5424 Clouds 21 1014 88 10000 2.1 120 06:47 23.10.2019
5425 Clouds 21 1014 88 10000 2.1 120 06:22 23.10.2019
5426 Clouds 21 1014 88 10000 3.6 150 05:47 23.10.2019
5427 Clouds 22 1014 83 10000 3.1 140 04:57 23.10.2019
5428 Clouds 23 1014 78 10000 4.1 160 03:35 23.10.2019
5429 Clouds 23 1014 88 10000 4.1 160 02:41 23.10.2019
5430 Clouds 23 1013 88 10000 5.1 160 01:33 23.10.2019
5431 Clouds 23 1012 88 10000 6.2 160 00:56 23.10.2019
5432 Clouds 23 1012 88 10000 6.2 160 00:28 23.10.2019
5433 Clouds 23 1012 88 10000 6.2 160 23:40 22.10.2019
5434 Clouds 23 1012 88 10000 6.2 160 23:18 22.10.2019
5435 Clouds 24 1011 83 10000 6.2 160 22:57 22.10.2019
5436 Clouds 24 1011 83 10000 6.2 160 22:39 22.10.2019
5437 Clouds 24 1011 83 10000 6.2 160 22:20 22.10.2019
5438 Clouds 25 1011 78 10000 6.7 160 21:56 22.10.2019
5439 Clouds 23 1011 78 10000 6.7 160 21:37 22.10.2019
5440 Clouds 25 1011 78 10000 6.7 160 21:18 22.10.2019
5441 Clouds 26 1011 74 10000 6.2 160 20:56 22.10.2019
5442 Clouds 26 1011 74 10000 6.2 160 20:38 22.10.2019
5443 Clouds 26 1011 74 10000 6.2 160 20:20 22.10.2019
5444 Clouds 27 1011 74 10000 5.7 160 19:54 22.10.2019
5445 Clouds 27 1011 74 10000 5.7 160 19:54 22.10.2019
5446 Clouds 27 1011 74 10000 5.7 160 19:36 22.10.2019
5447 Clouds 26 1011 69 10000 4.6 150 19:18 22.10.2019
5448 Clouds 27 1011 69 10000 4.6 150 18:40 22.10.2019
5449 Clouds 26 1011 69 10000 4.6 150 18:22 22.10.2019
5450 Clouds 26 1012 74 10000 4.1 160 17:58 22.10.2019
5451 Clouds 24 1012 74 10000 4.1 160 17:39 22.10.2019
5452 Clouds 25 1012 74 10000 4.1 160 17:20 22.10.2019
5453 Clouds 25 1012 73 10000 3.6 140 16:57 22.10.2019
5454 Clouds 25 1012 73 10000 3.6 140 16:38 22.10.2019
5455 Clouds 25 1012 73 10000 3.6 140 16:19 22.10.2019
5456 Clouds 25 1012 73 10000 3.6 140 16:19 22.10.2019
5457 Clouds 24 1012 78 10000 3.1 140 15:58 22.10.2019
5458 Clouds 24 1012 78 10000 3.1 140 15:39 22.10.2019
5459 Clouds 24 1012 78 10000 3.1 140 15:18 22.10.2019
5460 Clouds 24 1012 78 10000 2.6 20 14:43 22.10.2019
5461 Clouds 23 1012 78 10000 2.6 20 14:20 22.10.2019
5462 Clouds 23 1012 73 10000 3.1 350 13:43 22.10.2019
5463 Clouds 22 1012 73 10000 3.1 350 13:22 22.10.2019
5464 Clouds 22 1012 73 10000 3.1 350 13:22 22.10.2019
5465 Clouds 22 1011 78 10000 1 30 12:59 22.10.2019
5466 Clouds 22 1011 78 10000 1 30 12:40 22.10.2019
5467 Clouds 20 1011 78 10000 1 30 12:21 22.10.2019
5468 Clouds 20 1011 88 10000 1 180 11:56 22.10.2019
5469 Clouds 20 1011 88 10000 1 180 11:38 22.10.2019
5470 Clouds 20 1011 88 10000 1 180 11:20 22.10.2019
5471 Clouds 20 1009 83 10000 2.1 100 10:56 22.10.2019
5472 Clouds 20 1009 83 10000 2.1 100 10:37 22.10.2019
5473 Clouds 20 1009 83 10000 2.1 100 10:18 22.10.2019
5474 Clouds 20 1009 83 10000 3.1 70 09:54 22.10.2019
5475 Clouds 20 1009 83 10000 3.1 70 09:36 22.10.2019
5476 Clouds 20 1009 83 10000 3.1 70 09:18 22.10.2019
5477 Clouds 20 1009 88 10000 2.1 180 08:42 22.10.2019
5478 Clouds 20 1009 88 10000 2.1 180 08:21 22.10.2019
5479 Clouds 20 1009 83 10000 3.37 78 07:46 22.10.2019
5480 Clouds 20 1009 83 10000 3.37 78 07:26 22.10.2019
5481 Clouds 20 1010 83 10000 1 40 06:51 22.10.2019
5482 Clouds 20 1010 83 10000 1 40 06:31 22.10.2019
5483 Clouds 20 1010 83 10000 1 40 06:31 22.10.2019
5484 Clouds 20 1009 83 10000 2.1 100 05:57 22.10.2019
5485 Clouds 20 1009 83 10000 2.1 100 05:21 22.10.2019
5486 Rain 21 1010 83 9000 5.1 30 02:47 22.10.2019
5487 Rain 21 1010 83 9000 5.1 30 02:28 22.10.2019
5488 Clouds 21 1011 78 10000 3.1 40 01:28 22.10.2019
5489 Clouds 21 1011 78 10000 1.5 100 00:58 22.10.2019
5490 Clouds 21 1011 78 10000 1.5 100 00:40 22.10.2019
5491 Clouds 21 1011 78 10000 1.5 100 00:21 22.10.2019
5492 Rain 21 1011 83 6000 2.6 140 23:55 21.10.2019
5493 Rain 19 1011 83 6000 2.6 140 23:37 21.10.2019
5494 Rain 22 1011 83 6000 2.6 140 23:18 21.10.2019
5495 Clouds 22 1011 73 10000 3.6 170 22:56 21.10.2019
5496 Clouds 21 1011 73 10000 3.6 170 22:37 21.10.2019
5497 Clouds 22 1011 73 10000 3.6 170 22:19 21.10.2019
5498 Clouds 22 1010 69 10000 2.6 150 21:54 21.10.2019
5499 Clouds 22 1010 69 10000 2.6 150 21:54 21.10.2019
5500 Clouds 20 1010 69 10000 2.6 150 21:36 21.10.2019
5501 Clouds 20 1010 69 10000 2.6 150 21:36 21.10.2019
5502 Clouds 23 1010 69 10000 2.6 150 21:18 21.10.2019
5503 Clouds 23 1010 73 10000 3.1 160 20:41 21.10.2019
5504 Clouds 23 1010 73 10000 3.1 160 20:21 21.10.2019
5505 Clouds 23 1011 69 10000 3.1 150 19:59 21.10.2019
5506 Clouds 23 1011 69 10000 3.1 150 19:41 21.10.2019
5507 Clouds 23 1011 69 10000 3.1 150 19:22 21.10.2019
5508 Clouds 23 1012 64 10000 3.1 140 18:57 21.10.2019
5509 Clouds 22 1012 64 10000 3.1 140 18:38 21.10.2019
5510 Clouds 22 1012 64 10000 3.1 140 18:19 21.10.2019
5511 Clouds 22 1012 69 10000 2.6 140 17:59 21.10.2019
5512 Clouds 23 1012 69 10000 2.6 140 17:38 21.10.2019
5513 Clouds 23 1012 69 10000 2.6 140 17:19 21.10.2019
5514 Clouds 23 1013 73 10000 1.5 40 16:57 21.10.2019
5515 Clouds 23 1013 73 10000 1.5 40 16:39 21.10.2019
5516 Clouds 23 1013 73 10000 1.5 40 16:20 21.10.2019
5517 Clouds 23 1013 73 10000 2.1 350 15:47 21.10.2019
5518 Clouds 21 1013 73 10000 2.1 350 15:27 21.10.2019
5519 Clouds 21 1014 78 10000 2.1 10 14:59 21.10.2019
5520 Clouds 21 1014 78 10000 2.1 10 14:40 21.10.2019
5521 Clouds 20 1014 78 10000 2.1 10 14:21 21.10.2019
5522 Clouds 21 1013 78 10000 2.6 330 13:57 21.10.2019
5523 Clouds 22 1013 78 10000 2.6 330 13:39 21.10.2019
5524 Clouds 20 1013 78 10000 2.6 330 13:19 21.10.2019
5525 Clouds 20 1013 83 10000 2.6 310 12:42 21.10.2019
5526 Clouds 19 1013 83 10000 2.6 310 12:23 21.10.2019
5527 Clouds 19 1013 77 10000 1 240 11:58 21.10.2019
5528 Clouds 19 1013 77 10000 1 240 11:39 21.10.2019
5529 Clouds 18 1013 77 10000 1 240 11:21 21.10.2019
5530 Clouds 18 1012 83 10000 2.6 220 10:57 21.10.2019
5531 Clouds 18 1012 83 10000 2.6 220 10:57 21.10.2019
5532 Clouds 18 1012 83 10000 2.6 220 10:38 21.10.2019
5533 Clouds 18 1012 83 10000 2.6 220 10:19 21.10.2019
5534 Clouds 18 1012 77 10000 2.6 310 09:54 21.10.2019
5535 Clouds 18 1012 77 10000 2.6 310 09:36 21.10.2019
5536 Clouds 19 1012 77 10000 2.6 310 09:18 21.10.2019
5537 Clouds 19 1012 83 10000 1.5 300 08:40 21.10.2019
5538 Clouds 19 1012 83 10000 1.5 300 08:22 21.10.2019
5539 Clouds 19 1012 77 10000 2.1 310 07:44 21.10.2019
5540 Clouds 19 1012 77 10000 2.1 310 07:22 21.10.2019
5541 Clouds 19 1013 77 10000 3.1 320 06:58 21.10.2019
5542 Clouds 19 1013 77 10000 3.1 320 06:40 21.10.2019
5543 Clouds 19 1014 68 10000 1 230 05:57 21.10.2019
5544 Clouds 19 1014 68 10000 1 230 05:21 21.10.2019
5545 Clouds 19 1015 83 10000 2.1 300 03:39 21.10.2019
5546 Rain 19 1015 83 10000 2.6 290 02:39 21.10.2019
5547 Rain 21 1015 83 10000 2.6 290 02:19 21.10.2019
5548 Rain 21 1015 83 10000 2.6 290 02:19 21.10.2019
5549 Rain 21 1014 73 10000 3.6 260 01:43 21.10.2019
5550 Clouds 20 1014 77 10000 2.1 300 00:51 21.10.2019
5551 Clouds 20 1014 77 10000 2.1 300 00:28 21.10.2019
5552 Clouds 20 1014 73 10000 2.6 240 23:58 20.10.2019
5553 Clouds 20 1014 73 10000 2.6 240 23:39 20.10.2019
5554 Clouds 22 1014 73 10000 2.6 240 23:21 20.10.2019
5555 Clouds 22 1014 64 10000 3.6 220 22:42 20.10.2019
5556 Clouds 22 1014 64 10000 3.6 220 22:24 20.10.2019
5557 Clouds 22 1014 64 10000 3.6 220 22:24 20.10.2019
5558 Clouds 23 1014 69 10000 4.6 230 21:59 20.10.2019
5559 Clouds 23 1014 69 10000 4.6 230 21:40 20.10.2019
5560 Rain 23 1014 69 10000 4.6 230 21:22 20.10.2019
5561 Rain 23 1014 64 10000 5.7 220 20:56 20.10.2019
5562 Rain 23 1014 64 10000 5.7 220 20:38 20.10.2019
5563 Clouds 23 1014 64 10000 5.7 220 20:18 20.10.2019
5564 Clouds 22 1014 60 10000 4.1 230 19:55 20.10.2019
5565 Clouds 22 1014 60 10000 4.1 230 19:37 20.10.2019
5566 Clouds 23 1014 60 10000 4.1 230 19:18 20.10.2019
5567 Clouds 23 1015 73 8000 5.1 200 18:40 20.10.2019
5568 Clouds 23 1015 73 8000 5.1 200 18:22 20.10.2019
5569 Clouds 23 1015 69 8000 3.6 210 17:57 20.10.2019
5570 Clouds 23 1015 69 8000 3.6 210 17:38 20.10.2019
5571 Clouds 23 1015 69 8000 3.6 210 17:20 20.10.2019
5572 Clouds 22 1015 88 6000 5.1 210 16:43 20.10.2019
5573 Clouds 22 1015 88 6000 5.1 210 16:24 20.10.2019
5574 Rain 21 1016 94 4500 3.1 210 15:59 20.10.2019
5575 Rain 21 1016 94 4500 3.1 210 15:40 20.10.2019
5576 Rain 21 1016 94 4500 3.1 210 15:40 20.10.2019
5577 Rain 21 1016 94 4500 3.1 210 15:21 20.10.2019
5578 Rain 22 1016 88 7000 3.1 230 14:59 20.10.2019
5579 Rain 22 1016 88 7000 3.1 230 14:38 20.10.2019
5580 Rain 21 1016 83 8000 3.6 220 14:19 20.10.2019
5581 Rain 21 1015 94 5000 4.1 210 13:56 20.10.2019
5582 Rain 20 1015 94 5000 4.1 210 13:37 20.10.2019
5583 Rain 21 1015 94 5000 4.1 210 13:18 20.10.2019
5584 Rain 21 1015 94 4500 2.6 230 12:57 20.10.2019
5585 Rain 21 1015 94 4500 2.6 230 12:39 20.10.2019
5586 Rain 20 1015 94 4500 2.6 230 12:21 20.10.2019
5587 Rain 20 1015 83 8000 4.6 200 11:57 20.10.2019
5588 Rain 20 1015 83 8000 4.6 200 11:39 20.10.2019
5589 Rain 20 1014 94 9000 2.1 230 11:21 20.10.2019
5590 Rain 21 1013 83 10000 6.7 190 10:54 20.10.2019
5591 Rain 21 1013 83 10000 6.7 190 10:54 20.10.2019
5592 Clouds 20 1013 83 10000 6.7 190 10:36 20.10.2019
5593 Rain 21 1013 83 10000 6.7 190 10:18 20.10.2019
5594 Rain 22 1013 83 10000 6.2 190 09:42 20.10.2019
5595 Clouds 21 1013 83 10000 6.2 190 09:22 20.10.2019
5596 Clouds 22 1013 94 10000 5.1 200 08:49 20.10.2019
5597 Clouds 22 1013 94 10000 5.1 200 08:28 20.10.2019
5598 Rain 22 1013 100 9000 4.6 170 07:57 20.10.2019
5599 Rain 22 1013 100 9000 4.6 170 07:39 20.10.2019
5600 Rain 22 1013 100 9000 4.6 170 07:20 20.10.2019
5601 Rain 22 1014 88 10000 1.5 220 06:23 20.10.2019
5602 Clouds 23 1015 100 10000 3.6 200 04:28 20.10.2019
5603 Rain 23 1015 94 10000 3.6 190 03:48 20.10.2019
5604 Rain 23 1015 94 10000 3.6 190 03:21 20.10.2019
5605 Clouds 23 1015 83 10000 4.6 190 02:45 20.10.2019
5606 Clouds 24 1015 83 10000 4.6 190 02:18 20.10.2019
5607 Clouds 24 1014 83 10000 3.6 210 01:43 20.10.2019
5608 Clouds 23 1014 83 10000 3.6 210 01:19 20.10.2019
5609 Clouds 23 1014 83 10000 5.1 200 00:42 20.10.2019
5610 Clouds 25 1014 83 10000 5.1 200 00:20 20.10.2019
5611 Clouds 25 1014 83 10000 6.7 200 23:43 19.10.2019
5612 Clouds 25 1014 83 10000 6.7 200 23:24 19.10.2019
5613 Clouds 26 1013 78 10000 8.2 190 22:58 19.10.2019
5614 Clouds 26 1013 78 10000 8.2 190 22:40 19.10.2019
5615 Clouds 26 1013 78 10000 8.2 190 22:20 19.10.2019
5616 Clouds 26 1013 78 10000 8.7 190 21:46 19.10.2019
5617 Clouds 26 1013 78 10000 8.7 190 21:46 19.10.2019
5618 Clouds 27 1013 78 10000 8.7 190 21:25 19.10.2019
5619 Clouds 28 1012 74 10000 8.2 180 20:57 19.10.2019
5620 Clouds 27 1012 74 10000 8.2 180 20:39 19.10.2019
5621 Clouds 28 1012 74 10000 8.2 180 20:20 19.10.2019
5622 Clouds 28 1012 70 10000 6.7 170 19:41 19.10.2019
5623 Clouds 28 1012 70 10000 6.7 170 19:23 19.10.2019
5624 Clouds 29 1013 62 10000 6.2 180 18:54 19.10.2019
5625 Clouds 28 1013 62 10000 6.2 180 18:36 19.10.2019
5626 Clouds 29 1013 62 10000 6.2 180 18:18 19.10.2019
5627 Clouds 29 1013 62 10000 6.2 180 18:18 19.10.2019
5628 Clouds 29 1013 62 10000 6.2 180 18:18 19.10.2019
5629 Clouds 29 1014 66 10000 5.7 170 17:40 19.10.2019
5630 Clouds 28 1014 66 10000 5.7 170 17:21 19.10.2019
5631 Clouds 28 1015 70 10000 5.7 180 16:55 19.10.2019
5632 Clouds 28 1015 70 10000 5.7 180 16:37 19.10.2019
5633 Clouds 27 1015 70 10000 5.7 180 16:18 19.10.2019
5634 Clouds 27 1015 70 10000 5.7 180 16:18 19.10.2019
5635 Clouds 27 1015 74 10000 4.6 170 15:40 19.10.2019
5636 Clouds 27 1015 74 10000 4.6 170 15:22 19.10.2019
5637 Clouds 26 1015 83 10000 4.1 130 14:39 19.10.2019
5638 Clouds 26 1015 83 10000 4.1 130 14:20 19.10.2019
5639 Clouds 26 1015 83 10000 1 150 13:57 19.10.2019
5640 Clouds 25 1015 83 10000 1 150 13:39 19.10.2019
5641 Clouds 25 1015 83 10000 1 150 13:19 19.10.2019
5642 Clouds 25 1014 83 10000 3.1 238.469 12:56 19.10.2019
5643 Clouds 24 1014 83 10000 3.1 238.469 12:37 19.10.2019
5644 Clouds 23 1014 83 10000 1.88 271.862 12:18 19.10.2019
5645 Clouds 22 1014 94 10000 1 220 11:41 19.10.2019
5646 Clouds 22 1014 94 10000 1 220 11:23 19.10.2019
5647 Clouds 22 1013 94 10000 2.6 200 10:56 19.10.2019
5648 Clouds 22 1013 94 10000 2.6 200 10:38 19.10.2019
5649 Clouds 22 1013 94 10000 2.6 200 10:19 19.10.2019
5650 Clear 22 1012 94 10000 2.6 140 09:42 19.10.2019
5651 Clear 22 1012 94 10000 2.6 140 09:24 19.10.2019
5652 Clear 22 1012 83 10000 2.6 310 08:59 19.10.2019
5653 Clear 22 1012 83 10000 2.6 310 08:59 19.10.2019
5654 Clear 22 1012 83 10000 2.6 310 08:59 19.10.2019
5655 Clear 22 1012 83 10000 2.6 310 08:40 19.10.2019
5656 Clear 22 1012 83 10000 2.6 310 08:21 19.10.2019
5657 Clear 22 1013 83 10000 0.5 280 07:44 19.10.2019
5658 Clear 22 1013 83 10000 0.5 280 07:25 19.10.2019
5659 Clear 23 1013 74 10000 1 270 06:47 19.10.2019
5660 Clear 23 1013 74 10000 1 270 06:26 19.10.2019
5661 Clear 23 1013 78 10000 2.1 200 05:33 19.10.2019
5662 Clear 25 1013 78 10000 3.6 180 04:22 19.10.2019
5663 Clear 25 1014 78 10000 4.1 170 02:47 19.10.2019
5664 Clear 25 1013 83 10000 6.2 180 01:53 19.10.2019
5665 Clear 25 1013 83 10000 6.2 180 01:25 19.10.2019
5666 Clear 25 1011 88 10000 6.7 180 00:48 19.10.2019
5667 Clear 26 1011 88 10000 6.7 180 00:27 19.10.2019
5668 Clear 26 1011 88 10000 5.7 170 23:45 18.10.2019
5669 Clear 28 1011 88 10000 5.7 170 23:27 18.10.2019
5670 Clear 28 1011 88 10000 7.2 160 22:58 18.10.2019
5671 Clear 29 1011 88 10000 7.2 160 22:40 18.10.2019
5672 Clear 30 1011 88 10000 7.2 160 22:20 18.10.2019
5673 Clear 30 1011 88 10000 7.2 160 22:20 18.10.2019
5674 Clear 30 1011 88 10000 7.2 160 22:20 18.10.2019
5675 Clear 31 1010 78 10000 5.1 150 21:59 18.10.2019
5676 Clear 31 1010 78 10000 5.1 150 21:39 18.10.2019
5677 Clear 32 1010 78 10000 5.1 150 21:20 18.10.2019
5678 Clear 32 1011 62 10000 3.1 140 20:58 18.10.2019
5679 Clear 32 1011 62 10000 3.1 140 20:40 18.10.2019
5680 Clear 31 1011 62 10000 3.1 140 20:21 18.10.2019
5681 Clear 31 1011 62 10000 3.1 140 20:21 18.10.2019
5682 Clear 31 1011 70 10000 3.1 150 19:57 18.10.2019
5683 Clear 31 1011 70 10000 3.6 20 19:39 18.10.2019
5684 Clear 31 1011 70 10000 3.6 20 19:20 18.10.2019
5685 Clear 30 1012 66 10000 4.1 330 18:57 18.10.2019
5686 Clear 29 1012 66 10000 4.1 330 18:38 18.10.2019
5687 Clear 29 1012 66 10000 4.1 330 18:20 18.10.2019
5688 Clouds 27 1014 78 10000 4.1 10 17:39 18.10.2019
5689 Clouds 26 1014 78 10000 4.1 10 17:21 18.10.2019
5690 Clouds 26 1016 83 10000 2.1 30 16:59 18.10.2019
5691 Clouds 27 1016 83 10000 2.1 30 16:38 18.10.2019
5692 Rain 26 1016 83 10000 2.1 30 16:19 18.10.2019
5693 Rain 26 1016 83 10000 2.1 30 16:19 18.10.2019
5694 Rain 26 1017 78 10000 5.1 180 15:54 18.10.2019
5695 Clouds 27 1017 78 10000 5.1 180 15:36 18.10.2019
5696 Clouds 26 1017 78 10000 5.1 180 15:18 18.10.2019
5697 Clouds 26 1016 78 10000 1.5 170 14:54 18.10.2019
5698 Clouds 26 1016 78 10000 1.5 170 14:36 18.10.2019
5699 Clouds 26 1016 78 10000 1.5 170 14:36 18.10.2019
5700 Clouds 26 1016 78 10000 1.5 170 14:18 18.10.2019
5701 Clear 25 1015 74 10000 1 150 13:41 18.10.2019
5702 Clear 25 1015 74 10000 1 150 13:23 18.10.2019
5703 Clear 24 1014 74 10000 0.62 357.119 12:57 18.10.2019
5704 Clear 23 1014 74 10000 0.62 357.119 12:39 18.10.2019
5705 Clear 22 1014 74 10000 1.67 16.182 12:20 18.10.2019
5706 Clear 21 1013 83 10000 0.5 50 11:56 18.10.2019
5707 Clear 21 1013 83 10000 0.5 50 11:38 18.10.2019
5708 Clear 21 1013 83 10000 0.5 50 11:19 18.10.2019
5709 Clear 20 1013 88 10000 1.5 360 10:55 18.10.2019
5710 Clear 20 1013 88 10000 1.5 360 10:55 18.10.2019
5711 Clear 20 1013 88 10000 1.5 360 10:37 18.10.2019
5712 Clear 20 1013 88 10000 1.5 360 10:18 18.10.2019
5713 Clear 21 1013 88 10000 1.5 60 09:55 18.10.2019
5714 Clear 20 1013 88 10000 1.5 60 09:36 18.10.2019
5715 Clear 21 1013 88 10000 1.5 60 09:18 18.10.2019
5716 Clear 21 1013 88 10000 1 70 08:42 18.10.2019
5717 Clear 21 1013 88 10000 1 70 08:42 18.10.2019
5718 Clear 21 1013 88 10000 1 70 08:23 18.10.2019
5719 Clear 21 1013 88 10000 1 70 08:23 18.10.2019
5720 Clear 21 1013 83 10000 2.1 50 07:48 18.10.2019
5721 Clear 22 1013 83 10000 2.1 50 07:29 18.10.2019
5722 Clear 22 1014 83 10000 0.5 50 06:41 18.10.2019
5723 Clear 22 1014 83 10000 0.5 50 06:22 18.10.2019
5724 Clear 22 1014 83 10000 1.5 60 05:59 18.10.2019
5725 Clear 22 1014 83 10000 1.5 60 05:24 18.10.2019
5726 Clear 22 1015 88 10000 3.6 50 04:49 18.10.2019
5727 Clear 24 1015 78 10000 3.6 50 03:34 18.10.2019
5728 Clear 25 1015 83 10000 2.6 160 02:50 18.10.2019
5729 Clear 25 1015 83 10000 2.6 160 02:32 18.10.2019
5730 Clear 25 1015 88 10000 4.1 170 01:38 18.10.2019
5731 Clear 25 1015 88 10000 4.1 170 00:54 18.10.2019
5732 Clear 24 1015 88 10000 4.1 170 00:36 18.10.2019
5733 Clear 26 1015 88 10000 4.1 170 00:18 18.10.2019
5734 Clouds 26 1014 83 10000 5.7 190 23:38 17.10.2019
5735 Clouds 27 1014 83 10000 5.7 190 23:19 17.10.2019
5736 Clouds 28 1014 78 10000 3.1 170 22:55 17.10.2019
5737 Clouds 27 1014 78 10000 3.1 170 22:37 17.10.2019
5738 Clouds 28 1014 78 10000 3.1 170 22:19 17.10.2019
5739 Clouds 28 1015 78 10000 5.1 160 21:56 17.10.2019
5740 Clouds 29 1015 78 10000 5.1 160 21:38 17.10.2019
5741 Clouds 28 1015 78 10000 5.1 160 21:20 17.10.2019
5742 Clouds 28 1015 78 10000 6.7 160 20:57 17.10.2019
5743 Clouds 28 1015 78 10000 6.7 160 20:38 17.10.2019
5744 Clouds 29 1015 78 10000 6.7 160 20:19 17.10.2019
5745 -273 0 0 0 0 0 19:56 17.10.2019
5746 Clouds 28 1016 74 10000 6.2 160 19:37 17.10.2019
5747 Clouds 29 1016 74 10000 6.2 160 19:18 17.10.2019
5748 Clouds 30 1016 70 10000 5.7 160 18:42 17.10.2019
5749 Clouds 30 1016 70 10000 5.7 160 18:21 17.10.2019
5750 Clouds 29 1017 74 10000 4.1 140 17:58 17.10.2019
5751 Clouds 29 1017 74 10000 4.1 140 17:40 17.10.2019
5752 Clouds 27 1017 74 10000 4.1 140 17:22 17.10.2019
5753 Clouds 27 1017 74 10000 3.6 140 16:55 17.10.2019
5754 Clouds 27 1018 70 10000 2.6 350 16:37 17.10.2019
5755 Clouds 27 1018 70 10000 2.6 350 16:18 17.10.2019
5756 Clouds 27 1018 74 10000 3.1 350 15:55 17.10.2019
5757 Clouds 26 1018 74 10000 3.1 350 15:37 17.10.2019
5758 Clouds 26 1018 74 10000 3.1 350 15:18 17.10.2019
5759 Clouds 26 1018 78 10000 2.1 350 14:42 17.10.2019
5760 Clouds 25 1018 78 10000 2.1 350 14:23 17.10.2019
5761 Clouds 25 1018 78 10000 2.1 350 14:23 17.10.2019
5762 Clouds 25 1018 83 10000 1 40 13:56 17.10.2019
5763 Clouds 25 1018 88 10000 1 120 13:38 17.10.2019
5764 Clouds 24 1018 88 10000 1 120 13:18 17.10.2019
5765 Clouds 24 1018 94 10000 3.1 100 12:41 17.10.2019
5766 Clouds 24 1018 94 10000 3.1 100 12:20 17.10.2019
5767 Clouds 22 1017 100 10000 1.5 100 11:58 17.10.2019
5768 Clouds 21 1017 100 10000 1.5 100 11:40 17.10.2019
5769 Clouds 23 1017 100 10000 1.5 100 11:19 17.10.2019
5770 Clouds 22 1017 94 10000 0.5 140 10:55 17.10.2019
5771 Clouds 22 1017 94 10000 0.5 140 10:36 17.10.2019
5772 Clouds 22 1017 94 10000 0.5 140 10:18 17.10.2019
5773 Clouds 23 1016 100 10000 1 160 09:42 17.10.2019
5774 Clouds 23 1016 100 10000 1 160 09:22 17.10.2019
5775 Clouds 23 1016 100 10000 1.5 170 08:58 17.10.2019
5776 Clouds 23 1016 100 10000 1.5 170 08:39 17.10.2019
5777 Clouds 23 1016 100 10000 1.5 170 08:21 17.10.2019
5778 Clouds 23 1017 100 10000 2.1 160 07:55 17.10.2019
5779 Clouds 23 1017 100 10000 2.1 160 07:55 17.10.2019
5780 Clouds 23 1017 100 10000 2.1 160 07:37 17.10.2019
5781 Clouds 23 1017 100 10000 2.1 160 07:18 17.10.2019
5782 Clouds 23 1017 100 10000 2.1 160 07:18 17.10.2019
5783 Clouds 24 1018 100 10000 3.1 180 06:40 17.10.2019
5784 Clouds 24 1018 100 10000 3.1 180 06:21 17.10.2019
5785 Clouds 24 1018 94 10000 3.6 180 05:52 17.10.2019
5786 Clouds 24 1018 94 10000 3.6 180 05:32 17.10.2019
5787 Clouds 24 1018 94 10000 3.6 180 04:54 17.10.2019
5788 Clouds 23 1018 94 10000 4.1 180 03:55 17.10.2019
5789 Clouds 24 1018 94 10000 3.1 170 02:37 17.10.2019
5790 Clouds 24 1017 94 10000 3.6 170 01:31 17.10.2019
5791 Clouds 24 1017 94 10000 4.6 160 00:40 17.10.2019
5792 Clouds 24 1017 94 10000 4.6 160 00:19 17.10.2019
5793 Clouds 24 1016 94 10000 5.7 160 23:42 16.10.2019
5794 Clouds 25 1016 94 10000 5.7 160 23:21 16.10.2019
5795 Clouds 25 1016 94 10000 6.7 170 22:56 16.10.2019
5796 Clouds 24 1016 94 10000 6.7 170 22:37 16.10.2019
5797 Clouds 25 1016 94 10000 6.7 170 22:19 16.10.2019
5798 Clouds 26 1016 88 10000 6.7 160 21:57 16.10.2019
5799 Clouds 25 1016 88 10000 6.7 160 21:37 16.10.2019
5800 Clouds 26 1016 88 10000 6.7 160 21:19 16.10.2019
5801 Clouds 27 1016 83 10000 6.2 160 20:58 16.10.2019
5802 Clouds 27 1016 83 10000 6.2 160 20:58 16.10.2019
5803 Clouds 27 1016 83 10000 6.2 160 20:39 16.10.2019
5804 Clouds 27 1016 83 10000 6.2 160 20:21 16.10.2019
5805 Clouds 28 1016 83 10000 6.7 160 19:59 16.10.2019
5806 Clouds 28 1016 83 10000 6.7 160 19:39 16.10.2019
5807 Clouds 28 1016 83 10000 6.7 160 19:20 16.10.2019
5808 Clouds 28 1017 83 10000 6.2 170 18:54 16.10.2019
5809 Clouds 28 1017 83 10000 6.2 170 18:54 16.10.2019
5810 Clouds 27 1017 83 10000 6.2 170 18:36 16.10.2019
5811 Clouds 28 1017 83 10000 6.2 170 18:18 16.10.2019
5812 Clouds 28 1018 78 10000 6.2 160 17:54 16.10.2019
5813 Clouds 27 1018 78 10000 6.2 160 17:36 16.10.2019
5814 Clouds 28 1018 78 10000 6.2 160 17:18 16.10.2019
5815 Clouds 28 1018 78 10000 5.1 160 16:42 16.10.2019
5816 Clouds 28 1018 78 10000 5.1 160 16:42 16.10.2019
5817 Clouds 27 1018 78 10000 5.1 160 16:21 16.10.2019
5818 Clouds 27 1018 78 10000 5.1 160 16:21 16.10.2019
5819 Clouds 28 1019 78 10000 3.6 150 15:58 16.10.2019
5820 Clouds 27 1019 78 10000 3.6 150 15:39 16.10.2019
5821 Clouds 27 1019 78 10000 3.6 150 15:39 16.10.2019
5822 Clouds 26 1019 78 10000 2.6 130 15:18 16.10.2019
5823 Clouds 26 1019 78 10000 2.6 130 14:58 16.10.2019
5824 Clouds 26 1019 78 10000 2.6 130 14:38 16.10.2019
5825 Clouds 26 1019 78 10000 2.6 130 14:19 16.10.2019
5826 Clouds 26 1019 78 10000 2.6 130 13:57 16.10.2019
5827 -273 0 0 0 0 0 13:56 16.10.2019
5828 Clouds 26 1019 88 10000 2.1 140 13:38 16.10.2019
5829 Clouds 26 1019 88 10000 2.1 140 13:38 16.10.2019
5830 Clouds 25 1019 88 10000 2.1 140 13:19 16.10.2019
5831 -273 0 0 0 0 0 12:42 16.10.2019
5832 Clouds 22 1018 100 10000 1.5 120 12:19 16.10.2019
5833 Clouds 21 1017 100 10000 0.5 120 11:45 16.10.2019
5834 Clouds 22 1017 100 10000 0.5 120 11:19 16.10.2019
5835 -273 0 0 0 0 0 10:55 16.10.2019
5836 Clouds 22 1017 100 10000 1.988 35 10:36 16.10.2019
5837 Clouds 22 1017 100 10000 1.988 35 10:18 16.10.2019
5838 Clouds 23 1016 94 10000 0.5 100 09:40 16.10.2019
5839 Clouds 23 1016 94 10000 0.5 100 09:21 16.10.2019
5840 Clouds 23 1017 94 10000 1 170 08:46 16.10.2019
5841 Clouds 23 1017 94 10000 1 170 08:26 16.10.2019
5842 Clouds 23 1017 94 10000 1 170 07:58 16.10.2019
5843 Clouds 23 1017 94 10000 1 170 07:40 16.10.2019
5844 Clouds 23 1017 94 10000 1 170 07:21 16.10.2019
5845 Clouds 24 1017 94 10000 2.6 170 06:46 16.10.2019
5846 Clouds 24 1017 94 10000 2.6 170 06:27 16.10.2019
5847 Clouds 23 1018 94 10000 2.6 160 04:24 16.10.2019
5848 Clouds 24 1018 94 10000 2.1 150 02:50 16.10.2019
5849 Clouds 24 1018 94 10000 2.6 150 01:20 16.10.2019
5850 Clouds 24 1018 94 10000 2.6 150 00:58 16.10.2019
5851 Clouds 24 1018 94 10000 2.6 150 00:58 16.10.2019
5852 Clouds 24 1018 94 10000 3.6 170 00:39 16.10.2019
5853 Clouds 24 1018 94 10000 3.6 170 23:58 15.10.2019
5854 Clouds 24 1017 94 10000 6.2 160 23:38 15.10.2019
5855 Clouds 25 1017 94 10000 6.2 160 23:19 15.10.2019
5856 Clouds 25 1016 88 10000 6.2 170 22:55 15.10.2019
5857 Clouds 25 1016 88 10000 6.2 170 22:37 15.10.2019
5858 Clouds 26 1016 88 10000 6.2 170 22:18 15.10.2019
5859 Clouds 26 1016 78 10000 6.2 160 21:54 15.10.2019
5860 Clouds 26 1016 78 10000 6.2 160 21:36 15.10.2019
5861 Clouds 27 1016 78 10000 6.2 160 21:18 15.10.2019
5862 Clouds 28 1015 69 10000 6.7 170 20:54 15.10.2019
5863 Clouds 28 1015 69 10000 6.7 170 20:54 15.10.2019
5864 Clouds 28 1015 69 10000 6.7 170 20:54 15.10.2019
5865 Clouds 28 1015 69 10000 6.7 170 20:36 15.10.2019
5866 Clouds 28 1015 69 10000 6.7 170 20:18 15.10.2019
5867 Clouds 28 1016 66 10000 6.2 160 19:41 15.10.2019
5868 Clouds 28 1016 66 10000 6.2 160 19:20 15.10.2019
5869 Clouds 28 1016 66 10000 6.2 160 19:20 15.10.2019
5870 Clouds 28 1016 70 10000 5.7 160 18:57 15.10.2019
5871 Clouds 28 1016 70 10000 5.7 160 18:39 15.10.2019
5872 Clouds 28 1016 70 10000 5.7 160 18:20 15.10.2019
5873 Clouds 28 1017 62 10000 4.6 160 17:42 15.10.2019
5874 Clouds 28 1017 62 10000 4.6 160 17:21 15.10.2019
5875 Clouds 28 1017 62 10000 4.6 160 16:59 15.10.2019
5876 Clouds 28 1017 62 10000 4.1 150 16:41 15.10.2019
5877 Clouds 28 1017 62 10000 4.1 150 16:21 15.10.2019
5878 Clouds 28 1017 62 10000 4.1 150 15:56 15.10.2019
5879 Clouds 28 1018 66 10000 2.6 120 15:38 15.10.2019
5880 Clouds 27 1018 66 10000 2.6 120 15:19 15.10.2019
5881 Clouds 27 1018 69 10000 2.1 50 14:55 15.10.2019
5882 Clouds 27 1018 69 10000 2.1 50 14:36 15.10.2019
5883 Clouds 26 1018 69 10000 2.1 50 14:18 15.10.2019
5884 Clouds 26 1018 69 10000 2.6 30 13:43 15.10.2019
5885 Clouds 26 1018 69 10000 2.6 30 13:43 15.10.2019
5886 Clouds 26 1018 69 10000 2.6 30 13:20 15.10.2019
5887 Clouds 24 1017 78 10000 2.1 210 12:56 15.10.2019
5888 Clouds 24 1017 78 10000 2.1 210 12:56 15.10.2019
5889 Clouds 26 1017 78 10000 2.1 210 12:38 15.10.2019
5890 Clouds 23 1017 78 10000 2.1 210 12:19 15.10.2019
5891 Clouds 23 1017 78 10000 2.1 210 12:19 15.10.2019
5892 Clouds 23 1016 88 10000 1.5 180 11:43 15.10.2019
5893 Clouds 24 1016 88 10000 1.5 180 11:20 15.10.2019
5894 Clouds 23 1015 88 10000 2.1 180 10:56 15.10.2019
5895 Clouds 23 1015 88 10000 2.1 180 10:56 15.10.2019
5896 Clouds 23 1015 88 10000 2.1 180 10:37 15.10.2019
5897 Clouds 23 1015 88 10000 2.1 180 10:18 15.10.2019
5898 Clouds 24 1015 83 10000 3.1 200 09:55 15.10.2019
5899 Clouds 24 1015 83 10000 3.1 200 09:36 15.10.2019
5900 Clouds 24 1015 83 10000 3.1 200 09:18 15.10.2019
5901 Clouds 24 1015 94 10000 3.1 190 08:41 15.10.2019
5902 Clouds 24 1015 94 10000 3.1 190 08:20 15.10.2019
5903 Clouds 24 1015 83 10000 2.1 110 07:48 15.10.2019
5904 Clouds 24 1015 83 10000 2.1 110 07:23 15.10.2019
5905 Clouds 24 1016 78 10000 4.6 250 06:58 15.10.2019
5906 Clouds 24 1016 78 10000 4.6 250 06:40 15.10.2019
5907 Clouds 24 1016 78 10000 4.6 250 06:20 15.10.2019
5908 Clouds 24 1015 88 10000 2.6 180 05:37 15.10.2019
5909 Clear 24 1015 100 10000 2.1 130 04:54 15.10.2019
5910 Clear 24 1015 100 10000 2.1 130 04:23 15.10.2019
5911 Clear 24 1015 88 10000 2.1 70 03:35 15.10.2019
5912 Clear 25 1014 83 10000 2.6 160 02:22 15.10.2019
5913 Clear 25 1014 88 10000 1.5 150 01:47 15.10.2019
5914 Clear 24 1014 88 10000 1.5 150 01:18 15.10.2019
5915 Clear 24 1013 88 10000 3.6 170 00:47 15.10.2019
5916 Clear 25 1013 88 10000 3.6 170 00:20 15.10.2019
5917 Clouds 25 1012 88 10000 4.6 150 23:40 14.10.2019
5918 Clouds 25 1012 88 10000 4.6 150 23:19 14.10.2019
5919 Clouds 26 1011 78 10000 6.7 150 22:41 14.10.2019
5920 Clouds 27 1011 78 10000 6.7 150 22:21 14.10.2019
5921 Clouds 27 1011 78 10000 6.7 150 22:21 14.10.2019
5922 Clouds 27 1011 78 10000 6.7 150 21:59 14.10.2019
5923 Clouds 28 1011 74 10000 8.2 190 21:40 14.10.2019
5924 Clouds 29 1011 74 10000 8.2 190 21:21 14.10.2019
5925 Clouds 29 1010 70 10000 7.7 190 20:59 14.10.2019
5926 Clouds 29 1010 70 10000 7.7 190 20:39 14.10.2019
5927 Clouds 29 1010 70 10000 7.7 190 20:20 14.10.2019
5928 Clouds 29 1010 70 10000 7.7 190 19:58 14.10.2019
5929 Clouds 30 1011 62 10000 7.2 180 19:40 14.10.2019
5930 Clouds 31 1011 62 10000 7.2 180 19:22 14.10.2019
5931 Clouds 31 1011 59 10000 7.2 190 18:58 14.10.2019
5932 Clouds 31 1011 59 10000 7.2 190 18:38 14.10.2019
5933 Clouds 31 1011 59 10000 7.2 190 18:18 14.10.2019
5934 Clouds 31 1011 59 10000 7.2 190 18:18 14.10.2019
5935 Clouds 32 1012 79 10000 5.7 140 17:44 14.10.2019
5936 Clouds 31 1012 79 10000 5.7 140 17:25 14.10.2019
5937 -273 0 0 0 0 0 16:59 14.10.2019
5938 Clear 31 1012 74 10000 5.1 150 16:40 14.10.2019
5939 Clear 31 1012 74 10000 5.1 150 16:20 14.10.2019
5940 Clear 31 1012 74 10000 5.1 150 16:20 14.10.2019
5941 Clear 31 1013 83 10000 3.1 140 15:42 14.10.2019
5942 Clear 30 1013 83 10000 3.1 140 15:22 14.10.2019
5943 Clear 30 1013 74 10000 2.6 360 14:56 14.10.2019
5944 Clear 28 1013 74 10000 2.6 360 14:38 14.10.2019
5945 Clear 29 1013 74 10000 2.6 360 14:18 14.10.2019
5946 Clear 26 1013 78 10000 3.1 360 13:42 14.10.2019
5947 Clear 26 1013 78 10000 3.1 360 13:21 14.10.2019
5948 Clear 26 1013 78 10000 3.1 360 13:21 14.10.2019
5949 Clear 26 1012 83 10000 2.1 360 12:54 14.10.2019
5950 Clear 27 1012 83 10000 2.1 360 12:36 14.10.2019
5951 Clear 23 1012 83 10000 2.1 360 12:18 14.10.2019
5952 Clear 22 1011 94 10000 2.6 320 11:43 14.10.2019
5953 Clear 22 1011 94 10000 2.6 320 11:24 14.10.2019
5954 Clear 22 1011 94 10000 2.6 310 10:55 14.10.2019
5955 Clear 23 1011 94 10000 2.6 310 10:37 14.10.2019
5956 Clear 23 1011 94 10000 2.6 310 10:18 14.10.2019
5957 Clear 23 1010 94 10000 2.1 320 09:41 14.10.2019
5958 Clear 23 1010 94 10000 2.1 320 09:41 14.10.2019
5959 Clear 23 1010 94 10000 2.1 320 09:20 14.10.2019
5960 Clear 23 1010 94 10000 3.6 330 08:49 14.10.2019
5961 Clear 23 1010 94 10000 3.6 330 08:23 14.10.2019
5962 Clear 23 1010 88 10000 3.1 340 07:47 14.10.2019
5963 Clear 23 1010 88 10000 3.1 340 07:25 14.10.2019
5964 Clear 24 1011 94 10000 3.1 340 06:58 14.10.2019
5965 Clear 24 1011 94 10000 3.1 340 06:28 14.10.2019
5966 Clear 24 1011 88 10000 1.5 340 05:56 14.10.2019
5967 Clear 24 1011 88 10000 1.5 340 05:25 14.10.2019
5968 Clear 25 1011 74 10000 0.5 170 03:50 14.10.2019
5969 Clear 25 1011 74 10000 0.5 170 03:25 14.10.2019
5970 Clear 26 1011 83 10000 1 190 02:31 14.10.2019
5971 Clear 27 1010 78 10000 2.6 190 01:21 14.10.2019
5972 Clear 28 1010 78 10000 2.1 160 00:42 14.10.2019
5973 Clear 30 1010 78 10000 2.1 160 00:18 14.10.2019
5974 Clear 30 1010 70 10000 3.6 180 23:41 13.10.2019
5975 Clear 33 1010 70 10000 3.6 180 23:19 13.10.2019
5976 Clouds 33 1010 55 10000 4.6 190 22:57 13.10.2019
5977 Clouds 32 1010 55 10000 4.6 190 22:39 13.10.2019
5978 Clouds 35 1010 55 10000 4.6 190 22:20 13.10.2019
5979 Clouds 35 1010 55 10000 4.6 190 22:20 13.10.2019
5980 Clouds 35 1010 59 10000 4.6 180 21:57 13.10.2019
5981 Clouds 35 1010 59 10000 4.6 180 21:36 13.10.2019
5982 Clouds 35 1010 59 10000 4.6 180 21:18 13.10.2019
5983 Clouds 35 1010 84 10000 5.1 170 20:57 13.10.2019
5984 Clouds 35 1010 84 10000 5.1 170 20:56 13.10.2019
5985 Clouds 34 1010 84 10000 5.1 170 20:37 13.10.2019
5986 Clouds 35 1010 84 10000 5.1 170 20:19 13.10.2019
5987 Clouds 35 1010 66 10000 4.6 160 19:55 13.10.2019
5988 Clouds 35 1010 66 10000 4.6 160 19:55 13.10.2019
5989 Clouds 35 1010 66 10000 4.6 160 19:55 13.10.2019
5990 Clouds 35 1010 66 10000 4.6 160 19:37 13.10.2019
5991 Clouds 35 1010 66 10000 4.6 160 19:37 13.10.2019
5992 Clouds 35 1010 66 10000 4.6 160 19:19 13.10.2019
5993 Clouds 35 1011 66 10000 4.1 160 18:55 13.10.2019
5994 Clouds 35 1011 66 10000 4.1 160 18:55 13.10.2019
5995 Clouds 35 1011 66 10000 4.1 160 18:36 13.10.2019
5996 Clouds 34 1011 66 10000 4.1 160 18:18 13.10.2019
5997 Clouds 33 1012 70 10000 3.1 140 17:43 13.10.2019
5998 Clouds 33 1012 70 10000 3.1 140 17:25 13.10.2019
5999 Clear 32 1013 70 10000 2.6 150 16:58 13.10.2019
6000 -273 0 0 0 0 0 16:40 13.10.2019
6001 Clear 32 1013 55 10000 2.1 330 16:18 13.10.2019
6002 Clear 31 1014 66 10000 2.1 340 15:56 13.10.2019
6003 Clear 31 1014 66 10000 2.1 340 15:36 13.10.2019
6004 Clear 29 1014 66 10000 2.1 340 15:18 13.10.2019
6005 -273 0 0 0 0 0 14:56 13.10.2019
6006 Clear 29 1014 78 10000 3.1 330 14:56 13.10.2019
6007 Clear 28 1014 78 10000 3.1 330 14:37 13.10.2019
6008 Clear 28 1014 78 10000 3.1 330 14:18 13.10.2019
6009 Clear 28 1014 83 10000 3.1 340 13:39 13.10.2019
6010 Clear 26 1014 83 10000 3.1 340 13:21 13.10.2019
6011 Clear 25 1013 88 10000 3.1 340 12:57 13.10.2019
6012 Clear 24 1013 88 10000 3.1 340 12:39 13.10.2019
6013 Clear 23 1013 88 10000 3.1 340 12:20 13.10.2019
6014 Clear 22 1012 94 10000 2.6 350 11:58 13.10.2019
6015 Clear 22 1012 94 10000 2.6 350 11:39 13.10.2019
6016 Clear 22 1012 94 10000 2.6 350 11:20 13.10.2019
6017 Clear 22 1012 94 10000 3.6 340 10:43 13.10.2019
6018 Clear 22 1012 94 10000 3.6 340 10:24 13.10.2019
6019 Clear 22 1012 94 10000 2.6 360 09:59 13.10.2019
6020 Clear 22 1012 94 10000 2.6 360 09:39 13.10.2019
6021 Clear 22 1012 94 10000 2.6 360 09:20 13.10.2019
6022 Clear 22 1012 94 10000 1 30 08:43 13.10.2019
6023 Clear 23 1012 94 10000 1 30 08:25 13.10.2019
6024 Clear 23 1012 94 10000 2.1 20 07:51 13.10.2019
6025 Clear 23 1012 94 10000 2.1 20 07:33 13.10.2019
6026 Clear 23 1013 94 10000 1 350 06:53 13.10.2019
6027 Clear 23 1013 94 10000 1 350 06:24 13.10.2019
6028 Clear 24 1013 94 10000 2.1 20 05:21 13.10.2019
6029 Clear 24 1013 94 10000 1 40 04:34 13.10.2019
6030 Clear 24 1013 94 10000 1.5 70 03:34 13.10.2019
6031 Clear 25 1013 94 10000 1 160 02:31 13.10.2019
6032 Clear 25 1013 94 10000 1 160 02:31 13.10.2019
6033 Clear 27 1012 74 10000 1.5 190 01:37 13.10.2019
6034 Clear 27 1012 74 10000 1.5 190 01:18 13.10.2019
6035 Clear 27 1012 69 10000 4.6 190 00:42 13.10.2019
6036 Clear 30 1012 69 10000 4.6 190 00:19 13.10.2019
6037 Clear 30 1012 69 10000 4.6 190 23:42 12.10.2019
6038 Clear 31 1012 69 10000 4.6 190 23:23 12.10.2019
6039 Clear 31 1012 66 10000 6.2 180 22:59 12.10.2019
6040 Clear 32 1012 66 10000 6.2 180 22:40 12.10.2019
6041 Clear 32 1012 66 10000 6.2 180 22:22 12.10.2019
6042 Clear 32 1012 70 10000 5.7 180 21:59 12.10.2019
6043 Clear 30 1012 70 10000 5.7 180 21:40 12.10.2019
6044 Clear 33 1012 70 10000 5.7 180 21:22 12.10.2019
6045 Clear 34 1012 66 10000 5.1 160 20:55 12.10.2019
6046 Clear 34 1012 41 10000 2.6 80 20:36 12.10.2019
6047 Clear 34 1012 66 10000 5.1 160 20:18 12.10.2019
6048 Clear 34 1012 62 10000 3.6 160 19:36 12.10.2019
6049 Clear 34 1012 62 10000 3.6 160 19:18 12.10.2019
6050 Clear 34 1013 62 10000 3.1 160 18:44 12.10.2019
6051 Clear 33 1013 62 10000 3.1 160 18:26 12.10.2019
6052 Clear 32 1013 62 10000 3.1 150 17:46 12.10.2019
6053 Clear 32 1014 43 10000 2.1 360 17:25 12.10.2019
6054 Clear 32 1015 58 10000 3.1 330 16:59 12.10.2019
6055 Clear 32 1015 58 10000 3.1 330 16:40 12.10.2019
6056 Clear 30 1015 58 10000 3.1 330 16:21 12.10.2019
6057 Clear 30 1016 66 10000 3.1 310 15:57 12.10.2019
6058 Clear 30 1016 66 10000 3.1 310 15:38 12.10.2019
6059 Clear 29 1016 66 10000 3.1 310 15:18 12.10.2019
6060 -273 0 0 0 0 0 14:40 12.10.2019
6061 Clear 27 1016 69 10000 2.6 330 14:20 12.10.2019
6062 Clear 27 1016 83 10000 2.6 340 13:51 12.10.2019
6063 Clear 25 1016 83 10000 2.6 340 13:32 12.10.2019
6064 Clear 24 1016 88 10000 2.6 350 12:57 12.10.2019
6065 Clear 25 1016 88 10000 2.6 350 12:38 12.10.2019
6066 Clear 22 1016 88 10000 2.6 350 12:20 12.10.2019
6067 Clear 22 1015 88 10000 2.1 350 11:47 12.10.2019
6068 Clear 21 1015 88 10000 2.1 350 11:24 12.10.2019
6069 Clear 21 1015 88 10000 3.1 10 10:58 12.10.2019
6070 Clear 21 1015 88 10000 3.1 10 10:40 12.10.2019
6071 Clear 21 1015 88 10000 3.1 10 10:21 12.10.2019
6072 Clear 21 1014 100 10000 2.1 340 09:57 12.10.2019
6073 Clear 21 1014 100 10000 2.1 340 09:57 12.10.2019
6074 Clear 21 1014 100 10000 2.1 340 09:38 12.10.2019
6075 Clear 21 1014 100 10000 2.1 340 09:20 12.10.2019
6076 Clear 22 1014 94 10000 0.5 30 08:45 12.10.2019
6077 Clear 22 1014 94 10000 0.5 30 08:25 12.10.2019
6078 Clear 22 1015 94 10000 0.5 350 07:59 12.10.2019
6079 Clear 22 1015 94 10000 0.5 350 07:31 12.10.2019
6080 Clear 22 1015 94 10000 1.5 310 06:38 12.10.2019
6081 Clear 23 1015 88 10000 1.5 320 05:44 12.10.2019
6082 Clear 23 1016 94 10000 1 10 04:43 12.10.2019
6083 Clear 24 1016 83 10000 1 100 03:56 12.10.2019
6084 Clear 24 1016 88 10000 1.5 50 02:54 12.10.2019
6085 Clear 25 1015 88 10000 3.1 180 01:35 12.10.2019
6086 Clear 26 1015 83 10000 4.1 190 00:57 12.10.2019
6087 Clear 26 1015 83 10000 4.1 190 00:38 12.10.2019
6088 Clear 27 1015 78 10000 4.6 190 23:56 11.10.2019
6089 Clear 27 1015 78 10000 4.6 190 23:37 11.10.2019
6090 Clear 29 1015 78 10000 4.6 190 23:19 11.10.2019
6091 Clouds 29 1014 74 10000 4.6 190 22:39 11.10.2019
6092 Clouds 31 1014 74 10000 4.6 190 22:21 11.10.2019
6093 Clouds 31 1014 70 10000 3.6 170 21:55 11.10.2019
6094 Clouds 31 1014 70 10000 3.6 170 21:36 11.10.2019
6095 Clouds 31 1014 70 10000 3.6 170 21:18 11.10.2019
6096 Clouds 31 1014 78 10000 3.6 160 20:43 11.10.2019
6097 Clouds 30 1014 78 10000 3.6 160 20:25 11.10.2019
6098 Clouds 31 1015 66 10000 3.6 160 19:56 11.10.2019
6099 Clouds 31 1015 66 10000 3.6 160 19:38 11.10.2019
6100 Clouds 31 1015 66 10000 3.6 160 19:38 11.10.2019
6101 Clouds 31 1015 66 10000 3.6 160 19:18 11.10.2019
6102 Clouds 30 1015 70 10000 4.1 150 18:57 11.10.2019
6103 Clouds 29 1015 70 10000 4.1 150 18:37 11.10.2019
6104 Clouds 29 1015 70 10000 4.1 150 18:37 11.10.2019
6105 Clouds 30 1015 70 10000 4.1 150 18:19 11.10.2019
6106 Clouds 30 1016 74 10000 3.6 150 17:58 11.10.2019
6107 Clouds 28 1016 74 10000 3.6 150 17:37 11.10.2019
6108 Clouds 29 1016 74 10000 3.6 150 17:18 11.10.2019
6109 Clouds 29 1017 78 10000 2.6 130 16:54 11.10.2019
6110 Clouds 29 1017 78 10000 2.6 130 16:54 11.10.2019
6111 Clouds 29 1017 78 10000 2.6 130 16:36 11.10.2019
6112 Clouds 28 1017 78 10000 2.6 130 16:18 11.10.2019
6113 Clouds 29 1017 69 10000 2.1 320 15:39 11.10.2019
6114 Clouds 27 1017 69 10000 2.1 320 15:19 11.10.2019
6115 Clouds 26 1017 78 10000 1.5 330 14:49 11.10.2019
6116 Clouds 25 1017 78 10000 1.5 330 14:30 11.10.2019
6117 Clouds 25 1018 78 10000 1.5 20 13:58 11.10.2019
6118 Clouds 26 1018 78 10000 1.5 20 13:40 11.10.2019
6119 Clouds 24 1018 78 10000 1.5 20 13:22 11.10.2019
6120 Clouds 23 1017 88 10000 1.5 50 12:56 11.10.2019
6121 Clouds 24 1017 88 10000 1.5 50 12:38 11.10.2019
6122 Clouds 22 1017 88 10000 1.5 50 12:20 11.10.2019
6123 Clouds 21 1016 94 10000 1.5 90 11:55 11.10.2019
6124 Clouds 21 1016 94 10000 1.5 90 11:55 11.10.2019
6125 Clouds 21 1016 94 10000 1.5 90 11:36 11.10.2019
6126 Clouds 21 1016 94 10000 1.5 90 11:18 11.10.2019
6127 Clouds 22 1016 94 10000 1 70 10:41 11.10.2019
6128 Clouds 22 1016 94 10000 1 70 10:23 11.10.2019
6129 Clouds 22 1016 88 10000 1 320 09:57 11.10.2019
6130 Clouds 23 1015 94 10000 0.5 10 09:38 11.10.2019
6131 Clouds 21 1015 94 10000 0.5 10 09:20 11.10.2019
6132 Clouds 21 1015 94 10000 0.5 10 09:20 11.10.2019
6133 Clouds 22 1015 100 10000 1.5 80 08:56 11.10.2019
6134 Clouds 22 1015 100 10000 1.5 80 08:37 11.10.2019
6135 Clouds 21 1015 100 10000 1.5 80 08:19 11.10.2019
6136 Clouds 22 1016 100 10000 0.5 100 07:45 11.10.2019
6137 Clouds 22 1016 100 10000 0.5 100 07:27 11.10.2019
6138 Clouds 22 1017 100 10000 1 80 06:49 11.10.2019
6139 Clouds 22 1017 100 10000 1 80 06:24 11.10.2019
6140 Clouds 22 1017 100 10000 1 80 05:41 11.10.2019
6141 Clouds 22 1017 100 10000 1 80 05:20 11.10.2019
6142 Clouds 22 1018 100 10000 1 100 04:38 11.10.2019
6143 Clouds 22 1018 100 10000 2.6 160 02:47 11.10.2019
6144 Clouds 22 1017 94 10000 2.1 170 00:52 11.10.2019
6145 Clouds 23 1017 94 10000 2.1 170 00:29 11.10.2019
6146 Rain 23 1017 94 10000 1 150 23:48 10.10.2019
6147 Rain 23 1017 94 10000 1 150 23:23 10.10.2019
6148 Clouds 23 1017 94 10000 2.1 160 22:58 10.10.2019
6149 Clouds 23 1017 94 10000 2.1 160 22:39 10.10.2019
6150 Clouds 24 1017 94 10000 2.1 160 22:21 10.10.2019
6151 Rain 24 1017 94 10000 3.6 150 21:58 10.10.2019
6152 Rain 23 1017 94 10000 3.6 150 21:40 10.10.2019
6153 Rain 24 1017 94 10000 3.6 150 21:21 10.10.2019
6154 Clouds 24 1017 94 10000 3.1 160 20:57 10.10.2019
6155 Clouds 24 1017 94 10000 3.1 160 20:57 10.10.2019
6156 Clouds 23 1017 94 10000 3.1 160 20:38 10.10.2019
6157 Clouds 23 1017 94 10000 3.1 160 20:18 10.10.2019
6158 Clouds 24 1017 88 10000 4.1 170 19:54 10.10.2019
6159 Clouds 24 1017 88 10000 4.1 170 19:36 10.10.2019
6160 Clouds 24 1017 88 10000 4.1 170 19:18 10.10.2019
6161 Clouds 24 1018 88 10000 3.6 170 18:41 10.10.2019
6162 Clouds 24 1018 88 10000 3.6 170 18:20 10.10.2019
6163 Clouds 24 1019 88 10000 2.6 160 17:57 10.10.2019
6164 Clouds 23 1019 88 10000 2.6 160 17:37 10.10.2019
6165 Clouds 23 1019 88 10000 2.6 160 17:18 10.10.2019
6166 Rain 23 1019 94 10000 2.1 170 16:48 10.10.2019
6167 Rain 23 1019 94 10000 2.1 170 16:27 10.10.2019
6168 Drizzle 23 1019 83 10000 0.5 130 15:59 10.10.2019
6169 Drizzle 23 1019 83 10000 0.5 130 15:39 10.10.2019
6170 Drizzle 23 1019 83 10000 0.5 130 15:39 10.10.2019
6171 Clouds 22 1019 83 10000 0.5 130 15:20 10.10.2019
6172 Rain 23 1020 83 10000 1.5 170 14:56 10.10.2019
6173 Rain 23 1020 83 10000 1.5 170 14:37 10.10.2019
6174 Rain 22 1020 83 10000 1.5 170 14:18 10.10.2019
6175 Clouds 21 1019 88 10000 2.1 200 13:55 10.10.2019
6176 Clouds 23 1019 88 10000 2.1 200 13:37 10.10.2019
6177 Clouds 21 1019 88 10000 2.1 200 13:18 10.10.2019
6178 Clouds 21 1018 83 10000 1 40 12:41 10.10.2019
6179 Clouds 21 1018 83 10000 1 40 12:20 10.10.2019
6180 Clouds 21 1017 94 10000 1.5 160 11:58 10.10.2019
6181 Clouds 21 1017 94 10000 1.5 160 11:58 10.10.2019
6182 Clouds 22 1017 94 10000 1.5 160 11:39 10.10.2019
6183 Clouds 21 1017 94 10000 1.5 160 11:19 10.10.2019
6184 Clouds 21 1017 83 8000 1.5 110 10:46 10.10.2019
6185 Clouds 21 1017 83 8000 1.5 110 10:27 10.10.2019
6186 Clouds 21 1017 83 8000 2.1 100 09:58 10.10.2019
6187 Clouds 22 1017 83 8000 2.1 100 09:40 10.10.2019
6188 Clouds 21 1017 83 8000 2.1 100 09:22 10.10.2019
6189 Clouds 20 1017 94 8000 1 200 08:58 10.10.2019
6190 Clouds 20 1017 94 8000 1 200 08:38 10.10.2019
6191 Clouds 20 1017 94 8000 1 200 08:38 10.10.2019
6192 Clouds 21 1017 94 8000 1 200 08:19 10.10.2019
6193 Clouds 21 1017 88 8000 2.6 60 07:46 10.10.2019
6194 Clouds 21 1017 88 8000 2.6 60 07:23 10.10.2019
6195 Clouds 21 1018 88 9000 2.1 60 06:55 10.10.2019
6196 Clouds 21 1018 88 9000 2.1 60 06:36 10.10.2019
6197 Rain 21 1018 94 9000 1 70 05:39 10.10.2019
6198 Rain 21 1018 94 9000 1 70 05:18 10.10.2019
6199 Rain 21 1018 94 10000 2.6 110 04:34 10.10.2019
6200 Drizzle 21 1019 100 10000 3.1 170 02:29 10.10.2019
6201 Mist 21 1018 100 5000 2.6 170 01:37 10.10.2019
6202 Mist 21 1018 100 5000 2.6 170 01:37 10.10.2019
6203 Mist 21 1018 100 5000 2.6 170 01:18 10.10.2019
6204 Mist 21 1018 100 5000 2.6 160 00:29 10.10.2019
6205 Mist 21 1018 100 10000 3.1 140 23:42 09.10.2019
6206 Drizzle 21 1018 100 10000 3.1 140 23:24 09.10.2019
6207 Rain 21 1017 100 9000 3.1 170 22:59 09.10.2019
6208 Rain 22 1017 100 9000 3.1 170 22:41 09.10.2019
6209 Rain 21 1017 100 9000 3.1 170 22:22 09.10.2019
6210 Rain 22 1017 88 7000 3.1 10 21:57 09.10.2019
6211 Rain 22 1017 100 9000 4.1 180 21:38 09.10.2019
6212 Rain 22 1017 100 9000 4.1 180 21:19 09.10.2019
6213 Rain 22 1017 94 8000 2.6 180 20:55 09.10.2019
6214 Rain 22 1017 94 8000 2.6 180 20:37 09.10.2019
6215 Rain 22 1017 94 8000 2.6 180 20:18 09.10.2019
6216 Rain 22 1017 94 8000 2.6 180 20:18 09.10.2019
6217 Rain 22 1017 100 10000 1.5 140 19:44 09.10.2019
6218 Rain 22 1017 100 10000 1.5 140 19:23 09.10.2019
6219 Rain 22 1017 100 9000 2.6 340 18:40 09.10.2019
6220 Rain 22 1017 100 9000 2.6 340 18:21 09.10.2019
6221 Rain 22 1018 88 6000 3.1 340 17:59 09.10.2019
6222 Rain 21 1018 100 4000 1 10 17:40 09.10.2019
6223 -273 0 0 0 0 0 17:40 09.10.2019
6224 Rain 21 1018 100 4000 1 10 17:22 09.10.2019
6225 Rain 21 1019 100 4000 2.1 240 16:58 09.10.2019
6226 Rain 21 1019 100 4000 2.1 240 16:40 09.10.2019
6227 Rain 21 1019 100 4000 2.1 240 16:21 09.10.2019
6228 Rain 21 1019 100 4000 4.6 210 15:57 09.10.2019
6229 Rain 21 1019 100 4000 4.6 210 15:38 09.10.2019
6230 Rain 21 1019 100 4000 4.6 210 15:38 09.10.2019
6231 Rain 21 1019 100 4000 4.6 210 15:19 09.10.2019
6232 Rain 21 1018 100 4000 5.1 190 14:56 09.10.2019
6233 Rain 21 1018 100 4000 5.1 190 14:37 09.10.2019
6234 Rain 21 1018 100 4000 5.1 190 14:18 09.10.2019
6235 Rain 21 1018 100 4000 3.6 190 13:39 09.10.2019
6236 Rain 21 1018 100 4000 3.6 190 13:39 09.10.2019
6237 Rain 21 1018 100 4000 4.6 170 13:20 09.10.2019
6238 Rain 21 1017 100 3000 5.1 160 12:57 09.10.2019
6239 Rain 21 1017 100 3000 5.1 160 12:38 09.10.2019
6240 Rain 21 1017 100 3000 5.1 160 12:20 09.10.2019
6241 -273 0 0 0 0 0 11:55 09.10.2019
6242 Rain 21 1017 100 800 5.1 160 11:54 09.10.2019
6243 Rain 21 1016 100 3000 5.7 160 11:36 09.10.2019
6244 Rain 21 1016 100 3000 5.7 160 11:36 09.10.2019
6245 Rain 21 1016 100 3000 5.7 160 11:18 09.10.2019
6246 Rain 21 1015 100 4000 0.5 220 10:42 09.10.2019
6247 Rain 21 1015 100 4000 0.5 220 10:20 09.10.2019
6248 Drizzle 21 1015 94 7000 1 310 09:57 09.10.2019
6249 Drizzle 21 1015 94 7000 1 310 09:38 09.10.2019
6250 Drizzle 21 1015 94 7000 1 310 09:18 09.10.2019
6251 Drizzle 22 1015 94 7000 2.1 310 08:39 09.10.2019
6252 Drizzle 22 1015 94 7000 2.1 310 08:21 09.10.2019
6253 Drizzle 22 1015 94 7000 2.1 310 08:21 09.10.2019
6254 Drizzle 22 1015 94 4000 1.5 160 07:47 09.10.2019
6255 Drizzle 22 1015 94 4000 1.5 160 07:47 09.10.2019
6256 Drizzle 22 1015 94 4000 1.5 160 07:25 09.10.2019
6257 Rain 22 1016 100 7000 1.5 310 06:59 09.10.2019
6258 Rain 22 1016 100 7000 1.5 310 06:41 09.10.2019
6259 Rain 22 1016 94 7000 2.6 200 05:53 09.10.2019
6260 Rain 22 1016 94 7000 2.6 200 05:18 09.10.2019
6261 Rain 22 1017 94 3000 3.1 190 03:49 09.10.2019
6262 Rain 22 1017 100 5000 2.1 200 02:42 09.10.2019
6263 Rain 22 1017 100 6000 3.1 210 01:39 09.10.2019
6264 Rain 22 1017 100 6000 3.1 210 01:39 09.10.2019
6265 Rain 22 1017 100 6000 3.1 210 01:19 09.10.2019
6266 Rain 22 1016 94 4000 4.1 190 00:56 09.10.2019
6267 Rain 22 1016 94 4000 4.1 190 00:37 09.10.2019
6268 Mist 22 1016 88 6000 3.6 240 00:19 09.10.2019
6269 Mist 23 1016 94 4000 5.1 180 23:39 08.10.2019
6270 Mist 23 1016 94 4000 5.1 180 23:18 08.10.2019
6271 Mist 23 1015 100 2000 5.1 190 22:56 08.10.2019
6272 Clouds 23 1015 100 7000 5.1 190 22:37 08.10.2019
6273 Clouds 23 1015 100 7000 5.1 190 22:18 08.10.2019
6274 Clouds 23 1015 94 7000 4.6 190 21:57 08.10.2019
6275 Clouds 23 1015 94 7000 4.6 190 21:38 08.10.2019
6276 Mist 24 1015 94 7000 4.6 190 21:18 08.10.2019
6277 Mist 24 1014 88 7000 5.1 190 20:55 08.10.2019
6278 Mist 24 1014 88 7000 5.1 190 20:55 08.10.2019
6279 Rain 24 1014 88 7000 5.1 190 20:37 08.10.2019
6280 Rain 24 1014 88 7000 5.1 190 20:18 08.10.2019
6281 Rain 24 1015 88 7000 3.6 210 19:56 08.10.2019
6282 Clouds 24 1015 88 7000 3.6 210 19:36 08.10.2019
6283 Clouds 24 1015 88 7000 3.6 210 19:18 08.10.2019
6284 Rain 24 1015 88 7000 4.6 180 18:45 08.10.2019
6285 Rain 25 1015 88 7000 4.6 180 18:25 08.10.2019
6286 Rain 25 1016 83 7000 2.1 150 17:58 08.10.2019
6287 Clouds 25 1016 83 7000 2.1 150 17:39 08.10.2019
6288 Clouds 25 1016 83 7000 2.1 150 17:39 08.10.2019
6289 Clouds 26 1016 83 7000 2.1 150 17:20 08.10.2019
6290 Clouds 26 1016 94 7000 3.6 140 16:56 08.10.2019
6291 -273 0 0 0 0 0 16:56 08.10.2019
6292 Clouds 27 1016 94 7000 3.6 140 16:37 08.10.2019
6293 Rain 25 1016 94 7000 3.6 140 16:19 08.10.2019
6294 Clouds 27 1016 88 6000 1.5 110 15:40 08.10.2019
6295 Clouds 25 1016 88 6000 1.5 110 15:21 08.10.2019
6296 Clouds 24 1016 94 6000 1.5 110 14:57 08.10.2019
6297 Clouds 25 1016 94 6000 1.5 110 14:38 08.10.2019
6298 Mist 24 1016 94 6000 1.5 110 14:20 08.10.2019
6299 Clouds 24 1016 100 6000 1 20 13:55 08.10.2019
6300 Clouds 23 1016 100 6000 1 20 13:37 08.10.2019
6301 Clouds 23 1016 100 6000 1 20 13:18 08.10.2019
6302 Clouds 23 1015 100 6000 2.1 10 12:42 08.10.2019
6303 Clouds 22 1015 100 6000 2.1 10 12:21 08.10.2019
6304 Clouds 22 1014 100 6000 2.1 340 11:59 08.10.2019
6305 Clouds 23 1014 100 6000 2.1 340 11:40 08.10.2019
6306 Clouds 22 1014 100 6000 2.1 340 11:21 08.10.2019
6307 Drizzle 22 1014 100 5000 2.6 340 10:55 08.10.2019
6308 Clouds 22 1014 100 8000 2.6 320 10:36 08.10.2019
6309 Clouds 22 1014 100 8000 2.6 320 10:18 08.10.2019
6310 Rain 22 1014 100 8000 2.1 180 09:41 08.10.2019
6311 Rain 22 1014 100 8000 2.1 180 09:41 08.10.2019
6312 Rain 22 1014 100 8000 2.1 180 09:23 08.10.2019
6313 Rain 22 1014 100 8000 1 120 08:57 08.10.2019
6314 Rain 22 1014 100 8000 1 120 08:39 08.10.2019
6315 Rain 22 1014 100 8000 1 120 08:21 08.10.2019
6316 Rain 22 1014 100 7000 1 110 07:41 08.10.2019
6317 Rain 22 1014 100 7000 1 110 07:20 08.10.2019
6318 Rain 22 1014 100 7000 1 110 07:20 08.10.2019
6319 Rain 23 1015 100 7000 2.1 330 06:47 08.10.2019
6320 Rain 23 1015 100 7000 2.1 330 06:26 08.10.2019
6321 Rain 23 1015 100 10000 2.1 210 05:45 08.10.2019
6322 Rain 23 1015 100 10000 2.1 210 05:24 08.10.2019
6323 Rain 23 1016 94 4000 2.6 240 03:32 08.10.2019
6324 Rain 23 1015 94 10000 4.1 190 02:48 08.10.2019
6325 Rain 23 1015 94 10000 4.1 190 02:29 08.10.2019
6326 Rain 23 1015 94 10000 5.7 180 01:43 08.10.2019
6327 Rain 23 1015 94 10000 5.7 180 01:25 08.10.2019
6328 Clouds 24 1014 94 10000 5.7 170 00:45 08.10.2019
6329 Clouds 23 1014 94 9000 6.7 170 00:20 08.10.2019
6330 Clouds 24 1014 94 9000 6.2 180 23:39 07.10.2019
6331 Clouds 24 1014 94 9000 6.2 180 23:19 07.10.2019
6332 Clouds 24 1013 88 9000 6.7 170 22:55 07.10.2019
6333 Clouds 25 1013 88 9000 6.7 170 22:37 07.10.2019
6334 Clouds 25 1013 88 9000 6.7 170 22:19 07.10.2019
6335 Clouds 25 1013 88 9000 6.2 160 21:55 07.10.2019
6336 Clouds 26 1013 88 9000 6.2 160 21:37 07.10.2019
6337 Clouds 26 1013 88 9000 6.2 160 21:18 07.10.2019
6338 Clouds 26 1013 83 10000 6.7 170 20:57 07.10.2019
6339 Clouds 26 1013 83 10000 6.7 170 20:38 07.10.2019
6340 Clouds 27 1013 83 10000 6.7 170 20:19 07.10.2019
6341 Clouds 27 1013 83 9000 5.7 150 19:56 07.10.2019
6342 Clouds 26 1013 83 9000 5.7 150 19:38 07.10.2019
6343 Clouds 26 1013 83 9000 5.7 150 19:38 07.10.2019
6344 Clouds 27 1013 83 9000 5.7 150 19:18 07.10.2019
6345 Clouds 27 1015 78 9000 5.7 160 18:55 07.10.2019
6346 Clouds 28 1015 78 9000 5.7 160 18:37 07.10.2019
6347 Clouds 27 1015 78 9000 5.7 160 18:18 07.10.2019
6348 Clouds 27 1015 83 9000 5.1 160 17:41 07.10.2019
6349 Clouds 26 1015 83 9000 5.1 160 17:19 07.10.2019
6350 Clouds 26 1016 83 9000 3.6 150 16:55 07.10.2019
6351 Clouds 26 1016 83 9000 3.6 150 16:55 07.10.2019
6352 Clouds 28 1016 83 9000 3.6 150 16:37 07.10.2019
6353 Clouds 26 1016 83 9000 3.6 150 16:18 07.10.2019
6354 Clouds 25 1016 88 10000 3.1 150 15:41 07.10.2019
6355 Clouds 25 1016 88 10000 3.1 150 15:41 07.10.2019
6356 Clouds 26 1016 88 10000 3.1 150 15:41 07.10.2019
6357 Clouds 25 1016 88 10000 3.1 150 15:22 07.10.2019
6358 Clouds 24 1016 94 9000 3.1 140 14:42 07.10.2019
6359 Clouds 25 1016 94 9000 3.1 140 14:42 07.10.2019
6360 Clouds 24 1016 94 9000 3.1 140 14:23 07.10.2019
6361 Clouds 24 1016 88 9000 2.6 130 13:59 07.10.2019
6362 Clouds 25 1016 88 9000 2.6 130 13:40 07.10.2019
6363 Clouds 24 1016 88 9000 2.6 130 13:18 07.10.2019
6364 Clouds 23 1016 88 8000 2.6 170 12:55 07.10.2019
6365 Clouds 24 1016 88 8000 2.6 170 12:36 07.10.2019
6366 Clouds 23 1016 88 8000 2.6 170 12:18 07.10.2019
6367 Clouds 22 1015 94 8000 2.6 180 11:56 07.10.2019
6368 Clouds 22 1015 94 8000 2.6 180 11:36 07.10.2019
6369 Clouds 22 1015 94 8000 2.6 180 11:18 07.10.2019
6370 Clouds 22 1015 94 8000 2.1 180 10:40 07.10.2019
6371 Clouds 22 1015 100 10000 2.1 120 10:20 07.10.2019
6372 Clouds 22 1015 100 10000 2.1 120 09:42 07.10.2019
6373 Clouds 22 1015 100 10000 2.1 120 09:23 07.10.2019
6374 Clouds 23 1015 94 10000 2.1 40 08:56 07.10.2019
6375 Clouds 23 1015 94 10000 2.1 40 08:37 07.10.2019
6376 Clouds 23 1015 94 10000 2.1 40 08:18 07.10.2019
6377 Clouds 23 1015 88 10000 1.5 50 07:41 07.10.2019
6378 Clouds 23 1015 88 10000 1.5 50 07:21 07.10.2019
6379 Clouds 23 1015 88 10000 3.6 330 06:49 07.10.2019
6380 Clouds 23 1015 88 10000 3.6 330 06:27 07.10.2019
6381 Clouds 23 1016 88 10000 3.1 180 05:47 07.10.2019
6382 Clouds 23 1016 88 10000 3.1 180 05:22 07.10.2019
6383 Clouds 23 1016 88 10000 3.1 180 04:25 07.10.2019
6384 Clouds 23 1016 88 10000 4.6 180 03:45 07.10.2019
6385 Clouds 23 1016 88 10000 4.6 180 03:21 07.10.2019
6386 Clouds 24 1016 88 10000 3.1 170 02:22 07.10.2019
6387 Clouds 24 1016 88 10000 3.1 170 02:22 07.10.2019
6388 Clouds 24 1015 88 10000 4.1 170 01:52 07.10.2019
6389 Clouds 24 1015 88 10000 4.1 170 01:21 07.10.2019
6390 Clouds 24 1014 88 10000 3.1 170 00:41 07.10.2019
6391 Clouds 24 1014 88 10000 3.1 170 00:20 07.10.2019
6392 Clouds 24 1014 88 10000 4.1 160 23:54 06.10.2019
6393 Clouds 24 1014 88 10000 4.1 160 23:36 06.10.2019
6394 Clouds 24 1014 88 10000 4.1 160 23:18 06.10.2019
6395 Clouds 25 1013 83 10000 5.1 170 22:41 06.10.2019
6396 Clouds 25 1013 83 10000 5.1 170 22:22 06.10.2019
6397 Clouds 26 1013 74 10000 5.7 180 21:58 06.10.2019
6398 Clouds 26 1013 74 10000 5.7 180 21:38 06.10.2019
6399 Clouds 25 1013 74 10000 5.7 180 21:19 06.10.2019
6400 Clouds 25 1013 74 10000 7.2 190 20:58 06.10.2019
6401 Clouds 26 1013 74 10000 7.2 190 20:40 06.10.2019
6402 Clouds 26 1013 74 10000 7.2 190 20:21 06.10.2019
6403 Clouds 26 1013 69 10000 6.7 180 19:58 06.10.2019
6404 Clouds 27 1013 69 10000 6.7 180 19:38 06.10.2019
6405 Clouds 27 1013 69 10000 6.7 180 19:20 06.10.2019
6406 Clouds 28 1013 66 10000 6.2 170 18:57 06.10.2019
6407 Clouds 28 1013 66 10000 6.2 170 18:39 06.10.2019
6408 Clouds 28 1013 66 10000 6.2 170 18:20 06.10.2019
6409 Clouds 28 1014 66 10000 5.7 180 17:59 06.10.2019
6410 Clouds 30 1014 66 10000 5.7 180 17:39 06.10.2019
6411 Clouds 28 1014 66 10000 5.7 180 17:19 06.10.2019
6412 -273 0 0 0 0 0 16:54 06.10.2019
6413 Clouds 27 1014 69 10000 3.6 170 16:36 06.10.2019
6414 Clouds 27 1014 69 10000 3.6 170 16:18 06.10.2019
6415 Clouds 27 1014 66 10000 3.1 150 15:42 06.10.2019
6416 Clouds 27 1014 66 10000 3.1 150 15:19 06.10.2019
6417 Clouds 27 1014 65 10000 2.6 160 14:44 06.10.2019
6418 Clouds 26 1014 65 10000 2.6 160 14:25 06.10.2019
6419 Clouds 27 1014 74 10000 4.1 190 13:58 06.10.2019
6420 Clouds 25 1014 74 10000 4.1 190 13:39 06.10.2019
6421 Clouds 25 1014 74 10000 4.1 190 13:21 06.10.2019
6422 Clouds 24 1013 83 10000 3.6 190 12:57 06.10.2019
6423 Clouds 24 1013 83 10000 3.6 190 12:39 06.10.2019
6424 Clouds 23 1013 83 10000 3.6 190 12:20 06.10.2019
6425 Clouds 23 1012 88 10000 3.1 200 11:58 06.10.2019
6426 Clouds 24 1012 88 10000 3.1 200 11:39 06.10.2019
6427 Clouds 23 1012 88 10000 3.1 200 11:20 06.10.2019
6428 Clouds 23 1012 88 10000 4.1 200 10:45 06.10.2019
6429 Clouds 23 1012 88 10000 4.1 200 10:26 06.10.2019
6430 Clouds 24 1011 88 10000 4.6 190 09:58 06.10.2019
6431 Clouds 24 1011 88 10000 4.6 190 09:40 06.10.2019
6432 Clouds 24 1011 88 10000 4.6 190 09:19 06.10.2019
6433 Clear 24 1010 83 10000 2.6 190 08:45 06.10.2019
6434 Clear 24 1010 83 10000 2.6 190 08:21 06.10.2019
6435 Clear 23 1010 94 10000 2.1 140 07:57 06.10.2019
6436 Clear 23 1010 94 10000 2.1 140 07:38 06.10.2019
6437 Clear 25 1010 94 10000 1 50 06:32 06.10.2019
6438 Clear 26 1010 78 10000 2.6 320 05:35 06.10.2019
6439 Clear 26 1011 69 10000 3.1 310 04:27 06.10.2019
6440 Clear 27 1010 69 10000 1 300 02:48 06.10.2019
6441 Clear 27 1010 69 10000 1 300 02:28 06.10.2019
6442 Clear 26 1010 69 10000 2.1 20 01:46 06.10.2019
6443 Clear 27 1010 69 10000 2.1 20 01:27 06.10.2019
6444 Clear 27 1010 69 10000 2.1 20 01:27 06.10.2019
6445 Clear 27 1009 69 10000 2.6 150 00:59 06.10.2019
6446 Clear 27 1009 69 10000 2.6 150 00:59 06.10.2019
6447 Clear 28 1009 69 10000 2.6 150 00:31 06.10.2019
6448 Clear 29 1009 65 10000 4.1 180 23:46 05.10.2019
6449 Clear 30 1009 65 10000 4.1 180 23:24 05.10.2019
6450 Clear 31 1009 62 10000 3.1 180 22:59 05.10.2019
6451 Clear 31 1009 62 10000 3.1 180 22:59 05.10.2019
6452 Clear 31 1009 62 10000 3.1 180 22:40 05.10.2019
6453 Clear 31 1009 62 10000 3.1 180 22:21 05.10.2019
6454 Clear 31 1009 62 10000 3.1 180 22:21 05.10.2019
6455 Clouds 31 1009 62 10000 4.1 170 21:59 05.10.2019
6456 Clouds 29 1009 62 10000 4.1 170 21:40 05.10.2019
6457 Clouds 32 1009 62 10000 4.1 170 21:21 05.10.2019
6458 Clear 32 1009 62 10000 5.1 160 20:56 05.10.2019
6459 Clear 33 1009 62 10000 5.1 160 20:38 05.10.2019
6460 Clear 33 1009 62 10000 5.1 160 20:19 05.10.2019
6461 Clouds 33 1010 58 10000 4.6 160 19:40 05.10.2019
6462 Clouds 33 1010 58 10000 4.6 160 19:22 05.10.2019
6463 Clouds 33 1011 58 10000 5.1 160 18:57 05.10.2019
6464 Clouds 31 1011 58 10000 5.1 160 18:39 05.10.2019
6465 Clouds 32 1011 58 10000 5.1 160 18:21 05.10.2019
6466 Clouds 32 1012 55 10000 4.1 160 17:56 05.10.2019
6467 Clouds 32 1012 55 10000 4.1 160 17:37 05.10.2019
6468 Clouds 32 1012 55 10000 4.1 160 17:19 05.10.2019
6469 Clouds 31 1013 58 10000 2.6 130 16:42 05.10.2019
6470 Clouds 30 1013 58 10000 2.6 130 16:22 05.10.2019
6471 Clear 30 1013 48 10000 1.5 320 15:58 05.10.2019
6472 Clear 30 1013 48 10000 1.5 320 15:40 05.10.2019
6473 Clear 29 1013 48 10000 1.5 320 15:21 05.10.2019
6474 Clouds 29 1014 58 10000 1 360 14:58 05.10.2019
6475 Clouds 29 1014 58 10000 1 360 14:58 05.10.2019
6476 Clouds 27 1014 65 10000 1 90 14:40 05.10.2019
6477 Clouds 28 1014 65 10000 1 90 14:20 05.10.2019
6478 Clouds 27 1014 69 10000 1.5 140 13:42 05.10.2019
6479 Clouds 24 1014 69 10000 1.5 140 13:23 05.10.2019
6480 Clouds 24 1014 78 10000 1.5 100 12:47 05.10.2019
6481 Clouds 22 1014 78 10000 1.5 100 12:21 05.10.2019
6482 Clear 21 1014 83 10000 2.03 348.313 11:59 05.10.2019
6483 Clear 22 1014 83 10000 2.03 348.313 11:39 05.10.2019
6484 Clear 22 1014 83 10000 2.03 348.313 11:19 05.10.2019
6485 Clear 23 1013 88 10000 1.5 20 10:45 05.10.2019
6486 Clear 23 1013 88 10000 1.5 20 10:26 05.10.2019
6487 Clear 23 1013 88 10000 1.5 20 10:26 05.10.2019
6488 Clear 23 1013 83 10000 1.5 340 09:59 05.10.2019
6489 Clear 23 1013 83 10000 1.5 340 09:39 05.10.2019
6490 Clear 21 1013 83 10000 1.5 340 09:20 05.10.2019
6491 Clear 22 1013 88 10000 1 30 08:40 05.10.2019
6492 Clear 22 1013 88 10000 1 30 08:21 05.10.2019
6493 Clear 23 1013 83 10000 1.66 344.239 07:58 05.10.2019
6494 Clear 24 1013 83 10000 1.66 344.239 07:37 05.10.2019
6495 Clear 23 1013 83 10000 1.66 344.239 07:19 05.10.2019
6496 Clear 22 1013 83 10000 1 340 06:28 05.10.2019
6497 Clear 22 1014 83 10000 2.1 310 05:52 05.10.2019
6498 Clear 24 1014 78 10000 2.6 300 04:42 05.10.2019
6499 Clear 24 1014 69 10000 1 30 03:29 05.10.2019
6500 Clear 25 1014 74 10000 2.1 70 01:55 05.10.2019
6501 Clear 26 1014 74 10000 2.1 70 01:23 05.10.2019
6502 Clear 26 1014 69 10000 3.1 110 00:45 05.10.2019
6503 Clear 27 1014 69 10000 3.1 110 00:26 05.10.2019
6504 Clear 27 1013 74 10000 3.1 170 23:45 04.10.2019
6505 Clear 28 1013 74 10000 3.1 170 23:26 04.10.2019
6506 Clouds 28 1013 69 10000 3.6 180 22:59 04.10.2019
6507 Clouds 28 1013 69 10000 3.6 180 22:40 04.10.2019
6508 Clouds 29 1013 69 10000 3.6 180 22:22 04.10.2019
6509 Clouds 28 1013 69 10000 4.6 170 21:58 04.10.2019
6510 Clouds 27 1013 69 10000 4.6 170 21:39 04.10.2019
6511 Clouds 30 1013 69 10000 4.6 170 21:21 04.10.2019
6512 Clouds 30 1013 74 10000 5.7 160 20:57 04.10.2019
6513 Clouds 28 1013 74 10000 5.7 160 20:39 04.10.2019
6514 Clouds 29 1013 74 10000 5.7 160 20:21 04.10.2019
6515 Clouds 29 1013 74 10000 5.7 160 20:20 04.10.2019
6516 Clouds 30 1014 69 10000 5.1 160 19:54 04.10.2019
6517 Clouds 29 1014 69 10000 5.1 160 19:36 04.10.2019
6518 Clouds 29 1014 69 10000 5.1 160 19:18 04.10.2019
6519 Clouds 29 1015 65 9000 5.7 170 18:39 04.10.2019
6520 Clouds 28 1015 65 9000 5.7 170 18:19 04.10.2019
6521 Clouds 29 1016 74 9000 6.2 160 17:57 04.10.2019
6522 Clouds 28 1016 74 9000 6.2 160 17:38 04.10.2019
6523 Clouds 28 1016 74 9000 6.2 160 17:20 04.10.2019
6524 Clouds 28 1017 65 9000 2.1 100 16:55 04.10.2019
6525 Clouds 27 1017 65 9000 2.1 100 16:36 04.10.2019
6526 Clouds 27 1017 65 9000 2.1 100 16:18 04.10.2019
6527 Clouds 27 1017 69 9000 1.5 110 15:55 04.10.2019
6528 Clouds 28 1017 65 9000 1.5 20 15:36 04.10.2019
6529 Clouds 25 1017 65 9000 1.5 20 15:18 04.10.2019
6530 Clouds 24 1018 74 9000 3.1 330 14:42 04.10.2019
6531 Clouds 24 1018 74 9000 3.1 330 14:22 04.10.2019
6532 Clouds 24 1018 88 9000 2.6 360 13:59 04.10.2019
6533 Clouds 25 1018 88 9000 2.6 360 13:41 04.10.2019
6534 Clouds 22 1018 88 9000 2.6 360 13:19 04.10.2019
6535 Clouds 21 1017 94 8000 2.6 40 12:46 04.10.2019
6536 Clouds 19 1017 94 8000 2.6 40 12:27 04.10.2019
6537 Clouds 19 1017 94 10000 1.5 100 11:56 04.10.2019
6538 Clouds 19 1017 94 10000 1.5 100 11:56 04.10.2019
6539 Clouds 18 1017 94 10000 1.5 100 11:38 04.10.2019
6540 Clouds 21 1017 94 10000 1.5 100 11:19 04.10.2019
6541 Clouds 21 1017 94 10000 2.1 150 10:39 04.10.2019
6542 Clouds 21 1017 94 10000 2.1 150 10:20 04.10.2019
6543 Clear 21 1016 100 10000 1.5 170 09:45 04.10.2019
6544 Clear 21 1016 100 10000 1.5 170 09:45 04.10.2019
6545 Clear 20 1016 100 10000 1.5 170 09:27 04.10.2019
6546 Clear 21 1016 88 10000 1 140 08:56 04.10.2019
6547 Clear 21 1016 88 10000 1 140 08:37 04.10.2019
6548 Clear 21 1016 88 10000 1 140 08:19 04.10.2019
6549 Clear 21 1017 88 10000 1.5 70 07:43 04.10.2019
6550 Clear 21 1017 88 10000 1.5 70 07:21 04.10.2019
6551 Clear 21 1017 94 10000 1 110 06:42 04.10.2019
6552 Clear 22 1017 94 10000 1 110 06:24 04.10.2019
6553 Clouds 22 1017 94 10000 1.5 190 05:24 04.10.2019
6554 Clear 22 1017 94 10000 2.6 160 04:56 04.10.2019
6555 Clear 22 1017 94 10000 2.6 160 03:43 04.10.2019
6556 Clear 22 1017 94 10000 2.6 140 02:53 04.10.2019
6557 Clouds 23 1016 88 10000 3.1 160 01:55 04.10.2019
6558 Clouds 23 1016 88 10000 3.1 160 01:55 04.10.2019
6559 Clouds 22 1016 88 10000 3.1 160 01:29 04.10.2019
6560 Clouds 23 1016 83 10000 5.7 170 00:56 04.10.2019
6561 Clouds 23 1015 73 10000 6.2 180 23:55 03.10.2019
6562 Clouds 23 1015 73 10000 6.2 180 23:37 03.10.2019
6563 Clouds 24 1015 73 10000 6.2 180 23:18 03.10.2019
6564 Clear 24 1015 57 10000 6.7 190 22:55 03.10.2019
6565 Clear 25 1015 57 10000 6.7 190 22:37 03.10.2019
6566 Clear 25 1015 57 10000 6.7 190 22:18 03.10.2019
6567 Clear 26 1014 57 10000 7.2 190 21:55 03.10.2019
6568 Clear 26 1014 57 10000 7.2 190 21:36 03.10.2019
6569 Clear 26 1014 57 10000 7.2 190 21:18 03.10.2019
6570 Clear 26 1014 57 10000 7.2 190 21:18 03.10.2019
6571 Clear 26 1014 57 10000 7.2 170 20:55 03.10.2019
6572 Clear 26 1014 57 10000 7.2 170 20:37 03.10.2019
6573 Clear 26 1014 57 10000 7.2 170 20:19 03.10.2019
6574 Clear 26 1014 61 10000 7.7 180 19:41 03.10.2019
6575 Clear 27 1014 61 10000 7.7 180 19:22 03.10.2019
6576 Clouds 27 1015 54 10000 6.7 160 18:58 03.10.2019
6577 Clouds 27 1015 54 10000 6.7 160 18:39 03.10.2019
6578 Clouds 27 1015 54 10000 6.7 160 18:19 03.10.2019
6579 Clouds 27 1014 48 10000 6.2 140 17:56 03.10.2019
6580 Clouds 28 1015 58 10000 6.2 170 17:37 03.10.2019
6581 Clouds 28 1015 58 10000 6.2 170 17:19 03.10.2019
6582 Clear 28 1016 65 10000 2.1 120 16:44 03.10.2019
6583 Clear 26 1016 65 10000 2.1 120 16:26 03.10.2019
6584 Clear 26 1016 65 10000 2.1 340 15:56 03.10.2019
6585 Clear 26 1016 65 10000 2.1 340 15:38 03.10.2019
6586 Clear 26 1016 65 10000 2.1 340 15:20 03.10.2019
6587 Clear 25 1016 73 10000 2.1 350 14:46 03.10.2019
6588 Clear 24 1016 73 10000 2.1 350 14:27 03.10.2019
6589 Clear 24 1015 78 10000 1.5 30 13:59 03.10.2019
6590 Clear 24 1015 78 10000 1.5 30 13:41 03.10.2019
6591 Clear 22 1015 78 10000 1.5 30 13:19 03.10.2019
6592 Clear 22 1015 83 10000 2.1 320 12:56 03.10.2019
6593 Clear 23 1015 83 10000 2.1 320 12:38 03.10.2019
6594 Clear 18 1015 83 10000 2.1 320 12:19 03.10.2019
6595 Clear 18 1015 83 10000 2.1 320 12:19 03.10.2019
6596 Clear 17 1014 88 10000 0.5 300 11:41 03.10.2019
6597 Clear 17 1014 88 10000 0.5 300 11:41 03.10.2019
6598 Clear 18 1014 88 10000 0.5 300 11:23 03.10.2019
6599 -273 0 0 0 0 0 10:59 03.10.2019
6600 Clear 19 1013 94 10000 2.1 310 10:40 03.10.2019
6601 Clear 19 1013 94 10000 2.1 310 10:19 03.10.2019
6602 Clear 19 1012 88 10000 1.5 310 09:58 03.10.2019
6603 Clear 19 1012 88 10000 1.5 310 09:40 03.10.2019
6604 Clear 19 1012 88 10000 1.5 310 09:21 03.10.2019
6605 Clear 19 1012 94 10000 2.1 350 08:45 03.10.2019
6606 Clear 19 1012 94 10000 2.1 350 08:27 03.10.2019
6607 Clear 20 1013 88 10000 2.6 20 07:57 03.10.2019
6608 Clear 20 1013 88 10000 2.6 20 07:39 03.10.2019
6609 Clear 20 1013 88 10000 2.6 20 07:19 03.10.2019
6610 Clear 20 1013 78 10000 1 350 06:50 03.10.2019
6611 Clear 20 1013 78 10000 1 350 06:24 03.10.2019
6612 Clear 21 1014 78 10000 4.1 60 05:46 03.10.2019
6613 Clear 21 1014 78 10000 4.1 60 05:20 03.10.2019
6614 Clear 22 1013 73 10000 3.1 90 04:31 03.10.2019
6615 Clear 22 1013 78 10000 3.6 70 03:24 03.10.2019
6616 Clear 22 1013 73 10000 1.5 30 02:39 03.10.2019
6617 Clear 23 1012 69 10000 1.5 70 01:59 03.10.2019
6618 Clear 24 1012 69 10000 1.5 70 01:35 03.10.2019
6619 Clear 24 1012 69 10000 2.6 140 00:51 03.10.2019
6620 Clear 25 1012 69 10000 2.6 140 00:23 03.10.2019
6621 Clear 25 1011 69 10000 6.2 190 23:44 02.10.2019
6622 Clear 28 1011 69 10000 6.2 190 23:22 02.10.2019
6623 Clear 29 1011 57 10000 6.2 190 22:47 02.10.2019
6624 Clear 29 1011 57 10000 6.2 190 22:23 02.10.2019
6625 Clear 29 1011 54 10000 6.2 190 21:58 02.10.2019
6626 Clear 27 1011 54 10000 6.2 190 21:39 02.10.2019
6627 Clear 30 1011 54 10000 6.2 190 21:20 02.10.2019
6628 Clear 30 1012 61 10000 5.1 170 20:57 02.10.2019
6629 Clear 29 1012 61 10000 5.1 170 20:39 02.10.2019
6630 Clear 30 1012 61 10000 5.1 170 20:20 02.10.2019
6631 Clear 30 1012 58 10000 6.2 160 19:57 02.10.2019
6632 Clear 29 1012 58 10000 6.2 160 19:39 02.10.2019
6633 Clear 30 1012 58 10000 6.2 160 19:21 02.10.2019
6634 Clear 30 1013 51 10000 5.1 170 18:57 02.10.2019
6635 Clear 29 1013 51 10000 5.1 170 18:38 02.10.2019
6636 Clear 30 1013 51 10000 5.1 170 18:20 02.10.2019
6637 Clear 28 1014 51 10000 3.6 150 17:56 02.10.2019
6638 Clear 28 1014 51 10000 3.6 150 17:37 02.10.2019
6639 Clear 28 1014 51 10000 3.6 150 17:37 02.10.2019
6640 Clear 28 1014 51 10000 3.6 150 17:19 02.10.2019
6641 Clear 28 1014 51 10000 3.6 150 17:19 02.10.2019
6642 Clear 28 1015 54 10000 2.1 30 16:42 02.10.2019
6643 Clear 26 1015 57 10000 2.1 340 16:22 02.10.2019
6644 Clear 27 1015 57 10000 2.1 340 15:59 02.10.2019
6645 Clear 27 1015 57 10000 2.1 340 15:38 02.10.2019
6646 Clear 27 1015 57 10000 2.1 340 15:20 02.10.2019
6647 Clear 24 1015 69 10000 2.6 320 14:57 02.10.2019
6648 Clear 25 1015 69 10000 2.6 320 14:39 02.10.2019
6649 Clear 25 1015 69 10000 2.6 320 14:20 02.10.2019
6650 Clear 23 1015 73 10000 1.5 360 13:43 02.10.2019
6651 Clear 23 1015 73 10000 1.5 360 13:24 02.10.2019
6652 Clear 20 1014 77 10000 1.5 360 12:58 02.10.2019
6653 Clear 20 1014 77 10000 1.5 360 12:37 02.10.2019
6654 Clear 19 1015 77 10000 1 90 12:18 02.10.2019
6655 Clear 18 1014 82 10000 2.6 10 11:44 02.10.2019
6656 Clear 17 1014 82 10000 2.6 10 11:23 02.10.2019
6657 Clear 19 1014 82 10000 2.1 30 10:42 02.10.2019
6658 Clear 19 1014 82 10000 2.1 30 10:20 02.10.2019
6659 Clear 19 1014 77 10000 2.1 50 09:59 02.10.2019
6660 Clear 19 1014 77 10000 2.1 50 09:37 02.10.2019
6661 Clear 20 1014 77 10000 2.1 50 09:19 02.10.2019
6662 Clear 19 1013 77